<?xml version="1.0" encoding="UTF-8" standalone="no" ?>
<gpx xmlns="http://www.topografix.com/GPX/1/1" xmlns:xsi="http://www.w3.org/2001/XMLSchema-instance" xsi:schemaLocation="http://www.topografix.com/GPX/1/1 http://www.topografix.com/GPX/1/1/gpx.xsd" version="1.1" creator="VisuGPX - https://www.visugpx.com">
  <metadata>
    <name>Plélo : De Plélo à Chatelaudren</name>
    <desc><![CDATA[Un circuit, d\'à peine 12km au départ du bourg de Plélo, emprunte en partie le circuit du bourg et le circuit de l%u2019Étang. Via routes bitumées, chemins empierrés ou sentiers forestiers, vous passerez au Château de la Ville Chevalier puis admirerez la cité de Chatelaudren et son étang avant de retrouver Plélo.]]></desc>
  </metadata>
  <trk>
    <name><![CDATA[Plélo : De Plélo à Chatelaudren_1]]></name>
    <trkseg>
      <trkpt lat="48.55626" lon="-2.94624">
        <ele>19</ele>
        <time>2013-12-02T13:16:44.1Z</time>
      </trkpt>
      <trkpt lat="48.55625" lon="-2.94627">
        <ele>19</ele>
        <time>2013-12-02T13:16:46.1Z</time>
      </trkpt>
      <trkpt lat="48.55625" lon="-2.94629">
        <ele>19</ele>
        <time>2013-12-02T13:16:48.1Z</time>
      </trkpt>
      <trkpt lat="48.55626" lon="-2.94631">
        <ele>19</ele>
        <time>2013-12-02T13:16:50.1Z</time>
      </trkpt>
      <trkpt lat="48.55625" lon="-2.94632">
        <ele>19</ele>
        <time>2013-12-02T13:16:53.1Z</time>
      </trkpt>
      <trkpt lat="48.55625" lon="-2.94633">
        <ele>19</ele>
        <time>2013-12-02T13:16:56.1Z</time>
      </trkpt>
      <trkpt lat="48.55625" lon="-2.94633">
        <ele>19</ele>
        <time>2013-12-02T13:16:58.1Z</time>
      </trkpt>
      <trkpt lat="48.55626" lon="-2.94633">
        <ele>19</ele>
        <time>2013-12-02T13:17:01.1Z</time>
      </trkpt>
      <trkpt lat="48.55624" lon="-2.94634">
        <ele>19</ele>
        <time>2013-12-02T13:17:03.1Z</time>
      </trkpt>
      <trkpt lat="48.55625" lon="-2.94636">
        <ele>20</ele>
        <time>2013-12-02T13:17:05.1Z</time>
      </trkpt>
      <trkpt lat="48.55628" lon="-2.94639">
        <ele>20</ele>
        <time>2013-12-02T13:17:08.1Z</time>
      </trkpt>
      <trkpt lat="48.55631" lon="-2.94641">
        <ele>20</ele>
        <time>2013-12-02T13:17:11.1Z</time>
      </trkpt>
      <trkpt lat="48.55633" lon="-2.94642">
        <ele>20</ele>
        <time>2013-12-02T13:17:13.1Z</time>
      </trkpt>
      <trkpt lat="48.55635" lon="-2.94645">
        <ele>20</ele>
        <time>2013-12-02T13:17:16.1Z</time>
      </trkpt>
      <trkpt lat="48.55637" lon="-2.94648">
        <ele>19</ele>
        <time>2013-12-02T13:17:18.1Z</time>
      </trkpt>
      <trkpt lat="48.55638" lon="-2.94651">
        <ele>19</ele>
        <time>2013-12-02T13:17:21.1Z</time>
      </trkpt>
      <trkpt lat="48.5564" lon="-2.94656">
        <ele>19</ele>
        <time>2013-12-02T13:17:24.1Z</time>
      </trkpt>
      <trkpt lat="48.55641" lon="-2.94657">
        <ele>20</ele>
        <time>2013-12-02T13:17:26.1Z</time>
      </trkpt>
      <trkpt lat="48.55642" lon="-2.94659">
        <ele>19</ele>
        <time>2013-12-02T13:17:29.1Z</time>
      </trkpt>
      <trkpt lat="48.55643" lon="-2.94662">
        <ele>19</ele>
        <time>2013-12-02T13:17:32.1Z</time>
      </trkpt>
      <trkpt lat="48.55645" lon="-2.94664">
        <ele>19</ele>
        <time>2013-12-02T13:17:35.1Z</time>
      </trkpt>
      <trkpt lat="48.55646" lon="-2.94666">
        <ele>18</ele>
        <time>2013-12-02T13:17:38.1Z</time>
      </trkpt>
      <trkpt lat="48.55645" lon="-2.94671">
        <ele>18</ele>
        <time>2013-12-02T13:17:41.1Z</time>
      </trkpt>
      <trkpt lat="48.55643" lon="-2.94675">
        <ele>18</ele>
        <time>2013-12-02T13:17:44.1Z</time>
      </trkpt>
      <trkpt lat="48.55641" lon="-2.94678">
        <ele>18</ele>
        <time>2013-12-02T13:17:46.1Z</time>
      </trkpt>
      <trkpt lat="48.5564" lon="-2.94679">
        <ele>18</ele>
        <time>2013-12-02T13:17:48.1Z</time>
      </trkpt>
      <trkpt lat="48.55638" lon="-2.94683">
        <ele>18</ele>
        <time>2013-12-02T13:17:51.1Z</time>
      </trkpt>
      <trkpt lat="48.55636" lon="-2.94687">
        <ele>18</ele>
        <time>2013-12-02T13:17:54.1Z</time>
      </trkpt>
      <trkpt lat="48.55634" lon="-2.9469">
        <ele>18</ele>
        <time>2013-12-02T13:17:56.1Z</time>
      </trkpt>
      <trkpt lat="48.55632" lon="-2.94695">
        <ele>18</ele>
        <time>2013-12-02T13:17:59.1Z</time>
      </trkpt>
      <trkpt lat="48.5563" lon="-2.94697">
        <ele>18</ele>
        <time>2013-12-02T13:18:01.1Z</time>
      </trkpt>
      <trkpt lat="48.55629" lon="-2.947">
        <ele>18</ele>
        <time>2013-12-02T13:18:03.1Z</time>
      </trkpt>
      <trkpt lat="48.55626" lon="-2.94703">
        <ele>18</ele>
        <time>2013-12-02T13:18:06.1Z</time>
      </trkpt>
      <trkpt lat="48.55624" lon="-2.94706">
        <ele>18</ele>
        <time>2013-12-02T13:18:09.1Z</time>
      </trkpt>
      <trkpt lat="48.55623" lon="-2.94709">
        <ele>19</ele>
        <time>2013-12-02T13:18:11.1Z</time>
      </trkpt>
      <trkpt lat="48.55622" lon="-2.94714">
        <ele>19</ele>
        <time>2013-12-02T13:18:14.1Z</time>
      </trkpt>
      <trkpt lat="48.55622" lon="-2.94717">
        <ele>19</ele>
        <time>2013-12-02T13:18:16.1Z</time>
      </trkpt>
      <trkpt lat="48.55622" lon="-2.94721">
        <ele>19</ele>
        <time>2013-12-02T13:18:19.1Z</time>
      </trkpt>
      <trkpt lat="48.55621" lon="-2.94724">
        <ele>19</ele>
        <time>2013-12-02T13:18:22.1Z</time>
      </trkpt>
      <trkpt lat="48.5562" lon="-2.94727">
        <ele>19</ele>
        <time>2013-12-02T13:18:25.1Z</time>
      </trkpt>
      <trkpt lat="48.55619" lon="-2.94729">
        <ele>19</ele>
        <time>2013-12-02T13:18:28.1Z</time>
      </trkpt>
      <trkpt lat="48.55619" lon="-2.94731">
        <ele>19</ele>
        <time>2013-12-02T13:18:30.1Z</time>
      </trkpt>
      <trkpt lat="48.55619" lon="-2.94733">
        <ele>19</ele>
        <time>2013-12-02T13:18:32.1Z</time>
      </trkpt>
      <trkpt lat="48.55619" lon="-2.94736">
        <ele>19</ele>
        <time>2013-12-02T13:18:35.1Z</time>
      </trkpt>
      <trkpt lat="48.55618" lon="-2.94737">
        <ele>19</ele>
        <time>2013-12-02T13:18:38.1Z</time>
      </trkpt>
      <trkpt lat="48.55616" lon="-2.94739">
        <ele>19</ele>
        <time>2013-12-02T13:18:40.1Z</time>
      </trkpt>
      <trkpt lat="48.55613" lon="-2.94741">
        <ele>19</ele>
        <time>2013-12-02T13:18:43.1Z</time>
      </trkpt>
      <trkpt lat="48.55612" lon="-2.94742">
        <ele>19</ele>
        <time>2013-12-02T13:18:45.1Z</time>
      </trkpt>
      <trkpt lat="48.5561" lon="-2.94744">
        <ele>19</ele>
        <time>2013-12-02T13:18:48.1Z</time>
      </trkpt>
      <trkpt lat="48.55607" lon="-2.94748">
        <ele>18</ele>
        <time>2013-12-02T13:18:51.1Z</time>
      </trkpt>
      <trkpt lat="48.55606" lon="-2.9475">
        <ele>18</ele>
        <time>2013-12-02T13:18:53.1Z</time>
      </trkpt>
      <trkpt lat="48.55602" lon="-2.94751">
        <ele>18</ele>
        <time>2013-12-02T13:18:56.1Z</time>
      </trkpt>
      <trkpt lat="48.55601" lon="-2.94753">
        <ele>19</ele>
        <time>2013-12-02T13:18:58.1Z</time>
      </trkpt>
      <trkpt lat="48.556" lon="-2.94754">
        <ele>19</ele>
        <time>2013-12-02T13:19:01.1Z</time>
      </trkpt>
      <trkpt lat="48.556" lon="-2.94755">
        <ele>19</ele>
        <time>2013-12-02T13:19:04.1Z</time>
      </trkpt>
      <trkpt lat="48.55598" lon="-2.94756">
        <ele>19</ele>
        <time>2013-12-02T13:19:06.1Z</time>
      </trkpt>
      <trkpt lat="48.55593" lon="-2.94756">
        <ele>19</ele>
        <time>2013-12-02T13:19:09.1Z</time>
      </trkpt>
      <trkpt lat="48.55591" lon="-2.94756">
        <ele>19</ele>
        <time>2013-12-02T13:19:11.1Z</time>
      </trkpt>
      <trkpt lat="48.55587" lon="-2.94758">
        <ele>19</ele>
        <time>2013-12-02T13:19:14.1Z</time>
      </trkpt>
      <trkpt lat="48.55584" lon="-2.94758">
        <ele>19</ele>
        <time>2013-12-02T13:19:17.1Z</time>
      </trkpt>
      <trkpt lat="48.5558" lon="-2.94758">
        <ele>19</ele>
        <time>2013-12-02T13:19:20.1Z</time>
      </trkpt>
      <trkpt lat="48.55576" lon="-2.9476">
        <ele>19</ele>
        <time>2013-12-02T13:19:23.1Z</time>
      </trkpt>
      <trkpt lat="48.55572" lon="-2.9476">
        <ele>20</ele>
        <time>2013-12-02T13:19:26.1Z</time>
      </trkpt>
      <trkpt lat="48.5557" lon="-2.94761">
        <ele>20</ele>
        <time>2013-12-02T13:19:28.1Z</time>
      </trkpt>
      <trkpt lat="48.55567" lon="-2.94764">
        <ele>20</ele>
        <time>2013-12-02T13:19:31.1Z</time>
      </trkpt>
      <trkpt lat="48.55566" lon="-2.94768">
        <ele>20</ele>
        <time>2013-12-02T13:19:33.1Z</time>
      </trkpt>
      <trkpt lat="48.55565" lon="-2.94774">
        <ele>20</ele>
        <time>2013-12-02T13:19:36.1Z</time>
      </trkpt>
      <trkpt lat="48.55564" lon="-2.94777">
        <ele>20</ele>
        <time>2013-12-02T13:19:38.1Z</time>
      </trkpt>
      <trkpt lat="48.55563" lon="-2.94783">
        <ele>19</ele>
        <time>2013-12-02T13:19:41.1Z</time>
      </trkpt>
      <trkpt lat="48.55562" lon="-2.94788">
        <ele>19</ele>
        <time>2013-12-02T13:19:43.1Z</time>
      </trkpt>
      <trkpt lat="48.55561" lon="-2.94793">
        <ele>20</ele>
        <time>2013-12-02T13:19:45.1Z</time>
      </trkpt>
      <trkpt lat="48.5556" lon="-2.948">
        <ele>20</ele>
        <time>2013-12-02T13:19:48.1Z</time>
      </trkpt>
      <trkpt lat="48.5556" lon="-2.94806">
        <ele>20</ele>
        <time>2013-12-02T13:19:51.1Z</time>
      </trkpt>
      <trkpt lat="48.5556" lon="-2.94812">
        <ele>20</ele>
        <time>2013-12-02T13:19:54.1Z</time>
      </trkpt>
      <trkpt lat="48.55559" lon="-2.94817">
        <ele>20</ele>
        <time>2013-12-02T13:19:56.1Z</time>
      </trkpt>
      <trkpt lat="48.55559" lon="-2.94821">
        <ele>20</ele>
        <time>2013-12-02T13:19:58.1Z</time>
      </trkpt>
      <trkpt lat="48.55559" lon="-2.94828">
        <ele>20</ele>
        <time>2013-12-02T13:20:01.1Z</time>
      </trkpt>
      <trkpt lat="48.55559" lon="-2.94831">
        <ele>20</ele>
        <time>2013-12-02T13:20:03.1Z</time>
      </trkpt>
      <trkpt lat="48.55558" lon="-2.94838">
        <ele>20</ele>
        <time>2013-12-02T13:20:06.1Z</time>
      </trkpt>
      <trkpt lat="48.55557" lon="-2.94843">
        <ele>20</ele>
        <time>2013-12-02T13:20:08.1Z</time>
      </trkpt>
      <trkpt lat="48.55557" lon="-2.94846">
        <ele>20</ele>
        <time>2013-12-02T13:20:10.1Z</time>
      </trkpt>
      <trkpt lat="48.55556" lon="-2.94851">
        <ele>20</ele>
        <time>2013-12-02T13:20:13.1Z</time>
      </trkpt>
      <trkpt lat="48.55556" lon="-2.94857">
        <ele>20</ele>
        <time>2013-12-02T13:20:16.1Z</time>
      </trkpt>
      <trkpt lat="48.55555" lon="-2.94861">
        <ele>20</ele>
        <time>2013-12-02T13:20:18.1Z</time>
      </trkpt>
      <trkpt lat="48.55555" lon="-2.94866">
        <ele>20</ele>
        <time>2013-12-02T13:20:21.1Z</time>
      </trkpt>
      <trkpt lat="48.55555" lon="-2.9487">
        <ele>20</ele>
        <time>2013-12-02T13:20:23.1Z</time>
      </trkpt>
      <trkpt lat="48.55554" lon="-2.94875">
        <ele>20</ele>
        <time>2013-12-02T13:20:26.1Z</time>
      </trkpt>
      <trkpt lat="48.55554" lon="-2.9488">
        <ele>20</ele>
        <time>2013-12-02T13:20:29.1Z</time>
      </trkpt>
      <trkpt lat="48.55553" lon="-2.94883">
        <ele>20</ele>
        <time>2013-12-02T13:20:31.1Z</time>
      </trkpt>
      <trkpt lat="48.55552" lon="-2.94888">
        <ele>20</ele>
        <time>2013-12-02T13:20:34.1Z</time>
      </trkpt>
      <trkpt lat="48.55551" lon="-2.94892">
        <ele>20</ele>
        <time>2013-12-02T13:20:36.1Z</time>
      </trkpt>
      <trkpt lat="48.5555" lon="-2.94897">
        <ele>20</ele>
        <time>2013-12-02T13:20:39.1Z</time>
      </trkpt>
      <trkpt lat="48.5555" lon="-2.94901">
        <ele>20</ele>
        <time>2013-12-02T13:20:41.1Z</time>
      </trkpt>
      <trkpt lat="48.55549" lon="-2.94907">
        <ele>20</ele>
        <time>2013-12-02T13:20:44.1Z</time>
      </trkpt>
      <trkpt lat="48.55549" lon="-2.94912">
        <ele>21</ele>
        <time>2013-12-02T13:20:47.1Z</time>
      </trkpt>
      <trkpt lat="48.55549" lon="-2.94915">
        <ele>21</ele>
        <time>2013-12-02T13:20:49.1Z</time>
      </trkpt>
      <trkpt lat="48.55548" lon="-2.9492">
        <ele>21</ele>
        <time>2013-12-02T13:20:52.1Z</time>
      </trkpt>
      <trkpt lat="48.55548" lon="-2.94924">
        <ele>21</ele>
        <time>2013-12-02T13:20:55.1Z</time>
      </trkpt>
      <trkpt lat="48.55548" lon="-2.94929">
        <ele>21</ele>
        <time>2013-12-02T13:20:57.1Z</time>
      </trkpt>
      <trkpt lat="48.55549" lon="-2.94933">
        <ele>21</ele>
        <time>2013-12-02T13:21:00.1Z</time>
      </trkpt>
      <trkpt lat="48.5555" lon="-2.94937">
        <ele>21</ele>
        <time>2013-12-02T13:21:02.1Z</time>
      </trkpt>
      <trkpt lat="48.55553" lon="-2.9494">
        <ele>21</ele>
        <time>2013-12-02T13:21:05.1Z</time>
      </trkpt>
      <trkpt lat="48.55554" lon="-2.94943">
        <ele>21</ele>
        <time>2013-12-02T13:21:07.1Z</time>
      </trkpt>
      <trkpt lat="48.55556" lon="-2.94945">
        <ele>21</ele>
        <time>2013-12-02T13:21:09.1Z</time>
      </trkpt>
      <trkpt lat="48.55558" lon="-2.94948">
        <ele>21</ele>
        <time>2013-12-02T13:21:12.1Z</time>
      </trkpt>
      <trkpt lat="48.55561" lon="-2.94949">
        <ele>21</ele>
        <time>2013-12-02T13:21:14.1Z</time>
      </trkpt>
      <trkpt lat="48.55563" lon="-2.94952">
        <ele>20</ele>
        <time>2013-12-02T13:21:16.1Z</time>
      </trkpt>
      <trkpt lat="48.55565" lon="-2.94955">
        <ele>21</ele>
        <time>2013-12-02T13:21:19.1Z</time>
      </trkpt>
      <trkpt lat="48.55567" lon="-2.94957">
        <ele>21</ele>
        <time>2013-12-02T13:21:22.1Z</time>
      </trkpt>
      <trkpt lat="48.55569" lon="-2.94959">
        <ele>21</ele>
        <time>2013-12-02T13:21:24.1Z</time>
      </trkpt>
      <trkpt lat="48.55572" lon="-2.9496">
        <ele>20</ele>
        <time>2013-12-02T13:21:27.1Z</time>
      </trkpt>
      <trkpt lat="48.55574" lon="-2.94962">
        <ele>20</ele>
        <time>2013-12-02T13:21:29.1Z</time>
      </trkpt>
      <trkpt lat="48.55578" lon="-2.94964">
        <ele>20</ele>
        <time>2013-12-02T13:21:32.1Z</time>
      </trkpt>
      <trkpt lat="48.5558" lon="-2.94965">
        <ele>20</ele>
        <time>2013-12-02T13:21:34.1Z</time>
      </trkpt>
      <trkpt lat="48.55584" lon="-2.94967">
        <ele>20</ele>
        <time>2013-12-02T13:21:37.1Z</time>
      </trkpt>
      <trkpt lat="48.55585" lon="-2.94968">
        <ele>20</ele>
        <time>2013-12-02T13:21:39.1Z</time>
      </trkpt>
      <trkpt lat="48.55588" lon="-2.9497">
        <ele>20</ele>
        <time>2013-12-02T13:21:42.1Z</time>
      </trkpt>
      <trkpt lat="48.55591" lon="-2.94973">
        <ele>20</ele>
        <time>2013-12-02T13:21:45.1Z</time>
      </trkpt>
      <trkpt lat="48.55594" lon="-2.94975">
        <ele>20</ele>
        <time>2013-12-02T13:21:48.1Z</time>
      </trkpt>
      <trkpt lat="48.55598" lon="-2.94978">
        <ele>20</ele>
        <time>2013-12-02T13:21:51.1Z</time>
      </trkpt>
      <trkpt lat="48.55601" lon="-2.94983">
        <ele>20</ele>
        <time>2013-12-02T13:21:54.1Z</time>
      </trkpt>
      <trkpt lat="48.55604" lon="-2.94985">
        <ele>19</ele>
        <time>2013-12-02T13:21:57.1Z</time>
      </trkpt>
      <trkpt lat="48.55607" lon="-2.94986">
        <ele>19</ele>
        <time>2013-12-02T13:21:59.1Z</time>
      </trkpt>
      <trkpt lat="48.55611" lon="-2.94987">
        <ele>19</ele>
        <time>2013-12-02T13:22:02.1Z</time>
      </trkpt>
      <trkpt lat="48.55615" lon="-2.9499">
        <ele>19</ele>
        <time>2013-12-02T13:22:05.1Z</time>
      </trkpt>
      <trkpt lat="48.55618" lon="-2.94991">
        <ele>19</ele>
        <time>2013-12-02T13:22:07.1Z</time>
      </trkpt>
      <trkpt lat="48.55622" lon="-2.94992">
        <ele>19</ele>
        <time>2013-12-02T13:22:10.1Z</time>
      </trkpt>
      <trkpt lat="48.55626" lon="-2.94993">
        <ele>19</ele>
        <time>2013-12-02T13:22:13.1Z</time>
      </trkpt>
      <trkpt lat="48.55629" lon="-2.94994">
        <ele>19</ele>
        <time>2013-12-02T13:22:16.1Z</time>
      </trkpt>
      <trkpt lat="48.55632" lon="-2.94995">
        <ele>18</ele>
        <time>2013-12-02T13:22:19.1Z</time>
      </trkpt>
      <trkpt lat="48.55635" lon="-2.94997">
        <ele>18</ele>
        <time>2013-12-02T13:22:22.1Z</time>
      </trkpt>
      <trkpt lat="48.55637" lon="-2.94998">
        <ele>18</ele>
        <time>2013-12-02T13:22:24.1Z</time>
      </trkpt>
      <trkpt lat="48.55639" lon="-2.94999">
        <ele>18</ele>
        <time>2013-12-02T13:22:27.1Z</time>
      </trkpt>
      <trkpt lat="48.55642" lon="-2.95">
        <ele>18</ele>
        <time>2013-12-02T13:22:30.1Z</time>
      </trkpt>
      <trkpt lat="48.55644" lon="-2.94999">
        <ele>18</ele>
        <time>2013-12-02T13:22:32.1Z</time>
      </trkpt>
      <trkpt lat="48.55647" lon="-2.95">
        <ele>18</ele>
        <time>2013-12-02T13:22:34.1Z</time>
      </trkpt>
      <trkpt lat="48.5565" lon="-2.95">
        <ele>18</ele>
        <time>2013-12-02T13:22:37.1Z</time>
      </trkpt>
      <trkpt lat="48.55654" lon="-2.95">
        <ele>17</ele>
        <time>2013-12-02T13:22:40.1Z</time>
      </trkpt>
      <trkpt lat="48.55656" lon="-2.95001">
        <ele>17</ele>
        <time>2013-12-02T13:22:42.1Z</time>
      </trkpt>
      <trkpt lat="48.55659" lon="-2.95001">
        <ele>17</ele>
        <time>2013-12-02T13:22:45.1Z</time>
      </trkpt>
      <trkpt lat="48.55661" lon="-2.95001">
        <ele>17</ele>
        <time>2013-12-02T13:22:47.1Z</time>
      </trkpt>
      <trkpt lat="48.55664" lon="-2.95">
        <ele>17</ele>
        <time>2013-12-02T13:22:50.1Z</time>
      </trkpt>
      <trkpt lat="48.55666" lon="-2.94999">
        <ele>16</ele>
        <time>2013-12-02T13:22:52.1Z</time>
      </trkpt>
      <trkpt lat="48.55669" lon="-2.94996">
        <ele>16</ele>
        <time>2013-12-02T13:22:55.1Z</time>
      </trkpt>
      <trkpt lat="48.55672" lon="-2.94992">
        <ele>16</ele>
        <time>2013-12-02T13:22:58.1Z</time>
      </trkpt>
      <trkpt lat="48.55675" lon="-2.94988">
        <ele>15</ele>
        <time>2013-12-02T13:23:01.1Z</time>
      </trkpt>
      <trkpt lat="48.55676" lon="-2.94986">
        <ele>15</ele>
        <time>2013-12-02T13:23:03.1Z</time>
      </trkpt>
      <trkpt lat="48.55679" lon="-2.94983">
        <ele>14</ele>
        <time>2013-12-02T13:23:06.1Z</time>
      </trkpt>
      <trkpt lat="48.55682" lon="-2.94982">
        <ele>14</ele>
        <time>2013-12-02T13:23:09.1Z</time>
      </trkpt>
      <trkpt lat="48.55685" lon="-2.94982">
        <ele>14</ele>
        <time>2013-12-02T13:23:11.1Z</time>
      </trkpt>
      <trkpt lat="48.55689" lon="-2.94983">
        <ele>14</ele>
        <time>2013-12-02T13:23:14.1Z</time>
      </trkpt>
      <trkpt lat="48.55693" lon="-2.94985">
        <ele>13</ele>
        <time>2013-12-02T13:23:17.1Z</time>
      </trkpt>
      <trkpt lat="48.55695" lon="-2.94987">
        <ele>13</ele>
        <time>2013-12-02T13:23:19.1Z</time>
      </trkpt>
      <trkpt lat="48.55697" lon="-2.94989">
        <ele>13</ele>
        <time>2013-12-02T13:23:21.1Z</time>
      </trkpt>
      <trkpt lat="48.557" lon="-2.94993">
        <ele>13</ele>
        <time>2013-12-02T13:23:24.1Z</time>
      </trkpt>
      <trkpt lat="48.55701" lon="-2.94996">
        <ele>13</ele>
        <time>2013-12-02T13:23:26.1Z</time>
      </trkpt>
      <trkpt lat="48.55702" lon="-2.94998">
        <ele>13</ele>
        <time>2013-12-02T13:23:28.1Z</time>
      </trkpt>
      <trkpt lat="48.55705" lon="-2.95001">
        <ele>13</ele>
        <time>2013-12-02T13:23:31.1Z</time>
      </trkpt>
      <trkpt lat="48.55707" lon="-2.95004">
        <ele>13</ele>
        <time>2013-12-02T13:23:34.1Z</time>
      </trkpt>
      <trkpt lat="48.55709" lon="-2.95008">
        <ele>13</ele>
        <time>2013-12-02T13:23:37.1Z</time>
      </trkpt>
      <trkpt lat="48.55711" lon="-2.95011">
        <ele>13</ele>
        <time>2013-12-02T13:23:39.1Z</time>
      </trkpt>
      <trkpt lat="48.55712" lon="-2.95013">
        <ele>13</ele>
        <time>2013-12-02T13:23:41.1Z</time>
      </trkpt>
      <trkpt lat="48.55715" lon="-2.95018">
        <ele>13</ele>
        <time>2013-12-02T13:23:44.1Z</time>
      </trkpt>
      <trkpt lat="48.55717" lon="-2.9502">
        <ele>13</ele>
        <time>2013-12-02T13:23:47.1Z</time>
      </trkpt>
      <trkpt lat="48.55719" lon="-2.95022">
        <ele>13</ele>
        <time>2013-12-02T13:23:49.1Z</time>
      </trkpt>
      <trkpt lat="48.55721" lon="-2.95026">
        <ele>13</ele>
        <time>2013-12-02T13:23:52.1Z</time>
      </trkpt>
      <trkpt lat="48.55722" lon="-2.95029">
        <ele>13</ele>
        <time>2013-12-02T13:23:54.1Z</time>
      </trkpt>
      <trkpt lat="48.55723" lon="-2.95032">
        <ele>13</ele>
        <time>2013-12-02T13:23:56.1Z</time>
      </trkpt>
      <trkpt lat="48.55724" lon="-2.95037">
        <ele>13</ele>
        <time>2013-12-02T13:23:59.1Z</time>
      </trkpt>
      <trkpt lat="48.55724" lon="-2.9504">
        <ele>14</ele>
        <time>2013-12-02T13:24:01.1Z</time>
      </trkpt>
      <trkpt lat="48.55724" lon="-2.95046">
        <ele>14</ele>
        <time>2013-12-02T13:24:04.1Z</time>
      </trkpt>
      <trkpt lat="48.55724" lon="-2.9505">
        <ele>14</ele>
        <time>2013-12-02T13:24:06.1Z</time>
      </trkpt>
      <trkpt lat="48.55725" lon="-2.95055">
        <ele>14</ele>
        <time>2013-12-02T13:24:09.1Z</time>
      </trkpt>
      <trkpt lat="48.55725" lon="-2.95059">
        <ele>14</ele>
        <time>2013-12-02T13:24:11.1Z</time>
      </trkpt>
      <trkpt lat="48.55727" lon="-2.95064">
        <ele>14</ele>
        <time>2013-12-02T13:24:14.1Z</time>
      </trkpt>
      <trkpt lat="48.55729" lon="-2.9507">
        <ele>14</ele>
        <time>2013-12-02T13:24:17.1Z</time>
      </trkpt>
      <trkpt lat="48.5573" lon="-2.95074">
        <ele>14</ele>
        <time>2013-12-02T13:24:19.1Z</time>
      </trkpt>
      <trkpt lat="48.55731" lon="-2.95077">
        <ele>14</ele>
        <time>2013-12-02T13:24:21.1Z</time>
      </trkpt>
      <trkpt lat="48.55731" lon="-2.95082">
        <ele>15</ele>
        <time>2013-12-02T13:24:24.1Z</time>
      </trkpt>
      <trkpt lat="48.55732" lon="-2.95086">
        <ele>14</ele>
        <time>2013-12-02T13:24:26.1Z</time>
      </trkpt>
      <trkpt lat="48.55732" lon="-2.95093">
        <ele>15</ele>
        <time>2013-12-02T13:24:29.1Z</time>
      </trkpt>
      <trkpt lat="48.55733" lon="-2.95097">
        <ele>15</ele>
        <time>2013-12-02T13:24:31.1Z</time>
      </trkpt>
      <trkpt lat="48.55734" lon="-2.95101">
        <ele>15</ele>
        <time>2013-12-02T13:24:33.1Z</time>
      </trkpt>
      <trkpt lat="48.55735" lon="-2.95105">
        <ele>15</ele>
        <time>2013-12-02T13:24:36.1Z</time>
      </trkpt>
      <trkpt lat="48.55736" lon="-2.9511">
        <ele>15</ele>
        <time>2013-12-02T13:24:38.1Z</time>
      </trkpt>
      <trkpt lat="48.55737" lon="-2.95113">
        <ele>16</ele>
        <time>2013-12-02T13:24:40.1Z</time>
      </trkpt>
      <trkpt lat="48.55739" lon="-2.95116">
        <ele>16</ele>
        <time>2013-12-02T13:24:42.1Z</time>
      </trkpt>
      <trkpt lat="48.5574" lon="-2.95122">
        <ele>16</ele>
        <time>2013-12-02T13:24:45.1Z</time>
      </trkpt>
      <trkpt lat="48.55742" lon="-2.95125">
        <ele>16</ele>
        <time>2013-12-02T13:24:47.1Z</time>
      </trkpt>
      <trkpt lat="48.55744" lon="-2.95127">
        <ele>16</ele>
        <time>2013-12-02T13:24:49.1Z</time>
      </trkpt>
      <trkpt lat="48.55746" lon="-2.95131">
        <ele>16</ele>
        <time>2013-12-02T13:24:52.1Z</time>
      </trkpt>
      <trkpt lat="48.55749" lon="-2.95135">
        <ele>16</ele>
        <time>2013-12-02T13:24:55.1Z</time>
      </trkpt>
      <trkpt lat="48.55751" lon="-2.95138">
        <ele>16</ele>
        <time>2013-12-02T13:24:57.1Z</time>
      </trkpt>
      <trkpt lat="48.55753" lon="-2.95142">
        <ele>16</ele>
        <time>2013-12-02T13:25:00.1Z</time>
      </trkpt>
      <trkpt lat="48.55754" lon="-2.95144">
        <ele>16</ele>
        <time>2013-12-02T13:25:02.1Z</time>
      </trkpt>
      <trkpt lat="48.55756" lon="-2.95147">
        <ele>16</ele>
        <time>2013-12-02T13:25:04.1Z</time>
      </trkpt>
      <trkpt lat="48.55757" lon="-2.9515">
        <ele>16</ele>
        <time>2013-12-02T13:25:06.1Z</time>
      </trkpt>
      <trkpt lat="48.55758" lon="-2.95153">
        <ele>16</ele>
        <time>2013-12-02T13:25:08.1Z</time>
      </trkpt>
      <trkpt lat="48.5576" lon="-2.95159">
        <ele>16</ele>
        <time>2013-12-02T13:25:11.1Z</time>
      </trkpt>
      <trkpt lat="48.55761" lon="-2.95164">
        <ele>16</ele>
        <time>2013-12-02T13:25:14.1Z</time>
      </trkpt>
      <trkpt lat="48.55761" lon="-2.95171">
        <ele>16</ele>
        <time>2013-12-02T13:25:17.1Z</time>
      </trkpt>
      <trkpt lat="48.55762" lon="-2.95177">
        <ele>16</ele>
        <time>2013-12-02T13:25:20.1Z</time>
      </trkpt>
      <trkpt lat="48.55764" lon="-2.95181">
        <ele>16</ele>
        <time>2013-12-02T13:25:22.1Z</time>
      </trkpt>
      <trkpt lat="48.55766" lon="-2.95186">
        <ele>16</ele>
        <time>2013-12-02T13:25:25.1Z</time>
      </trkpt>
      <trkpt lat="48.55768" lon="-2.95191">
        <ele>16</ele>
        <time>2013-12-02T13:25:28.1Z</time>
      </trkpt>
      <trkpt lat="48.55769" lon="-2.95195">
        <ele>16</ele>
        <time>2013-12-02T13:25:30.1Z</time>
      </trkpt>
      <trkpt lat="48.5577" lon="-2.95199">
        <ele>16</ele>
        <time>2013-12-02T13:25:32.1Z</time>
      </trkpt>
      <trkpt lat="48.55771" lon="-2.95205">
        <ele>16</ele>
        <time>2013-12-02T13:25:35.1Z</time>
      </trkpt>
      <trkpt lat="48.55772" lon="-2.95209">
        <ele>16</ele>
        <time>2013-12-02T13:25:37.1Z</time>
      </trkpt>
      <trkpt lat="48.55773" lon="-2.95213">
        <ele>16</ele>
        <time>2013-12-02T13:25:39.1Z</time>
      </trkpt>
      <trkpt lat="48.55775" lon="-2.95218">
        <ele>16</ele>
        <time>2013-12-02T13:25:42.1Z</time>
      </trkpt>
      <trkpt lat="48.55776" lon="-2.95222">
        <ele>16</ele>
        <time>2013-12-02T13:25:44.1Z</time>
      </trkpt>
      <trkpt lat="48.55777" lon="-2.95227">
        <ele>16</ele>
        <time>2013-12-02T13:25:47.1Z</time>
      </trkpt>
      <trkpt lat="48.55779" lon="-2.95233">
        <ele>16</ele>
        <time>2013-12-02T13:25:50.1Z</time>
      </trkpt>
      <trkpt lat="48.5578" lon="-2.95237">
        <ele>16</ele>
        <time>2013-12-02T13:25:52.1Z</time>
      </trkpt>
      <trkpt lat="48.55782" lon="-2.95242">
        <ele>16</ele>
        <time>2013-12-02T13:25:55.1Z</time>
      </trkpt>
      <trkpt lat="48.55783" lon="-2.95247">
        <ele>15</ele>
        <time>2013-12-02T13:25:57.1Z</time>
      </trkpt>
      <trkpt lat="48.55784" lon="-2.95252">
        <ele>15</ele>
        <time>2013-12-02T13:26:00.1Z</time>
      </trkpt>
      <trkpt lat="48.55785" lon="-2.95255">
        <ele>15</ele>
        <time>2013-12-02T13:26:02.1Z</time>
      </trkpt>
      <trkpt lat="48.55786" lon="-2.95261">
        <ele>15</ele>
        <time>2013-12-02T13:26:05.1Z</time>
      </trkpt>
      <trkpt lat="48.55788" lon="-2.95266">
        <ele>15</ele>
        <time>2013-12-02T13:26:08.1Z</time>
      </trkpt>
      <trkpt lat="48.55788" lon="-2.95271">
        <ele>15</ele>
        <time>2013-12-02T13:26:11.1Z</time>
      </trkpt>
      <trkpt lat="48.5579" lon="-2.95275">
        <ele>15</ele>
        <time>2013-12-02T13:26:13.1Z</time>
      </trkpt>
      <trkpt lat="48.55791" lon="-2.9528">
        <ele>15</ele>
        <time>2013-12-02T13:26:16.1Z</time>
      </trkpt>
      <trkpt lat="48.55793" lon="-2.95283">
        <ele>15</ele>
        <time>2013-12-02T13:26:18.1Z</time>
      </trkpt>
      <trkpt lat="48.55794" lon="-2.95285">
        <ele>15</ele>
        <time>2013-12-02T13:26:20.1Z</time>
      </trkpt>
      <trkpt lat="48.55796" lon="-2.95289">
        <ele>14</ele>
        <time>2013-12-02T13:26:23.1Z</time>
      </trkpt>
      <trkpt lat="48.55798" lon="-2.95292">
        <ele>14</ele>
        <time>2013-12-02T13:26:25.1Z</time>
      </trkpt>
      <trkpt lat="48.55799" lon="-2.95295">
        <ele>14</ele>
        <time>2013-12-02T13:26:28.1Z</time>
      </trkpt>
      <trkpt lat="48.558" lon="-2.95299">
        <ele>14</ele>
        <time>2013-12-02T13:26:30.1Z</time>
      </trkpt>
      <trkpt lat="48.55801" lon="-2.95303">
        <ele>14</ele>
        <time>2013-12-02T13:26:32.1Z</time>
      </trkpt>
      <trkpt lat="48.55802" lon="-2.95306">
        <ele>14</ele>
        <time>2013-12-02T13:26:34.1Z</time>
      </trkpt>
      <trkpt lat="48.55806" lon="-2.95314">
        <ele>13</ele>
        <time>2013-12-02T13:26:38.1Z</time>
      </trkpt>
      <trkpt lat="48.55806" lon="-2.95317">
        <ele>13</ele>
        <time>2013-12-02T13:26:41.1Z</time>
      </trkpt>
      <trkpt lat="48.55807" lon="-2.95324">
        <ele>13</ele>
        <time>2013-12-02T13:26:44.1Z</time>
      </trkpt>
      <trkpt lat="48.55808" lon="-2.95327">
        <ele>13</ele>
        <time>2013-12-02T13:26:46.1Z</time>
      </trkpt>
      <trkpt lat="48.5581" lon="-2.95333">
        <ele>13</ele>
        <time>2013-12-02T13:26:49.1Z</time>
      </trkpt>
      <trkpt lat="48.55811" lon="-2.95339">
        <ele>13</ele>
        <time>2013-12-02T13:26:52.1Z</time>
      </trkpt>
      <trkpt lat="48.55814" lon="-2.95344">
        <ele>13</ele>
        <time>2013-12-02T13:26:55.1Z</time>
      </trkpt>
      <trkpt lat="48.55815" lon="-2.95348">
        <ele>13</ele>
        <time>2013-12-02T13:26:57.1Z</time>
      </trkpt>
      <trkpt lat="48.55816" lon="-2.95352">
        <ele>13</ele>
        <time>2013-12-02T13:26:59.1Z</time>
      </trkpt>
      <trkpt lat="48.55818" lon="-2.95357">
        <ele>13</ele>
        <time>2013-12-02T13:27:02.1Z</time>
      </trkpt>
      <trkpt lat="48.55819" lon="-2.95361">
        <ele>13</ele>
        <time>2013-12-02T13:27:04.1Z</time>
      </trkpt>
      <trkpt lat="48.55822" lon="-2.95366">
        <ele>13</ele>
        <time>2013-12-02T13:27:07.1Z</time>
      </trkpt>
      <trkpt lat="48.55823" lon="-2.9537">
        <ele>13</ele>
        <time>2013-12-02T13:27:09.1Z</time>
      </trkpt>
      <trkpt lat="48.55824" lon="-2.95375">
        <ele>13</ele>
        <time>2013-12-02T13:27:12.1Z</time>
      </trkpt>
      <trkpt lat="48.55825" lon="-2.9538">
        <ele>13</ele>
        <time>2013-12-02T13:27:15.1Z</time>
      </trkpt>
      <trkpt lat="48.55826" lon="-2.95385">
        <ele>13</ele>
        <time>2013-12-02T13:27:17.1Z</time>
      </trkpt>
      <trkpt lat="48.55827" lon="-2.95389">
        <ele>14</ele>
        <time>2013-12-02T13:27:19.1Z</time>
      </trkpt>
      <trkpt lat="48.55829" lon="-2.95394">
        <ele>13</ele>
        <time>2013-12-02T13:27:22.1Z</time>
      </trkpt>
      <trkpt lat="48.5583" lon="-2.95398">
        <ele>13</ele>
        <time>2013-12-02T13:27:24.1Z</time>
      </trkpt>
      <trkpt lat="48.55832" lon="-2.95401">
        <ele>13</ele>
        <time>2013-12-02T13:27:26.1Z</time>
      </trkpt>
      <trkpt lat="48.55833" lon="-2.95405">
        <ele>12</ele>
        <time>2013-12-02T13:27:29.1Z</time>
      </trkpt>
      <trkpt lat="48.55835" lon="-2.9541">
        <ele>12</ele>
        <time>2013-12-02T13:27:32.1Z</time>
      </trkpt>
      <trkpt lat="48.55836" lon="-2.95415">
        <ele>12</ele>
        <time>2013-12-02T13:27:35.1Z</time>
      </trkpt>
      <trkpt lat="48.55837" lon="-2.9542">
        <ele>13</ele>
        <time>2013-12-02T13:27:38.1Z</time>
      </trkpt>
      <trkpt lat="48.55838" lon="-2.95423">
        <ele>12</ele>
        <time>2013-12-02T13:27:40.1Z</time>
      </trkpt>
      <trkpt lat="48.55838" lon="-2.95428">
        <ele>13</ele>
        <time>2013-12-02T13:27:43.1Z</time>
      </trkpt>
      <trkpt lat="48.55839" lon="-2.95432">
        <ele>12</ele>
        <time>2013-12-02T13:27:45.1Z</time>
      </trkpt>
      <trkpt lat="48.55841" lon="-2.95437">
        <ele>12</ele>
        <time>2013-12-02T13:27:48.1Z</time>
      </trkpt>
      <trkpt lat="48.55842" lon="-2.95442">
        <ele>12</ele>
        <time>2013-12-02T13:27:51.1Z</time>
      </trkpt>
      <trkpt lat="48.55843" lon="-2.95445">
        <ele>12</ele>
        <time>2013-12-02T13:27:53.1Z</time>
      </trkpt>
      <trkpt lat="48.55844" lon="-2.95451">
        <ele>12</ele>
        <time>2013-12-02T13:27:56.1Z</time>
      </trkpt>
      <trkpt lat="48.55844" lon="-2.95455">
        <ele>12</ele>
        <time>2013-12-02T13:27:58.1Z</time>
      </trkpt>
      <trkpt lat="48.55845" lon="-2.9546">
        <ele>12</ele>
        <time>2013-12-02T13:28:01.1Z</time>
      </trkpt>
      <trkpt lat="48.55846" lon="-2.95464">
        <ele>12</ele>
        <time>2013-12-02T13:28:04.1Z</time>
      </trkpt>
      <trkpt lat="48.55847" lon="-2.95467">
        <ele>12</ele>
        <time>2013-12-02T13:28:06.1Z</time>
      </trkpt>
      <trkpt lat="48.55847" lon="-2.95472">
        <ele>11</ele>
        <time>2013-12-02T13:28:09.1Z</time>
      </trkpt>
      <trkpt lat="48.55847" lon="-2.95475">
        <ele>11</ele>
        <time>2013-12-02T13:28:11.1Z</time>
      </trkpt>
      <trkpt lat="48.55848" lon="-2.95482">
        <ele>11</ele>
        <time>2013-12-02T13:28:14.1Z</time>
      </trkpt>
      <trkpt lat="48.55848" lon="-2.95485">
        <ele>11</ele>
        <time>2013-12-02T13:28:16.1Z</time>
      </trkpt>
      <trkpt lat="48.55849" lon="-2.95491">
        <ele>11</ele>
        <time>2013-12-02T13:28:19.1Z</time>
      </trkpt>
      <trkpt lat="48.55849" lon="-2.95496">
        <ele>11</ele>
        <time>2013-12-02T13:28:22.1Z</time>
      </trkpt>
      <trkpt lat="48.55849" lon="-2.955">
        <ele>11</ele>
        <time>2013-12-02T13:28:24.1Z</time>
      </trkpt>
      <trkpt lat="48.55849" lon="-2.95504">
        <ele>11</ele>
        <time>2013-12-02T13:28:26.1Z</time>
      </trkpt>
      <trkpt lat="48.55849" lon="-2.95509">
        <ele>11</ele>
        <time>2013-12-02T13:28:29.1Z</time>
      </trkpt>
      <trkpt lat="48.55849" lon="-2.95514">
        <ele>11</ele>
        <time>2013-12-02T13:28:32.1Z</time>
      </trkpt>
      <trkpt lat="48.55848" lon="-2.95516">
        <ele>11</ele>
        <time>2013-12-02T13:28:34.1Z</time>
      </trkpt>
      <trkpt lat="48.55848" lon="-2.95522">
        <ele>11</ele>
        <time>2013-12-02T13:28:37.1Z</time>
      </trkpt>
      <trkpt lat="48.55849" lon="-2.95525">
        <ele>11</ele>
        <time>2013-12-02T13:28:39.1Z</time>
      </trkpt>
      <trkpt lat="48.5585" lon="-2.95526">
        <ele>11</ele>
        <time>2013-12-02T13:28:41.1Z</time>
      </trkpt>
      <trkpt lat="48.5585" lon="-2.95527">
        <ele>11</ele>
        <time>2013-12-02T13:28:44.1Z</time>
      </trkpt>
      <trkpt lat="48.5585" lon="-2.95528">
        <ele>11</ele>
        <time>2013-12-02T13:28:46.1Z</time>
      </trkpt>
      <trkpt lat="48.55849" lon="-2.95528">
        <ele>11</ele>
        <time>2013-12-02T13:28:48.1Z</time>
      </trkpt>
      <trkpt lat="48.55845" lon="-2.95529">
        <ele>11</ele>
        <time>2013-12-02T13:28:51.1Z</time>
      </trkpt>
      <trkpt lat="48.55843" lon="-2.95532">
        <ele>11</ele>
        <time>2013-12-02T13:28:53.1Z</time>
      </trkpt>
      <trkpt lat="48.55842" lon="-2.95534">
        <ele>11</ele>
        <time>2013-12-02T13:28:55.1Z</time>
      </trkpt>
      <trkpt lat="48.55839" lon="-2.95537">
        <ele>11</ele>
        <time>2013-12-02T13:28:58.1Z</time>
      </trkpt>
      <trkpt lat="48.55836" lon="-2.9554">
        <ele>11</ele>
        <time>2013-12-02T13:29:00.1Z</time>
      </trkpt>
      <trkpt lat="48.55835" lon="-2.95544">
        <ele>11</ele>
        <time>2013-12-02T13:29:02.1Z</time>
      </trkpt>
      <trkpt lat="48.55832" lon="-2.95549">
        <ele>11</ele>
        <time>2013-12-02T13:29:05.1Z</time>
      </trkpt>
      <trkpt lat="48.55828" lon="-2.95553">
        <ele>11</ele>
        <time>2013-12-02T13:29:08.1Z</time>
      </trkpt>
      <trkpt lat="48.55825" lon="-2.95558">
        <ele>11</ele>
        <time>2013-12-02T13:29:11.1Z</time>
      </trkpt>
      <trkpt lat="48.55823" lon="-2.95561">
        <ele>10</ele>
        <time>2013-12-02T13:29:13.1Z</time>
      </trkpt>
      <trkpt lat="48.5582" lon="-2.95566">
        <ele>10</ele>
        <time>2013-12-02T13:29:16.1Z</time>
      </trkpt>
      <trkpt lat="48.55817" lon="-2.95571">
        <ele>10</ele>
        <time>2013-12-02T13:29:19.1Z</time>
      </trkpt>
      <trkpt lat="48.55814" lon="-2.95575">
        <ele>10</ele>
        <time>2013-12-02T13:29:21.1Z</time>
      </trkpt>
      <trkpt lat="48.55812" lon="-2.95578">
        <ele>10</ele>
        <time>2013-12-02T13:29:23.1Z</time>
      </trkpt>
      <trkpt lat="48.55809" lon="-2.95582">
        <ele>10</ele>
        <time>2013-12-02T13:29:26.1Z</time>
      </trkpt>
      <trkpt lat="48.55806" lon="-2.95586">
        <ele>10</ele>
        <time>2013-12-02T13:29:29.1Z</time>
      </trkpt>
      <trkpt lat="48.55804" lon="-2.9559">
        <ele>10</ele>
        <time>2013-12-02T13:29:31.1Z</time>
      </trkpt>
      <trkpt lat="48.55801" lon="-2.95594">
        <ele>9</ele>
        <time>2013-12-02T13:29:34.1Z</time>
      </trkpt>
      <trkpt lat="48.558" lon="-2.95601">
        <ele>9</ele>
        <time>2013-12-02T13:29:37.1Z</time>
      </trkpt>
      <trkpt lat="48.558" lon="-2.95602">
        <ele>9</ele>
        <time>2013-12-02T13:29:40.1Z</time>
      </trkpt>
      <trkpt lat="48.55801" lon="-2.95602">
        <ele>10</ele>
        <time>2013-12-02T13:29:43.1Z</time>
      </trkpt>
      <trkpt lat="48.558" lon="-2.95603">
        <ele>10</ele>
        <time>2013-12-02T13:29:45.1Z</time>
      </trkpt>
      <trkpt lat="48.558" lon="-2.95605">
        <ele>10</ele>
        <time>2013-12-02T13:29:47.1Z</time>
      </trkpt>
      <trkpt lat="48.55799" lon="-2.95605">
        <ele>9</ele>
        <time>2013-12-02T13:29:50.1Z</time>
      </trkpt>
      <trkpt lat="48.55796" lon="-2.95608">
        <ele>9</ele>
        <time>2013-12-02T13:29:53.1Z</time>
      </trkpt>
      <trkpt lat="48.55793" lon="-2.9561">
        <ele>8</ele>
        <time>2013-12-02T13:29:55.1Z</time>
      </trkpt>
      <trkpt lat="48.55791" lon="-2.95613">
        <ele>8</ele>
        <time>2013-12-02T13:29:58.1Z</time>
      </trkpt>
      <trkpt lat="48.55789" lon="-2.95615">
        <ele>7</ele>
        <time>2013-12-02T13:30:00.1Z</time>
      </trkpt>
      <trkpt lat="48.55786" lon="-2.95617">
        <ele>7</ele>
        <time>2013-12-02T13:30:03.1Z</time>
      </trkpt>
      <trkpt lat="48.55782" lon="-2.9562">
        <ele>7</ele>
        <time>2013-12-02T13:30:06.1Z</time>
      </trkpt>
      <trkpt lat="48.5578" lon="-2.95622">
        <ele>6</ele>
        <time>2013-12-02T13:30:08.1Z</time>
      </trkpt>
      <trkpt lat="48.55776" lon="-2.95623">
        <ele>6</ele>
        <time>2013-12-02T13:30:11.1Z</time>
      </trkpt>
      <trkpt lat="48.55774" lon="-2.95625">
        <ele>6</ele>
        <time>2013-12-02T13:30:13.1Z</time>
      </trkpt>
      <trkpt lat="48.55772" lon="-2.95626">
        <ele>5</ele>
        <time>2013-12-02T13:30:15.1Z</time>
      </trkpt>
      <trkpt lat="48.55767" lon="-2.95627">
        <ele>4</ele>
        <time>2013-12-02T13:30:18.1Z</time>
      </trkpt>
      <trkpt lat="48.55763" lon="-2.95627">
        <ele>4</ele>
        <time>2013-12-02T13:30:21.1Z</time>
      </trkpt>
      <trkpt lat="48.55759" lon="-2.95627">
        <ele>3</ele>
        <time>2013-12-02T13:30:24.1Z</time>
      </trkpt>
      <trkpt lat="48.55756" lon="-2.95627">
        <ele>2</ele>
        <time>2013-12-02T13:30:27.1Z</time>
      </trkpt>
      <trkpt lat="48.55753" lon="-2.95628">
        <ele>1</ele>
        <time>2013-12-02T13:30:30.1Z</time>
      </trkpt>
      <trkpt lat="48.55749" lon="-2.95629">
        <ele>1</ele>
        <time>2013-12-02T13:30:33.1Z</time>
      </trkpt>
      <trkpt lat="48.55746" lon="-2.9563">
        <ele>1</ele>
        <time>2013-12-02T13:30:35.1Z</time>
      </trkpt>
      <trkpt lat="48.55743" lon="-2.95633">
        <ele>96</ele>
        <time>2013-12-02T13:30:38.1Z</time>
      </trkpt>
      <trkpt lat="48.55741" lon="-2.95634">
        <ele>95.6</ele>
        <time>2013-12-02T13:30:40.1Z</time>
      </trkpt>
      <trkpt lat="48.55738" lon="-2.95637">
        <ele>94.9</ele>
        <time>2013-12-02T13:30:43.1Z</time>
      </trkpt>
      <trkpt lat="48.55736" lon="-2.95642">
        <ele>94.4</ele>
        <time>2013-12-02T13:30:46.1Z</time>
      </trkpt>
      <trkpt lat="48.55736" lon="-2.95646">
        <ele>94.2</ele>
        <time>2013-12-02T13:30:49.1Z</time>
      </trkpt>
      <trkpt lat="48.55735" lon="-2.9565">
        <ele>94</ele>
        <time>2013-12-02T13:30:52.1Z</time>
      </trkpt>
      <trkpt lat="48.55735" lon="-2.95653">
        <ele>93.9</ele>
        <time>2013-12-02T13:30:54.1Z</time>
      </trkpt>
      <trkpt lat="48.55736" lon="-2.95656">
        <ele>93.8</ele>
        <time>2013-12-02T13:30:56.1Z</time>
      </trkpt>
      <trkpt lat="48.55735" lon="-2.95662">
        <ele>93.6</ele>
        <time>2013-12-02T13:30:59.1Z</time>
      </trkpt>
      <trkpt lat="48.55736" lon="-2.95667">
        <ele>-1</ele>
        <time>2013-12-02T13:31:02.1Z</time>
      </trkpt>
      <trkpt lat="48.55737" lon="-2.9567">
        <ele>-1</ele>
        <time>2013-12-02T13:31:04.1Z</time>
      </trkpt>
      <trkpt lat="48.55738" lon="-2.95673">
        <ele>-1</ele>
        <time>2013-12-02T13:31:07.1Z</time>
      </trkpt>
      <trkpt lat="48.55738" lon="-2.95677">
        <ele>-1</ele>
        <time>2013-12-02T13:31:10.1Z</time>
      </trkpt>
      <trkpt lat="48.55738" lon="-2.95681">
        <ele>-1</ele>
        <time>2013-12-02T13:31:12.1Z</time>
      </trkpt>
      <trkpt lat="48.55738" lon="-2.95685">
        <ele>-1</ele>
        <time>2013-12-02T13:31:14.1Z</time>
      </trkpt>
      <trkpt lat="48.55738" lon="-2.95691">
        <ele>-1</ele>
        <time>2013-12-02T13:31:17.1Z</time>
      </trkpt>
      <trkpt lat="48.55739" lon="-2.95694">
        <ele>-2</ele>
        <time>2013-12-02T13:31:19.1Z</time>
      </trkpt>
      <trkpt lat="48.5574" lon="-2.957">
        <ele>-2</ele>
        <time>2013-12-02T13:31:22.1Z</time>
      </trkpt>
      <trkpt lat="48.5574" lon="-2.95705">
        <ele>-2</ele>
        <time>2013-12-02T13:31:24.1Z</time>
      </trkpt>
      <trkpt lat="48.55741" lon="-2.9571">
        <ele>-2</ele>
        <time>2013-12-02T13:31:27.1Z</time>
      </trkpt>
      <trkpt lat="48.55742" lon="-2.95715">
        <ele>-3</ele>
        <time>2013-12-02T13:31:30.1Z</time>
      </trkpt>
      <trkpt lat="48.55742" lon="-2.95719">
        <ele>-3</ele>
        <time>2013-12-02T13:31:32.1Z</time>
      </trkpt>
      <trkpt lat="48.55742" lon="-2.95726">
        <ele>-3</ele>
        <time>2013-12-02T13:31:35.1Z</time>
      </trkpt>
      <trkpt lat="48.55743" lon="-2.95729">
        <ele>-3</ele>
        <time>2013-12-02T13:31:37.1Z</time>
      </trkpt>
      <trkpt lat="48.55744" lon="-2.95732">
        <ele>-3</ele>
        <time>2013-12-02T13:31:40.1Z</time>
      </trkpt>
      <trkpt lat="48.55745" lon="-2.95733">
        <ele>-4</ele>
        <time>2013-12-02T13:31:43.1Z</time>
      </trkpt>
      <trkpt lat="48.55746" lon="-2.95735">
        <ele>-3</ele>
        <time>2013-12-02T13:31:45.1Z</time>
      </trkpt>
      <trkpt lat="48.55747" lon="-2.95741">
        <ele>-3</ele>
        <time>2013-12-02T13:31:48.1Z</time>
      </trkpt>
      <trkpt lat="48.55748" lon="-2.95745">
        <ele>-3</ele>
        <time>2013-12-02T13:31:51.1Z</time>
      </trkpt>
      <trkpt lat="48.55748" lon="-2.9575">
        <ele>-4</ele>
        <time>2013-12-02T13:31:54.1Z</time>
      </trkpt>
      <trkpt lat="48.55749" lon="-2.95755">
        <ele>-4</ele>
        <time>2013-12-02T13:31:57.1Z</time>
      </trkpt>
      <trkpt lat="48.55751" lon="-2.95759">
        <ele>-4</ele>
        <time>2013-12-02T13:32:00.1Z</time>
      </trkpt>
      <trkpt lat="48.55752" lon="-2.95762">
        <ele>-4</ele>
        <time>2013-12-02T13:32:02.1Z</time>
      </trkpt>
      <trkpt lat="48.55753" lon="-2.95765">
        <ele>-4</ele>
        <time>2013-12-02T13:32:04.1Z</time>
      </trkpt>
      <trkpt lat="48.55754" lon="-2.95769">
        <ele>-4</ele>
        <time>2013-12-02T13:32:07.1Z</time>
      </trkpt>
      <trkpt lat="48.55755" lon="-2.95773">
        <ele>-4</ele>
        <time>2013-12-02T13:32:09.1Z</time>
      </trkpt>
      <trkpt lat="48.55756" lon="-2.95778">
        <ele>-5</ele>
        <time>2013-12-02T13:32:12.1Z</time>
      </trkpt>
      <trkpt lat="48.55758" lon="-2.95783">
        <ele>-5</ele>
        <time>2013-12-02T13:32:15.1Z</time>
      </trkpt>
      <trkpt lat="48.55759" lon="-2.95787">
        <ele>-5</ele>
        <time>2013-12-02T13:32:17.1Z</time>
      </trkpt>
      <trkpt lat="48.5576" lon="-2.95791">
        <ele>-5</ele>
        <time>2013-12-02T13:32:19.1Z</time>
      </trkpt>
      <trkpt lat="48.55761" lon="-2.95796">
        <ele>-5</ele>
        <time>2013-12-02T13:32:22.1Z</time>
      </trkpt>
      <trkpt lat="48.55761" lon="-2.95802">
        <ele>-5</ele>
        <time>2013-12-02T13:32:25.1Z</time>
      </trkpt>
      <trkpt lat="48.55762" lon="-2.95805">
        <ele>-5</ele>
        <time>2013-12-02T13:32:27.1Z</time>
      </trkpt>
      <trkpt lat="48.55764" lon="-2.9581">
        <ele>-6</ele>
        <time>2013-12-02T13:32:30.1Z</time>
      </trkpt>
      <trkpt lat="48.55765" lon="-2.95812">
        <ele>-6</ele>
        <time>2013-12-02T13:32:32.1Z</time>
      </trkpt>
      <trkpt lat="48.55767" lon="-2.95817">
        <ele>-6</ele>
        <time>2013-12-02T13:32:35.1Z</time>
      </trkpt>
      <trkpt lat="48.55769" lon="-2.95821">
        <ele>-6</ele>
        <time>2013-12-02T13:32:38.1Z</time>
      </trkpt>
      <trkpt lat="48.5577" lon="-2.95824">
        <ele>-6</ele>
        <time>2013-12-02T13:32:40.1Z</time>
      </trkpt>
      <trkpt lat="48.55772" lon="-2.95827">
        <ele>-6</ele>
        <time>2013-12-02T13:32:42.1Z</time>
      </trkpt>
      <trkpt lat="48.55774" lon="-2.95832">
        <ele>-7</ele>
        <time>2013-12-02T13:32:45.1Z</time>
      </trkpt>
      <trkpt lat="48.55775" lon="-2.95836">
        <ele>-7</ele>
        <time>2013-12-02T13:32:47.1Z</time>
      </trkpt>
      <trkpt lat="48.55776" lon="-2.95839">
        <ele>-7</ele>
        <time>2013-12-02T13:32:49.1Z</time>
      </trkpt>
      <trkpt lat="48.55777" lon="-2.95844">
        <ele>-7</ele>
        <time>2013-12-02T13:32:52.1Z</time>
      </trkpt>
      <trkpt lat="48.55779" lon="-2.95847">
        <ele>-7</ele>
        <time>2013-12-02T13:32:54.1Z</time>
      </trkpt>
      <trkpt lat="48.55781" lon="-2.95851">
        <ele>-8</ele>
        <time>2013-12-02T13:32:57.1Z</time>
      </trkpt>
      <trkpt lat="48.55783" lon="-2.95856">
        <ele>-8</ele>
        <time>2013-12-02T13:33:00.1Z</time>
      </trkpt>
      <trkpt lat="48.55784" lon="-2.95859">
        <ele>-8</ele>
        <time>2013-12-02T13:33:02.1Z</time>
      </trkpt>
      <trkpt lat="48.55785" lon="-2.95863">
        <ele>-8</ele>
        <time>2013-12-02T13:33:04.1Z</time>
      </trkpt>
      <trkpt lat="48.55787" lon="-2.95868">
        <ele>-8</ele>
        <time>2013-12-02T13:33:06.1Z</time>
      </trkpt>
      <trkpt lat="48.55788" lon="-2.95871">
        <ele>-8</ele>
        <time>2013-12-02T13:33:09.1Z</time>
      </trkpt>
      <trkpt lat="48.55789" lon="-2.95875">
        <ele>-9</ele>
        <time>2013-12-02T13:33:11.1Z</time>
      </trkpt>
      <trkpt lat="48.55791" lon="-2.95879">
        <ele>-9</ele>
        <time>2013-12-02T13:33:14.1Z</time>
      </trkpt>
      <trkpt lat="48.55793" lon="-2.95884">
        <ele>-9</ele>
        <time>2013-12-02T13:33:17.1Z</time>
      </trkpt>
      <trkpt lat="48.55795" lon="-2.95889">
        <ele>-9</ele>
        <time>2013-12-02T13:33:20.1Z</time>
      </trkpt>
      <trkpt lat="48.55796" lon="-2.95892">
        <ele>-9</ele>
        <time>2013-12-02T13:33:22.1Z</time>
      </trkpt>
      <trkpt lat="48.55799" lon="-2.95897">
        <ele>-10</ele>
        <time>2013-12-02T13:33:25.1Z</time>
      </trkpt>
      <trkpt lat="48.55801" lon="-2.95899">
        <ele>-10</ele>
        <time>2013-12-02T13:33:27.1Z</time>
      </trkpt>
      <trkpt lat="48.55802" lon="-2.95902">
        <ele>-10</ele>
        <time>2013-12-02T13:33:29.1Z</time>
      </trkpt>
      <trkpt lat="48.55805" lon="-2.95906">
        <ele>-10</ele>
        <time>2013-12-02T13:33:32.1Z</time>
      </trkpt>
      <trkpt lat="48.55806" lon="-2.9591">
        <ele>-10</ele>
        <time>2013-12-02T13:33:34.1Z</time>
      </trkpt>
      <trkpt lat="48.55809" lon="-2.95914">
        <ele>-10</ele>
        <time>2013-12-02T13:33:37.1Z</time>
      </trkpt>
      <trkpt lat="48.5581" lon="-2.95917">
        <ele>-11</ele>
        <time>2013-12-02T13:33:39.1Z</time>
      </trkpt>
      <trkpt lat="48.55812" lon="-2.95922">
        <ele>-11</ele>
        <time>2013-12-02T13:33:42.1Z</time>
      </trkpt>
      <trkpt lat="48.55815" lon="-2.95925">
        <ele>-11</ele>
        <time>2013-12-02T13:33:44.1Z</time>
      </trkpt>
      <trkpt lat="48.55816" lon="-2.95928">
        <ele>-11</ele>
        <time>2013-12-02T13:33:47.1Z</time>
      </trkpt>
      <trkpt lat="48.55818" lon="-2.95932">
        <ele>-11</ele>
        <time>2013-12-02T13:33:49.1Z</time>
      </trkpt>
      <trkpt lat="48.5582" lon="-2.95935">
        <ele>-11</ele>
        <time>2013-12-02T13:33:52.1Z</time>
      </trkpt>
      <trkpt lat="48.55823" lon="-2.95939">
        <ele>-11</ele>
        <time>2013-12-02T13:33:54.1Z</time>
      </trkpt>
      <trkpt lat="48.55825" lon="-2.95941">
        <ele>-11</ele>
        <time>2013-12-02T13:33:57.1Z</time>
      </trkpt>
      <trkpt lat="48.55827" lon="-2.95944">
        <ele>-11</ele>
        <time>2013-12-02T13:34:00.1Z</time>
      </trkpt>
      <trkpt lat="48.55828" lon="-2.95949">
        <ele>-11</ele>
        <time>2013-12-02T13:34:03.1Z</time>
      </trkpt>
      <trkpt lat="48.5583" lon="-2.95952">
        <ele>-12</ele>
        <time>2013-12-02T13:34:06.1Z</time>
      </trkpt>
      <trkpt lat="48.55832" lon="-2.95954">
        <ele>-11</ele>
        <time>2013-12-02T13:34:08.1Z</time>
      </trkpt>
      <trkpt lat="48.55833" lon="-2.95956">
        <ele>-11</ele>
        <time>2013-12-02T13:34:11.1Z</time>
      </trkpt>
      <trkpt lat="48.55835" lon="-2.95959">
        <ele>-12</ele>
        <time>2013-12-02T13:34:14.1Z</time>
      </trkpt>
      <trkpt lat="48.55836" lon="-2.95961">
        <ele>-12</ele>
        <time>2013-12-02T13:34:16.1Z</time>
      </trkpt>
      <trkpt lat="48.55838" lon="-2.95965">
        <ele>-12</ele>
        <time>2013-12-02T13:34:19.1Z</time>
      </trkpt>
      <trkpt lat="48.55838" lon="-2.95966">
        <ele>-12</ele>
        <time>2013-12-02T13:34:21.1Z</time>
      </trkpt>
      <trkpt lat="48.55839" lon="-2.95969">
        <ele>-12</ele>
        <time>2013-12-02T13:34:24.1Z</time>
      </trkpt>
      <trkpt lat="48.5584" lon="-2.95972">
        <ele>-12</ele>
        <time>2013-12-02T13:34:26.1Z</time>
      </trkpt>
      <trkpt lat="48.55843" lon="-2.95975">
        <ele>-11</ele>
        <time>2013-12-02T13:34:29.1Z</time>
      </trkpt>
      <trkpt lat="48.55844" lon="-2.95978">
        <ele>-12</ele>
        <time>2013-12-02T13:34:31.1Z</time>
      </trkpt>
      <trkpt lat="48.55846" lon="-2.95981">
        <ele>-12</ele>
        <time>2013-12-02T13:34:34.1Z</time>
      </trkpt>
      <trkpt lat="48.55847" lon="-2.95985">
        <ele>-12</ele>
        <time>2013-12-02T13:34:36.1Z</time>
      </trkpt>
      <trkpt lat="48.55848" lon="-2.95987">
        <ele>-12</ele>
        <time>2013-12-02T13:34:39.1Z</time>
      </trkpt>
      <trkpt lat="48.5585" lon="-2.9599">
        <ele>-12</ele>
        <time>2013-12-02T13:34:42.1Z</time>
      </trkpt>
      <trkpt lat="48.55853" lon="-2.95994">
        <ele>-12</ele>
        <time>2013-12-02T13:34:44.1Z</time>
      </trkpt>
      <trkpt lat="48.55854" lon="-2.95996">
        <ele>-12</ele>
        <time>2013-12-02T13:34:47.1Z</time>
      </trkpt>
      <trkpt lat="48.55856" lon="-2.96">
        <ele>-12</ele>
        <time>2013-12-02T13:34:50.1Z</time>
      </trkpt>
      <trkpt lat="48.55858" lon="-2.96005">
        <ele>-12</ele>
        <time>2013-12-02T13:34:52.1Z</time>
      </trkpt>
      <trkpt lat="48.55859" lon="-2.96008">
        <ele>-12</ele>
        <time>2013-12-02T13:34:55.1Z</time>
      </trkpt>
      <trkpt lat="48.55862" lon="-2.96012">
        <ele>-12</ele>
        <time>2013-12-02T13:34:58.1Z</time>
      </trkpt>
      <trkpt lat="48.55864" lon="-2.96018">
        <ele>-12</ele>
        <time>2013-12-02T13:35:01.1Z</time>
      </trkpt>
      <trkpt lat="48.55867" lon="-2.96022">
        <ele>-12</ele>
        <time>2013-12-02T13:35:04.1Z</time>
      </trkpt>
      <trkpt lat="48.55869" lon="-2.96025">
        <ele>-12</ele>
        <time>2013-12-02T13:35:06.1Z</time>
      </trkpt>
      <trkpt lat="48.55872" lon="-2.9603">
        <ele>-12</ele>
        <time>2013-12-02T13:35:09.1Z</time>
      </trkpt>
      <trkpt lat="48.55874" lon="-2.96034">
        <ele>-12</ele>
        <time>2013-12-02T13:35:11.1Z</time>
      </trkpt>
      <trkpt lat="48.55875" lon="-2.96037">
        <ele>-13</ele>
        <time>2013-12-02T13:35:14.1Z</time>
      </trkpt>
      <trkpt lat="48.55877" lon="-2.96042">
        <ele>-13</ele>
        <time>2013-12-02T13:35:16.1Z</time>
      </trkpt>
      <trkpt lat="48.55879" lon="-2.96046">
        <ele>-13</ele>
        <time>2013-12-02T13:35:19.1Z</time>
      </trkpt>
      <trkpt lat="48.5588" lon="-2.96049">
        <ele>-12</ele>
        <time>2013-12-02T13:35:21.1Z</time>
      </trkpt>
      <trkpt lat="48.55883" lon="-2.96053">
        <ele>-12</ele>
        <time>2013-12-02T13:35:24.1Z</time>
      </trkpt>
      <trkpt lat="48.55885" lon="-2.96059">
        <ele>-13</ele>
        <time>2013-12-02T13:35:27.1Z</time>
      </trkpt>
      <trkpt lat="48.55887" lon="-2.96064">
        <ele>-13</ele>
        <time>2013-12-02T13:35:29.1Z</time>
      </trkpt>
      <trkpt lat="48.55889" lon="-2.96066">
        <ele>-13</ele>
        <time>2013-12-02T13:35:32.1Z</time>
      </trkpt>
      <trkpt lat="48.55891" lon="-2.9607">
        <ele>-13</ele>
        <time>2013-12-02T13:35:34.1Z</time>
      </trkpt>
      <trkpt lat="48.55893" lon="-2.96073">
        <ele>-12</ele>
        <time>2013-12-02T13:35:37.1Z</time>
      </trkpt>
      <trkpt lat="48.55896" lon="-2.96077">
        <ele>-13</ele>
        <time>2013-12-02T13:35:40.1Z</time>
      </trkpt>
      <trkpt lat="48.55899" lon="-2.96081">
        <ele>-13</ele>
        <time>2013-12-02T13:35:43.1Z</time>
      </trkpt>
      <trkpt lat="48.55901" lon="-2.96085">
        <ele>-13</ele>
        <time>2013-12-02T13:35:46.1Z</time>
      </trkpt>
      <trkpt lat="48.55903" lon="-2.96088">
        <ele>-13</ele>
        <time>2013-12-02T13:35:48.1Z</time>
      </trkpt>
      <trkpt lat="48.55904" lon="-2.96091">
        <ele>-13</ele>
        <time>2013-12-02T13:35:51.1Z</time>
      </trkpt>
      <trkpt lat="48.55906" lon="-2.96092">
        <ele>-13</ele>
        <time>2013-12-02T13:35:53.1Z</time>
      </trkpt>
      <trkpt lat="48.55908" lon="-2.96095">
        <ele>-13</ele>
        <time>2013-12-02T13:35:56.1Z</time>
      </trkpt>
      <trkpt lat="48.5591" lon="-2.96098">
        <ele>-13</ele>
        <time>2013-12-02T13:35:59.1Z</time>
      </trkpt>
      <trkpt lat="48.55912" lon="-2.96102">
        <ele>-12</ele>
        <time>2013-12-02T13:36:01.1Z</time>
      </trkpt>
      <trkpt lat="48.55914" lon="-2.96103">
        <ele>-12</ele>
        <time>2013-12-02T13:36:04.1Z</time>
      </trkpt>
      <trkpt lat="48.55915" lon="-2.96106">
        <ele>-12</ele>
        <time>2013-12-02T13:36:06.1Z</time>
      </trkpt>
      <trkpt lat="48.55917" lon="-2.96109">
        <ele>-13</ele>
        <time>2013-12-02T13:36:09.1Z</time>
      </trkpt>
      <trkpt lat="48.55921" lon="-2.96111">
        <ele>-12</ele>
        <time>2013-12-02T13:36:11.1Z</time>
      </trkpt>
      <trkpt lat="48.55924" lon="-2.96112">
        <ele>-12</ele>
        <time>2013-12-02T13:36:14.1Z</time>
      </trkpt>
      <trkpt lat="48.55926" lon="-2.96114">
        <ele>-12</ele>
        <time>2013-12-02T13:36:16.1Z</time>
      </trkpt>
      <trkpt lat="48.5593" lon="-2.96115">
        <ele>-12</ele>
        <time>2013-12-02T13:36:19.1Z</time>
      </trkpt>
      <trkpt lat="48.55933" lon="-2.96116">
        <ele>-12</ele>
        <time>2013-12-02T13:36:21.1Z</time>
      </trkpt>
      <trkpt lat="48.55934" lon="-2.96117">
        <ele>-13</ele>
        <time>2013-12-02T13:36:24.1Z</time>
      </trkpt>
      <trkpt lat="48.55937" lon="-2.96119">
        <ele>-13</ele>
        <time>2013-12-02T13:36:27.1Z</time>
      </trkpt>
      <trkpt lat="48.55939" lon="-2.96119">
        <ele>-13</ele>
        <time>2013-12-02T13:36:29.1Z</time>
      </trkpt>
      <trkpt lat="48.55941" lon="-2.96121">
        <ele>-12</ele>
        <time>2013-12-02T13:36:32.1Z</time>
      </trkpt>
      <trkpt lat="48.55943" lon="-2.96121">
        <ele>-12</ele>
        <time>2013-12-02T13:36:35.1Z</time>
      </trkpt>
      <trkpt lat="48.55946" lon="-2.96122">
        <ele>-12</ele>
        <time>2013-12-02T13:36:38.1Z</time>
      </trkpt>
      <trkpt lat="48.55948" lon="-2.96124">
        <ele>-12</ele>
        <time>2013-12-02T13:36:41.1Z</time>
      </trkpt>
      <trkpt lat="48.55951" lon="-2.96125">
        <ele>-12</ele>
        <time>2013-12-02T13:36:44.1Z</time>
      </trkpt>
      <trkpt lat="48.55953" lon="-2.96126">
        <ele>-12</ele>
        <time>2013-12-02T13:36:46.1Z</time>
      </trkpt>
      <trkpt lat="48.55955" lon="-2.96126">
        <ele>-12</ele>
        <time>2013-12-02T13:36:49.1Z</time>
      </trkpt>
      <trkpt lat="48.55957" lon="-2.96127">
        <ele>-13</ele>
        <time>2013-12-02T13:36:51.1Z</time>
      </trkpt>
      <trkpt lat="48.55959" lon="-2.96128">
        <ele>-13</ele>
        <time>2013-12-02T13:36:54.1Z</time>
      </trkpt>
      <trkpt lat="48.55962" lon="-2.9613">
        <ele>-13</ele>
        <time>2013-12-02T13:36:56.1Z</time>
      </trkpt>
      <trkpt lat="48.55964" lon="-2.96131">
        <ele>-13</ele>
        <time>2013-12-02T13:36:59.1Z</time>
      </trkpt>
      <trkpt lat="48.55967" lon="-2.96132">
        <ele>-12</ele>
        <time>2013-12-02T13:37:01.1Z</time>
      </trkpt>
      <trkpt lat="48.55969" lon="-2.96133">
        <ele>-12</ele>
        <time>2013-12-02T13:37:04.1Z</time>
      </trkpt>
      <trkpt lat="48.55972" lon="-2.96134">
        <ele>-13</ele>
        <time>2013-12-02T13:37:07.1Z</time>
      </trkpt>
      <trkpt lat="48.55975" lon="-2.96134">
        <ele>-13</ele>
        <time>2013-12-02T13:37:09.1Z</time>
      </trkpt>
      <trkpt lat="48.55978" lon="-2.96136">
        <ele>-12</ele>
        <time>2013-12-02T13:37:12.1Z</time>
      </trkpt>
      <trkpt lat="48.55981" lon="-2.96138">
        <ele>-13</ele>
        <time>2013-12-02T13:37:14.1Z</time>
      </trkpt>
      <trkpt lat="48.55985" lon="-2.96141">
        <ele>-13</ele>
        <time>2013-12-02T13:37:18.1Z</time>
      </trkpt>
      <trkpt lat="48.55987" lon="-2.96144">
        <ele>-13</ele>
        <time>2013-12-02T13:37:20.1Z</time>
      </trkpt>
      <trkpt lat="48.55991" lon="-2.96147">
        <ele>-13</ele>
        <time>2013-12-02T13:37:23.1Z</time>
      </trkpt>
      <trkpt lat="48.55995" lon="-2.9615">
        <ele>-13</ele>
        <time>2013-12-02T13:37:25.1Z</time>
      </trkpt>
      <trkpt lat="48.55997" lon="-2.96151">
        <ele>-13</ele>
        <time>2013-12-02T13:37:28.1Z</time>
      </trkpt>
      <trkpt lat="48.56" lon="-2.96154">
        <ele>-13</ele>
        <time>2013-12-02T13:37:30.1Z</time>
      </trkpt>
      <trkpt lat="48.56002" lon="-2.96157">
        <ele>-14</ele>
        <time>2013-12-02T13:37:33.1Z</time>
      </trkpt>
      <trkpt lat="48.56006" lon="-2.96159">
        <ele>-14</ele>
        <time>2013-12-02T13:37:36.1Z</time>
      </trkpt>
      <trkpt lat="48.56008" lon="-2.96159">
        <ele>-13</ele>
        <time>2013-12-02T13:37:38.1Z</time>
      </trkpt>
      <trkpt lat="48.56012" lon="-2.96161">
        <ele>-13</ele>
        <time>2013-12-02T13:37:40.1Z</time>
      </trkpt>
      <trkpt lat="48.56013" lon="-2.96163">
        <ele>-13</ele>
        <time>2013-12-02T13:37:43.1Z</time>
      </trkpt>
      <trkpt lat="48.56017" lon="-2.96164">
        <ele>-13</ele>
        <time>2013-12-02T13:37:45.1Z</time>
      </trkpt>
      <trkpt lat="48.56019" lon="-2.96165">
        <ele>-13</ele>
        <time>2013-12-02T13:37:48.1Z</time>
      </trkpt>
      <trkpt lat="48.56023" lon="-2.96166">
        <ele>-13</ele>
        <time>2013-12-02T13:37:51.1Z</time>
      </trkpt>
      <trkpt lat="48.56026" lon="-2.96168">
        <ele>-13</ele>
        <time>2013-12-02T13:37:54.1Z</time>
      </trkpt>
      <trkpt lat="48.5603" lon="-2.96168">
        <ele>-13</ele>
        <time>2013-12-02T13:37:56.1Z</time>
      </trkpt>
      <trkpt lat="48.56033" lon="-2.96168">
        <ele>-13</ele>
        <time>2013-12-02T13:37:58.1Z</time>
      </trkpt>
      <trkpt lat="48.56035" lon="-2.96169">
        <ele>-13</ele>
        <time>2013-12-02T13:38:00.1Z</time>
      </trkpt>
      <trkpt lat="48.56039" lon="-2.9617">
        <ele>-13</ele>
        <time>2013-12-02T13:38:03.1Z</time>
      </trkpt>
      <trkpt lat="48.56042" lon="-2.9617">
        <ele>-13</ele>
        <time>2013-12-02T13:38:06.1Z</time>
      </trkpt>
      <trkpt lat="48.56046" lon="-2.9617">
        <ele>-13</ele>
        <time>2013-12-02T13:38:09.1Z</time>
      </trkpt>
      <trkpt lat="48.56047" lon="-2.96171">
        <ele>-13</ele>
        <time>2013-12-02T13:38:11.1Z</time>
      </trkpt>
      <trkpt lat="48.56051" lon="-2.96171">
        <ele>-13</ele>
        <time>2013-12-02T13:38:14.1Z</time>
      </trkpt>
      <trkpt lat="48.56055" lon="-2.96174">
        <ele>-13</ele>
        <time>2013-12-02T13:38:16.1Z</time>
      </trkpt>
      <trkpt lat="48.56057" lon="-2.96175">
        <ele>-14</ele>
        <time>2013-12-02T13:38:20.1Z</time>
      </trkpt>
      <trkpt lat="48.5606" lon="-2.96173">
        <ele>-14</ele>
        <time>2013-12-02T13:38:22.1Z</time>
      </trkpt>
      <trkpt lat="48.56065" lon="-2.96173">
        <ele>-14</ele>
        <time>2013-12-02T13:38:25.1Z</time>
      </trkpt>
      <trkpt lat="48.56067" lon="-2.96172">
        <ele>-14</ele>
        <time>2013-12-02T13:38:28.1Z</time>
      </trkpt>
      <trkpt lat="48.56071" lon="-2.96173">
        <ele>-14</ele>
        <time>2013-12-02T13:38:31.1Z</time>
      </trkpt>
      <trkpt lat="48.56073" lon="-2.96174">
        <ele>-14</ele>
        <time>2013-12-02T13:38:33.1Z</time>
      </trkpt>
      <trkpt lat="48.56076" lon="-2.96174">
        <ele>-14</ele>
        <time>2013-12-02T13:38:36.1Z</time>
      </trkpt>
      <trkpt lat="48.56079" lon="-2.96175">
        <ele>-14</ele>
        <time>2013-12-02T13:38:38.1Z</time>
      </trkpt>
      <trkpt lat="48.56081" lon="-2.96173">
        <ele>-14</ele>
        <time>2013-12-02T13:38:40.1Z</time>
      </trkpt>
      <trkpt lat="48.56084" lon="-2.96172">
        <ele>-13</ele>
        <time>2013-12-02T13:38:43.1Z</time>
      </trkpt>
      <trkpt lat="48.56089" lon="-2.96171">
        <ele>-13</ele>
        <time>2013-12-02T13:38:45.1Z</time>
      </trkpt>
      <trkpt lat="48.56093" lon="-2.96171">
        <ele>-13</ele>
        <time>2013-12-02T13:38:48.1Z</time>
      </trkpt>
      <trkpt lat="48.561" lon="-2.96172">
        <ele>-14</ele>
        <time>2013-12-02T13:38:51.1Z</time>
      </trkpt>
      <trkpt lat="48.56106" lon="-2.96171">
        <ele>-14</ele>
        <time>2013-12-02T13:38:54.1Z</time>
      </trkpt>
      <trkpt lat="48.56113" lon="-2.96171">
        <ele>-14</ele>
        <time>2013-12-02T13:38:57.1Z</time>
      </trkpt>
      <trkpt lat="48.5612" lon="-2.9617">
        <ele>-13</ele>
        <time>2013-12-02T13:39:00.1Z</time>
      </trkpt>
      <trkpt lat="48.56127" lon="-2.96169">
        <ele>-13</ele>
        <time>2013-12-02T13:39:03.1Z</time>
      </trkpt>
      <trkpt lat="48.56132" lon="-2.96168">
        <ele>-13</ele>
        <time>2013-12-02T13:39:06.1Z</time>
      </trkpt>
      <trkpt lat="48.56135" lon="-2.96166">
        <ele>-14</ele>
        <time>2013-12-02T13:39:08.1Z</time>
      </trkpt>
      <trkpt lat="48.56136" lon="-2.96165">
        <ele>-14</ele>
        <time>2013-12-02T13:39:11.1Z</time>
      </trkpt>
      <trkpt lat="48.56139" lon="-2.96164">
        <ele>-14</ele>
        <time>2013-12-02T13:39:14.1Z</time>
      </trkpt>
      <trkpt lat="48.56141" lon="-2.96162">
        <ele>-14</ele>
        <time>2013-12-02T13:39:16.1Z</time>
      </trkpt>
      <trkpt lat="48.56142" lon="-2.96162">
        <ele>-14</ele>
        <time>2013-12-02T13:39:19.1Z</time>
      </trkpt>
      <trkpt lat="48.56145" lon="-2.96161">
        <ele>-14</ele>
        <time>2013-12-02T13:39:21.1Z</time>
      </trkpt>
      <trkpt lat="48.56146" lon="-2.96161">
        <ele>-14</ele>
        <time>2013-12-02T13:39:23.1Z</time>
      </trkpt>
      <trkpt lat="48.56147" lon="-2.96163">
        <ele>-15</ele>
        <time>2013-12-02T13:39:26.1Z</time>
      </trkpt>
      <trkpt lat="48.5615" lon="-2.96163">
        <ele>-15</ele>
        <time>2013-12-02T13:39:28.1Z</time>
      </trkpt>
      <trkpt lat="48.56151" lon="-2.96162">
        <ele>-15</ele>
        <time>2013-12-02T13:39:32.1Z</time>
      </trkpt>
      <trkpt lat="48.56153" lon="-2.96161">
        <ele>-15</ele>
        <time>2013-12-02T13:39:35.1Z</time>
      </trkpt>
      <trkpt lat="48.56155" lon="-2.9616">
        <ele>-14</ele>
        <time>2013-12-02T13:39:37.1Z</time>
      </trkpt>
      <trkpt lat="48.56156" lon="-2.9616">
        <ele>-15</ele>
        <time>2013-12-02T13:39:40.1Z</time>
      </trkpt>
      <trkpt lat="48.56158" lon="-2.96161">
        <ele>-14</ele>
        <time>2013-12-02T13:39:42.1Z</time>
      </trkpt>
      <trkpt lat="48.56161" lon="-2.96162">
        <ele>-14</ele>
        <time>2013-12-02T13:39:46.1Z</time>
      </trkpt>
      <trkpt lat="48.56165" lon="-2.96161">
        <ele>-15</ele>
        <time>2013-12-02T13:39:48.1Z</time>
      </trkpt>
      <trkpt lat="48.56167" lon="-2.96162">
        <ele>-15</ele>
        <time>2013-12-02T13:39:51.1Z</time>
      </trkpt>
      <trkpt lat="48.56173" lon="-2.96162">
        <ele>-14</ele>
        <time>2013-12-02T13:39:53.1Z</time>
      </trkpt>
      <trkpt lat="48.56175" lon="-2.96162">
        <ele>-14</ele>
        <time>2013-12-02T13:39:56.1Z</time>
      </trkpt>
      <trkpt lat="48.56179" lon="-2.96162">
        <ele>-14</ele>
        <time>2013-12-02T13:39:58.1Z</time>
      </trkpt>
      <trkpt lat="48.56182" lon="-2.96163">
        <ele>-14</ele>
        <time>2013-12-02T13:40:00.1Z</time>
      </trkpt>
      <trkpt lat="48.56186" lon="-2.96163">
        <ele>-14</ele>
        <time>2013-12-02T13:40:03.1Z</time>
      </trkpt>
      <trkpt lat="48.56189" lon="-2.96161">
        <ele>-14</ele>
        <time>2013-12-02T13:40:06.1Z</time>
      </trkpt>
      <trkpt lat="48.56194" lon="-2.96158">
        <ele>-14</ele>
        <time>2013-12-02T13:40:09.1Z</time>
      </trkpt>
      <trkpt lat="48.56198" lon="-2.96158">
        <ele>-14</ele>
        <time>2013-12-02T13:40:11.1Z</time>
      </trkpt>
      <trkpt lat="48.562" lon="-2.96157">
        <ele>-14</ele>
        <time>2013-12-02T13:40:13.1Z</time>
      </trkpt>
      <trkpt lat="48.56203" lon="-2.96156">
        <ele>-15</ele>
        <time>2013-12-02T13:40:15.1Z</time>
      </trkpt>
      <trkpt lat="48.56205" lon="-2.96154">
        <ele>-15</ele>
        <time>2013-12-02T13:40:18.1Z</time>
      </trkpt>
      <trkpt lat="48.56208" lon="-2.96153">
        <ele>-15</ele>
        <time>2013-12-02T13:40:20.1Z</time>
      </trkpt>
      <trkpt lat="48.56212" lon="-2.96152">
        <ele>-15</ele>
        <time>2013-12-02T13:40:22.1Z</time>
      </trkpt>
      <trkpt lat="48.56215" lon="-2.96151">
        <ele>-15</ele>
        <time>2013-12-02T13:40:26.1Z</time>
      </trkpt>
      <trkpt lat="48.56218" lon="-2.9615">
        <ele>-15</ele>
        <time>2013-12-02T13:40:28.1Z</time>
      </trkpt>
      <trkpt lat="48.56221" lon="-2.96149">
        <ele>-15</ele>
        <time>2013-12-02T13:40:32.1Z</time>
      </trkpt>
      <trkpt lat="48.56224" lon="-2.96147">
        <ele>-15</ele>
        <time>2013-12-02T13:40:34.1Z</time>
      </trkpt>
      <trkpt lat="48.56228" lon="-2.96147">
        <ele>-15</ele>
        <time>2013-12-02T13:40:36.1Z</time>
      </trkpt>
      <trkpt lat="48.56232" lon="-2.96146">
        <ele>-15</ele>
        <time>2013-12-02T13:40:39.1Z</time>
      </trkpt>
      <trkpt lat="48.56234" lon="-2.96145">
        <ele>-16</ele>
        <time>2013-12-02T13:40:41.1Z</time>
      </trkpt>
      <trkpt lat="48.56237" lon="-2.96145">
        <ele>-15</ele>
        <time>2013-12-02T13:40:44.1Z</time>
      </trkpt>
      <trkpt lat="48.5624" lon="-2.96144">
        <ele>-16</ele>
        <time>2013-12-02T13:40:48.1Z</time>
      </trkpt>
      <trkpt lat="48.56243" lon="-2.96144">
        <ele>-16</ele>
        <time>2013-12-02T13:40:50.1Z</time>
      </trkpt>
      <trkpt lat="48.56245" lon="-2.96143">
        <ele>-16</ele>
        <time>2013-12-02T13:40:52.1Z</time>
      </trkpt>
      <trkpt lat="48.56247" lon="-2.96143">
        <ele>-16</ele>
        <time>2013-12-02T13:40:54.1Z</time>
      </trkpt>
      <trkpt lat="48.5625" lon="-2.96142">
        <ele>-16</ele>
        <time>2013-12-02T13:40:57.1Z</time>
      </trkpt>
      <trkpt lat="48.56253" lon="-2.96142">
        <ele>-16</ele>
        <time>2013-12-02T13:40:59.1Z</time>
      </trkpt>
      <trkpt lat="48.56257" lon="-2.9614">
        <ele>-16</ele>
        <time>2013-12-02T13:41:03.1Z</time>
      </trkpt>
      <trkpt lat="48.56261" lon="-2.96136">
        <ele>-16</ele>
        <time>2013-12-02T13:41:05.1Z</time>
      </trkpt>
      <trkpt lat="48.56263" lon="-2.96134">
        <ele>-16</ele>
        <time>2013-12-02T13:41:07.1Z</time>
      </trkpt>
      <trkpt lat="48.56267" lon="-2.96131">
        <ele>-16</ele>
        <time>2013-12-02T13:41:10.1Z</time>
      </trkpt>
      <trkpt lat="48.56269" lon="-2.96129">
        <ele>-16</ele>
        <time>2013-12-02T13:41:12.1Z</time>
      </trkpt>
      <trkpt lat="48.56273" lon="-2.96127">
        <ele>-16</ele>
        <time>2013-12-02T13:41:16.1Z</time>
      </trkpt>
      <trkpt lat="48.56275" lon="-2.96126">
        <ele>-16</ele>
        <time>2013-12-02T13:41:18.1Z</time>
      </trkpt>
      <trkpt lat="48.56278" lon="-2.96125">
        <ele>-16</ele>
        <time>2013-12-02T13:41:20.1Z</time>
      </trkpt>
      <trkpt lat="48.5628" lon="-2.96124">
        <ele>-16</ele>
        <time>2013-12-02T13:41:23.1Z</time>
      </trkpt>
      <trkpt lat="48.56283" lon="-2.96123">
        <ele>-16</ele>
        <time>2013-12-02T13:41:26.1Z</time>
      </trkpt>
      <trkpt lat="48.56285" lon="-2.96122">
        <ele>-16</ele>
        <time>2013-12-02T13:41:30.1Z</time>
      </trkpt>
      <trkpt lat="48.56288" lon="-2.96121">
        <ele>-16</ele>
        <time>2013-12-02T13:41:32.1Z</time>
      </trkpt>
      <trkpt lat="48.5629" lon="-2.96121">
        <ele>-17</ele>
        <time>2013-12-02T13:41:34.1Z</time>
      </trkpt>
      <trkpt lat="48.56293" lon="-2.9612">
        <ele>-17</ele>
        <time>2013-12-02T13:41:38.1Z</time>
      </trkpt>
      <trkpt lat="48.56297" lon="-2.96119">
        <ele>-17</ele>
        <time>2013-12-02T13:41:40.1Z</time>
      </trkpt>
      <trkpt lat="48.56299" lon="-2.96118">
        <ele>-16</ele>
        <time>2013-12-02T13:41:42.1Z</time>
      </trkpt>
      <trkpt lat="48.56303" lon="-2.96116">
        <ele>-16</ele>
        <time>2013-12-02T13:41:45.1Z</time>
      </trkpt>
      <trkpt lat="48.56306" lon="-2.96114">
        <ele>-17</ele>
        <time>2013-12-02T13:41:48.1Z</time>
      </trkpt>
      <trkpt lat="48.5631" lon="-2.96111">
        <ele>-17</ele>
        <time>2013-12-02T13:41:51.1Z</time>
      </trkpt>
      <trkpt lat="48.56313" lon="-2.9611">
        <ele>-17</ele>
        <time>2013-12-02T13:41:53.1Z</time>
      </trkpt>
      <trkpt lat="48.56317" lon="-2.96106">
        <ele>-17</ele>
        <time>2013-12-02T13:41:56.1Z</time>
      </trkpt>
      <trkpt lat="48.5632" lon="-2.96105">
        <ele>-17</ele>
        <time>2013-12-02T13:41:58.1Z</time>
      </trkpt>
      <trkpt lat="48.56323" lon="-2.96104">
        <ele>-17</ele>
        <time>2013-12-02T13:42:01.1Z</time>
      </trkpt>
      <trkpt lat="48.56326" lon="-2.96102">
        <ele>-17</ele>
        <time>2013-12-02T13:42:03.1Z</time>
      </trkpt>
      <trkpt lat="48.56329" lon="-2.96099">
        <ele>-17</ele>
        <time>2013-12-02T13:42:06.1Z</time>
      </trkpt>
      <trkpt lat="48.56331" lon="-2.96098">
        <ele>-17</ele>
        <time>2013-12-02T13:42:09.1Z</time>
      </trkpt>
      <trkpt lat="48.56334" lon="-2.96095">
        <ele>-17</ele>
        <time>2013-12-02T13:42:11.1Z</time>
      </trkpt>
      <trkpt lat="48.56336" lon="-2.96093">
        <ele>-17</ele>
        <time>2013-12-02T13:42:13.1Z</time>
      </trkpt>
      <trkpt lat="48.56339" lon="-2.96091">
        <ele>-18</ele>
        <time>2013-12-02T13:42:16.1Z</time>
      </trkpt>
      <trkpt lat="48.56341" lon="-2.9609">
        <ele>-18</ele>
        <time>2013-12-02T13:42:18.1Z</time>
      </trkpt>
      <trkpt lat="48.56343" lon="-2.96088">
        <ele>-18</ele>
        <time>2013-12-02T13:42:21.1Z</time>
      </trkpt>
      <trkpt lat="48.56346" lon="-2.96087">
        <ele>-18</ele>
        <time>2013-12-02T13:42:23.1Z</time>
      </trkpt>
      <trkpt lat="48.56348" lon="-2.96086">
        <ele>-18</ele>
        <time>2013-12-02T13:42:25.1Z</time>
      </trkpt>
      <trkpt lat="48.56351" lon="-2.96084">
        <ele>-18</ele>
        <time>2013-12-02T13:42:27.1Z</time>
      </trkpt>
      <trkpt lat="48.56353" lon="-2.96082">
        <ele>-18</ele>
        <time>2013-12-02T13:42:30.1Z</time>
      </trkpt>
      <trkpt lat="48.56356" lon="-2.9608">
        <ele>-17</ele>
        <time>2013-12-02T13:42:32.1Z</time>
      </trkpt>
      <trkpt lat="48.56358" lon="-2.96078">
        <ele>-17</ele>
        <time>2013-12-02T13:42:35.1Z</time>
      </trkpt>
      <trkpt lat="48.56363" lon="-2.96076">
        <ele>-17</ele>
        <time>2013-12-02T13:42:37.1Z</time>
      </trkpt>
      <trkpt lat="48.56366" lon="-2.96073">
        <ele>-17</ele>
        <time>2013-12-02T13:42:40.1Z</time>
      </trkpt>
      <trkpt lat="48.56368" lon="-2.96071">
        <ele>-17</ele>
        <time>2013-12-02T13:42:42.1Z</time>
      </trkpt>
      <trkpt lat="48.56371" lon="-2.96069">
        <ele>-17</ele>
        <time>2013-12-02T13:42:45.1Z</time>
      </trkpt>
      <trkpt lat="48.56375" lon="-2.96066">
        <ele>-17</ele>
        <time>2013-12-02T13:42:49.1Z</time>
      </trkpt>
      <trkpt lat="48.56378" lon="-2.96065">
        <ele>-17</ele>
        <time>2013-12-02T13:42:51.1Z</time>
      </trkpt>
      <trkpt lat="48.5638" lon="-2.96064">
        <ele>-18</ele>
        <time>2013-12-02T13:42:54.1Z</time>
      </trkpt>
      <trkpt lat="48.56383" lon="-2.96063">
        <ele>-18</ele>
        <time>2013-12-02T13:42:56.1Z</time>
      </trkpt>
      <trkpt lat="48.56386" lon="-2.96062">
        <ele>-18</ele>
        <time>2013-12-02T13:42:59.1Z</time>
      </trkpt>
      <trkpt lat="48.56389" lon="-2.96062">
        <ele>-17</ele>
        <time>2013-12-02T13:43:02.1Z</time>
      </trkpt>
      <trkpt lat="48.56391" lon="-2.96061">
        <ele>-18</ele>
        <time>2013-12-02T13:43:06.1Z</time>
      </trkpt>
      <trkpt lat="48.56394" lon="-2.96061">
        <ele>-18</ele>
        <time>2013-12-02T13:43:08.1Z</time>
      </trkpt>
      <trkpt lat="48.56397" lon="-2.9606">
        <ele>-18</ele>
        <time>2013-12-02T13:43:11.1Z</time>
      </trkpt>
      <trkpt lat="48.56399" lon="-2.96059">
        <ele>-18</ele>
        <time>2013-12-02T13:43:13.1Z</time>
      </trkpt>
      <trkpt lat="48.56402" lon="-2.96057">
        <ele>-18</ele>
        <time>2013-12-02T13:43:16.1Z</time>
      </trkpt>
      <trkpt lat="48.56406" lon="-2.96056">
        <ele>-18</ele>
        <time>2013-12-02T13:43:19.1Z</time>
      </trkpt>
      <trkpt lat="48.56409" lon="-2.96054">
        <ele>-18</ele>
        <time>2013-12-02T13:43:22.1Z</time>
      </trkpt>
      <trkpt lat="48.56412" lon="-2.96054">
        <ele>-18</ele>
        <time>2013-12-02T13:43:24.1Z</time>
      </trkpt>
      <trkpt lat="48.56415" lon="-2.96053">
        <ele>-18</ele>
        <time>2013-12-02T13:43:27.1Z</time>
      </trkpt>
      <trkpt lat="48.56417" lon="-2.96053">
        <ele>-18</ele>
        <time>2013-12-02T13:43:29.1Z</time>
      </trkpt>
      <trkpt lat="48.5642" lon="-2.96051">
        <ele>-18</ele>
        <time>2013-12-02T13:43:32.1Z</time>
      </trkpt>
      <trkpt lat="48.56422" lon="-2.9605">
        <ele>-18</ele>
        <time>2013-12-02T13:43:35.1Z</time>
      </trkpt>
      <trkpt lat="48.56425" lon="-2.9605">
        <ele>-18</ele>
        <time>2013-12-02T13:43:37.1Z</time>
      </trkpt>
      <trkpt lat="48.56429" lon="-2.96049">
        <ele>-17</ele>
        <time>2013-12-02T13:43:40.1Z</time>
      </trkpt>
      <trkpt lat="48.56432" lon="-2.96049">
        <ele>-17</ele>
        <time>2013-12-02T13:43:43.1Z</time>
      </trkpt>
      <trkpt lat="48.56434" lon="-2.96048">
        <ele>-17</ele>
        <time>2013-12-02T13:43:45.1Z</time>
      </trkpt>
      <trkpt lat="48.56436" lon="-2.96048">
        <ele>-17</ele>
        <time>2013-12-02T13:43:48.1Z</time>
      </trkpt>
      <trkpt lat="48.56439" lon="-2.96048">
        <ele>-17</ele>
        <time>2013-12-02T13:43:50.1Z</time>
      </trkpt>
      <trkpt lat="48.56443" lon="-2.96048">
        <ele>-17</ele>
        <time>2013-12-02T13:43:53.1Z</time>
      </trkpt>
      <trkpt lat="48.56446" lon="-2.96047">
        <ele>-17</ele>
        <time>2013-12-02T13:43:55.1Z</time>
      </trkpt>
      <trkpt lat="48.5645" lon="-2.96046">
        <ele>-16</ele>
        <time>2013-12-02T13:43:58.1Z</time>
      </trkpt>
      <trkpt lat="48.56452" lon="-2.96046">
        <ele>-16</ele>
        <time>2013-12-02T13:44:00.1Z</time>
      </trkpt>
      <trkpt lat="48.56454" lon="-2.96047">
        <ele>-16</ele>
        <time>2013-12-02T13:44:03.1Z</time>
      </trkpt>
      <trkpt lat="48.56456" lon="-2.96046">
        <ele>-16</ele>
        <time>2013-12-02T13:44:06.1Z</time>
      </trkpt>
      <trkpt lat="48.5646" lon="-2.96047">
        <ele>-16</ele>
        <time>2013-12-02T13:44:08.1Z</time>
      </trkpt>
      <trkpt lat="48.56463" lon="-2.96047">
        <ele>-16</ele>
        <time>2013-12-02T13:44:11.1Z</time>
      </trkpt>
      <trkpt lat="48.56465" lon="-2.96048">
        <ele>-16</ele>
        <time>2013-12-02T13:44:13.1Z</time>
      </trkpt>
      <trkpt lat="48.56469" lon="-2.96048">
        <ele>-16</ele>
        <time>2013-12-02T13:44:16.1Z</time>
      </trkpt>
      <trkpt lat="48.5647" lon="-2.96049">
        <ele>-16</ele>
        <time>2013-12-02T13:44:19.1Z</time>
      </trkpt>
      <trkpt lat="48.56473" lon="-2.96052">
        <ele>-16</ele>
        <time>2013-12-02T13:44:21.1Z</time>
      </trkpt>
      <trkpt lat="48.56475" lon="-2.96053">
        <ele>-16</ele>
        <time>2013-12-02T13:44:23.1Z</time>
      </trkpt>
      <trkpt lat="48.56477" lon="-2.96055">
        <ele>-15</ele>
        <time>2013-12-02T13:44:26.1Z</time>
      </trkpt>
      <trkpt lat="48.5648" lon="-2.96057">
        <ele>-15</ele>
        <time>2013-12-02T13:44:29.1Z</time>
      </trkpt>
      <trkpt lat="48.56481" lon="-2.96059">
        <ele>-15</ele>
        <time>2013-12-02T13:44:32.1Z</time>
      </trkpt>
      <trkpt lat="48.56485" lon="-2.9606">
        <ele>-15</ele>
        <time>2013-12-02T13:44:34.1Z</time>
      </trkpt>
      <trkpt lat="48.56487" lon="-2.96062">
        <ele>-15</ele>
        <time>2013-12-02T13:44:37.1Z</time>
      </trkpt>
      <trkpt lat="48.5649" lon="-2.96064">
        <ele>-14</ele>
        <time>2013-12-02T13:44:40.1Z</time>
      </trkpt>
      <trkpt lat="48.56492" lon="-2.96066">
        <ele>-14</ele>
        <time>2013-12-02T13:44:42.1Z</time>
      </trkpt>
      <trkpt lat="48.56495" lon="-2.96068">
        <ele>-14</ele>
        <time>2013-12-02T13:44:46.1Z</time>
      </trkpt>
      <trkpt lat="48.56498" lon="-2.9607">
        <ele>-14</ele>
        <time>2013-12-02T13:44:48.1Z</time>
      </trkpt>
      <trkpt lat="48.565" lon="-2.96073">
        <ele>-14</ele>
        <time>2013-12-02T13:44:51.1Z</time>
      </trkpt>
      <trkpt lat="48.56501" lon="-2.96074">
        <ele>-13</ele>
        <time>2013-12-02T13:44:53.1Z</time>
      </trkpt>
      <trkpt lat="48.56504" lon="-2.96076">
        <ele>-13</ele>
        <time>2013-12-02T13:44:56.1Z</time>
      </trkpt>
      <trkpt lat="48.56507" lon="-2.96077">
        <ele>-13</ele>
        <time>2013-12-02T13:44:59.1Z</time>
      </trkpt>
      <trkpt lat="48.56509" lon="-2.96079">
        <ele>-13</ele>
        <time>2013-12-02T13:45:02.1Z</time>
      </trkpt>
      <trkpt lat="48.56512" lon="-2.96081">
        <ele>-13</ele>
        <time>2013-12-02T13:45:04.1Z</time>
      </trkpt>
      <trkpt lat="48.56514" lon="-2.96082">
        <ele>-12</ele>
        <time>2013-12-02T13:45:07.1Z</time>
      </trkpt>
      <trkpt lat="48.56516" lon="-2.96084">
        <ele>-12</ele>
        <time>2013-12-02T13:45:10.1Z</time>
      </trkpt>
      <trkpt lat="48.56518" lon="-2.96085">
        <ele>-12</ele>
        <time>2013-12-02T13:45:12.1Z</time>
      </trkpt>
      <trkpt lat="48.5652" lon="-2.96088">
        <ele>-12</ele>
        <time>2013-12-02T13:45:15.1Z</time>
      </trkpt>
      <trkpt lat="48.56521" lon="-2.96089">
        <ele>-12</ele>
        <time>2013-12-02T13:45:17.1Z</time>
      </trkpt>
      <trkpt lat="48.56523" lon="-2.96091">
        <ele>-11</ele>
        <time>2013-12-02T13:45:20.1Z</time>
      </trkpt>
      <trkpt lat="48.56525" lon="-2.96093">
        <ele>-11</ele>
        <time>2013-12-02T13:45:23.1Z</time>
      </trkpt>
      <trkpt lat="48.56527" lon="-2.96094">
        <ele>-10</ele>
        <time>2013-12-02T13:45:26.1Z</time>
      </trkpt>
      <trkpt lat="48.56527" lon="-2.96095">
        <ele>-10</ele>
        <time>2013-12-02T13:45:29.1Z</time>
      </trkpt>
      <trkpt lat="48.56529" lon="-2.96096">
        <ele>-10</ele>
        <time>2013-12-02T13:45:31.1Z</time>
      </trkpt>
      <trkpt lat="48.56532" lon="-2.96099">
        <ele>-10</ele>
        <time>2013-12-02T13:45:34.1Z</time>
      </trkpt>
      <trkpt lat="48.56535" lon="-2.96102">
        <ele>-10</ele>
        <time>2013-12-02T13:45:37.1Z</time>
      </trkpt>
      <trkpt lat="48.56537" lon="-2.96103">
        <ele>-9</ele>
        <time>2013-12-02T13:45:40.1Z</time>
      </trkpt>
      <trkpt lat="48.56538" lon="-2.96105">
        <ele>-10</ele>
        <time>2013-12-02T13:45:43.1Z</time>
      </trkpt>
      <trkpt lat="48.5654" lon="-2.96105">
        <ele>-10</ele>
        <time>2013-12-02T13:45:46.1Z</time>
      </trkpt>
      <trkpt lat="48.56544" lon="-2.96109">
        <ele>-10</ele>
        <time>2013-12-02T13:45:48.1Z</time>
      </trkpt>
      <trkpt lat="48.56547" lon="-2.96111">
        <ele>-10</ele>
        <time>2013-12-02T13:45:51.1Z</time>
      </trkpt>
      <trkpt lat="48.56549" lon="-2.96113">
        <ele>-9</ele>
        <time>2013-12-02T13:45:53.1Z</time>
      </trkpt>
      <trkpt lat="48.56552" lon="-2.96114">
        <ele>-9</ele>
        <time>2013-12-02T13:45:56.1Z</time>
      </trkpt>
      <trkpt lat="48.56554" lon="-2.96116">
        <ele>-9</ele>
        <time>2013-12-02T13:45:58.1Z</time>
      </trkpt>
      <trkpt lat="48.56556" lon="-2.96118">
        <ele>-9</ele>
        <time>2013-12-02T13:46:00.1Z</time>
      </trkpt>
      <trkpt lat="48.56558" lon="-2.96122">
        <ele>-9</ele>
        <time>2013-12-02T13:46:03.1Z</time>
      </trkpt>
      <trkpt lat="48.56561" lon="-2.96125">
        <ele>-8</ele>
        <time>2013-12-02T13:46:06.1Z</time>
      </trkpt>
      <trkpt lat="48.56563" lon="-2.96127">
        <ele>-8</ele>
        <time>2013-12-02T13:46:08.1Z</time>
      </trkpt>
      <trkpt lat="48.56565" lon="-2.9613">
        <ele>-7</ele>
        <time>2013-12-02T13:46:11.1Z</time>
      </trkpt>
      <trkpt lat="48.56567" lon="-2.96134">
        <ele>-7</ele>
        <time>2013-12-02T13:46:15.1Z</time>
      </trkpt>
      <trkpt lat="48.56569" lon="-2.96137">
        <ele>-7</ele>
        <time>2013-12-02T13:46:17.1Z</time>
      </trkpt>
      <trkpt lat="48.56569" lon="-2.9614">
        <ele>-6</ele>
        <time>2013-12-02T13:46:19.1Z</time>
      </trkpt>
      <trkpt lat="48.56571" lon="-2.96142">
        <ele>-6</ele>
        <time>2013-12-02T13:46:21.1Z</time>
      </trkpt>
      <trkpt lat="48.56573" lon="-2.96144">
        <ele>-6</ele>
        <time>2013-12-02T13:46:24.1Z</time>
      </trkpt>
      <trkpt lat="48.56574" lon="-2.96146">
        <ele>-6</ele>
        <time>2013-12-02T13:46:26.1Z</time>
      </trkpt>
      <trkpt lat="48.56575" lon="-2.96148">
        <ele>-6</ele>
        <time>2013-12-02T13:46:28.1Z</time>
      </trkpt>
      <trkpt lat="48.56578" lon="-2.96149">
        <ele>-6</ele>
        <time>2013-12-02T13:46:31.1Z</time>
      </trkpt>
      <trkpt lat="48.5658" lon="-2.96151">
        <ele>-5</ele>
        <time>2013-12-02T13:46:33.1Z</time>
      </trkpt>
      <trkpt lat="48.56581" lon="-2.96152">
        <ele>-5</ele>
        <time>2013-12-02T13:46:35.1Z</time>
      </trkpt>
      <trkpt lat="48.56583" lon="-2.96152">
        <ele>-5</ele>
        <time>2013-12-02T13:46:38.1Z</time>
      </trkpt>
      <trkpt lat="48.56583" lon="-2.96153">
        <ele>-5</ele>
        <time>2013-12-02T13:46:40.1Z</time>
      </trkpt>
      <trkpt lat="48.56584" lon="-2.96156">
        <ele>-5</ele>
        <time>2013-12-02T13:46:43.1Z</time>
      </trkpt>
      <trkpt lat="48.56586" lon="-2.96158">
        <ele>-5</ele>
        <time>2013-12-02T13:46:46.1Z</time>
      </trkpt>
      <trkpt lat="48.56588" lon="-2.96161">
        <ele>-4</ele>
        <time>2013-12-02T13:46:49.1Z</time>
      </trkpt>
      <trkpt lat="48.56589" lon="-2.96165">
        <ele>-4</ele>
        <time>2013-12-02T13:46:52.1Z</time>
      </trkpt>
      <trkpt lat="48.5659" lon="-2.96169">
        <ele>-3</ele>
        <time>2013-12-02T13:46:55.1Z</time>
      </trkpt>
      <trkpt lat="48.56592" lon="-2.96175">
        <ele>-3</ele>
        <time>2013-12-02T13:46:58.1Z</time>
      </trkpt>
      <trkpt lat="48.56593" lon="-2.96178">
        <ele>-3</ele>
        <time>2013-12-02T13:47:01.1Z</time>
      </trkpt>
      <trkpt lat="48.56593" lon="-2.96182">
        <ele>-3</ele>
        <time>2013-12-02T13:47:03.1Z</time>
      </trkpt>
      <trkpt lat="48.56595" lon="-2.96185">
        <ele>-2</ele>
        <time>2013-12-02T13:47:05.1Z</time>
      </trkpt>
      <trkpt lat="48.56597" lon="-2.96189">
        <ele>-2</ele>
        <time>2013-12-02T13:47:08.1Z</time>
      </trkpt>
      <trkpt lat="48.56598" lon="-2.96192">
        <ele>-2</ele>
        <time>2013-12-02T13:47:10.1Z</time>
      </trkpt>
      <trkpt lat="48.56599" lon="-2.96197">
        <ele>-2</ele>
        <time>2013-12-02T13:47:13.1Z</time>
      </trkpt>
      <trkpt lat="48.56601" lon="-2.962">
        <ele>-2</ele>
        <time>2013-12-02T13:47:16.1Z</time>
      </trkpt>
      <trkpt lat="48.56602" lon="-2.96205">
        <ele>-1</ele>
        <time>2013-12-02T13:47:18.1Z</time>
      </trkpt>
      <trkpt lat="48.56603" lon="-2.96208">
        <ele>-1</ele>
        <time>2013-12-02T13:47:20.1Z</time>
      </trkpt>
      <trkpt lat="48.56605" lon="-2.96212">
        <ele>-1</ele>
        <time>2013-12-02T13:47:23.1Z</time>
      </trkpt>
      <trkpt lat="48.56607" lon="-2.96217">
        <ele>-1</ele>
        <time>2013-12-02T13:47:26.1Z</time>
      </trkpt>
      <trkpt lat="48.56608" lon="-2.9622">
        <ele>92.9</ele>
        <time>2013-12-02T13:47:29.1Z</time>
      </trkpt>
      <trkpt lat="48.56608" lon="-2.96222">
        <ele>93.1</ele>
        <time>2013-12-02T13:47:31.1Z</time>
      </trkpt>
      <trkpt lat="48.56607" lon="-2.96226">
        <ele>93.1</ele>
        <time>2013-12-02T13:47:33.1Z</time>
      </trkpt>
      <trkpt lat="48.56607" lon="-2.96228">
        <ele>93.2</ele>
        <time>2013-12-02T13:47:35.1Z</time>
      </trkpt>
      <trkpt lat="48.56607" lon="-2.9623">
        <ele>93.2</ele>
        <time>2013-12-02T13:47:38.1Z</time>
      </trkpt>
      <trkpt lat="48.56607" lon="-2.9623">
        <ele>93.2</ele>
        <time>2013-12-02T13:47:41.1Z</time>
      </trkpt>
      <trkpt lat="48.56607" lon="-2.96231">
        <ele>93.2</ele>
        <time>2013-12-02T13:47:44.1Z</time>
      </trkpt>
      <trkpt lat="48.56607" lon="-2.96232">
        <ele>93.2</ele>
        <time>2013-12-02T13:47:47.1Z</time>
      </trkpt>
      <trkpt lat="48.56607" lon="-2.96232">
        <ele>93.2</ele>
        <time>2013-12-02T13:47:49.1Z</time>
      </trkpt>
      <trkpt lat="48.56606" lon="-2.96233">
        <ele>93.3</ele>
        <time>2013-12-02T13:47:52.1Z</time>
      </trkpt>
      <trkpt lat="48.56605" lon="-2.96234">
        <ele>93.3</ele>
        <time>2013-12-02T13:47:55.1Z</time>
      </trkpt>
      <trkpt lat="48.56605" lon="-2.96233">
        <ele>93.3</ele>
        <time>2013-12-02T13:47:58.1Z</time>
      </trkpt>
      <trkpt lat="48.56605" lon="-2.96233">
        <ele>93.3</ele>
        <time>2013-12-02T13:48:00.1Z</time>
      </trkpt>
      <trkpt lat="48.56605" lon="-2.96232">
        <ele>93.3</ele>
        <time>2013-12-02T13:48:03.1Z</time>
      </trkpt>
      <trkpt lat="48.56605" lon="-2.96232">
        <ele>93.3</ele>
        <time>2013-12-02T13:48:05.1Z</time>
      </trkpt>
      <trkpt lat="48.56605" lon="-2.96231">
        <ele>93.3</ele>
        <time>2013-12-02T13:48:07.1Z</time>
      </trkpt>
      <trkpt lat="48.56605" lon="-2.96231">
        <ele>93.3</ele>
        <time>2013-12-02T13:48:10.1Z</time>
      </trkpt>
      <trkpt lat="48.56606" lon="-2.96231">
        <ele>93.3</ele>
        <time>2013-12-02T13:48:13.1Z</time>
      </trkpt>
      <trkpt lat="48.56606" lon="-2.96231">
        <ele>93.2</ele>
        <time>2013-12-02T13:48:15.1Z</time>
      </trkpt>
      <trkpt lat="48.56607" lon="-2.96232">
        <ele>93.2</ele>
        <time>2013-12-02T13:48:17.1Z</time>
      </trkpt>
      <trkpt lat="48.5661" lon="-2.96232">
        <ele>93</ele>
        <time>2013-12-02T13:48:20.1Z</time>
      </trkpt>
      <trkpt lat="48.56612" lon="-2.96231">
        <ele>92.9</ele>
        <time>2013-12-02T13:48:22.1Z</time>
      </trkpt>
      <trkpt lat="48.56612" lon="-2.96232">
        <ele>93</ele>
        <time>2013-12-02T13:48:25.1Z</time>
      </trkpt>
      <trkpt lat="48.56611" lon="-2.96235">
        <ele>93</ele>
        <time>2013-12-02T13:48:27.1Z</time>
      </trkpt>
      <trkpt lat="48.56611" lon="-2.96236">
        <ele>93</ele>
        <time>2013-12-02T13:48:30.1Z</time>
      </trkpt>
      <trkpt lat="48.56612" lon="-2.96236">
        <ele>93</ele>
        <time>2013-12-02T13:48:32.1Z</time>
      </trkpt>
      <trkpt lat="48.56611" lon="-2.96237">
        <ele>-1</ele>
        <time>2013-12-02T13:48:35.1Z</time>
      </trkpt>
      <trkpt lat="48.5661" lon="-2.96237">
        <ele>93.1</ele>
        <time>2013-12-02T13:48:38.1Z</time>
      </trkpt>
      <trkpt lat="48.56609" lon="-2.96239">
        <ele>93.1</ele>
        <time>2013-12-02T13:48:40.1Z</time>
      </trkpt>
      <trkpt lat="48.56608" lon="-2.9624">
        <ele>93.2</ele>
        <time>2013-12-02T13:48:42.1Z</time>
      </trkpt>
      <trkpt lat="48.56607" lon="-2.96241">
        <ele>93.2</ele>
        <time>2013-12-02T13:48:45.1Z</time>
      </trkpt>
      <trkpt lat="48.56607" lon="-2.96241">
        <ele>93.2</ele>
        <time>2013-12-02T13:48:47.1Z</time>
      </trkpt>
      <trkpt lat="48.56608" lon="-2.96242">
        <ele>93.2</ele>
        <time>2013-12-02T13:48:49.1Z</time>
      </trkpt>
      <trkpt lat="48.56609" lon="-2.96243">
        <ele>93.1</ele>
        <time>2013-12-02T13:48:51.1Z</time>
      </trkpt>
      <trkpt lat="48.5661" lon="-2.96242">
        <ele>93.1</ele>
        <time>2013-12-02T13:48:55.1Z</time>
      </trkpt>
      <trkpt lat="48.56608" lon="-2.9624">
        <ele>93.2</ele>
        <time>2013-12-02T13:48:57.1Z</time>
      </trkpt>
      <trkpt lat="48.56607" lon="-2.96237">
        <ele>93.2</ele>
        <time>2013-12-02T13:49:00.1Z</time>
      </trkpt>
      <trkpt lat="48.56606" lon="-2.96233">
        <ele>93.2</ele>
        <time>2013-12-02T13:49:03.1Z</time>
      </trkpt>
      <trkpt lat="48.56605" lon="-2.9623">
        <ele>93.3</ele>
        <time>2013-12-02T13:49:05.1Z</time>
      </trkpt>
      <trkpt lat="48.56604" lon="-2.96226">
        <ele>93.3</ele>
        <time>2013-12-02T13:49:07.1Z</time>
      </trkpt>
      <trkpt lat="48.56601" lon="-2.96223">
        <ele>93.4</ele>
        <time>2013-12-02T13:49:10.1Z</time>
      </trkpt>
      <trkpt lat="48.56599" lon="-2.96219">
        <ele>93.3</ele>
        <time>2013-12-02T13:49:13.1Z</time>
      </trkpt>
      <trkpt lat="48.56598" lon="-2.96217">
        <ele>93.2</ele>
        <time>2013-12-02T13:49:15.1Z</time>
      </trkpt>
      <trkpt lat="48.56595" lon="-2.96215">
        <ele>93.2</ele>
        <time>2013-12-02T13:49:18.1Z</time>
      </trkpt>
      <trkpt lat="48.56593" lon="-2.96214">
        <ele>93.2</ele>
        <time>2013-12-02T13:49:20.1Z</time>
      </trkpt>
      <trkpt lat="48.56591" lon="-2.96212">
        <ele>-1</ele>
        <time>2013-12-02T13:49:23.1Z</time>
      </trkpt>
      <trkpt lat="48.5659" lon="-2.96211">
        <ele>-1</ele>
        <time>2013-12-02T13:49:26.1Z</time>
      </trkpt>
      <trkpt lat="48.56589" lon="-2.9621">
        <ele>-1</ele>
        <time>2013-12-02T13:49:28.1Z</time>
      </trkpt>
      <trkpt lat="48.56586" lon="-2.96209">
        <ele>-1</ele>
        <time>2013-12-02T13:49:31.1Z</time>
      </trkpt>
      <trkpt lat="48.56584" lon="-2.9621">
        <ele>93.5</ele>
        <time>2013-12-02T13:49:33.1Z</time>
      </trkpt>
      <trkpt lat="48.56583" lon="-2.9621">
        <ele>93.6</ele>
        <time>2013-12-02T13:49:36.1Z</time>
      </trkpt>
      <trkpt lat="48.56582" lon="-2.9621">
        <ele>93.6</ele>
        <time>2013-12-02T13:49:38.1Z</time>
      </trkpt>
      <trkpt lat="48.5658" lon="-2.96209">
        <ele>93.6</ele>
        <time>2013-12-02T13:49:41.1Z</time>
      </trkpt>
      <trkpt lat="48.56577" lon="-2.96208">
        <ele>93.7</ele>
        <time>2013-12-02T13:49:44.1Z</time>
      </trkpt>
      <trkpt lat="48.56575" lon="-2.96207">
        <ele>-1</ele>
        <time>2013-12-02T13:49:46.1Z</time>
      </trkpt>
      <trkpt lat="48.56573" lon="-2.96207">
        <ele>-1</ele>
        <time>2013-12-02T13:49:49.1Z</time>
      </trkpt>
      <trkpt lat="48.56572" lon="-2.96207">
        <ele>-1</ele>
        <time>2013-12-02T13:49:51.1Z</time>
      </trkpt>
      <trkpt lat="48.56572" lon="-2.96206">
        <ele>-1</ele>
        <time>2013-12-02T13:49:53.1Z</time>
      </trkpt>
      <trkpt lat="48.56572" lon="-2.96206">
        <ele>-1</ele>
        <time>2013-12-02T13:49:56.1Z</time>
      </trkpt>
      <trkpt lat="48.56572" lon="-2.96204">
        <ele>-1</ele>
        <time>2013-12-02T13:49:58.1Z</time>
      </trkpt>
      <trkpt lat="48.5657" lon="-2.96202">
        <ele>-1</ele>
        <time>2013-12-02T13:50:02.1Z</time>
      </trkpt>
      <trkpt lat="48.56567" lon="-2.96199">
        <ele>-1</ele>
        <time>2013-12-02T13:50:04.1Z</time>
      </trkpt>
      <trkpt lat="48.56565" lon="-2.96196">
        <ele>-1</ele>
        <time>2013-12-02T13:50:07.1Z</time>
      </trkpt>
      <trkpt lat="48.56561" lon="-2.96194">
        <ele>-1</ele>
        <time>2013-12-02T13:50:10.1Z</time>
      </trkpt>
      <trkpt lat="48.56559" lon="-2.96192">
        <ele>-1</ele>
        <time>2013-12-02T13:50:12.1Z</time>
      </trkpt>
      <trkpt lat="48.56556" lon="-2.96191">
        <ele>-1</ele>
        <time>2013-12-02T13:50:15.1Z</time>
      </trkpt>
      <trkpt lat="48.56553" lon="-2.96189">
        <ele>-1</ele>
        <time>2013-12-02T13:50:18.1Z</time>
      </trkpt>
      <trkpt lat="48.56549" lon="-2.96187">
        <ele>93.7</ele>
        <time>2013-12-02T13:50:21.1Z</time>
      </trkpt>
      <trkpt lat="48.56547" lon="-2.96186">
        <ele>93.7</ele>
        <time>2013-12-02T13:50:23.1Z</time>
      </trkpt>
      <trkpt lat="48.56544" lon="-2.96184">
        <ele>-1</ele>
        <time>2013-12-02T13:50:26.1Z</time>
      </trkpt>
      <trkpt lat="48.56543" lon="-2.96185">
        <ele>-1</ele>
        <time>2013-12-02T13:50:28.1Z</time>
      </trkpt>
      <trkpt lat="48.56543" lon="-2.96186">
        <ele>-1</ele>
        <time>2013-12-02T13:50:30.1Z</time>
      </trkpt>
      <trkpt lat="48.56542" lon="-2.96185">
        <ele>93.8</ele>
        <time>2013-12-02T13:50:34.1Z</time>
      </trkpt>
      <trkpt lat="48.56539" lon="-2.96185">
        <ele>93.9</ele>
        <time>2013-12-02T13:50:36.1Z</time>
      </trkpt>
      <trkpt lat="48.56536" lon="-2.96184">
        <ele>93.9</ele>
        <time>2013-12-02T13:50:39.1Z</time>
      </trkpt>
      <trkpt lat="48.56532" lon="-2.96184">
        <ele>94.1</ele>
        <time>2013-12-02T13:50:42.1Z</time>
      </trkpt>
      <trkpt lat="48.56529" lon="-2.96182">
        <ele>94.1</ele>
        <time>2013-12-02T13:50:45.1Z</time>
      </trkpt>
      <trkpt lat="48.56527" lon="-2.96182">
        <ele>94.1</ele>
        <time>2013-12-02T13:50:48.1Z</time>
      </trkpt>
      <trkpt lat="48.56524" lon="-2.96182">
        <ele>94</ele>
        <time>2013-12-02T13:50:50.1Z</time>
      </trkpt>
      <trkpt lat="48.56521" lon="-2.96182">
        <ele>94</ele>
        <time>2013-12-02T13:50:52.1Z</time>
      </trkpt>
      <trkpt lat="48.56518" lon="-2.96182">
        <ele>93.9</ele>
        <time>2013-12-02T13:50:55.1Z</time>
      </trkpt>
      <trkpt lat="48.56515" lon="-2.96183">
        <ele>-1</ele>
        <time>2013-12-02T13:50:58.1Z</time>
      </trkpt>
      <trkpt lat="48.56513" lon="-2.96183">
        <ele>94</ele>
        <time>2013-12-02T13:51:00.1Z</time>
      </trkpt>
      <trkpt lat="48.56509" lon="-2.96184">
        <ele>94</ele>
        <time>2013-12-02T13:51:03.1Z</time>
      </trkpt>
      <trkpt lat="48.56506" lon="-2.96186">
        <ele>94.2</ele>
        <time>2013-12-02T13:51:06.1Z</time>
      </trkpt>
      <trkpt lat="48.56504" lon="-2.96187">
        <ele>94.2</ele>
        <time>2013-12-02T13:51:08.1Z</time>
      </trkpt>
      <trkpt lat="48.56501" lon="-2.96189">
        <ele>94.4</ele>
        <time>2013-12-02T13:51:11.1Z</time>
      </trkpt>
      <trkpt lat="48.565" lon="-2.96189">
        <ele>94.4</ele>
        <time>2013-12-02T13:51:13.1Z</time>
      </trkpt>
      <trkpt lat="48.56499" lon="-2.96189">
        <ele>94.3</ele>
        <time>2013-12-02T13:51:16.1Z</time>
      </trkpt>
      <trkpt lat="48.56496" lon="-2.9619">
        <ele>94.2</ele>
        <time>2013-12-02T13:51:18.1Z</time>
      </trkpt>
      <trkpt lat="48.56494" lon="-2.96191">
        <ele>94.1</ele>
        <time>2013-12-02T13:51:20.1Z</time>
      </trkpt>
      <trkpt lat="48.56493" lon="-2.96191">
        <ele>94.1</ele>
        <time>2013-12-02T13:51:22.1Z</time>
      </trkpt>
      <trkpt lat="48.56491" lon="-2.96192">
        <ele>94.1</ele>
        <time>2013-12-02T13:51:25.1Z</time>
      </trkpt>
      <trkpt lat="48.56491" lon="-2.96192">
        <ele>94.1</ele>
        <time>2013-12-02T13:51:27.1Z</time>
      </trkpt>
      <trkpt lat="48.5649" lon="-2.96193">
        <ele>94.1</ele>
        <time>2013-12-02T13:51:30.1Z</time>
      </trkpt>
      <trkpt lat="48.5649" lon="-2.96194">
        <ele>-1</ele>
        <time>2013-12-02T13:51:32.1Z</time>
      </trkpt>
      <trkpt lat="48.5649" lon="-2.96194">
        <ele>94.2</ele>
        <time>2013-12-02T13:51:35.1Z</time>
      </trkpt>
      <trkpt lat="48.5649" lon="-2.96195">
        <ele>94.3</ele>
        <time>2013-12-02T13:51:37.1Z</time>
      </trkpt>
      <trkpt lat="48.5649" lon="-2.96195">
        <ele>94.3</ele>
        <time>2013-12-02T13:51:39.1Z</time>
      </trkpt>
      <trkpt lat="48.56489" lon="-2.96196">
        <ele>94.3</ele>
        <time>2013-12-02T13:51:41.1Z</time>
      </trkpt>
      <trkpt lat="48.56489" lon="-2.96196">
        <ele>94.4</ele>
        <time>2013-12-02T13:51:44.1Z</time>
      </trkpt>
      <trkpt lat="48.56489" lon="-2.96196">
        <ele>94.4</ele>
        <time>2013-12-02T13:51:47.1Z</time>
      </trkpt>
      <trkpt lat="48.56488" lon="-2.96197">
        <ele>94.4</ele>
        <time>2013-12-02T13:51:49.1Z</time>
      </trkpt>
      <trkpt lat="48.56487" lon="-2.96199">
        <ele>94.5</ele>
        <time>2013-12-02T13:51:52.1Z</time>
      </trkpt>
      <trkpt lat="48.56487" lon="-2.962">
        <ele>94.5</ele>
        <time>2013-12-02T13:51:55.1Z</time>
      </trkpt>
      <trkpt lat="48.56487" lon="-2.962">
        <ele>94.6</ele>
        <time>2013-12-02T13:51:57.1Z</time>
      </trkpt>
      <trkpt lat="48.56485" lon="-2.96201">
        <ele>94.5</ele>
        <time>2013-12-02T13:52:00.1Z</time>
      </trkpt>
      <trkpt lat="48.56483" lon="-2.96202">
        <ele>94.5</ele>
        <time>2013-12-02T13:52:02.1Z</time>
      </trkpt>
      <trkpt lat="48.56482" lon="-2.96203">
        <ele>94.5</ele>
        <time>2013-12-02T13:52:05.1Z</time>
      </trkpt>
      <trkpt lat="48.56482" lon="-2.96204">
        <ele>94.6</ele>
        <time>2013-12-02T13:52:08.1Z</time>
      </trkpt>
      <trkpt lat="48.56482" lon="-2.96204">
        <ele>94.6</ele>
        <time>2013-12-02T13:52:10.1Z</time>
      </trkpt>
      <trkpt lat="48.56481" lon="-2.96204">
        <ele>-1</ele>
        <time>2013-12-02T13:52:13.1Z</time>
      </trkpt>
      <trkpt lat="48.56481" lon="-2.96203">
        <ele>-1</ele>
        <time>2013-12-02T13:52:16.1Z</time>
      </trkpt>
      <trkpt lat="48.56482" lon="-2.96204">
        <ele>94.6</ele>
        <time>2013-12-02T13:52:19.1Z</time>
      </trkpt>
      <trkpt lat="48.56482" lon="-2.96204">
        <ele>94.6</ele>
        <time>2013-12-02T13:52:21.1Z</time>
      </trkpt>
      <trkpt lat="48.56483" lon="-2.96204">
        <ele>94.6</ele>
        <time>2013-12-02T13:52:24.1Z</time>
      </trkpt>
      <trkpt lat="48.56483" lon="-2.96204">
        <ele>94.7</ele>
        <time>2013-12-02T13:52:26.1Z</time>
      </trkpt>
      <trkpt lat="48.56483" lon="-2.96204">
        <ele>94.7</ele>
        <time>2013-12-02T13:52:29.1Z</time>
      </trkpt>
      <trkpt lat="48.56482" lon="-2.96204">
        <ele>94.7</ele>
        <time>2013-12-02T13:52:32.1Z</time>
      </trkpt>
      <trkpt lat="48.56481" lon="-2.96205">
        <ele>94.7</ele>
        <time>2013-12-02T13:52:35.1Z</time>
      </trkpt>
      <trkpt lat="48.5648" lon="-2.96206">
        <ele>94.7</ele>
        <time>2013-12-02T13:52:37.1Z</time>
      </trkpt>
      <trkpt lat="48.56479" lon="-2.96206">
        <ele>94.7</ele>
        <time>2013-12-02T13:52:40.1Z</time>
      </trkpt>
      <trkpt lat="48.56477" lon="-2.96205">
        <ele>94.5</ele>
        <time>2013-12-02T13:52:43.1Z</time>
      </trkpt>
      <trkpt lat="48.56476" lon="-2.96204">
        <ele>94.3</ele>
        <time>2013-12-02T13:52:49.1Z</time>
      </trkpt>
      <trkpt lat="48.56476" lon="-2.96204">
        <ele>94.3</ele>
        <time>2013-12-02T13:52:51.1Z</time>
      </trkpt>
      <trkpt lat="48.56476" lon="-2.96205">
        <ele>94.3</ele>
        <time>2013-12-02T13:52:54.1Z</time>
      </trkpt>
      <trkpt lat="48.56475" lon="-2.96205">
        <ele>94.4</ele>
        <time>2013-12-02T13:52:56.1Z</time>
      </trkpt>
      <trkpt lat="48.56475" lon="-2.96207">
        <ele>94.5</ele>
        <time>2013-12-02T13:52:59.1Z</time>
      </trkpt>
      <trkpt lat="48.56474" lon="-2.96207">
        <ele>94.4</ele>
        <time>2013-12-02T13:53:03.1Z</time>
      </trkpt>
      <trkpt lat="48.56474" lon="-2.96207">
        <ele>94.4</ele>
        <time>2013-12-02T13:53:05.1Z</time>
      </trkpt>
      <trkpt lat="48.56472" lon="-2.96208">
        <ele>94.5</ele>
        <time>2013-12-02T13:53:07.1Z</time>
      </trkpt>
      <trkpt lat="48.56471" lon="-2.9621">
        <ele>94.6</ele>
        <time>2013-12-02T13:53:10.1Z</time>
      </trkpt>
      <trkpt lat="48.56471" lon="-2.9621">
        <ele>94.5</ele>
        <time>2013-12-02T13:53:12.1Z</time>
      </trkpt>
      <trkpt lat="48.56471" lon="-2.9621">
        <ele>-1</ele>
        <time>2013-12-02T13:53:17.1Z</time>
      </trkpt>
      <trkpt lat="48.5647" lon="-2.9621">
        <ele>-1</ele>
        <time>2013-12-02T13:53:20.1Z</time>
      </trkpt>
      <trkpt lat="48.5647" lon="-2.96211">
        <ele>-1</ele>
        <time>2013-12-02T13:53:23.1Z</time>
      </trkpt>
      <trkpt lat="48.5647" lon="-2.96211">
        <ele>-1</ele>
        <time>2013-12-02T13:53:25.1Z</time>
      </trkpt>
      <trkpt lat="48.5647" lon="-2.96211">
        <ele>-1</ele>
        <time>2013-12-02T13:53:27.1Z</time>
      </trkpt>
      <trkpt lat="48.56468" lon="-2.96213">
        <ele>94.6</ele>
        <time>2013-12-02T13:53:30.1Z</time>
      </trkpt>
      <trkpt lat="48.56465" lon="-2.96215">
        <ele>94.7</ele>
        <time>2013-12-02T13:53:33.1Z</time>
      </trkpt>
      <trkpt lat="48.56462" lon="-2.96217">
        <ele>94.6</ele>
        <time>2013-12-02T13:53:36.1Z</time>
      </trkpt>
      <trkpt lat="48.56459" lon="-2.96218">
        <ele>94.6</ele>
        <time>2013-12-02T13:53:38.1Z</time>
      </trkpt>
      <trkpt lat="48.56456" lon="-2.9622">
        <ele>94.7</ele>
        <time>2013-12-02T13:53:41.1Z</time>
      </trkpt>
      <trkpt lat="48.56454" lon="-2.96222">
        <ele>94.6</ele>
        <time>2013-12-02T13:53:43.1Z</time>
      </trkpt>
      <trkpt lat="48.56451" lon="-2.96224">
        <ele>94.6</ele>
        <time>2013-12-02T13:53:46.1Z</time>
      </trkpt>
      <trkpt lat="48.56448" lon="-2.96227">
        <ele>94.6</ele>
        <time>2013-12-02T13:53:49.1Z</time>
      </trkpt>
      <trkpt lat="48.56447" lon="-2.96228">
        <ele>94.6</ele>
        <time>2013-12-02T13:53:51.1Z</time>
      </trkpt>
      <trkpt lat="48.56444" lon="-2.9623">
        <ele>94.5</ele>
        <time>2013-12-02T13:53:54.1Z</time>
      </trkpt>
      <trkpt lat="48.56441" lon="-2.96231">
        <ele>94.4</ele>
        <time>2013-12-02T13:53:56.1Z</time>
      </trkpt>
      <trkpt lat="48.5644" lon="-2.96233">
        <ele>94.3</ele>
        <time>2013-12-02T13:53:58.1Z</time>
      </trkpt>
      <trkpt lat="48.56437" lon="-2.96236">
        <ele>94.3</ele>
        <time>2013-12-02T13:54:01.1Z</time>
      </trkpt>
      <trkpt lat="48.56434" lon="-2.96239">
        <ele>94.3</ele>
        <time>2013-12-02T13:54:04.1Z</time>
      </trkpt>
      <trkpt lat="48.56432" lon="-2.96242">
        <ele>94.4</ele>
        <time>2013-12-02T13:54:06.1Z</time>
      </trkpt>
      <trkpt lat="48.5643" lon="-2.96245">
        <ele>94.5</ele>
        <time>2013-12-02T13:54:09.1Z</time>
      </trkpt>
      <trkpt lat="48.56428" lon="-2.96247">
        <ele>94.6</ele>
        <time>2013-12-02T13:54:12.1Z</time>
      </trkpt>
      <trkpt lat="48.56428" lon="-2.96249">
        <ele>94.7</ele>
        <time>2013-12-02T13:54:14.1Z</time>
      </trkpt>
      <trkpt lat="48.5643" lon="-2.96251">
        <ele>95</ele>
        <time>2013-12-02T13:54:17.1Z</time>
      </trkpt>
      <trkpt lat="48.56432" lon="-2.96255">
        <ele>95.4</ele>
        <time>2013-12-02T13:54:20.1Z</time>
      </trkpt>
      <trkpt lat="48.56434" lon="-2.96257">
        <ele>95.8</ele>
        <time>2013-12-02T13:54:23.1Z</time>
      </trkpt>
      <trkpt lat="48.56435" lon="-2.9626">
        <ele>96</ele>
        <time>2013-12-02T13:54:25.1Z</time>
      </trkpt>
      <trkpt lat="48.56437" lon="-2.96263">
        <ele>1</ele>
        <time>2013-12-02T13:54:28.1Z</time>
      </trkpt>
      <trkpt lat="48.56438" lon="-2.96265">
        <ele>1</ele>
        <time>2013-12-02T13:54:30.1Z</time>
      </trkpt>
      <trkpt lat="48.5644" lon="-2.96266">
        <ele>1</ele>
        <time>2013-12-02T13:54:32.1Z</time>
      </trkpt>
      <trkpt lat="48.56441" lon="-2.9627">
        <ele>1</ele>
        <time>2013-12-02T13:54:35.1Z</time>
      </trkpt>
      <trkpt lat="48.56442" lon="-2.96273">
        <ele>1</ele>
        <time>2013-12-02T13:54:37.1Z</time>
      </trkpt>
      <trkpt lat="48.56444" lon="-2.96277">
        <ele>1</ele>
        <time>2013-12-02T13:54:40.1Z</time>
      </trkpt>
      <trkpt lat="48.56446" lon="-2.96281">
        <ele>2</ele>
        <time>2013-12-02T13:54:43.1Z</time>
      </trkpt>
      <trkpt lat="48.56448" lon="-2.96284">
        <ele>2</ele>
        <time>2013-12-02T13:54:46.1Z</time>
      </trkpt>
      <trkpt lat="48.56449" lon="-2.96287">
        <ele>3</ele>
        <time>2013-12-02T13:54:48.1Z</time>
      </trkpt>
      <trkpt lat="48.56449" lon="-2.96288">
        <ele>3</ele>
        <time>2013-12-02T13:54:50.1Z</time>
      </trkpt>
      <trkpt lat="48.56451" lon="-2.96292">
        <ele>3</ele>
        <time>2013-12-02T13:54:53.1Z</time>
      </trkpt>
      <trkpt lat="48.56452" lon="-2.96295">
        <ele>3</ele>
        <time>2013-12-02T13:54:55.1Z</time>
      </trkpt>
      <trkpt lat="48.56452" lon="-2.96298">
        <ele>3</ele>
        <time>2013-12-02T13:54:57.1Z</time>
      </trkpt>
      <trkpt lat="48.56453" lon="-2.963">
        <ele>4</ele>
        <time>2013-12-02T13:55:00.1Z</time>
      </trkpt>
      <trkpt lat="48.56455" lon="-2.96303">
        <ele>4</ele>
        <time>2013-12-02T13:55:02.1Z</time>
      </trkpt>
      <trkpt lat="48.56457" lon="-2.96306">
        <ele>4</ele>
        <time>2013-12-02T13:55:05.1Z</time>
      </trkpt>
      <trkpt lat="48.56458" lon="-2.96308">
        <ele>3</ele>
        <time>2013-12-02T13:55:07.1Z</time>
      </trkpt>
      <trkpt lat="48.5646" lon="-2.9631">
        <ele>3</ele>
        <time>2013-12-02T13:55:10.1Z</time>
      </trkpt>
      <trkpt lat="48.56461" lon="-2.96312">
        <ele>3</ele>
        <time>2013-12-02T13:55:12.1Z</time>
      </trkpt>
      <trkpt lat="48.56462" lon="-2.96315">
        <ele>3</ele>
        <time>2013-12-02T13:55:14.1Z</time>
      </trkpt>
      <trkpt lat="48.56465" lon="-2.96318">
        <ele>3</ele>
        <time>2013-12-02T13:55:17.1Z</time>
      </trkpt>
      <trkpt lat="48.56466" lon="-2.9632">
        <ele>4</ele>
        <time>2013-12-02T13:55:20.1Z</time>
      </trkpt>
      <trkpt lat="48.56466" lon="-2.9632">
        <ele>4</ele>
        <time>2013-12-02T13:55:23.1Z</time>
      </trkpt>
      <trkpt lat="48.56468" lon="-2.96321">
        <ele>5</ele>
        <time>2013-12-02T13:55:25.1Z</time>
      </trkpt>
      <trkpt lat="48.56469" lon="-2.96322">
        <ele>5</ele>
        <time>2013-12-02T13:55:28.1Z</time>
      </trkpt>
      <trkpt lat="48.56471" lon="-2.96321">
        <ele>5</ele>
        <time>2013-12-02T13:55:30.1Z</time>
      </trkpt>
      <trkpt lat="48.56474" lon="-2.96321">
        <ele>5</ele>
        <time>2013-12-02T13:55:33.1Z</time>
      </trkpt>
      <trkpt lat="48.56475" lon="-2.96322">
        <ele>4</ele>
        <time>2013-12-02T13:55:35.1Z</time>
      </trkpt>
      <trkpt lat="48.5648" lon="-2.96324">
        <ele>4</ele>
        <time>2013-12-02T13:55:38.1Z</time>
      </trkpt>
      <trkpt lat="48.56482" lon="-2.96326">
        <ele>4</ele>
        <time>2013-12-02T13:55:41.1Z</time>
      </trkpt>
      <trkpt lat="48.56485" lon="-2.96331">
        <ele>4</ele>
        <time>2013-12-02T13:55:43.1Z</time>
      </trkpt>
      <trkpt lat="48.56488" lon="-2.96335">
        <ele>4</ele>
        <time>2013-12-02T13:55:46.1Z</time>
      </trkpt>
      <trkpt lat="48.56491" lon="-2.9634">
        <ele>4</ele>
        <time>2013-12-02T13:55:49.1Z</time>
      </trkpt>
      <trkpt lat="48.56492" lon="-2.96343">
        <ele>4</ele>
        <time>2013-12-02T13:55:51.1Z</time>
      </trkpt>
      <trkpt lat="48.56495" lon="-2.96347">
        <ele>4</ele>
        <time>2013-12-02T13:55:54.1Z</time>
      </trkpt>
      <trkpt lat="48.56496" lon="-2.9635">
        <ele>4</ele>
        <time>2013-12-02T13:55:56.1Z</time>
      </trkpt>
      <trkpt lat="48.56499" lon="-2.96354">
        <ele>4</ele>
        <time>2013-12-02T13:55:59.1Z</time>
      </trkpt>
      <trkpt lat="48.56501" lon="-2.96356">
        <ele>4</ele>
        <time>2013-12-02T13:56:02.1Z</time>
      </trkpt>
      <trkpt lat="48.56503" lon="-2.9636">
        <ele>4</ele>
        <time>2013-12-02T13:56:04.1Z</time>
      </trkpt>
      <trkpt lat="48.56505" lon="-2.96363">
        <ele>4</ele>
        <time>2013-12-02T13:56:07.1Z</time>
      </trkpt>
      <trkpt lat="48.56506" lon="-2.96365">
        <ele>4</ele>
        <time>2013-12-02T13:56:09.1Z</time>
      </trkpt>
      <trkpt lat="48.56508" lon="-2.96368">
        <ele>5</ele>
        <time>2013-12-02T13:56:12.1Z</time>
      </trkpt>
      <trkpt lat="48.56509" lon="-2.96369">
        <ele>5</ele>
        <time>2013-12-02T13:56:14.1Z</time>
      </trkpt>
      <trkpt lat="48.56511" lon="-2.96372">
        <ele>5</ele>
        <time>2013-12-02T13:56:17.1Z</time>
      </trkpt>
      <trkpt lat="48.56513" lon="-2.96374">
        <ele>5</ele>
        <time>2013-12-02T13:56:19.1Z</time>
      </trkpt>
      <trkpt lat="48.56515" lon="-2.96377">
        <ele>4</ele>
        <time>2013-12-02T13:56:22.1Z</time>
      </trkpt>
      <trkpt lat="48.56518" lon="-2.96379">
        <ele>4</ele>
        <time>2013-12-02T13:56:25.1Z</time>
      </trkpt>
      <trkpt lat="48.56519" lon="-2.96381">
        <ele>4</ele>
        <time>2013-12-02T13:56:28.1Z</time>
      </trkpt>
      <trkpt lat="48.56521" lon="-2.96383">
        <ele>4</ele>
        <time>2013-12-02T13:56:30.1Z</time>
      </trkpt>
      <trkpt lat="48.56523" lon="-2.96386">
        <ele>4</ele>
        <time>2013-12-02T13:56:33.1Z</time>
      </trkpt>
      <trkpt lat="48.56525" lon="-2.96389">
        <ele>5</ele>
        <time>2013-12-02T13:56:36.1Z</time>
      </trkpt>
      <trkpt lat="48.56526" lon="-2.96391">
        <ele>5</ele>
        <time>2013-12-02T13:56:38.1Z</time>
      </trkpt>
      <trkpt lat="48.56527" lon="-2.96393">
        <ele>5</ele>
        <time>2013-12-02T13:56:41.1Z</time>
      </trkpt>
      <trkpt lat="48.5653" lon="-2.96396">
        <ele>5</ele>
        <time>2013-12-02T13:56:44.1Z</time>
      </trkpt>
      <trkpt lat="48.56532" lon="-2.96399">
        <ele>5</ele>
        <time>2013-12-02T13:56:47.1Z</time>
      </trkpt>
      <trkpt lat="48.56533" lon="-2.96403">
        <ele>5</ele>
        <time>2013-12-02T13:56:50.1Z</time>
      </trkpt>
      <trkpt lat="48.56535" lon="-2.96406">
        <ele>5</ele>
        <time>2013-12-02T13:56:53.1Z</time>
      </trkpt>
      <trkpt lat="48.56537" lon="-2.96409">
        <ele>5</ele>
        <time>2013-12-02T13:56:56.1Z</time>
      </trkpt>
      <trkpt lat="48.56539" lon="-2.96413">
        <ele>5</ele>
        <time>2013-12-02T13:56:59.1Z</time>
      </trkpt>
      <trkpt lat="48.56541" lon="-2.96416">
        <ele>5</ele>
        <time>2013-12-02T13:57:01.1Z</time>
      </trkpt>
      <trkpt lat="48.56543" lon="-2.9642">
        <ele>5</ele>
        <time>2013-12-02T13:57:04.1Z</time>
      </trkpt>
      <trkpt lat="48.56546" lon="-2.96423">
        <ele>5</ele>
        <time>2013-12-02T13:57:07.1Z</time>
      </trkpt>
      <trkpt lat="48.56548" lon="-2.96428">
        <ele>5</ele>
        <time>2013-12-02T13:57:10.1Z</time>
      </trkpt>
      <trkpt lat="48.56551" lon="-2.96431">
        <ele>5</ele>
        <time>2013-12-02T13:57:13.1Z</time>
      </trkpt>
      <trkpt lat="48.56553" lon="-2.96434">
        <ele>5</ele>
        <time>2013-12-02T13:57:15.1Z</time>
      </trkpt>
      <trkpt lat="48.56556" lon="-2.96439">
        <ele>5</ele>
        <time>2013-12-02T13:57:18.1Z</time>
      </trkpt>
      <trkpt lat="48.56559" lon="-2.96443">
        <ele>5</ele>
        <time>2013-12-02T13:57:21.1Z</time>
      </trkpt>
      <trkpt lat="48.56562" lon="-2.96447">
        <ele>5</ele>
        <time>2013-12-02T13:57:24.1Z</time>
      </trkpt>
      <trkpt lat="48.56564" lon="-2.9645">
        <ele>5</ele>
        <time>2013-12-02T13:57:27.1Z</time>
      </trkpt>
      <trkpt lat="48.56566" lon="-2.96453">
        <ele>5</ele>
        <time>2013-12-02T13:57:29.1Z</time>
      </trkpt>
      <trkpt lat="48.56568" lon="-2.96455">
        <ele>6</ele>
        <time>2013-12-02T13:57:32.1Z</time>
      </trkpt>
      <trkpt lat="48.56569" lon="-2.96457">
        <ele>5</ele>
        <time>2013-12-02T13:57:34.1Z</time>
      </trkpt>
      <trkpt lat="48.56571" lon="-2.9646">
        <ele>6</ele>
        <time>2013-12-02T13:57:37.1Z</time>
      </trkpt>
      <trkpt lat="48.56574" lon="-2.96464">
        <ele>5</ele>
        <time>2013-12-02T13:57:40.1Z</time>
      </trkpt>
      <trkpt lat="48.56575" lon="-2.96466">
        <ele>6</ele>
        <time>2013-12-02T13:57:42.1Z</time>
      </trkpt>
      <trkpt lat="48.56577" lon="-2.96468">
        <ele>5</ele>
        <time>2013-12-02T13:57:45.1Z</time>
      </trkpt>
      <trkpt lat="48.56578" lon="-2.96471">
        <ele>5</ele>
        <time>2013-12-02T13:57:48.1Z</time>
      </trkpt>
      <trkpt lat="48.5658" lon="-2.96474">
        <ele>5</ele>
        <time>2013-12-02T13:57:50.1Z</time>
      </trkpt>
      <trkpt lat="48.56581" lon="-2.96476">
        <ele>5</ele>
        <time>2013-12-02T13:57:52.1Z</time>
      </trkpt>
      <trkpt lat="48.56583" lon="-2.96479">
        <ele>6</ele>
        <time>2013-12-02T13:57:55.1Z</time>
      </trkpt>
      <trkpt lat="48.56583" lon="-2.9648">
        <ele>6</ele>
        <time>2013-12-02T13:57:57.1Z</time>
      </trkpt>
      <trkpt lat="48.56583" lon="-2.9648">
        <ele>6</ele>
        <time>2013-12-02T13:58:00.1Z</time>
      </trkpt>
      <trkpt lat="48.56585" lon="-2.96482">
        <ele>6</ele>
        <time>2013-12-02T13:58:03.1Z</time>
      </trkpt>
      <trkpt lat="48.56587" lon="-2.96484">
        <ele>6</ele>
        <time>2013-12-02T13:58:06.1Z</time>
      </trkpt>
      <trkpt lat="48.5659" lon="-2.96487">
        <ele>6</ele>
        <time>2013-12-02T13:58:09.1Z</time>
      </trkpt>
      <trkpt lat="48.56591" lon="-2.96489">
        <ele>6</ele>
        <time>2013-12-02T13:58:12.1Z</time>
      </trkpt>
      <trkpt lat="48.56593" lon="-2.96492">
        <ele>6</ele>
        <time>2013-12-02T13:58:14.1Z</time>
      </trkpt>
      <trkpt lat="48.56594" lon="-2.96495">
        <ele>5</ele>
        <time>2013-12-02T13:58:16.1Z</time>
      </trkpt>
      <trkpt lat="48.56595" lon="-2.96496">
        <ele>5</ele>
        <time>2013-12-02T13:58:19.1Z</time>
      </trkpt>
      <trkpt lat="48.56596" lon="-2.96497">
        <ele>6</ele>
        <time>2013-12-02T13:58:21.1Z</time>
      </trkpt>
      <trkpt lat="48.56597" lon="-2.96498">
        <ele>6</ele>
        <time>2013-12-02T13:58:24.1Z</time>
      </trkpt>
      <trkpt lat="48.56598" lon="-2.965">
        <ele>6</ele>
        <time>2013-12-02T13:58:27.1Z</time>
      </trkpt>
      <trkpt lat="48.566" lon="-2.96503">
        <ele>6</ele>
        <time>2013-12-02T13:58:30.1Z</time>
      </trkpt>
      <trkpt lat="48.56601" lon="-2.96505">
        <ele>6</ele>
        <time>2013-12-02T13:58:33.1Z</time>
      </trkpt>
      <trkpt lat="48.56603" lon="-2.96507">
        <ele>6</ele>
        <time>2013-12-02T13:58:35.1Z</time>
      </trkpt>
      <trkpt lat="48.56605" lon="-2.9651">
        <ele>6</ele>
        <time>2013-12-02T13:58:37.1Z</time>
      </trkpt>
      <trkpt lat="48.56606" lon="-2.96513">
        <ele>6</ele>
        <time>2013-12-02T13:58:40.1Z</time>
      </trkpt>
      <trkpt lat="48.56607" lon="-2.96516">
        <ele>6</ele>
        <time>2013-12-02T13:58:42.1Z</time>
      </trkpt>
      <trkpt lat="48.56607" lon="-2.9652">
        <ele>7</ele>
        <time>2013-12-02T13:58:45.1Z</time>
      </trkpt>
      <trkpt lat="48.56607" lon="-2.9652">
        <ele>7</ele>
        <time>2013-12-02T13:58:47.1Z</time>
      </trkpt>
      <trkpt lat="48.56607" lon="-2.96521">
        <ele>7</ele>
        <time>2013-12-02T13:58:50.1Z</time>
      </trkpt>
      <trkpt lat="48.56607" lon="-2.96522">
        <ele>7</ele>
        <time>2013-12-02T13:58:54.1Z</time>
      </trkpt>
      <trkpt lat="48.56607" lon="-2.96521">
        <ele>7</ele>
        <time>2013-12-02T13:58:57.1Z</time>
      </trkpt>
      <trkpt lat="48.56608" lon="-2.96521">
        <ele>7</ele>
        <time>2013-12-02T13:58:59.1Z</time>
      </trkpt>
      <trkpt lat="48.56608" lon="-2.96522">
        <ele>8</ele>
        <time>2013-12-02T13:59:03.1Z</time>
      </trkpt>
      <trkpt lat="48.56607" lon="-2.96524">
        <ele>8</ele>
        <time>2013-12-02T13:59:06.1Z</time>
      </trkpt>
      <trkpt lat="48.56607" lon="-2.96526">
        <ele>8</ele>
        <time>2013-12-02T13:59:09.1Z</time>
      </trkpt>
      <trkpt lat="48.56606" lon="-2.96527">
        <ele>7</ele>
        <time>2013-12-02T13:59:11.1Z</time>
      </trkpt>
      <trkpt lat="48.56607" lon="-2.96525">
        <ele>7</ele>
        <time>2013-12-02T13:59:14.1Z</time>
      </trkpt>
      <trkpt lat="48.56607" lon="-2.96521">
        <ele>7</ele>
        <time>2013-12-02T13:59:17.1Z</time>
      </trkpt>
      <trkpt lat="48.56609" lon="-2.9652">
        <ele>7</ele>
        <time>2013-12-02T13:59:20.1Z</time>
      </trkpt>
      <trkpt lat="48.56609" lon="-2.96517">
        <ele>7</ele>
        <time>2013-12-02T13:59:23.1Z</time>
      </trkpt>
      <trkpt lat="48.56609" lon="-2.96513">
        <ele>6</ele>
        <time>2013-12-02T13:59:26.1Z</time>
      </trkpt>
      <trkpt lat="48.56608" lon="-2.9651">
        <ele>6</ele>
        <time>2013-12-02T13:59:28.1Z</time>
      </trkpt>
      <trkpt lat="48.56607" lon="-2.96507">
        <ele>6</ele>
        <time>2013-12-02T13:59:31.1Z</time>
      </trkpt>
      <trkpt lat="48.56607" lon="-2.96505">
        <ele>6</ele>
        <time>2013-12-02T13:59:33.1Z</time>
      </trkpt>
      <trkpt lat="48.56607" lon="-2.96504">
        <ele>6</ele>
        <time>2013-12-02T13:59:36.1Z</time>
      </trkpt>
      <trkpt lat="48.56607" lon="-2.96504">
        <ele>6</ele>
        <time>2013-12-02T13:59:39.1Z</time>
      </trkpt>
      <trkpt lat="48.56607" lon="-2.96502">
        <ele>6</ele>
        <time>2013-12-02T13:59:42.1Z</time>
      </trkpt>
      <trkpt lat="48.56607" lon="-2.96502">
        <ele>6</ele>
        <time>2013-12-02T13:59:44.1Z</time>
      </trkpt>
      <trkpt lat="48.56607" lon="-2.96501">
        <ele>6</ele>
        <time>2013-12-02T13:59:46.1Z</time>
      </trkpt>
      <trkpt lat="48.56607" lon="-2.965">
        <ele>7</ele>
        <time>2013-12-02T13:59:49.1Z</time>
      </trkpt>
      <trkpt lat="48.56607" lon="-2.965">
        <ele>6</ele>
        <time>2013-12-02T13:59:51.1Z</time>
      </trkpt>
      <trkpt lat="48.56607" lon="-2.96498">
        <ele>7</ele>
        <time>2013-12-02T13:59:54.1Z</time>
      </trkpt>
      <trkpt lat="48.56608" lon="-2.96498">
        <ele>6</ele>
        <time>2013-12-02T13:59:56.1Z</time>
      </trkpt>
      <trkpt lat="48.56609" lon="-2.96498">
        <ele>6</ele>
        <time>2013-12-02T13:59:58.1Z</time>
      </trkpt>
      <trkpt lat="48.56609" lon="-2.96497">
        <ele>6</ele>
        <time>2013-12-02T14:00:01.1Z</time>
      </trkpt>
      <trkpt lat="48.56608" lon="-2.96496">
        <ele>6</ele>
        <time>2013-12-02T14:00:04.1Z</time>
      </trkpt>
      <trkpt lat="48.56608" lon="-2.96495">
        <ele>6</ele>
        <time>2013-12-02T14:00:06.1Z</time>
      </trkpt>
      <trkpt lat="48.56607" lon="-2.96494">
        <ele>6</ele>
        <time>2013-12-02T14:00:09.1Z</time>
      </trkpt>
      <trkpt lat="48.56607" lon="-2.96493">
        <ele>6</ele>
        <time>2013-12-02T14:00:11.1Z</time>
      </trkpt>
      <trkpt lat="48.56606" lon="-2.96493">
        <ele>6</ele>
        <time>2013-12-02T14:00:13.1Z</time>
      </trkpt>
      <trkpt lat="48.56606" lon="-2.96492">
        <ele>7</ele>
        <time>2013-12-02T14:00:16.1Z</time>
      </trkpt>
      <trkpt lat="48.56606" lon="-2.96492">
        <ele>7</ele>
        <time>2013-12-02T14:00:18.1Z</time>
      </trkpt>
      <trkpt lat="48.56606" lon="-2.96491">
        <ele>6</ele>
        <time>2013-12-02T14:00:21.1Z</time>
      </trkpt>
      <trkpt lat="48.56605" lon="-2.96491">
        <ele>6</ele>
        <time>2013-12-02T14:00:23.1Z</time>
      </trkpt>
      <trkpt lat="48.56605" lon="-2.96492">
        <ele>6</ele>
        <time>2013-12-02T14:00:26.1Z</time>
      </trkpt>
      <trkpt lat="48.56605" lon="-2.96492">
        <ele>6</ele>
        <time>2013-12-02T14:00:29.1Z</time>
      </trkpt>
      <trkpt lat="48.56605" lon="-2.96494">
        <ele>6</ele>
        <time>2013-12-02T14:00:32.1Z</time>
      </trkpt>
      <trkpt lat="48.56604" lon="-2.96495">
        <ele>6</ele>
        <time>2013-12-02T14:00:34.1Z</time>
      </trkpt>
      <trkpt lat="48.56604" lon="-2.96499">
        <ele>6</ele>
        <time>2013-12-02T14:00:37.1Z</time>
      </trkpt>
      <trkpt lat="48.56603" lon="-2.965">
        <ele>7</ele>
        <time>2013-12-02T14:00:39.1Z</time>
      </trkpt>
      <trkpt lat="48.56602" lon="-2.96504">
        <ele>7</ele>
        <time>2013-12-02T14:00:42.1Z</time>
      </trkpt>
      <trkpt lat="48.56601" lon="-2.96506">
        <ele>7</ele>
        <time>2013-12-02T14:00:44.1Z</time>
      </trkpt>
      <trkpt lat="48.56599" lon="-2.96509">
        <ele>7</ele>
        <time>2013-12-02T14:00:47.1Z</time>
      </trkpt>
      <trkpt lat="48.56598" lon="-2.96512">
        <ele>7</ele>
        <time>2013-12-02T14:00:49.1Z</time>
      </trkpt>
      <trkpt lat="48.56596" lon="-2.96516">
        <ele>7</ele>
        <time>2013-12-02T14:00:52.1Z</time>
      </trkpt>
      <trkpt lat="48.56594" lon="-2.96519">
        <ele>8</ele>
        <time>2013-12-02T14:00:55.1Z</time>
      </trkpt>
      <trkpt lat="48.56593" lon="-2.96521">
        <ele>8</ele>
        <time>2013-12-02T14:00:57.1Z</time>
      </trkpt>
      <trkpt lat="48.56591" lon="-2.96525">
        <ele>8</ele>
        <time>2013-12-02T14:01:00.1Z</time>
      </trkpt>
      <trkpt lat="48.5659" lon="-2.96526">
        <ele>8</ele>
        <time>2013-12-02T14:01:02.1Z</time>
      </trkpt>
      <trkpt lat="48.56588" lon="-2.96529">
        <ele>8</ele>
        <time>2013-12-02T14:01:05.1Z</time>
      </trkpt>
      <trkpt lat="48.56585" lon="-2.96532">
        <ele>8</ele>
        <time>2013-12-02T14:01:08.1Z</time>
      </trkpt>
      <trkpt lat="48.56583" lon="-2.96535">
        <ele>9</ele>
        <time>2013-12-02T14:01:11.1Z</time>
      </trkpt>
      <trkpt lat="48.5658" lon="-2.96538">
        <ele>9</ele>
        <time>2013-12-02T14:01:14.1Z</time>
      </trkpt>
      <trkpt lat="48.56578" lon="-2.96542">
        <ele>9</ele>
        <time>2013-12-02T14:01:17.1Z</time>
      </trkpt>
      <trkpt lat="48.56576" lon="-2.96545">
        <ele>9</ele>
        <time>2013-12-02T14:01:20.1Z</time>
      </trkpt>
      <trkpt lat="48.56574" lon="-2.96548">
        <ele>9</ele>
        <time>2013-12-02T14:01:23.1Z</time>
      </trkpt>
      <trkpt lat="48.56572" lon="-2.9655">
        <ele>10</ele>
        <time>2013-12-02T14:01:26.1Z</time>
      </trkpt>
      <trkpt lat="48.5657" lon="-2.96553">
        <ele>10</ele>
        <time>2013-12-02T14:01:30.1Z</time>
      </trkpt>
      <trkpt lat="48.56569" lon="-2.96554">
        <ele>10</ele>
        <time>2013-12-02T14:01:32.1Z</time>
      </trkpt>
      <trkpt lat="48.56569" lon="-2.96555">
        <ele>10</ele>
        <time>2013-12-02T14:01:35.1Z</time>
      </trkpt>
      <trkpt lat="48.56568" lon="-2.96557">
        <ele>10</ele>
        <time>2013-12-02T14:01:38.1Z</time>
      </trkpt>
      <trkpt lat="48.56567" lon="-2.96557">
        <ele>10</ele>
        <time>2013-12-02T14:01:41.1Z</time>
      </trkpt>
      <trkpt lat="48.56565" lon="-2.96556">
        <ele>10</ele>
        <time>2013-12-02T14:01:44.1Z</time>
      </trkpt>
      <trkpt lat="48.56564" lon="-2.96556">
        <ele>10</ele>
        <time>2013-12-02T14:01:46.1Z</time>
      </trkpt>
      <trkpt lat="48.56562" lon="-2.96555">
        <ele>11</ele>
        <time>2013-12-02T14:01:48.1Z</time>
      </trkpt>
      <trkpt lat="48.5656" lon="-2.96555">
        <ele>10</ele>
        <time>2013-12-02T14:01:50.1Z</time>
      </trkpt>
      <trkpt lat="48.56558" lon="-2.96553">
        <ele>11</ele>
        <time>2013-12-02T14:01:53.1Z</time>
      </trkpt>
      <trkpt lat="48.56556" lon="-2.96552">
        <ele>11</ele>
        <time>2013-12-02T14:01:55.1Z</time>
      </trkpt>
      <trkpt lat="48.56554" lon="-2.96552">
        <ele>11</ele>
        <time>2013-12-02T14:01:58.1Z</time>
      </trkpt>
      <trkpt lat="48.56553" lon="-2.96551">
        <ele>11</ele>
        <time>2013-12-02T14:02:01.1Z</time>
      </trkpt>
      <trkpt lat="48.56552" lon="-2.96551">
        <ele>11</ele>
        <time>2013-12-02T14:02:03.1Z</time>
      </trkpt>
      <trkpt lat="48.56551" lon="-2.96551">
        <ele>11</ele>
        <time>2013-12-02T14:02:06.1Z</time>
      </trkpt>
      <trkpt lat="48.56549" lon="-2.96551">
        <ele>11</ele>
        <time>2013-12-02T14:02:09.1Z</time>
      </trkpt>
      <trkpt lat="48.56548" lon="-2.96552">
        <ele>11</ele>
        <time>2013-12-02T14:02:12.1Z</time>
      </trkpt>
      <trkpt lat="48.56548" lon="-2.96554">
        <ele>11</ele>
        <time>2013-12-02T14:02:15.1Z</time>
      </trkpt>
      <trkpt lat="48.56548" lon="-2.96556">
        <ele>11</ele>
        <time>2013-12-02T14:02:17.1Z</time>
      </trkpt>
      <trkpt lat="48.5655" lon="-2.96557">
        <ele>11</ele>
        <time>2013-12-02T14:02:20.1Z</time>
      </trkpt>
      <trkpt lat="48.56551" lon="-2.96557">
        <ele>11</ele>
        <time>2013-12-02T14:02:23.1Z</time>
      </trkpt>
      <trkpt lat="48.56552" lon="-2.96558">
        <ele>11</ele>
        <time>2013-12-02T14:02:25.1Z</time>
      </trkpt>
      <trkpt lat="48.56553" lon="-2.96558">
        <ele>11</ele>
        <time>2013-12-02T14:02:27.1Z</time>
      </trkpt>
      <trkpt lat="48.56554" lon="-2.96558">
        <ele>11</ele>
        <time>2013-12-02T14:02:29.1Z</time>
      </trkpt>
      <trkpt lat="48.56554" lon="-2.96558">
        <ele>11</ele>
        <time>2013-12-02T14:02:32.1Z</time>
      </trkpt>
      <trkpt lat="48.56554" lon="-2.96559">
        <ele>11</ele>
        <time>2013-12-02T14:02:34.1Z</time>
      </trkpt>
      <trkpt lat="48.56554" lon="-2.96558">
        <ele>11</ele>
        <time>2013-12-02T14:02:39.1Z</time>
      </trkpt>
      <trkpt lat="48.56554" lon="-2.96559">
        <ele>11</ele>
        <time>2013-12-02T14:02:41.1Z</time>
      </trkpt>
      <trkpt lat="48.56554" lon="-2.96558">
        <ele>11</ele>
        <time>2013-12-02T14:02:44.1Z</time>
      </trkpt>
      <trkpt lat="48.56555" lon="-2.96557">
        <ele>11</ele>
        <time>2013-12-02T14:02:47.1Z</time>
      </trkpt>
      <trkpt lat="48.56555" lon="-2.96558">
        <ele>11</ele>
        <time>2013-12-02T14:02:49.1Z</time>
      </trkpt>
      <trkpt lat="48.56555" lon="-2.96558">
        <ele>11</ele>
        <time>2013-12-02T14:02:52.1Z</time>
      </trkpt>
      <trkpt lat="48.56556" lon="-2.96558">
        <ele>11</ele>
        <time>2013-12-02T14:02:54.1Z</time>
      </trkpt>
      <trkpt lat="48.56557" lon="-2.96559">
        <ele>11</ele>
        <time>2013-12-02T14:02:57.1Z</time>
      </trkpt>
      <trkpt lat="48.56558" lon="-2.96558">
        <ele>11</ele>
        <time>2013-12-02T14:03:00.1Z</time>
      </trkpt>
      <trkpt lat="48.56559" lon="-2.96558">
        <ele>11</ele>
        <time>2013-12-02T14:03:03.1Z</time>
      </trkpt>
      <trkpt lat="48.56559" lon="-2.96558">
        <ele>10</ele>
        <time>2013-12-02T14:03:06.1Z</time>
      </trkpt>
      <trkpt lat="48.5656" lon="-2.96558">
        <ele>10</ele>
        <time>2013-12-02T14:03:08.1Z</time>
      </trkpt>
      <trkpt lat="48.56562" lon="-2.9656">
        <ele>10</ele>
        <time>2013-12-02T14:03:11.1Z</time>
      </trkpt>
      <trkpt lat="48.56562" lon="-2.96561">
        <ele>10</ele>
        <time>2013-12-02T14:03:13.1Z</time>
      </trkpt>
      <trkpt lat="48.56561" lon="-2.96564">
        <ele>10</ele>
        <time>2013-12-02T14:03:16.1Z</time>
      </trkpt>
      <trkpt lat="48.56559" lon="-2.96566">
        <ele>10</ele>
        <time>2013-12-02T14:03:19.1Z</time>
      </trkpt>
      <trkpt lat="48.56558" lon="-2.96568">
        <ele>11</ele>
        <time>2013-12-02T14:03:21.1Z</time>
      </trkpt>
      <trkpt lat="48.56556" lon="-2.96569">
        <ele>11</ele>
        <time>2013-12-02T14:03:23.1Z</time>
      </trkpt>
      <trkpt lat="48.56553" lon="-2.96572">
        <ele>11</ele>
        <time>2013-12-02T14:03:26.1Z</time>
      </trkpt>
      <trkpt lat="48.56551" lon="-2.96576">
        <ele>11</ele>
        <time>2013-12-02T14:03:29.1Z</time>
      </trkpt>
      <trkpt lat="48.56548" lon="-2.96578">
        <ele>11</ele>
        <time>2013-12-02T14:03:31.1Z</time>
      </trkpt>
      <trkpt lat="48.56545" lon="-2.96581">
        <ele>11</ele>
        <time>2013-12-02T14:03:34.1Z</time>
      </trkpt>
      <trkpt lat="48.56543" lon="-2.96585">
        <ele>11</ele>
        <time>2013-12-02T14:03:37.1Z</time>
      </trkpt>
      <trkpt lat="48.56542" lon="-2.96589">
        <ele>12</ele>
        <time>2013-12-02T14:03:40.1Z</time>
      </trkpt>
      <trkpt lat="48.56541" lon="-2.96592">
        <ele>12</ele>
        <time>2013-12-02T14:03:43.1Z</time>
      </trkpt>
      <trkpt lat="48.56539" lon="-2.96593">
        <ele>12</ele>
        <time>2013-12-02T14:03:45.1Z</time>
      </trkpt>
      <trkpt lat="48.56538" lon="-2.96597">
        <ele>12</ele>
        <time>2013-12-02T14:03:48.1Z</time>
      </trkpt>
      <trkpt lat="48.56536" lon="-2.96601">
        <ele>12</ele>
        <time>2013-12-02T14:03:51.1Z</time>
      </trkpt>
      <trkpt lat="48.56535" lon="-2.96605">
        <ele>12</ele>
        <time>2013-12-02T14:03:54.1Z</time>
      </trkpt>
      <trkpt lat="48.56534" lon="-2.96607">
        <ele>13</ele>
        <time>2013-12-02T14:03:56.1Z</time>
      </trkpt>
      <trkpt lat="48.56533" lon="-2.96611">
        <ele>13</ele>
        <time>2013-12-02T14:03:59.1Z</time>
      </trkpt>
      <trkpt lat="48.56532" lon="-2.96614">
        <ele>13</ele>
        <time>2013-12-02T14:04:01.1Z</time>
      </trkpt>
      <trkpt lat="48.5653" lon="-2.96618">
        <ele>13</ele>
        <time>2013-12-02T14:04:04.1Z</time>
      </trkpt>
      <trkpt lat="48.56528" lon="-2.96622">
        <ele>13</ele>
        <time>2013-12-02T14:04:07.1Z</time>
      </trkpt>
      <trkpt lat="48.56527" lon="-2.96624">
        <ele>13</ele>
        <time>2013-12-02T14:04:09.1Z</time>
      </trkpt>
      <trkpt lat="48.56525" lon="-2.96628">
        <ele>14</ele>
        <time>2013-12-02T14:04:12.1Z</time>
      </trkpt>
      <trkpt lat="48.56524" lon="-2.96631">
        <ele>14</ele>
        <time>2013-12-02T14:04:14.1Z</time>
      </trkpt>
      <trkpt lat="48.56522" lon="-2.96634">
        <ele>14</ele>
        <time>2013-12-02T14:04:16.1Z</time>
      </trkpt>
      <trkpt lat="48.5652" lon="-2.96638">
        <ele>14</ele>
        <time>2013-12-02T14:04:19.1Z</time>
      </trkpt>
      <trkpt lat="48.56519" lon="-2.96641">
        <ele>14</ele>
        <time>2013-12-02T14:04:21.1Z</time>
      </trkpt>
      <trkpt lat="48.56518" lon="-2.96643">
        <ele>14</ele>
        <time>2013-12-02T14:04:23.1Z</time>
      </trkpt>
      <trkpt lat="48.56517" lon="-2.96647">
        <ele>14</ele>
        <time>2013-12-02T14:04:26.1Z</time>
      </trkpt>
      <trkpt lat="48.56516" lon="-2.9665">
        <ele>15</ele>
        <time>2013-12-02T14:04:28.1Z</time>
      </trkpt>
      <trkpt lat="48.56514" lon="-2.96654">
        <ele>14</ele>
        <time>2013-12-02T14:04:31.1Z</time>
      </trkpt>
      <trkpt lat="48.56513" lon="-2.96658">
        <ele>14</ele>
        <time>2013-12-02T14:04:34.1Z</time>
      </trkpt>
      <trkpt lat="48.56511" lon="-2.96661">
        <ele>14</ele>
        <time>2013-12-02T14:04:37.1Z</time>
      </trkpt>
      <trkpt lat="48.5651" lon="-2.96664">
        <ele>14</ele>
        <time>2013-12-02T14:04:39.1Z</time>
      </trkpt>
      <trkpt lat="48.56508" lon="-2.96669">
        <ele>14</ele>
        <time>2013-12-02T14:04:42.1Z</time>
      </trkpt>
      <trkpt lat="48.56506" lon="-2.96673">
        <ele>14</ele>
        <time>2013-12-02T14:04:45.1Z</time>
      </trkpt>
      <trkpt lat="48.56505" lon="-2.96676">
        <ele>15</ele>
        <time>2013-12-02T14:04:47.1Z</time>
      </trkpt>
      <trkpt lat="48.56504" lon="-2.9668">
        <ele>15</ele>
        <time>2013-12-02T14:04:50.1Z</time>
      </trkpt>
      <trkpt lat="48.56502" lon="-2.96683">
        <ele>15</ele>
        <time>2013-12-02T14:04:52.1Z</time>
      </trkpt>
      <trkpt lat="48.56501" lon="-2.96685">
        <ele>15</ele>
        <time>2013-12-02T14:04:54.1Z</time>
      </trkpt>
      <trkpt lat="48.565" lon="-2.96689">
        <ele>15</ele>
        <time>2013-12-02T14:04:57.1Z</time>
      </trkpt>
      <trkpt lat="48.56497" lon="-2.96693">
        <ele>15</ele>
        <time>2013-12-02T14:05:00.1Z</time>
      </trkpt>
      <trkpt lat="48.56496" lon="-2.96696">
        <ele>16</ele>
        <time>2013-12-02T14:05:02.1Z</time>
      </trkpt>
      <trkpt lat="48.56494" lon="-2.967">
        <ele>15</ele>
        <time>2013-12-02T14:05:05.1Z</time>
      </trkpt>
      <trkpt lat="48.56493" lon="-2.96703">
        <ele>15</ele>
        <time>2013-12-02T14:05:07.1Z</time>
      </trkpt>
      <trkpt lat="48.56491" lon="-2.96707">
        <ele>15</ele>
        <time>2013-12-02T14:05:10.1Z</time>
      </trkpt>
      <trkpt lat="48.56489" lon="-2.96711">
        <ele>15</ele>
        <time>2013-12-02T14:05:13.1Z</time>
      </trkpt>
      <trkpt lat="48.56488" lon="-2.96713">
        <ele>15</ele>
        <time>2013-12-02T14:05:15.1Z</time>
      </trkpt>
      <trkpt lat="48.56486" lon="-2.96718">
        <ele>15</ele>
        <time>2013-12-02T14:05:18.1Z</time>
      </trkpt>
      <trkpt lat="48.56485" lon="-2.96721">
        <ele>15</ele>
        <time>2013-12-02T14:05:20.1Z</time>
      </trkpt>
      <trkpt lat="48.56484" lon="-2.96724">
        <ele>15</ele>
        <time>2013-12-02T14:05:22.1Z</time>
      </trkpt>
      <trkpt lat="48.56483" lon="-2.96728">
        <ele>15</ele>
        <time>2013-12-02T14:05:25.1Z</time>
      </trkpt>
      <trkpt lat="48.56482" lon="-2.96731">
        <ele>16</ele>
        <time>2013-12-02T14:05:27.1Z</time>
      </trkpt>
      <trkpt lat="48.56481" lon="-2.96735">
        <ele>16</ele>
        <time>2013-12-02T14:05:29.1Z</time>
      </trkpt>
      <trkpt lat="48.56479" lon="-2.96739">
        <ele>16</ele>
        <time>2013-12-02T14:05:32.1Z</time>
      </trkpt>
      <trkpt lat="48.56478" lon="-2.96743">
        <ele>16</ele>
        <time>2013-12-02T14:05:35.1Z</time>
      </trkpt>
      <trkpt lat="48.56477" lon="-2.96747">
        <ele>16</ele>
        <time>2013-12-02T14:05:38.1Z</time>
      </trkpt>
      <trkpt lat="48.56475" lon="-2.96752">
        <ele>16</ele>
        <time>2013-12-02T14:05:41.1Z</time>
      </trkpt>
      <trkpt lat="48.56473" lon="-2.96757">
        <ele>16</ele>
        <time>2013-12-02T14:05:44.1Z</time>
      </trkpt>
      <trkpt lat="48.56472" lon="-2.9676">
        <ele>16</ele>
        <time>2013-12-02T14:05:46.1Z</time>
      </trkpt>
      <trkpt lat="48.56471" lon="-2.96763">
        <ele>16</ele>
        <time>2013-12-02T14:05:49.1Z</time>
      </trkpt>
      <trkpt lat="48.56469" lon="-2.96767">
        <ele>16</ele>
        <time>2013-12-02T14:05:52.1Z</time>
      </trkpt>
      <trkpt lat="48.56467" lon="-2.9677">
        <ele>16</ele>
        <time>2013-12-02T14:05:55.1Z</time>
      </trkpt>
      <trkpt lat="48.56466" lon="-2.96773">
        <ele>17</ele>
        <time>2013-12-02T14:05:57.1Z</time>
      </trkpt>
      <trkpt lat="48.56465" lon="-2.96776">
        <ele>17</ele>
        <time>2013-12-02T14:06:00.1Z</time>
      </trkpt>
      <trkpt lat="48.56463" lon="-2.9678">
        <ele>17</ele>
        <time>2013-12-02T14:06:03.1Z</time>
      </trkpt>
      <trkpt lat="48.56462" lon="-2.96783">
        <ele>17</ele>
        <time>2013-12-02T14:06:05.1Z</time>
      </trkpt>
      <trkpt lat="48.5646" lon="-2.96787">
        <ele>17</ele>
        <time>2013-12-02T14:06:08.1Z</time>
      </trkpt>
      <trkpt lat="48.56459" lon="-2.96789">
        <ele>17</ele>
        <time>2013-12-02T14:06:10.1Z</time>
      </trkpt>
      <trkpt lat="48.56457" lon="-2.96793">
        <ele>17</ele>
        <time>2013-12-02T14:06:13.1Z</time>
      </trkpt>
      <trkpt lat="48.56456" lon="-2.96796">
        <ele>17</ele>
        <time>2013-12-02T14:06:15.1Z</time>
      </trkpt>
      <trkpt lat="48.56454" lon="-2.968">
        <ele>17</ele>
        <time>2013-12-02T14:06:18.1Z</time>
      </trkpt>
      <trkpt lat="48.56452" lon="-2.96804">
        <ele>17</ele>
        <time>2013-12-02T14:06:21.1Z</time>
      </trkpt>
      <trkpt lat="48.56451" lon="-2.96809">
        <ele>17</ele>
        <time>2013-12-02T14:06:24.1Z</time>
      </trkpt>
      <trkpt lat="48.5645" lon="-2.96811">
        <ele>17</ele>
        <time>2013-12-02T14:06:26.1Z</time>
      </trkpt>
      <trkpt lat="48.56449" lon="-2.96815">
        <ele>17</ele>
        <time>2013-12-02T14:06:29.1Z</time>
      </trkpt>
      <trkpt lat="48.56448" lon="-2.96818">
        <ele>17</ele>
        <time>2013-12-02T14:06:31.1Z</time>
      </trkpt>
      <trkpt lat="48.56446" lon="-2.96821">
        <ele>18</ele>
        <time>2013-12-02T14:06:34.1Z</time>
      </trkpt>
      <trkpt lat="48.56445" lon="-2.96826">
        <ele>17</ele>
        <time>2013-12-02T14:06:37.1Z</time>
      </trkpt>
      <trkpt lat="48.56444" lon="-2.9683">
        <ele>17</ele>
        <time>2013-12-02T14:06:40.1Z</time>
      </trkpt>
      <trkpt lat="48.56443" lon="-2.96835">
        <ele>17</ele>
        <time>2013-12-02T14:06:43.1Z</time>
      </trkpt>
      <trkpt lat="48.56442" lon="-2.96838">
        <ele>17</ele>
        <time>2013-12-02T14:06:45.1Z</time>
      </trkpt>
      <trkpt lat="48.5644" lon="-2.96843">
        <ele>17</ele>
        <time>2013-12-02T14:06:48.1Z</time>
      </trkpt>
      <trkpt lat="48.5644" lon="-2.96846">
        <ele>17</ele>
        <time>2013-12-02T14:06:50.1Z</time>
      </trkpt>
      <trkpt lat="48.56439" lon="-2.96849">
        <ele>17</ele>
        <time>2013-12-02T14:06:52.1Z</time>
      </trkpt>
      <trkpt lat="48.56437" lon="-2.96853">
        <ele>17</ele>
        <time>2013-12-02T14:06:55.1Z</time>
      </trkpt>
      <trkpt lat="48.56435" lon="-2.96857">
        <ele>18</ele>
        <time>2013-12-02T14:06:58.1Z</time>
      </trkpt>
      <trkpt lat="48.56435" lon="-2.9686">
        <ele>17</ele>
        <time>2013-12-02T14:07:00.1Z</time>
      </trkpt>
      <trkpt lat="48.56433" lon="-2.96865">
        <ele>17</ele>
        <time>2013-12-02T14:07:03.1Z</time>
      </trkpt>
      <trkpt lat="48.56432" lon="-2.96868">
        <ele>17</ele>
        <time>2013-12-02T14:07:06.1Z</time>
      </trkpt>
      <trkpt lat="48.56431" lon="-2.9687">
        <ele>17</ele>
        <time>2013-12-02T14:07:08.1Z</time>
      </trkpt>
      <trkpt lat="48.5643" lon="-2.96872">
        <ele>16</ele>
        <time>2013-12-02T14:07:11.1Z</time>
      </trkpt>
      <trkpt lat="48.56427" lon="-2.96872">
        <ele>17</ele>
        <time>2013-12-02T14:07:14.1Z</time>
      </trkpt>
      <trkpt lat="48.56424" lon="-2.96871">
        <ele>16</ele>
        <time>2013-12-02T14:07:17.1Z</time>
      </trkpt>
      <trkpt lat="48.56423" lon="-2.96869">
        <ele>16</ele>
        <time>2013-12-02T14:07:19.1Z</time>
      </trkpt>
      <trkpt lat="48.5642" lon="-2.96867">
        <ele>16</ele>
        <time>2013-12-02T14:07:22.1Z</time>
      </trkpt>
      <trkpt lat="48.56418" lon="-2.96865">
        <ele>16</ele>
        <time>2013-12-02T14:07:24.1Z</time>
      </trkpt>
      <trkpt lat="48.56415" lon="-2.96863">
        <ele>16</ele>
        <time>2013-12-02T14:07:27.1Z</time>
      </trkpt>
      <trkpt lat="48.56412" lon="-2.96861">
        <ele>16</ele>
        <time>2013-12-02T14:07:30.1Z</time>
      </trkpt>
      <trkpt lat="48.56409" lon="-2.96858">
        <ele>16</ele>
        <time>2013-12-02T14:07:33.1Z</time>
      </trkpt>
      <trkpt lat="48.56406" lon="-2.96855">
        <ele>16</ele>
        <time>2013-12-02T14:07:36.1Z</time>
      </trkpt>
      <trkpt lat="48.56404" lon="-2.96854">
        <ele>16</ele>
        <time>2013-12-02T14:07:38.1Z</time>
      </trkpt>
      <trkpt lat="48.56401" lon="-2.96852">
        <ele>16</ele>
        <time>2013-12-02T14:07:41.1Z</time>
      </trkpt>
      <trkpt lat="48.564" lon="-2.96851">
        <ele>16</ele>
        <time>2013-12-02T14:07:43.1Z</time>
      </trkpt>
      <trkpt lat="48.56397" lon="-2.96849">
        <ele>16</ele>
        <time>2013-12-02T14:07:46.1Z</time>
      </trkpt>
      <trkpt lat="48.56394" lon="-2.96847">
        <ele>16</ele>
        <time>2013-12-02T14:07:49.1Z</time>
      </trkpt>
      <trkpt lat="48.56392" lon="-2.96847">
        <ele>15</ele>
        <time>2013-12-02T14:07:51.1Z</time>
      </trkpt>
      <trkpt lat="48.56391" lon="-2.96845">
        <ele>15</ele>
        <time>2013-12-02T14:07:53.1Z</time>
      </trkpt>
      <trkpt lat="48.56388" lon="-2.96844">
        <ele>15</ele>
        <time>2013-12-02T14:07:56.1Z</time>
      </trkpt>
      <trkpt lat="48.56386" lon="-2.96843">
        <ele>15</ele>
        <time>2013-12-02T14:07:58.1Z</time>
      </trkpt>
      <trkpt lat="48.56384" lon="-2.96841">
        <ele>15</ele>
        <time>2013-12-02T14:08:01.1Z</time>
      </trkpt>
      <trkpt lat="48.56382" lon="-2.96839">
        <ele>15</ele>
        <time>2013-12-02T14:08:03.1Z</time>
      </trkpt>
      <trkpt lat="48.56379" lon="-2.96838">
        <ele>15</ele>
        <time>2013-12-02T14:08:06.1Z</time>
      </trkpt>
      <trkpt lat="48.56376" lon="-2.96836">
        <ele>15</ele>
        <time>2013-12-02T14:08:09.1Z</time>
      </trkpt>
      <trkpt lat="48.56375" lon="-2.96835">
        <ele>15</ele>
        <time>2013-12-02T14:08:11.1Z</time>
      </trkpt>
      <trkpt lat="48.56372" lon="-2.96832">
        <ele>15</ele>
        <time>2013-12-02T14:08:14.1Z</time>
      </trkpt>
      <trkpt lat="48.5637" lon="-2.9683">
        <ele>15</ele>
        <time>2013-12-02T14:08:16.1Z</time>
      </trkpt>
      <trkpt lat="48.56368" lon="-2.96828">
        <ele>15</ele>
        <time>2013-12-02T14:08:18.1Z</time>
      </trkpt>
      <trkpt lat="48.56365" lon="-2.96826">
        <ele>15</ele>
        <time>2013-12-02T14:08:21.1Z</time>
      </trkpt>
      <trkpt lat="48.56363" lon="-2.96823">
        <ele>15</ele>
        <time>2013-12-02T14:08:23.1Z</time>
      </trkpt>
      <trkpt lat="48.56362" lon="-2.96822">
        <ele>15</ele>
        <time>2013-12-02T14:08:25.1Z</time>
      </trkpt>
      <trkpt lat="48.5636" lon="-2.9682">
        <ele>15</ele>
        <time>2013-12-02T14:08:27.1Z</time>
      </trkpt>
      <trkpt lat="48.56357" lon="-2.96817">
        <ele>15</ele>
        <time>2013-12-02T14:08:30.1Z</time>
      </trkpt>
      <trkpt lat="48.56355" lon="-2.96815">
        <ele>15</ele>
        <time>2013-12-02T14:08:33.1Z</time>
      </trkpt>
      <trkpt lat="48.56353" lon="-2.96813">
        <ele>15</ele>
        <time>2013-12-02T14:08:35.1Z</time>
      </trkpt>
      <trkpt lat="48.5635" lon="-2.96811">
        <ele>15</ele>
        <time>2013-12-02T14:08:38.1Z</time>
      </trkpt>
      <trkpt lat="48.56348" lon="-2.96809">
        <ele>15</ele>
        <time>2013-12-02T14:08:40.1Z</time>
      </trkpt>
      <trkpt lat="48.56346" lon="-2.96808">
        <ele>15</ele>
        <time>2013-12-02T14:08:42.1Z</time>
      </trkpt>
      <trkpt lat="48.56343" lon="-2.96804">
        <ele>15</ele>
        <time>2013-12-02T14:08:45.1Z</time>
      </trkpt>
      <trkpt lat="48.5634" lon="-2.96802">
        <ele>15</ele>
        <time>2013-12-02T14:08:48.1Z</time>
      </trkpt>
      <trkpt lat="48.56339" lon="-2.968">
        <ele>15</ele>
        <time>2013-12-02T14:08:50.1Z</time>
      </trkpt>
      <trkpt lat="48.56336" lon="-2.96798">
        <ele>16</ele>
        <time>2013-12-02T14:08:53.1Z</time>
      </trkpt>
      <trkpt lat="48.56334" lon="-2.96797">
        <ele>16</ele>
        <time>2013-12-02T14:08:55.1Z</time>
      </trkpt>
      <trkpt lat="48.56332" lon="-2.96793">
        <ele>16</ele>
        <time>2013-12-02T14:08:58.1Z</time>
      </trkpt>
      <trkpt lat="48.56329" lon="-2.96791">
        <ele>16</ele>
        <time>2013-12-02T14:09:00.1Z</time>
      </trkpt>
      <trkpt lat="48.56327" lon="-2.96789">
        <ele>16</ele>
        <time>2013-12-02T14:09:02.1Z</time>
      </trkpt>
      <trkpt lat="48.56324" lon="-2.96787">
        <ele>16</ele>
        <time>2013-12-02T14:09:05.1Z</time>
      </trkpt>
      <trkpt lat="48.56321" lon="-2.96783">
        <ele>16</ele>
        <time>2013-12-02T14:09:08.1Z</time>
      </trkpt>
      <trkpt lat="48.56318" lon="-2.9678">
        <ele>16</ele>
        <time>2013-12-02T14:09:10.1Z</time>
      </trkpt>
      <trkpt lat="48.56316" lon="-2.96778">
        <ele>16</ele>
        <time>2013-12-02T14:09:13.1Z</time>
      </trkpt>
      <trkpt lat="48.56313" lon="-2.96776">
        <ele>16</ele>
        <time>2013-12-02T14:09:15.1Z</time>
      </trkpt>
      <trkpt lat="48.5631" lon="-2.96773">
        <ele>16</ele>
        <time>2013-12-02T14:09:18.1Z</time>
      </trkpt>
      <trkpt lat="48.56307" lon="-2.9677">
        <ele>16</ele>
        <time>2013-12-02T14:09:21.1Z</time>
      </trkpt>
      <trkpt lat="48.56304" lon="-2.96768">
        <ele>16</ele>
        <time>2013-12-02T14:09:24.1Z</time>
      </trkpt>
      <trkpt lat="48.56301" lon="-2.96766">
        <ele>16</ele>
        <time>2013-12-02T14:09:26.1Z</time>
      </trkpt>
      <trkpt lat="48.56298" lon="-2.96763">
        <ele>16</ele>
        <time>2013-12-02T14:09:29.1Z</time>
      </trkpt>
      <trkpt lat="48.56295" lon="-2.9676">
        <ele>16</ele>
        <time>2013-12-02T14:09:32.1Z</time>
      </trkpt>
      <trkpt lat="48.56293" lon="-2.96759">
        <ele>16</ele>
        <time>2013-12-02T14:09:34.1Z</time>
      </trkpt>
      <trkpt lat="48.56291" lon="-2.96757">
        <ele>16</ele>
        <time>2013-12-02T14:09:36.1Z</time>
      </trkpt>
      <trkpt lat="48.56288" lon="-2.96755">
        <ele>16</ele>
        <time>2013-12-02T14:09:39.1Z</time>
      </trkpt>
      <trkpt lat="48.56286" lon="-2.96753">
        <ele>16</ele>
        <time>2013-12-02T14:09:41.1Z</time>
      </trkpt>
      <trkpt lat="48.56283" lon="-2.96751">
        <ele>16</ele>
        <time>2013-12-02T14:09:44.1Z</time>
      </trkpt>
      <trkpt lat="48.56281" lon="-2.96749">
        <ele>16</ele>
        <time>2013-12-02T14:09:46.1Z</time>
      </trkpt>
      <trkpt lat="48.56278" lon="-2.96747">
        <ele>16</ele>
        <time>2013-12-02T14:09:48.1Z</time>
      </trkpt>
      <trkpt lat="48.56275" lon="-2.96746">
        <ele>15</ele>
        <time>2013-12-02T14:09:51.1Z</time>
      </trkpt>
      <trkpt lat="48.56271" lon="-2.96744">
        <ele>15</ele>
        <time>2013-12-02T14:09:54.1Z</time>
      </trkpt>
      <trkpt lat="48.56269" lon="-2.96741">
        <ele>16</ele>
        <time>2013-12-02T14:09:56.1Z</time>
      </trkpt>
      <trkpt lat="48.56266" lon="-2.96739">
        <ele>15</ele>
        <time>2013-12-02T14:09:58.1Z</time>
      </trkpt>
      <trkpt lat="48.56263" lon="-2.96736">
        <ele>16</ele>
        <time>2013-12-02T14:10:01.1Z</time>
      </trkpt>
      <trkpt lat="48.56261" lon="-2.96735">
        <ele>16</ele>
        <time>2013-12-02T14:10:03.1Z</time>
      </trkpt>
      <trkpt lat="48.56258" lon="-2.96734">
        <ele>15</ele>
        <time>2013-12-02T14:10:06.1Z</time>
      </trkpt>
      <trkpt lat="48.56256" lon="-2.96734">
        <ele>16</ele>
        <time>2013-12-02T14:10:08.1Z</time>
      </trkpt>
      <trkpt lat="48.56254" lon="-2.96733">
        <ele>16</ele>
        <time>2013-12-02T14:10:10.1Z</time>
      </trkpt>
      <trkpt lat="48.56252" lon="-2.96732">
        <ele>16</ele>
        <time>2013-12-02T14:10:12.1Z</time>
      </trkpt>
      <trkpt lat="48.56248" lon="-2.96731">
        <ele>16</ele>
        <time>2013-12-02T14:10:15.1Z</time>
      </trkpt>
      <trkpt lat="48.56245" lon="-2.9673">
        <ele>16</ele>
        <time>2013-12-02T14:10:18.1Z</time>
      </trkpt>
      <trkpt lat="48.56243" lon="-2.96729">
        <ele>16</ele>
        <time>2013-12-02T14:10:20.1Z</time>
      </trkpt>
      <trkpt lat="48.56239" lon="-2.96727">
        <ele>16</ele>
        <time>2013-12-02T14:10:23.1Z</time>
      </trkpt>
      <trkpt lat="48.56237" lon="-2.96726">
        <ele>16</ele>
        <time>2013-12-02T14:10:25.1Z</time>
      </trkpt>
      <trkpt lat="48.56235" lon="-2.96725">
        <ele>16</ele>
        <time>2013-12-02T14:10:27.1Z</time>
      </trkpt>
      <trkpt lat="48.56232" lon="-2.96725">
        <ele>16</ele>
        <time>2013-12-02T14:10:30.1Z</time>
      </trkpt>
      <trkpt lat="48.56229" lon="-2.96725">
        <ele>16</ele>
        <time>2013-12-02T14:10:33.1Z</time>
      </trkpt>
      <trkpt lat="48.56227" lon="-2.96724">
        <ele>16</ele>
        <time>2013-12-02T14:10:35.1Z</time>
      </trkpt>
      <trkpt lat="48.56224" lon="-2.96724">
        <ele>16</ele>
        <time>2013-12-02T14:10:38.1Z</time>
      </trkpt>
      <trkpt lat="48.5622" lon="-2.96725">
        <ele>16</ele>
        <time>2013-12-02T14:10:41.1Z</time>
      </trkpt>
      <trkpt lat="48.56218" lon="-2.96727">
        <ele>16</ele>
        <time>2013-12-02T14:10:44.1Z</time>
      </trkpt>
      <trkpt lat="48.56216" lon="-2.96729">
        <ele>16</ele>
        <time>2013-12-02T14:10:46.1Z</time>
      </trkpt>
      <trkpt lat="48.56215" lon="-2.96732">
        <ele>16</ele>
        <time>2013-12-02T14:10:48.1Z</time>
      </trkpt>
      <trkpt lat="48.56213" lon="-2.96736">
        <ele>17</ele>
        <time>2013-12-02T14:10:51.1Z</time>
      </trkpt>
      <trkpt lat="48.56212" lon="-2.96739">
        <ele>17</ele>
        <time>2013-12-02T14:10:53.1Z</time>
      </trkpt>
      <trkpt lat="48.56211" lon="-2.96744">
        <ele>17</ele>
        <time>2013-12-02T14:10:56.1Z</time>
      </trkpt>
      <trkpt lat="48.5621" lon="-2.96747">
        <ele>17</ele>
        <time>2013-12-02T14:10:58.1Z</time>
      </trkpt>
      <trkpt lat="48.5621" lon="-2.9675">
        <ele>17</ele>
        <time>2013-12-02T14:11:00.1Z</time>
      </trkpt>
      <trkpt lat="48.56208" lon="-2.96754">
        <ele>17</ele>
        <time>2013-12-02T14:11:03.1Z</time>
      </trkpt>
      <trkpt lat="48.56208" lon="-2.96758">
        <ele>17</ele>
        <time>2013-12-02T14:11:05.1Z</time>
      </trkpt>
      <trkpt lat="48.56207" lon="-2.96762">
        <ele>17</ele>
        <time>2013-12-02T14:11:08.1Z</time>
      </trkpt>
      <trkpt lat="48.56205" lon="-2.96766">
        <ele>17</ele>
        <time>2013-12-02T14:11:10.1Z</time>
      </trkpt>
      <trkpt lat="48.56204" lon="-2.96771">
        <ele>17</ele>
        <time>2013-12-02T14:11:13.1Z</time>
      </trkpt>
      <trkpt lat="48.56203" lon="-2.96776">
        <ele>17</ele>
        <time>2013-12-02T14:11:16.1Z</time>
      </trkpt>
      <trkpt lat="48.56202" lon="-2.96779">
        <ele>17</ele>
        <time>2013-12-02T14:11:18.1Z</time>
      </trkpt>
      <trkpt lat="48.56202" lon="-2.9678">
        <ele>18</ele>
        <time>2013-12-02T14:11:22.1Z</time>
      </trkpt>
      <trkpt lat="48.56202" lon="-2.96785">
        <ele>18</ele>
        <time>2013-12-02T14:11:25.1Z</time>
      </trkpt>
      <trkpt lat="48.56202" lon="-2.96789">
        <ele>17</ele>
        <time>2013-12-02T14:11:28.1Z</time>
      </trkpt>
      <trkpt lat="48.56201" lon="-2.96792">
        <ele>17</ele>
        <time>2013-12-02T14:11:30.1Z</time>
      </trkpt>
      <trkpt lat="48.562" lon="-2.96796">
        <ele>17</ele>
        <time>2013-12-02T14:11:33.1Z</time>
      </trkpt>
      <trkpt lat="48.562" lon="-2.96798">
        <ele>17</ele>
        <time>2013-12-02T14:11:35.1Z</time>
      </trkpt>
      <trkpt lat="48.562" lon="-2.96803">
        <ele>18</ele>
        <time>2013-12-02T14:11:38.1Z</time>
      </trkpt>
      <trkpt lat="48.562" lon="-2.96808">
        <ele>18</ele>
        <time>2013-12-02T14:11:41.1Z</time>
      </trkpt>
      <trkpt lat="48.562" lon="-2.96811">
        <ele>18</ele>
        <time>2013-12-02T14:11:43.1Z</time>
      </trkpt>
      <trkpt lat="48.562" lon="-2.96815">
        <ele>18</ele>
        <time>2013-12-02T14:11:45.1Z</time>
      </trkpt>
      <trkpt lat="48.562" lon="-2.96818">
        <ele>18</ele>
        <time>2013-12-02T14:11:47.1Z</time>
      </trkpt>
      <trkpt lat="48.56199" lon="-2.96823">
        <ele>18</ele>
        <time>2013-12-02T14:11:50.1Z</time>
      </trkpt>
      <trkpt lat="48.56199" lon="-2.96826">
        <ele>18</ele>
        <time>2013-12-02T14:11:52.1Z</time>
      </trkpt>
      <trkpt lat="48.56199" lon="-2.96829">
        <ele>18</ele>
        <time>2013-12-02T14:11:54.1Z</time>
      </trkpt>
      <trkpt lat="48.56198" lon="-2.96835">
        <ele>18</ele>
        <time>2013-12-02T14:11:57.1Z</time>
      </trkpt>
      <trkpt lat="48.56197" lon="-2.9684">
        <ele>18</ele>
        <time>2013-12-02T14:12:00.1Z</time>
      </trkpt>
      <trkpt lat="48.56197" lon="-2.96846">
        <ele>19</ele>
        <time>2013-12-02T14:12:03.1Z</time>
      </trkpt>
      <trkpt lat="48.56197" lon="-2.96851">
        <ele>19</ele>
        <time>2013-12-02T14:12:06.1Z</time>
      </trkpt>
      <trkpt lat="48.56197" lon="-2.96857">
        <ele>19</ele>
        <time>2013-12-02T14:12:09.1Z</time>
      </trkpt>
      <trkpt lat="48.56197" lon="-2.96863">
        <ele>19</ele>
        <time>2013-12-02T14:12:12.1Z</time>
      </trkpt>
      <trkpt lat="48.56198" lon="-2.96869">
        <ele>19</ele>
        <time>2013-12-02T14:12:15.1Z</time>
      </trkpt>
      <trkpt lat="48.56198" lon="-2.96872">
        <ele>19</ele>
        <time>2013-12-02T14:12:17.1Z</time>
      </trkpt>
      <trkpt lat="48.56199" lon="-2.96876">
        <ele>19</ele>
        <time>2013-12-02T14:12:19.1Z</time>
      </trkpt>
      <trkpt lat="48.56199" lon="-2.96881">
        <ele>19</ele>
        <time>2013-12-02T14:12:22.1Z</time>
      </trkpt>
      <trkpt lat="48.56199" lon="-2.96885">
        <ele>19</ele>
        <time>2013-12-02T14:12:24.1Z</time>
      </trkpt>
      <trkpt lat="48.56199" lon="-2.96889">
        <ele>20</ele>
        <time>2013-12-02T14:12:26.1Z</time>
      </trkpt>
      <trkpt lat="48.562" lon="-2.96894">
        <ele>20</ele>
        <time>2013-12-02T14:12:29.1Z</time>
      </trkpt>
      <trkpt lat="48.562" lon="-2.96899">
        <ele>20</ele>
        <time>2013-12-02T14:12:32.1Z</time>
      </trkpt>
      <trkpt lat="48.56201" lon="-2.96902">
        <ele>20</ele>
        <time>2013-12-02T14:12:34.1Z</time>
      </trkpt>
      <trkpt lat="48.56201" lon="-2.96906">
        <ele>20</ele>
        <time>2013-12-02T14:12:36.1Z</time>
      </trkpt>
      <trkpt lat="48.56202" lon="-2.96911">
        <ele>20</ele>
        <time>2013-12-02T14:12:39.1Z</time>
      </trkpt>
      <trkpt lat="48.56203" lon="-2.96916">
        <ele>20</ele>
        <time>2013-12-02T14:12:42.1Z</time>
      </trkpt>
      <trkpt lat="48.56203" lon="-2.96921">
        <ele>20</ele>
        <time>2013-12-02T14:12:45.1Z</time>
      </trkpt>
      <trkpt lat="48.56204" lon="-2.96926">
        <ele>20</ele>
        <time>2013-12-02T14:12:48.1Z</time>
      </trkpt>
      <trkpt lat="48.56205" lon="-2.96929">
        <ele>20</ele>
        <time>2013-12-02T14:12:50.1Z</time>
      </trkpt>
      <trkpt lat="48.56205" lon="-2.96935">
        <ele>20</ele>
        <time>2013-12-02T14:12:53.1Z</time>
      </trkpt>
      <trkpt lat="48.56206" lon="-2.96938">
        <ele>20</ele>
        <time>2013-12-02T14:12:55.1Z</time>
      </trkpt>
      <trkpt lat="48.56207" lon="-2.96942">
        <ele>20</ele>
        <time>2013-12-02T14:12:58.1Z</time>
      </trkpt>
      <trkpt lat="48.56207" lon="-2.96946">
        <ele>20</ele>
        <time>2013-12-02T14:13:00.1Z</time>
      </trkpt>
      <trkpt lat="48.56208" lon="-2.96951">
        <ele>20</ele>
        <time>2013-12-02T14:13:03.1Z</time>
      </trkpt>
      <trkpt lat="48.56208" lon="-2.96956">
        <ele>20</ele>
        <time>2013-12-02T14:13:06.1Z</time>
      </trkpt>
      <trkpt lat="48.56209" lon="-2.96959">
        <ele>21</ele>
        <time>2013-12-02T14:13:08.1Z</time>
      </trkpt>
      <trkpt lat="48.5621" lon="-2.96964">
        <ele>21</ele>
        <time>2013-12-02T14:13:11.1Z</time>
      </trkpt>
      <trkpt lat="48.5621" lon="-2.9697">
        <ele>21</ele>
        <time>2013-12-02T14:13:14.1Z</time>
      </trkpt>
      <trkpt lat="48.5621" lon="-2.96973">
        <ele>21</ele>
        <time>2013-12-02T14:13:16.1Z</time>
      </trkpt>
      <trkpt lat="48.56211" lon="-2.96978">
        <ele>21</ele>
        <time>2013-12-02T14:13:18.1Z</time>
      </trkpt>
      <trkpt lat="48.56212" lon="-2.96983">
        <ele>21</ele>
        <time>2013-12-02T14:13:21.1Z</time>
      </trkpt>
      <trkpt lat="48.56213" lon="-2.96988">
        <ele>21</ele>
        <time>2013-12-02T14:13:24.1Z</time>
      </trkpt>
      <trkpt lat="48.56214" lon="-2.96991">
        <ele>21</ele>
        <time>2013-12-02T14:13:26.1Z</time>
      </trkpt>
      <trkpt lat="48.56214" lon="-2.96996">
        <ele>21</ele>
        <time>2013-12-02T14:13:29.1Z</time>
      </trkpt>
      <trkpt lat="48.56215" lon="-2.97">
        <ele>21</ele>
        <time>2013-12-02T14:13:32.1Z</time>
      </trkpt>
      <trkpt lat="48.56215" lon="-2.97005">
        <ele>21</ele>
        <time>2013-12-02T14:13:35.1Z</time>
      </trkpt>
      <trkpt lat="48.56216" lon="-2.9701">
        <ele>21</ele>
        <time>2013-12-02T14:13:38.1Z</time>
      </trkpt>
      <trkpt lat="48.56216" lon="-2.97013">
        <ele>21</ele>
        <time>2013-12-02T14:13:40.1Z</time>
      </trkpt>
      <trkpt lat="48.56216" lon="-2.97018">
        <ele>21</ele>
        <time>2013-12-02T14:13:43.1Z</time>
      </trkpt>
      <trkpt lat="48.56217" lon="-2.97021">
        <ele>21</ele>
        <time>2013-12-02T14:13:45.1Z</time>
      </trkpt>
      <trkpt lat="48.56218" lon="-2.97025">
        <ele>21</ele>
        <time>2013-12-02T14:13:48.1Z</time>
      </trkpt>
      <trkpt lat="48.5622" lon="-2.97028">
        <ele>22</ele>
        <time>2013-12-02T14:13:51.1Z</time>
      </trkpt>
      <trkpt lat="48.56221" lon="-2.97033">
        <ele>22</ele>
        <time>2013-12-02T14:13:54.1Z</time>
      </trkpt>
      <trkpt lat="48.56221" lon="-2.97037">
        <ele>22</ele>
        <time>2013-12-02T14:13:56.1Z</time>
      </trkpt>
      <trkpt lat="48.56222" lon="-2.97041">
        <ele>22</ele>
        <time>2013-12-02T14:13:59.1Z</time>
      </trkpt>
      <trkpt lat="48.56222" lon="-2.97047">
        <ele>22</ele>
        <time>2013-12-02T14:14:02.1Z</time>
      </trkpt>
      <trkpt lat="48.56222" lon="-2.9705">
        <ele>22</ele>
        <time>2013-12-02T14:14:04.1Z</time>
      </trkpt>
      <trkpt lat="48.56221" lon="-2.97056">
        <ele>22</ele>
        <time>2013-12-02T14:14:07.1Z</time>
      </trkpt>
      <trkpt lat="48.56221" lon="-2.97059">
        <ele>22</ele>
        <time>2013-12-02T14:14:10.1Z</time>
      </trkpt>
      <trkpt lat="48.5622" lon="-2.97062">
        <ele>22</ele>
        <time>2013-12-02T14:14:12.1Z</time>
      </trkpt>
      <trkpt lat="48.56219" lon="-2.97065">
        <ele>22</ele>
        <time>2013-12-02T14:14:15.1Z</time>
      </trkpt>
      <trkpt lat="48.56218" lon="-2.97066">
        <ele>22</ele>
        <time>2013-12-02T14:14:17.1Z</time>
      </trkpt>
      <trkpt lat="48.56217" lon="-2.97067">
        <ele>22</ele>
        <time>2013-12-02T14:14:19.1Z</time>
      </trkpt>
      <trkpt lat="48.56214" lon="-2.97069">
        <ele>22</ele>
        <time>2013-12-02T14:14:22.1Z</time>
      </trkpt>
      <trkpt lat="48.5621" lon="-2.97069">
        <ele>22</ele>
        <time>2013-12-02T14:14:25.1Z</time>
      </trkpt>
      <trkpt lat="48.56208" lon="-2.9707">
        <ele>23</ele>
        <time>2013-12-02T14:14:28.1Z</time>
      </trkpt>
      <trkpt lat="48.56205" lon="-2.97071">
        <ele>23</ele>
        <time>2013-12-02T14:14:31.1Z</time>
      </trkpt>
      <trkpt lat="48.56202" lon="-2.97071">
        <ele>23</ele>
        <time>2013-12-02T14:14:34.1Z</time>
      </trkpt>
      <trkpt lat="48.56199" lon="-2.97071">
        <ele>23</ele>
        <time>2013-12-02T14:14:36.1Z</time>
      </trkpt>
      <trkpt lat="48.56196" lon="-2.97071">
        <ele>23</ele>
        <time>2013-12-02T14:14:39.1Z</time>
      </trkpt>
      <trkpt lat="48.56193" lon="-2.97071">
        <ele>23</ele>
        <time>2013-12-02T14:14:41.1Z</time>
      </trkpt>
      <trkpt lat="48.56189" lon="-2.9707">
        <ele>23</ele>
        <time>2013-12-02T14:14:44.1Z</time>
      </trkpt>
      <trkpt lat="48.56188" lon="-2.9707">
        <ele>23</ele>
        <time>2013-12-02T14:14:46.1Z</time>
      </trkpt>
      <trkpt lat="48.56185" lon="-2.97069">
        <ele>23</ele>
        <time>2013-12-02T14:14:49.1Z</time>
      </trkpt>
      <trkpt lat="48.56184" lon="-2.97068">
        <ele>23</ele>
        <time>2013-12-02T14:14:51.1Z</time>
      </trkpt>
      <trkpt lat="48.56181" lon="-2.97067">
        <ele>23</ele>
        <time>2013-12-02T14:14:54.1Z</time>
      </trkpt>
      <trkpt lat="48.56178" lon="-2.97066">
        <ele>23</ele>
        <time>2013-12-02T14:14:57.1Z</time>
      </trkpt>
      <trkpt lat="48.56176" lon="-2.97065">
        <ele>23</ele>
        <time>2013-12-02T14:15:00.1Z</time>
      </trkpt>
      <trkpt lat="48.56173" lon="-2.97064">
        <ele>23</ele>
        <time>2013-12-02T14:15:02.1Z</time>
      </trkpt>
      <trkpt lat="48.56171" lon="-2.97063">
        <ele>23</ele>
        <time>2013-12-02T14:15:04.1Z</time>
      </trkpt>
      <trkpt lat="48.56169" lon="-2.97059">
        <ele>23</ele>
        <time>2013-12-02T14:15:07.1Z</time>
      </trkpt>
      <trkpt lat="48.56166" lon="-2.97059">
        <ele>23</ele>
        <time>2013-12-02T14:15:10.1Z</time>
      </trkpt>
      <trkpt lat="48.56162" lon="-2.97058">
        <ele>23</ele>
        <time>2013-12-02T14:15:13.1Z</time>
      </trkpt>
      <trkpt lat="48.56158" lon="-2.97059">
        <ele>23</ele>
        <time>2013-12-02T14:15:16.1Z</time>
      </trkpt>
      <trkpt lat="48.56155" lon="-2.97058">
        <ele>23</ele>
        <time>2013-12-02T14:15:19.1Z</time>
      </trkpt>
      <trkpt lat="48.56152" lon="-2.97058">
        <ele>23</ele>
        <time>2013-12-02T14:15:22.1Z</time>
      </trkpt>
      <trkpt lat="48.56148" lon="-2.97058">
        <ele>23</ele>
        <time>2013-12-02T14:15:25.1Z</time>
      </trkpt>
      <trkpt lat="48.56147" lon="-2.97059">
        <ele>23</ele>
        <time>2013-12-02T14:15:27.1Z</time>
      </trkpt>
      <trkpt lat="48.56145" lon="-2.97059">
        <ele>23</ele>
        <time>2013-12-02T14:15:29.1Z</time>
      </trkpt>
      <trkpt lat="48.56142" lon="-2.97059">
        <ele>23</ele>
        <time>2013-12-02T14:15:32.1Z</time>
      </trkpt>
      <trkpt lat="48.56139" lon="-2.97061">
        <ele>23</ele>
        <time>2013-12-02T14:15:35.1Z</time>
      </trkpt>
      <trkpt lat="48.56136" lon="-2.97062">
        <ele>23</ele>
        <time>2013-12-02T14:15:38.1Z</time>
      </trkpt>
      <trkpt lat="48.56132" lon="-2.97061">
        <ele>23</ele>
        <time>2013-12-02T14:15:41.1Z</time>
      </trkpt>
      <trkpt lat="48.5613" lon="-2.97061">
        <ele>23</ele>
        <time>2013-12-02T14:15:43.1Z</time>
      </trkpt>
      <trkpt lat="48.56126" lon="-2.97059">
        <ele>23</ele>
        <time>2013-12-02T14:15:46.1Z</time>
      </trkpt>
      <trkpt lat="48.56124" lon="-2.97059">
        <ele>23</ele>
        <time>2013-12-02T14:15:48.1Z</time>
      </trkpt>
      <trkpt lat="48.56123" lon="-2.97058">
        <ele>23</ele>
        <time>2013-12-02T14:15:50.1Z</time>
      </trkpt>
      <trkpt lat="48.5612" lon="-2.97058">
        <ele>23</ele>
        <time>2013-12-02T14:15:53.1Z</time>
      </trkpt>
      <trkpt lat="48.56118" lon="-2.97058">
        <ele>23</ele>
        <time>2013-12-02T14:15:55.1Z</time>
      </trkpt>
      <trkpt lat="48.56116" lon="-2.97058">
        <ele>23</ele>
        <time>2013-12-02T14:15:57.1Z</time>
      </trkpt>
      <trkpt lat="48.56112" lon="-2.97058">
        <ele>23</ele>
        <time>2013-12-02T14:16:00.1Z</time>
      </trkpt>
      <trkpt lat="48.56107" lon="-2.97059">
        <ele>23</ele>
        <time>2013-12-02T14:16:02.1Z</time>
      </trkpt>
      <trkpt lat="48.56103" lon="-2.97059">
        <ele>23</ele>
        <time>2013-12-02T14:16:04.1Z</time>
      </trkpt>
      <trkpt lat="48.56098" lon="-2.97059">
        <ele>24</ele>
        <time>2013-12-02T14:16:07.1Z</time>
      </trkpt>
      <trkpt lat="48.56094" lon="-2.97059">
        <ele>24</ele>
        <time>2013-12-02T14:16:10.1Z</time>
      </trkpt>
      <trkpt lat="48.56089" lon="-2.97058">
        <ele>24</ele>
        <time>2013-12-02T14:16:13.1Z</time>
      </trkpt>
      <trkpt lat="48.56087" lon="-2.97058">
        <ele>23</ele>
        <time>2013-12-02T14:16:15.1Z</time>
      </trkpt>
      <trkpt lat="48.56082" lon="-2.97056">
        <ele>23</ele>
        <time>2013-12-02T14:16:18.1Z</time>
      </trkpt>
      <trkpt lat="48.56079" lon="-2.97055">
        <ele>23</ele>
        <time>2013-12-02T14:16:20.1Z</time>
      </trkpt>
      <trkpt lat="48.56075" lon="-2.97055">
        <ele>23</ele>
        <time>2013-12-02T14:16:23.1Z</time>
      </trkpt>
      <trkpt lat="48.56072" lon="-2.97054">
        <ele>23</ele>
        <time>2013-12-02T14:16:25.1Z</time>
      </trkpt>
      <trkpt lat="48.56068" lon="-2.97053">
        <ele>23</ele>
        <time>2013-12-02T14:16:28.1Z</time>
      </trkpt>
      <trkpt lat="48.56066" lon="-2.97053">
        <ele>23</ele>
        <time>2013-12-02T14:16:30.1Z</time>
      </trkpt>
      <trkpt lat="48.56062" lon="-2.97052">
        <ele>23</ele>
        <time>2013-12-02T14:16:33.1Z</time>
      </trkpt>
      <trkpt lat="48.5606" lon="-2.97051">
        <ele>23</ele>
        <time>2013-12-02T14:16:35.1Z</time>
      </trkpt>
      <trkpt lat="48.56057" lon="-2.97051">
        <ele>23</ele>
        <time>2013-12-02T14:16:37.1Z</time>
      </trkpt>
      <trkpt lat="48.56055" lon="-2.97051">
        <ele>23</ele>
        <time>2013-12-02T14:16:40.1Z</time>
      </trkpt>
      <trkpt lat="48.56053" lon="-2.9705">
        <ele>23</ele>
        <time>2013-12-02T14:16:42.1Z</time>
      </trkpt>
      <trkpt lat="48.5605" lon="-2.9705">
        <ele>23</ele>
        <time>2013-12-02T14:16:45.1Z</time>
      </trkpt>
      <trkpt lat="48.56048" lon="-2.9705">
        <ele>23</ele>
        <time>2013-12-02T14:16:47.1Z</time>
      </trkpt>
      <trkpt lat="48.56046" lon="-2.97049">
        <ele>23</ele>
        <time>2013-12-02T14:16:49.1Z</time>
      </trkpt>
      <trkpt lat="48.56043" lon="-2.97049">
        <ele>24</ele>
        <time>2013-12-02T14:16:51.1Z</time>
      </trkpt>
      <trkpt lat="48.56039" lon="-2.97049">
        <ele>23</ele>
        <time>2013-12-02T14:16:54.1Z</time>
      </trkpt>
      <trkpt lat="48.56035" lon="-2.97049">
        <ele>23</ele>
        <time>2013-12-02T14:16:56.1Z</time>
      </trkpt>
      <trkpt lat="48.56031" lon="-2.97055">
        <ele>23</ele>
        <time>2013-12-02T14:16:59.1Z</time>
      </trkpt>
      <trkpt lat="48.56029" lon="-2.97056">
        <ele>23</ele>
        <time>2013-12-02T14:17:01.1Z</time>
      </trkpt>
      <trkpt lat="48.56029" lon="-2.97056">
        <ele>23</ele>
        <time>2013-12-02T14:17:04.1Z</time>
      </trkpt>
      <trkpt lat="48.56028" lon="-2.97056">
        <ele>23</ele>
        <time>2013-12-02T14:17:07.1Z</time>
      </trkpt>
      <trkpt lat="48.56026" lon="-2.97057">
        <ele>23</ele>
        <time>2013-12-02T14:17:09.1Z</time>
      </trkpt>
      <trkpt lat="48.56023" lon="-2.97058">
        <ele>24</ele>
        <time>2013-12-02T14:17:12.1Z</time>
      </trkpt>
      <trkpt lat="48.56022" lon="-2.97062">
        <ele>24</ele>
        <time>2013-12-02T14:17:15.1Z</time>
      </trkpt>
      <trkpt lat="48.56022" lon="-2.97064">
        <ele>24</ele>
        <time>2013-12-02T14:17:17.1Z</time>
      </trkpt>
      <trkpt lat="48.56022" lon="-2.97069">
        <ele>24</ele>
        <time>2013-12-02T14:17:20.1Z</time>
      </trkpt>
      <trkpt lat="48.56021" lon="-2.97072">
        <ele>24</ele>
        <time>2013-12-02T14:17:23.1Z</time>
      </trkpt>
      <trkpt lat="48.56021" lon="-2.97071">
        <ele>24</ele>
        <time>2013-12-02T14:17:25.1Z</time>
      </trkpt>
      <trkpt lat="48.56021" lon="-2.97072">
        <ele>24</ele>
        <time>2013-12-02T14:17:27.1Z</time>
      </trkpt>
      <trkpt lat="48.56021" lon="-2.97072">
        <ele>24</ele>
        <time>2013-12-02T14:17:30.1Z</time>
      </trkpt>
      <trkpt lat="48.56021" lon="-2.97072">
        <ele>24</ele>
        <time>2013-12-02T14:17:32.1Z</time>
      </trkpt>
      <trkpt lat="48.56021" lon="-2.97072">
        <ele>24</ele>
        <time>2013-12-02T14:17:34.1Z</time>
      </trkpt>
      <trkpt lat="48.56022" lon="-2.9707">
        <ele>24</ele>
        <time>2013-12-02T14:17:37.1Z</time>
      </trkpt>
      <trkpt lat="48.56022" lon="-2.97066">
        <ele>24</ele>
        <time>2013-12-02T14:17:40.1Z</time>
      </trkpt>
      <trkpt lat="48.56022" lon="-2.97063">
        <ele>24</ele>
        <time>2013-12-02T14:17:43.1Z</time>
      </trkpt>
      <trkpt lat="48.56022" lon="-2.97062">
        <ele>24</ele>
        <time>2013-12-02T14:17:46.1Z</time>
      </trkpt>
      <trkpt lat="48.56021" lon="-2.97062">
        <ele>24</ele>
        <time>2013-12-02T14:17:48.1Z</time>
      </trkpt>
      <trkpt lat="48.56021" lon="-2.97062">
        <ele>24</ele>
        <time>2013-12-02T14:17:50.1Z</time>
      </trkpt>
      <trkpt lat="48.56021" lon="-2.97062">
        <ele>23</ele>
        <time>2013-12-02T14:17:56.1Z</time>
      </trkpt>
      <trkpt lat="48.56021" lon="-2.97061">
        <ele>23</ele>
        <time>2013-12-02T14:18:03.1Z</time>
      </trkpt>
      <trkpt lat="48.56021" lon="-2.97061">
        <ele>23</ele>
        <time>2013-12-02T14:18:07.1Z</time>
      </trkpt>
      <trkpt lat="48.56021" lon="-2.97062">
        <ele>23</ele>
        <time>2013-12-02T14:18:09.1Z</time>
      </trkpt>
      <trkpt lat="48.56021" lon="-2.97062">
        <ele>23</ele>
        <time>2013-12-02T14:18:12.1Z</time>
      </trkpt>
      <trkpt lat="48.56021" lon="-2.9706">
        <ele>23</ele>
        <time>2013-12-02T14:18:14.1Z</time>
      </trkpt>
      <trkpt lat="48.5602" lon="-2.97057">
        <ele>23</ele>
        <time>2013-12-02T14:18:16.1Z</time>
      </trkpt>
      <trkpt lat="48.56017" lon="-2.97052">
        <ele>23</ele>
        <time>2013-12-02T14:18:19.1Z</time>
      </trkpt>
      <trkpt lat="48.56013" lon="-2.97051">
        <ele>23</ele>
        <time>2013-12-02T14:18:22.1Z</time>
      </trkpt>
      <trkpt lat="48.56009" lon="-2.9705">
        <ele>23</ele>
        <time>2013-12-02T14:18:25.1Z</time>
      </trkpt>
      <trkpt lat="48.56004" lon="-2.97049">
        <ele>22</ele>
        <time>2013-12-02T14:18:28.1Z</time>
      </trkpt>
      <trkpt lat="48.55999" lon="-2.97048">
        <ele>22</ele>
        <time>2013-12-02T14:18:31.1Z</time>
      </trkpt>
      <trkpt lat="48.55996" lon="-2.97048">
        <ele>22</ele>
        <time>2013-12-02T14:18:33.1Z</time>
      </trkpt>
      <trkpt lat="48.55991" lon="-2.97048">
        <ele>22</ele>
        <time>2013-12-02T14:18:36.1Z</time>
      </trkpt>
      <trkpt lat="48.55986" lon="-2.97047">
        <ele>22</ele>
        <time>2013-12-02T14:18:39.1Z</time>
      </trkpt>
      <trkpt lat="48.55982" lon="-2.97047">
        <ele>23</ele>
        <time>2013-12-02T14:18:42.1Z</time>
      </trkpt>
      <trkpt lat="48.55977" lon="-2.97047">
        <ele>23</ele>
        <time>2013-12-02T14:18:45.1Z</time>
      </trkpt>
      <trkpt lat="48.55973" lon="-2.97047">
        <ele>22</ele>
        <time>2013-12-02T14:18:48.1Z</time>
      </trkpt>
      <trkpt lat="48.55968" lon="-2.97048">
        <ele>22</ele>
        <time>2013-12-02T14:18:51.1Z</time>
      </trkpt>
      <trkpt lat="48.55963" lon="-2.97047">
        <ele>22</ele>
        <time>2013-12-02T14:18:54.1Z</time>
      </trkpt>
      <trkpt lat="48.5596" lon="-2.97047">
        <ele>22</ele>
        <time>2013-12-02T14:18:56.1Z</time>
      </trkpt>
      <trkpt lat="48.55956" lon="-2.97046">
        <ele>22</ele>
        <time>2013-12-02T14:18:59.1Z</time>
      </trkpt>
      <trkpt lat="48.55953" lon="-2.97046">
        <ele>22</ele>
        <time>2013-12-02T14:19:01.1Z</time>
      </trkpt>
      <trkpt lat="48.55949" lon="-2.97046">
        <ele>22</ele>
        <time>2013-12-02T14:19:04.1Z</time>
      </trkpt>
      <trkpt lat="48.55944" lon="-2.97045">
        <ele>22</ele>
        <time>2013-12-02T14:19:07.1Z</time>
      </trkpt>
      <trkpt lat="48.55941" lon="-2.97045">
        <ele>22</ele>
        <time>2013-12-02T14:19:09.1Z</time>
      </trkpt>
      <trkpt lat="48.55938" lon="-2.97045">
        <ele>22</ele>
        <time>2013-12-02T14:19:11.1Z</time>
      </trkpt>
      <trkpt lat="48.55934" lon="-2.97044">
        <ele>23</ele>
        <time>2013-12-02T14:19:14.1Z</time>
      </trkpt>
      <trkpt lat="48.55929" lon="-2.97044">
        <ele>23</ele>
        <time>2013-12-02T14:19:17.1Z</time>
      </trkpt>
      <trkpt lat="48.55926" lon="-2.97043">
        <ele>23</ele>
        <time>2013-12-02T14:19:19.1Z</time>
      </trkpt>
      <trkpt lat="48.55922" lon="-2.97044">
        <ele>23</ele>
        <time>2013-12-02T14:19:22.1Z</time>
      </trkpt>
      <trkpt lat="48.5592" lon="-2.97044">
        <ele>23</ele>
        <time>2013-12-02T14:19:24.1Z</time>
      </trkpt>
      <trkpt lat="48.55916" lon="-2.97046">
        <ele>22</ele>
        <time>2013-12-02T14:19:27.1Z</time>
      </trkpt>
      <trkpt lat="48.55912" lon="-2.97046">
        <ele>23</ele>
        <time>2013-12-02T14:19:30.1Z</time>
      </trkpt>
      <trkpt lat="48.5591" lon="-2.97046">
        <ele>23</ele>
        <time>2013-12-02T14:19:32.1Z</time>
      </trkpt>
      <trkpt lat="48.55906" lon="-2.97046">
        <ele>23</ele>
        <time>2013-12-02T14:19:35.1Z</time>
      </trkpt>
      <trkpt lat="48.55904" lon="-2.97046">
        <ele>23</ele>
        <time>2013-12-02T14:19:37.1Z</time>
      </trkpt>
      <trkpt lat="48.55901" lon="-2.97047">
        <ele>23</ele>
        <time>2013-12-02T14:19:40.1Z</time>
      </trkpt>
      <trkpt lat="48.55897" lon="-2.97048">
        <ele>23</ele>
        <time>2013-12-02T14:19:43.1Z</time>
      </trkpt>
      <trkpt lat="48.55895" lon="-2.97048">
        <ele>23</ele>
        <time>2013-12-02T14:19:45.1Z</time>
      </trkpt>
      <trkpt lat="48.55891" lon="-2.97049">
        <ele>23</ele>
        <time>2013-12-02T14:19:48.1Z</time>
      </trkpt>
      <trkpt lat="48.55888" lon="-2.97051">
        <ele>23</ele>
        <time>2013-12-02T14:19:51.1Z</time>
      </trkpt>
      <trkpt lat="48.55885" lon="-2.97055">
        <ele>24</ele>
        <time>2013-12-02T14:19:54.1Z</time>
      </trkpt>
      <trkpt lat="48.55883" lon="-2.97057">
        <ele>24</ele>
        <time>2013-12-02T14:19:56.1Z</time>
      </trkpt>
      <trkpt lat="48.55881" lon="-2.97062">
        <ele>24</ele>
        <time>2013-12-02T14:19:59.1Z</time>
      </trkpt>
      <trkpt lat="48.5588" lon="-2.97065">
        <ele>24</ele>
        <time>2013-12-02T14:20:01.1Z</time>
      </trkpt>
      <trkpt lat="48.55879" lon="-2.97071">
        <ele>24</ele>
        <time>2013-12-02T14:20:04.1Z</time>
      </trkpt>
      <trkpt lat="48.55879" lon="-2.97076">
        <ele>24</ele>
        <time>2013-12-02T14:20:07.1Z</time>
      </trkpt>
      <trkpt lat="48.55878" lon="-2.97081">
        <ele>24</ele>
        <time>2013-12-02T14:20:10.1Z</time>
      </trkpt>
      <trkpt lat="48.55878" lon="-2.97087">
        <ele>24</ele>
        <time>2013-12-02T14:20:13.1Z</time>
      </trkpt>
      <trkpt lat="48.55878" lon="-2.97093">
        <ele>24</ele>
        <time>2013-12-02T14:20:16.1Z</time>
      </trkpt>
      <trkpt lat="48.55878" lon="-2.97097">
        <ele>25</ele>
        <time>2013-12-02T14:20:18.1Z</time>
      </trkpt>
      <trkpt lat="48.55877" lon="-2.97101">
        <ele>25</ele>
        <time>2013-12-02T14:20:20.1Z</time>
      </trkpt>
      <trkpt lat="48.55877" lon="-2.97107">
        <ele>25</ele>
        <time>2013-12-02T14:20:23.1Z</time>
      </trkpt>
      <trkpt lat="48.55876" lon="-2.97111">
        <ele>25</ele>
        <time>2013-12-02T14:20:25.1Z</time>
      </trkpt>
      <trkpt lat="48.55875" lon="-2.97117">
        <ele>25</ele>
        <time>2013-12-02T14:20:28.1Z</time>
      </trkpt>
      <trkpt lat="48.55875" lon="-2.97123">
        <ele>25</ele>
        <time>2013-12-02T14:20:31.1Z</time>
      </trkpt>
      <trkpt lat="48.55874" lon="-2.97127">
        <ele>26</ele>
        <time>2013-12-02T14:20:33.1Z</time>
      </trkpt>
      <trkpt lat="48.55874" lon="-2.97132">
        <ele>26</ele>
        <time>2013-12-02T14:20:36.1Z</time>
      </trkpt>
      <trkpt lat="48.55873" lon="-2.97136">
        <ele>26</ele>
        <time>2013-12-02T14:20:38.1Z</time>
      </trkpt>
      <trkpt lat="48.55873" lon="-2.9714">
        <ele>26</ele>
        <time>2013-12-02T14:20:40.1Z</time>
      </trkpt>
      <trkpt lat="48.55872" lon="-2.97146">
        <ele>26</ele>
        <time>2013-12-02T14:20:43.1Z</time>
      </trkpt>
      <trkpt lat="48.55871" lon="-2.97151">
        <ele>26</ele>
        <time>2013-12-02T14:20:46.1Z</time>
      </trkpt>
      <trkpt lat="48.55871" lon="-2.97157">
        <ele>26</ele>
        <time>2013-12-02T14:20:49.1Z</time>
      </trkpt>
      <trkpt lat="48.5587" lon="-2.9716">
        <ele>26</ele>
        <time>2013-12-02T14:20:51.1Z</time>
      </trkpt>
      <trkpt lat="48.55869" lon="-2.97165">
        <ele>26</ele>
        <time>2013-12-02T14:20:54.1Z</time>
      </trkpt>
      <trkpt lat="48.55869" lon="-2.97168">
        <ele>26</ele>
        <time>2013-12-02T14:20:56.1Z</time>
      </trkpt>
      <trkpt lat="48.55868" lon="-2.97173">
        <ele>26</ele>
        <time>2013-12-02T14:20:59.1Z</time>
      </trkpt>
      <trkpt lat="48.55867" lon="-2.97178">
        <ele>26</ele>
        <time>2013-12-02T14:21:02.1Z</time>
      </trkpt>
      <trkpt lat="48.55866" lon="-2.97183">
        <ele>26</ele>
        <time>2013-12-02T14:21:05.1Z</time>
      </trkpt>
      <trkpt lat="48.55865" lon="-2.97186">
        <ele>26</ele>
        <time>2013-12-02T14:21:07.1Z</time>
      </trkpt>
      <trkpt lat="48.55864" lon="-2.97189">
        <ele>26</ele>
        <time>2013-12-02T14:21:09.1Z</time>
      </trkpt>
      <trkpt lat="48.55863" lon="-2.97194">
        <ele>26</ele>
        <time>2013-12-02T14:21:12.1Z</time>
      </trkpt>
      <trkpt lat="48.55862" lon="-2.97197">
        <ele>26</ele>
        <time>2013-12-02T14:21:14.1Z</time>
      </trkpt>
      <trkpt lat="48.55861" lon="-2.97202">
        <ele>26</ele>
        <time>2013-12-02T14:21:17.1Z</time>
      </trkpt>
      <trkpt lat="48.5586" lon="-2.97207">
        <ele>26</ele>
        <time>2013-12-02T14:21:20.1Z</time>
      </trkpt>
      <trkpt lat="48.55859" lon="-2.9721">
        <ele>26</ele>
        <time>2013-12-02T14:21:22.1Z</time>
      </trkpt>
      <trkpt lat="48.55857" lon="-2.97215">
        <ele>26</ele>
        <time>2013-12-02T14:21:25.1Z</time>
      </trkpt>
      <trkpt lat="48.55856" lon="-2.97218">
        <ele>25</ele>
        <time>2013-12-02T14:21:27.1Z</time>
      </trkpt>
      <trkpt lat="48.55856" lon="-2.97221">
        <ele>25</ele>
        <time>2013-12-02T14:21:29.1Z</time>
      </trkpt>
      <trkpt lat="48.55854" lon="-2.97226">
        <ele>25</ele>
        <time>2013-12-02T14:21:32.1Z</time>
      </trkpt>
      <trkpt lat="48.55853" lon="-2.9723">
        <ele>25</ele>
        <time>2013-12-02T14:21:35.1Z</time>
      </trkpt>
      <trkpt lat="48.55851" lon="-2.97235">
        <ele>25</ele>
        <time>2013-12-02T14:21:38.1Z</time>
      </trkpt>
      <trkpt lat="48.55849" lon="-2.9724">
        <ele>25</ele>
        <time>2013-12-02T14:21:41.1Z</time>
      </trkpt>
      <trkpt lat="48.55848" lon="-2.97245">
        <ele>25</ele>
        <time>2013-12-02T14:21:44.1Z</time>
      </trkpt>
      <trkpt lat="48.55847" lon="-2.97248">
        <ele>25</ele>
        <time>2013-12-02T14:21:46.1Z</time>
      </trkpt>
      <trkpt lat="48.55846" lon="-2.97252">
        <ele>24</ele>
        <time>2013-12-02T14:21:49.1Z</time>
      </trkpt>
      <trkpt lat="48.55844" lon="-2.97255">
        <ele>24</ele>
        <time>2013-12-02T14:21:51.1Z</time>
      </trkpt>
      <trkpt lat="48.55843" lon="-2.97259">
        <ele>24</ele>
        <time>2013-12-02T14:21:54.1Z</time>
      </trkpt>
      <trkpt lat="48.55843" lon="-2.97262">
        <ele>25</ele>
        <time>2013-12-02T14:21:56.1Z</time>
      </trkpt>
      <trkpt lat="48.55841" lon="-2.97267">
        <ele>25</ele>
        <time>2013-12-02T14:21:59.1Z</time>
      </trkpt>
      <trkpt lat="48.55841" lon="-2.9727">
        <ele>25</ele>
        <time>2013-12-02T14:22:01.1Z</time>
      </trkpt>
      <trkpt lat="48.55838" lon="-2.97275">
        <ele>25</ele>
        <time>2013-12-02T14:22:04.1Z</time>
      </trkpt>
      <trkpt lat="48.55837" lon="-2.9728">
        <ele>25</ele>
        <time>2013-12-02T14:22:07.1Z</time>
      </trkpt>
      <trkpt lat="48.55836" lon="-2.97283">
        <ele>25</ele>
        <time>2013-12-02T14:22:09.1Z</time>
      </trkpt>
      <trkpt lat="48.55835" lon="-2.97287">
        <ele>25</ele>
        <time>2013-12-02T14:22:12.1Z</time>
      </trkpt>
      <trkpt lat="48.55834" lon="-2.9729">
        <ele>25</ele>
        <time>2013-12-02T14:22:14.1Z</time>
      </trkpt>
      <trkpt lat="48.55832" lon="-2.97295">
        <ele>24</ele>
        <time>2013-12-02T14:22:17.1Z</time>
      </trkpt>
      <trkpt lat="48.55831" lon="-2.973">
        <ele>24</ele>
        <time>2013-12-02T14:22:20.1Z</time>
      </trkpt>
      <trkpt lat="48.5583" lon="-2.97303">
        <ele>24</ele>
        <time>2013-12-02T14:22:22.1Z</time>
      </trkpt>
      <trkpt lat="48.55829" lon="-2.97306">
        <ele>24</ele>
        <time>2013-12-02T14:22:24.1Z</time>
      </trkpt>
      <trkpt lat="48.55827" lon="-2.97312">
        <ele>24</ele>
        <time>2013-12-02T14:22:27.1Z</time>
      </trkpt>
      <trkpt lat="48.55826" lon="-2.97314">
        <ele>24</ele>
        <time>2013-12-02T14:22:29.1Z</time>
      </trkpt>
      <trkpt lat="48.55825" lon="-2.97317">
        <ele>24</ele>
        <time>2013-12-02T14:22:31.1Z</time>
      </trkpt>
      <trkpt lat="48.55823" lon="-2.97322">
        <ele>24</ele>
        <time>2013-12-02T14:22:34.1Z</time>
      </trkpt>
      <trkpt lat="48.55822" lon="-2.97325">
        <ele>24</ele>
        <time>2013-12-02T14:22:36.1Z</time>
      </trkpt>
      <trkpt lat="48.55821" lon="-2.97328">
        <ele>24</ele>
        <time>2013-12-02T14:22:38.1Z</time>
      </trkpt>
      <trkpt lat="48.5582" lon="-2.97332">
        <ele>24</ele>
        <time>2013-12-02T14:22:40.1Z</time>
      </trkpt>
      <trkpt lat="48.55819" lon="-2.97336">
        <ele>24</ele>
        <time>2013-12-02T14:22:43.1Z</time>
      </trkpt>
      <trkpt lat="48.55817" lon="-2.97341">
        <ele>24</ele>
        <time>2013-12-02T14:22:46.1Z</time>
      </trkpt>
      <trkpt lat="48.55816" lon="-2.97345">
        <ele>24</ele>
        <time>2013-12-02T14:22:49.1Z</time>
      </trkpt>
      <trkpt lat="48.55815" lon="-2.97349">
        <ele>24</ele>
        <time>2013-12-02T14:22:51.1Z</time>
      </trkpt>
      <trkpt lat="48.55814" lon="-2.97354">
        <ele>24</ele>
        <time>2013-12-02T14:22:54.1Z</time>
      </trkpt>
      <trkpt lat="48.55813" lon="-2.97357">
        <ele>24</ele>
        <time>2013-12-02T14:22:56.1Z</time>
      </trkpt>
      <trkpt lat="48.55811" lon="-2.97361">
        <ele>24</ele>
        <time>2013-12-02T14:22:59.1Z</time>
      </trkpt>
      <trkpt lat="48.55809" lon="-2.97364">
        <ele>24</ele>
        <time>2013-12-02T14:23:02.1Z</time>
      </trkpt>
      <trkpt lat="48.55808" lon="-2.97368">
        <ele>24</ele>
        <time>2013-12-02T14:23:04.1Z</time>
      </trkpt>
      <trkpt lat="48.55807" lon="-2.97371">
        <ele>24</ele>
        <time>2013-12-02T14:23:06.1Z</time>
      </trkpt>
      <trkpt lat="48.55806" lon="-2.97374">
        <ele>24</ele>
        <time>2013-12-02T14:23:08.1Z</time>
      </trkpt>
      <trkpt lat="48.55804" lon="-2.97378">
        <ele>24</ele>
        <time>2013-12-02T14:23:11.1Z</time>
      </trkpt>
      <trkpt lat="48.55803" lon="-2.97381">
        <ele>24</ele>
        <time>2013-12-02T14:23:13.1Z</time>
      </trkpt>
      <trkpt lat="48.55802" lon="-2.97386">
        <ele>24</ele>
        <time>2013-12-02T14:23:16.1Z</time>
      </trkpt>
      <trkpt lat="48.55801" lon="-2.97389">
        <ele>24</ele>
        <time>2013-12-02T14:23:18.1Z</time>
      </trkpt>
      <trkpt lat="48.558" lon="-2.97392">
        <ele>24</ele>
        <time>2013-12-02T14:23:20.1Z</time>
      </trkpt>
      <trkpt lat="48.55798" lon="-2.97397">
        <ele>25</ele>
        <time>2013-12-02T14:23:23.1Z</time>
      </trkpt>
      <trkpt lat="48.55797" lon="-2.974">
        <ele>25</ele>
        <time>2013-12-02T14:23:25.1Z</time>
      </trkpt>
      <trkpt lat="48.55795" lon="-2.97404">
        <ele>25</ele>
        <time>2013-12-02T14:23:28.1Z</time>
      </trkpt>
      <trkpt lat="48.55794" lon="-2.97409">
        <ele>25</ele>
        <time>2013-12-02T14:23:31.1Z</time>
      </trkpt>
      <trkpt lat="48.55793" lon="-2.97412">
        <ele>25</ele>
        <time>2013-12-02T14:23:33.1Z</time>
      </trkpt>
      <trkpt lat="48.55791" lon="-2.97417">
        <ele>25</ele>
        <time>2013-12-02T14:23:36.1Z</time>
      </trkpt>
      <trkpt lat="48.5579" lon="-2.9742">
        <ele>25</ele>
        <time>2013-12-02T14:23:38.1Z</time>
      </trkpt>
      <trkpt lat="48.55789" lon="-2.97425">
        <ele>25</ele>
        <time>2013-12-02T14:23:41.1Z</time>
      </trkpt>
      <trkpt lat="48.55788" lon="-2.97431">
        <ele>25</ele>
        <time>2013-12-02T14:23:44.1Z</time>
      </trkpt>
      <trkpt lat="48.55787" lon="-2.97436">
        <ele>25</ele>
        <time>2013-12-02T14:23:47.1Z</time>
      </trkpt>
      <trkpt lat="48.55787" lon="-2.9744">
        <ele>25</ele>
        <time>2013-12-02T14:23:49.1Z</time>
      </trkpt>
      <trkpt lat="48.55786" lon="-2.97443">
        <ele>26</ele>
        <time>2013-12-02T14:23:51.1Z</time>
      </trkpt>
      <trkpt lat="48.55786" lon="-2.97447">
        <ele>26</ele>
        <time>2013-12-02T14:23:54.1Z</time>
      </trkpt>
      <trkpt lat="48.55785" lon="-2.97453">
        <ele>26</ele>
        <time>2013-12-02T14:23:57.1Z</time>
      </trkpt>
      <trkpt lat="48.55785" lon="-2.97456">
        <ele>26</ele>
        <time>2013-12-02T14:23:59.1Z</time>
      </trkpt>
      <trkpt lat="48.55785" lon="-2.97461">
        <ele>26</ele>
        <time>2013-12-02T14:24:02.1Z</time>
      </trkpt>
      <trkpt lat="48.55784" lon="-2.97465">
        <ele>26</ele>
        <time>2013-12-02T14:24:04.1Z</time>
      </trkpt>
      <trkpt lat="48.55784" lon="-2.97468">
        <ele>26</ele>
        <time>2013-12-02T14:24:06.1Z</time>
      </trkpt>
      <trkpt lat="48.55783" lon="-2.97474">
        <ele>25</ele>
        <time>2013-12-02T14:24:09.1Z</time>
      </trkpt>
      <trkpt lat="48.55782" lon="-2.97477">
        <ele>25</ele>
        <time>2013-12-02T14:24:11.1Z</time>
      </trkpt>
      <trkpt lat="48.55782" lon="-2.97481">
        <ele>25</ele>
        <time>2013-12-02T14:24:13.1Z</time>
      </trkpt>
      <trkpt lat="48.55781" lon="-2.97486">
        <ele>25</ele>
        <time>2013-12-02T14:24:16.1Z</time>
      </trkpt>
      <trkpt lat="48.5578" lon="-2.9749">
        <ele>25</ele>
        <time>2013-12-02T14:24:18.1Z</time>
      </trkpt>
      <trkpt lat="48.5578" lon="-2.97496">
        <ele>25</ele>
        <time>2013-12-02T14:24:21.1Z</time>
      </trkpt>
      <trkpt lat="48.55778" lon="-2.97499">
        <ele>25</ele>
        <time>2013-12-02T14:24:23.1Z</time>
      </trkpt>
      <trkpt lat="48.55777" lon="-2.97504">
        <ele>25</ele>
        <time>2013-12-02T14:24:26.1Z</time>
      </trkpt>
      <trkpt lat="48.55777" lon="-2.97507">
        <ele>25</ele>
        <time>2013-12-02T14:24:28.1Z</time>
      </trkpt>
      <trkpt lat="48.55777" lon="-2.97512">
        <ele>25</ele>
        <time>2013-12-02T14:24:31.1Z</time>
      </trkpt>
      <trkpt lat="48.55776" lon="-2.97517">
        <ele>26</ele>
        <time>2013-12-02T14:24:34.1Z</time>
      </trkpt>
      <trkpt lat="48.55776" lon="-2.9752">
        <ele>26</ele>
        <time>2013-12-02T14:24:36.1Z</time>
      </trkpt>
      <trkpt lat="48.55776" lon="-2.97522">
        <ele>26</ele>
        <time>2013-12-02T14:24:39.1Z</time>
      </trkpt>
      <trkpt lat="48.55775" lon="-2.97526">
        <ele>26</ele>
        <time>2013-12-02T14:24:41.1Z</time>
      </trkpt>
      <trkpt lat="48.55776" lon="-2.97529">
        <ele>26</ele>
        <time>2013-12-02T14:24:43.1Z</time>
      </trkpt>
      <trkpt lat="48.55775" lon="-2.97534">
        <ele>26</ele>
        <time>2013-12-02T14:24:46.1Z</time>
      </trkpt>
      <trkpt lat="48.55774" lon="-2.97539">
        <ele>26</ele>
        <time>2013-12-02T14:24:49.1Z</time>
      </trkpt>
      <trkpt lat="48.55773" lon="-2.97544">
        <ele>26</ele>
        <time>2013-12-02T14:24:52.1Z</time>
      </trkpt>
      <trkpt lat="48.55773" lon="-2.97547">
        <ele>26</ele>
        <time>2013-12-02T14:24:54.1Z</time>
      </trkpt>
      <trkpt lat="48.55771" lon="-2.97552">
        <ele>26</ele>
        <time>2013-12-02T14:24:57.1Z</time>
      </trkpt>
      <trkpt lat="48.5577" lon="-2.97557">
        <ele>26</ele>
        <time>2013-12-02T14:25:00.1Z</time>
      </trkpt>
      <trkpt lat="48.55769" lon="-2.97561">
        <ele>26</ele>
        <time>2013-12-02T14:25:02.1Z</time>
      </trkpt>
      <trkpt lat="48.55767" lon="-2.97564">
        <ele>26</ele>
        <time>2013-12-02T14:25:04.1Z</time>
      </trkpt>
      <trkpt lat="48.55766" lon="-2.97568">
        <ele>26</ele>
        <time>2013-12-02T14:25:07.1Z</time>
      </trkpt>
      <trkpt lat="48.55764" lon="-2.97572">
        <ele>26</ele>
        <time>2013-12-02T14:25:10.1Z</time>
      </trkpt>
      <trkpt lat="48.55762" lon="-2.97575">
        <ele>26</ele>
        <time>2013-12-02T14:25:12.1Z</time>
      </trkpt>
      <trkpt lat="48.55761" lon="-2.97578">
        <ele>26</ele>
        <time>2013-12-02T14:25:14.1Z</time>
      </trkpt>
      <trkpt lat="48.5576" lon="-2.97581">
        <ele>26</ele>
        <time>2013-12-02T14:25:16.1Z</time>
      </trkpt>
      <trkpt lat="48.55759" lon="-2.97586">
        <ele>27</ele>
        <time>2013-12-02T14:25:19.1Z</time>
      </trkpt>
      <trkpt lat="48.55758" lon="-2.97589">
        <ele>27</ele>
        <time>2013-12-02T14:25:21.1Z</time>
      </trkpt>
      <trkpt lat="48.55757" lon="-2.97592">
        <ele>27</ele>
        <time>2013-12-02T14:25:23.1Z</time>
      </trkpt>
      <trkpt lat="48.55755" lon="-2.97596">
        <ele>27</ele>
        <time>2013-12-02T14:25:26.1Z</time>
      </trkpt>
      <trkpt lat="48.55753" lon="-2.976">
        <ele>27</ele>
        <time>2013-12-02T14:25:29.1Z</time>
      </trkpt>
      <trkpt lat="48.55751" lon="-2.97605">
        <ele>27</ele>
        <time>2013-12-02T14:25:32.1Z</time>
      </trkpt>
      <trkpt lat="48.5575" lon="-2.97608">
        <ele>27</ele>
        <time>2013-12-02T14:25:34.1Z</time>
      </trkpt>
      <trkpt lat="48.55748" lon="-2.97613">
        <ele>27</ele>
        <time>2013-12-02T14:25:37.1Z</time>
      </trkpt>
      <trkpt lat="48.55747" lon="-2.97616">
        <ele>27</ele>
        <time>2013-12-02T14:25:39.1Z</time>
      </trkpt>
      <trkpt lat="48.55745" lon="-2.9762">
        <ele>28</ele>
        <time>2013-12-02T14:25:42.1Z</time>
      </trkpt>
      <trkpt lat="48.55742" lon="-2.97624">
        <ele>28</ele>
        <time>2013-12-02T14:25:45.1Z</time>
      </trkpt>
      <trkpt lat="48.5574" lon="-2.97628">
        <ele>27</ele>
        <time>2013-12-02T14:25:48.1Z</time>
      </trkpt>
      <trkpt lat="48.55738" lon="-2.97631">
        <ele>27</ele>
        <time>2013-12-02T14:25:50.1Z</time>
      </trkpt>
      <trkpt lat="48.55735" lon="-2.97635">
        <ele>27</ele>
        <time>2013-12-02T14:25:53.1Z</time>
      </trkpt>
      <trkpt lat="48.55734" lon="-2.97637">
        <ele>27</ele>
        <time>2013-12-02T14:25:55.1Z</time>
      </trkpt>
      <trkpt lat="48.55731" lon="-2.97641">
        <ele>27</ele>
        <time>2013-12-02T14:25:58.1Z</time>
      </trkpt>
      <trkpt lat="48.55729" lon="-2.97645">
        <ele>27</ele>
        <time>2013-12-02T14:26:01.1Z</time>
      </trkpt>
      <trkpt lat="48.55728" lon="-2.97648">
        <ele>27</ele>
        <time>2013-12-02T14:26:03.1Z</time>
      </trkpt>
      <trkpt lat="48.55726" lon="-2.97651">
        <ele>27</ele>
        <time>2013-12-02T14:26:05.1Z</time>
      </trkpt>
      <trkpt lat="48.55724" lon="-2.97656">
        <ele>27</ele>
        <time>2013-12-02T14:26:08.1Z</time>
      </trkpt>
      <trkpt lat="48.55723" lon="-2.97659">
        <ele>27</ele>
        <time>2013-12-02T14:26:10.1Z</time>
      </trkpt>
      <trkpt lat="48.55722" lon="-2.97662">
        <ele>27</ele>
        <time>2013-12-02T14:26:12.1Z</time>
      </trkpt>
      <trkpt lat="48.55719" lon="-2.97667">
        <ele>27</ele>
        <time>2013-12-02T14:26:15.1Z</time>
      </trkpt>
      <trkpt lat="48.55718" lon="-2.9767">
        <ele>27</ele>
        <time>2013-12-02T14:26:17.1Z</time>
      </trkpt>
      <trkpt lat="48.55717" lon="-2.97673">
        <ele>27</ele>
        <time>2013-12-02T14:26:19.1Z</time>
      </trkpt>
      <trkpt lat="48.55715" lon="-2.97677">
        <ele>27</ele>
        <time>2013-12-02T14:26:22.1Z</time>
      </trkpt>
      <trkpt lat="48.55713" lon="-2.97681">
        <ele>27</ele>
        <time>2013-12-02T14:26:25.1Z</time>
      </trkpt>
      <trkpt lat="48.55711" lon="-2.97684">
        <ele>27</ele>
        <time>2013-12-02T14:26:27.1Z</time>
      </trkpt>
      <trkpt lat="48.55709" lon="-2.97688">
        <ele>26</ele>
        <time>2013-12-02T14:26:30.1Z</time>
      </trkpt>
      <trkpt lat="48.55707" lon="-2.97691">
        <ele>26</ele>
        <time>2013-12-02T14:26:32.1Z</time>
      </trkpt>
      <trkpt lat="48.55705" lon="-2.97696">
        <ele>26</ele>
        <time>2013-12-02T14:26:35.1Z</time>
      </trkpt>
      <trkpt lat="48.55703" lon="-2.97699">
        <ele>26</ele>
        <time>2013-12-02T14:26:38.1Z</time>
      </trkpt>
      <trkpt lat="48.557" lon="-2.97704">
        <ele>26</ele>
        <time>2013-12-02T14:26:41.1Z</time>
      </trkpt>
      <trkpt lat="48.55698" lon="-2.97707">
        <ele>26</ele>
        <time>2013-12-02T14:26:44.1Z</time>
      </trkpt>
      <trkpt lat="48.55697" lon="-2.9771">
        <ele>26</ele>
        <time>2013-12-02T14:26:46.1Z</time>
      </trkpt>
      <trkpt lat="48.55695" lon="-2.97714">
        <ele>26</ele>
        <time>2013-12-02T14:26:49.1Z</time>
      </trkpt>
      <trkpt lat="48.55694" lon="-2.97717">
        <ele>25</ele>
        <time>2013-12-02T14:26:51.1Z</time>
      </trkpt>
      <trkpt lat="48.55691" lon="-2.97722">
        <ele>25</ele>
        <time>2013-12-02T14:26:54.1Z</time>
      </trkpt>
      <trkpt lat="48.55689" lon="-2.97726">
        <ele>25</ele>
        <time>2013-12-02T14:26:57.1Z</time>
      </trkpt>
      <trkpt lat="48.55687" lon="-2.97731">
        <ele>25</ele>
        <time>2013-12-02T14:27:00.1Z</time>
      </trkpt>
      <trkpt lat="48.55685" lon="-2.97736">
        <ele>25</ele>
        <time>2013-12-02T14:27:03.1Z</time>
      </trkpt>
      <trkpt lat="48.55683" lon="-2.9774">
        <ele>25</ele>
        <time>2013-12-02T14:27:06.1Z</time>
      </trkpt>
      <trkpt lat="48.55682" lon="-2.97743">
        <ele>24</ele>
        <time>2013-12-02T14:27:08.1Z</time>
      </trkpt>
      <trkpt lat="48.55679" lon="-2.97747">
        <ele>25</ele>
        <time>2013-12-02T14:27:11.1Z</time>
      </trkpt>
      <trkpt lat="48.55677" lon="-2.97751">
        <ele>25</ele>
        <time>2013-12-02T14:27:14.1Z</time>
      </trkpt>
      <trkpt lat="48.55675" lon="-2.97756">
        <ele>24</ele>
        <time>2013-12-02T14:27:17.1Z</time>
      </trkpt>
      <trkpt lat="48.55674" lon="-2.97759">
        <ele>24</ele>
        <time>2013-12-02T14:27:19.1Z</time>
      </trkpt>
      <trkpt lat="48.55671" lon="-2.97763">
        <ele>24</ele>
        <time>2013-12-02T14:27:22.1Z</time>
      </trkpt>
      <trkpt lat="48.55669" lon="-2.97766">
        <ele>24</ele>
        <time>2013-12-02T14:27:24.1Z</time>
      </trkpt>
      <trkpt lat="48.55667" lon="-2.9777">
        <ele>24</ele>
        <time>2013-12-02T14:27:27.1Z</time>
      </trkpt>
      <trkpt lat="48.55665" lon="-2.97775">
        <ele>24</ele>
        <time>2013-12-02T14:27:30.1Z</time>
      </trkpt>
      <trkpt lat="48.55664" lon="-2.97778">
        <ele>24</ele>
        <time>2013-12-02T14:27:32.1Z</time>
      </trkpt>
      <trkpt lat="48.55662" lon="-2.9778">
        <ele>24</ele>
        <time>2013-12-02T14:27:34.1Z</time>
      </trkpt>
      <trkpt lat="48.5566" lon="-2.97784">
        <ele>24</ele>
        <time>2013-12-02T14:27:37.1Z</time>
      </trkpt>
      <trkpt lat="48.55658" lon="-2.97788">
        <ele>24</ele>
        <time>2013-12-02T14:27:40.1Z</time>
      </trkpt>
      <trkpt lat="48.55656" lon="-2.9779">
        <ele>24</ele>
        <time>2013-12-02T14:27:42.1Z</time>
      </trkpt>
      <trkpt lat="48.55655" lon="-2.97792">
        <ele>23</ele>
        <time>2013-12-02T14:27:44.1Z</time>
      </trkpt>
      <trkpt lat="48.55653" lon="-2.97796">
        <ele>23</ele>
        <time>2013-12-02T14:27:47.1Z</time>
      </trkpt>
      <trkpt lat="48.55651" lon="-2.978">
        <ele>23</ele>
        <time>2013-12-02T14:27:50.1Z</time>
      </trkpt>
      <trkpt lat="48.55649" lon="-2.97804">
        <ele>23</ele>
        <time>2013-12-02T14:27:53.1Z</time>
      </trkpt>
      <trkpt lat="48.55647" lon="-2.97806">
        <ele>23</ele>
        <time>2013-12-02T14:27:55.1Z</time>
      </trkpt>
      <trkpt lat="48.55645" lon="-2.97811">
        <ele>23</ele>
        <time>2013-12-02T14:27:58.1Z</time>
      </trkpt>
      <trkpt lat="48.55643" lon="-2.97815">
        <ele>23</ele>
        <time>2013-12-02T14:28:00.1Z</time>
      </trkpt>
      <trkpt lat="48.55642" lon="-2.97818">
        <ele>23</ele>
        <time>2013-12-02T14:28:03.1Z</time>
      </trkpt>
      <trkpt lat="48.55639" lon="-2.97822">
        <ele>23</ele>
        <time>2013-12-02T14:28:06.1Z</time>
      </trkpt>
      <trkpt lat="48.55638" lon="-2.97825">
        <ele>23</ele>
        <time>2013-12-02T14:28:08.1Z</time>
      </trkpt>
      <trkpt lat="48.55637" lon="-2.97828">
        <ele>22</ele>
        <time>2013-12-02T14:28:10.1Z</time>
      </trkpt>
      <trkpt lat="48.55634" lon="-2.97833">
        <ele>22</ele>
        <time>2013-12-02T14:28:13.1Z</time>
      </trkpt>
      <trkpt lat="48.55632" lon="-2.97836">
        <ele>22</ele>
        <time>2013-12-02T14:28:16.1Z</time>
      </trkpt>
      <trkpt lat="48.55631" lon="-2.97839">
        <ele>22</ele>
        <time>2013-12-02T14:28:18.1Z</time>
      </trkpt>
      <trkpt lat="48.55629" lon="-2.97842">
        <ele>22</ele>
        <time>2013-12-02T14:28:20.1Z</time>
      </trkpt>
      <trkpt lat="48.55627" lon="-2.97846">
        <ele>22</ele>
        <time>2013-12-02T14:28:23.1Z</time>
      </trkpt>
      <trkpt lat="48.55625" lon="-2.9785">
        <ele>22</ele>
        <time>2013-12-02T14:28:26.1Z</time>
      </trkpt>
      <trkpt lat="48.55623" lon="-2.97853">
        <ele>22</ele>
        <time>2013-12-02T14:28:28.1Z</time>
      </trkpt>
      <trkpt lat="48.55621" lon="-2.97857">
        <ele>22</ele>
        <time>2013-12-02T14:28:31.1Z</time>
      </trkpt>
      <trkpt lat="48.5562" lon="-2.9786">
        <ele>21</ele>
        <time>2013-12-02T14:28:33.1Z</time>
      </trkpt>
      <trkpt lat="48.55619" lon="-2.97862">
        <ele>21</ele>
        <time>2013-12-02T14:28:35.1Z</time>
      </trkpt>
      <trkpt lat="48.55617" lon="-2.97866">
        <ele>21</ele>
        <time>2013-12-02T14:28:38.1Z</time>
      </trkpt>
      <trkpt lat="48.55616" lon="-2.97869">
        <ele>21</ele>
        <time>2013-12-02T14:28:40.1Z</time>
      </trkpt>
      <trkpt lat="48.55614" lon="-2.97874">
        <ele>22</ele>
        <time>2013-12-02T14:28:43.1Z</time>
      </trkpt>
      <trkpt lat="48.55612" lon="-2.97877">
        <ele>22</ele>
        <time>2013-12-02T14:28:45.1Z</time>
      </trkpt>
      <trkpt lat="48.5561" lon="-2.97881">
        <ele>22</ele>
        <time>2013-12-02T14:28:48.1Z</time>
      </trkpt>
      <trkpt lat="48.55608" lon="-2.97885">
        <ele>22</ele>
        <time>2013-12-02T14:28:51.1Z</time>
      </trkpt>
      <trkpt lat="48.55606" lon="-2.97889">
        <ele>22</ele>
        <time>2013-12-02T14:28:54.1Z</time>
      </trkpt>
      <trkpt lat="48.55605" lon="-2.97892">
        <ele>22</ele>
        <time>2013-12-02T14:28:56.1Z</time>
      </trkpt>
      <trkpt lat="48.55602" lon="-2.97897">
        <ele>22</ele>
        <time>2013-12-02T14:28:59.1Z</time>
      </trkpt>
      <trkpt lat="48.55599" lon="-2.979">
        <ele>22</ele>
        <time>2013-12-02T14:29:02.1Z</time>
      </trkpt>
      <trkpt lat="48.55597" lon="-2.97903">
        <ele>22</ele>
        <time>2013-12-02T14:29:04.1Z</time>
      </trkpt>
      <trkpt lat="48.55594" lon="-2.97908">
        <ele>22</ele>
        <time>2013-12-02T14:29:07.1Z</time>
      </trkpt>
      <trkpt lat="48.55592" lon="-2.97914">
        <ele>22</ele>
        <time>2013-12-02T14:29:10.1Z</time>
      </trkpt>
      <trkpt lat="48.5559" lon="-2.97917">
        <ele>22</ele>
        <time>2013-12-02T14:29:12.1Z</time>
      </trkpt>
      <trkpt lat="48.55587" lon="-2.97922">
        <ele>22</ele>
        <time>2013-12-02T14:29:15.1Z</time>
      </trkpt>
      <trkpt lat="48.55586" lon="-2.97925">
        <ele>22</ele>
        <time>2013-12-02T14:29:17.1Z</time>
      </trkpt>
      <trkpt lat="48.55583" lon="-2.9793">
        <ele>22</ele>
        <time>2013-12-02T14:29:20.1Z</time>
      </trkpt>
      <trkpt lat="48.55581" lon="-2.97935">
        <ele>23</ele>
        <time>2013-12-02T14:29:23.1Z</time>
      </trkpt>
      <trkpt lat="48.55579" lon="-2.97938">
        <ele>23</ele>
        <time>2013-12-02T14:29:26.1Z</time>
      </trkpt>
      <trkpt lat="48.55577" lon="-2.97942">
        <ele>23</ele>
        <time>2013-12-02T14:29:29.1Z</time>
      </trkpt>
      <trkpt lat="48.55576" lon="-2.97945">
        <ele>23</ele>
        <time>2013-12-02T14:29:31.1Z</time>
      </trkpt>
      <trkpt lat="48.55573" lon="-2.9795">
        <ele>23</ele>
        <time>2013-12-02T14:29:34.1Z</time>
      </trkpt>
      <trkpt lat="48.55572" lon="-2.97953">
        <ele>23</ele>
        <time>2013-12-02T14:29:36.1Z</time>
      </trkpt>
      <trkpt lat="48.55569" lon="-2.97956">
        <ele>23</ele>
        <time>2013-12-02T14:29:39.1Z</time>
      </trkpt>
      <trkpt lat="48.55567" lon="-2.97959">
        <ele>24</ele>
        <time>2013-12-02T14:29:41.1Z</time>
      </trkpt>
      <trkpt lat="48.55565" lon="-2.97961">
        <ele>24</ele>
        <time>2013-12-02T14:29:43.1Z</time>
      </trkpt>
      <trkpt lat="48.55562" lon="-2.97964">
        <ele>24</ele>
        <time>2013-12-02T14:29:46.1Z</time>
      </trkpt>
      <trkpt lat="48.55559" lon="-2.97967">
        <ele>24</ele>
        <time>2013-12-02T14:29:49.1Z</time>
      </trkpt>
      <trkpt lat="48.55557" lon="-2.97969">
        <ele>24</ele>
        <time>2013-12-02T14:29:51.1Z</time>
      </trkpt>
      <trkpt lat="48.55554" lon="-2.97972">
        <ele>24</ele>
        <time>2013-12-02T14:29:54.1Z</time>
      </trkpt>
      <trkpt lat="48.55552" lon="-2.97974">
        <ele>24</ele>
        <time>2013-12-02T14:29:56.1Z</time>
      </trkpt>
      <trkpt lat="48.5555" lon="-2.97976">
        <ele>24</ele>
        <time>2013-12-02T14:29:58.1Z</time>
      </trkpt>
      <trkpt lat="48.55547" lon="-2.97979">
        <ele>24</ele>
        <time>2013-12-02T14:30:01.1Z</time>
      </trkpt>
      <trkpt lat="48.55545" lon="-2.9798">
        <ele>24</ele>
        <time>2013-12-02T14:30:03.1Z</time>
      </trkpt>
      <trkpt lat="48.55542" lon="-2.97984">
        <ele>24</ele>
        <time>2013-12-02T14:30:06.1Z</time>
      </trkpt>
      <trkpt lat="48.55539" lon="-2.97986">
        <ele>24</ele>
        <time>2013-12-02T14:30:09.1Z</time>
      </trkpt>
      <trkpt lat="48.55537" lon="-2.97988">
        <ele>24</ele>
        <time>2013-12-02T14:30:11.1Z</time>
      </trkpt>
      <trkpt lat="48.55535" lon="-2.9799">
        <ele>24</ele>
        <time>2013-12-02T14:30:13.1Z</time>
      </trkpt>
      <trkpt lat="48.55532" lon="-2.97992">
        <ele>24</ele>
        <time>2013-12-02T14:30:16.1Z</time>
      </trkpt>
      <trkpt lat="48.55529" lon="-2.97995">
        <ele>24</ele>
        <time>2013-12-02T14:30:19.1Z</time>
      </trkpt>
      <trkpt lat="48.55527" lon="-2.97997">
        <ele>24</ele>
        <time>2013-12-02T14:30:21.1Z</time>
      </trkpt>
      <trkpt lat="48.55524" lon="-2.98">
        <ele>24</ele>
        <time>2013-12-02T14:30:24.1Z</time>
      </trkpt>
      <trkpt lat="48.55522" lon="-2.98003">
        <ele>24</ele>
        <time>2013-12-02T14:30:27.1Z</time>
      </trkpt>
      <trkpt lat="48.5552" lon="-2.98005">
        <ele>24</ele>
        <time>2013-12-02T14:30:29.1Z</time>
      </trkpt>
      <trkpt lat="48.55516" lon="-2.98007">
        <ele>24</ele>
        <time>2013-12-02T14:30:32.1Z</time>
      </trkpt>
      <trkpt lat="48.55514" lon="-2.98009">
        <ele>24</ele>
        <time>2013-12-02T14:30:34.1Z</time>
      </trkpt>
      <trkpt lat="48.55511" lon="-2.98011">
        <ele>24</ele>
        <time>2013-12-02T14:30:37.1Z</time>
      </trkpt>
      <trkpt lat="48.55508" lon="-2.98013">
        <ele>24</ele>
        <time>2013-12-02T14:30:40.1Z</time>
      </trkpt>
      <trkpt lat="48.55505" lon="-2.98016">
        <ele>24</ele>
        <time>2013-12-02T14:30:43.1Z</time>
      </trkpt>
      <trkpt lat="48.55503" lon="-2.98017">
        <ele>23</ele>
        <time>2013-12-02T14:30:45.1Z</time>
      </trkpt>
      <trkpt lat="48.555" lon="-2.98019">
        <ele>24</ele>
        <time>2013-12-02T14:30:48.1Z</time>
      </trkpt>
      <trkpt lat="48.55497" lon="-2.98021">
        <ele>24</ele>
        <time>2013-12-02T14:30:51.1Z</time>
      </trkpt>
      <trkpt lat="48.55494" lon="-2.98024">
        <ele>24</ele>
        <time>2013-12-02T14:30:54.1Z</time>
      </trkpt>
      <trkpt lat="48.55491" lon="-2.98025">
        <ele>24</ele>
        <time>2013-12-02T14:30:57.1Z</time>
      </trkpt>
      <trkpt lat="48.55488" lon="-2.98026">
        <ele>24</ele>
        <time>2013-12-02T14:30:59.1Z</time>
      </trkpt>
      <trkpt lat="48.55486" lon="-2.98028">
        <ele>24</ele>
        <time>2013-12-02T14:31:02.1Z</time>
      </trkpt>
      <trkpt lat="48.55483" lon="-2.98029">
        <ele>24</ele>
        <time>2013-12-02T14:31:04.1Z</time>
      </trkpt>
      <trkpt lat="48.55481" lon="-2.9803">
        <ele>24</ele>
        <time>2013-12-02T14:31:06.1Z</time>
      </trkpt>
      <trkpt lat="48.55479" lon="-2.98031">
        <ele>24</ele>
        <time>2013-12-02T14:31:08.1Z</time>
      </trkpt>
      <trkpt lat="48.55477" lon="-2.98031">
        <ele>24</ele>
        <time>2013-12-02T14:31:10.1Z</time>
      </trkpt>
      <trkpt lat="48.55474" lon="-2.9803">
        <ele>24</ele>
        <time>2013-12-02T14:31:13.1Z</time>
      </trkpt>
      <trkpt lat="48.55473" lon="-2.98029">
        <ele>24</ele>
        <time>2013-12-02T14:31:15.1Z</time>
      </trkpt>
      <trkpt lat="48.55471" lon="-2.98028">
        <ele>24</ele>
        <time>2013-12-02T14:31:17.1Z</time>
      </trkpt>
      <trkpt lat="48.5547" lon="-2.98026">
        <ele>24</ele>
        <time>2013-12-02T14:31:20.1Z</time>
      </trkpt>
      <trkpt lat="48.55468" lon="-2.98024">
        <ele>24</ele>
        <time>2013-12-02T14:31:22.1Z</time>
      </trkpt>
      <trkpt lat="48.55467" lon="-2.98022">
        <ele>24</ele>
        <time>2013-12-02T14:31:24.1Z</time>
      </trkpt>
      <trkpt lat="48.55466" lon="-2.98019">
        <ele>24</ele>
        <time>2013-12-02T14:31:27.1Z</time>
      </trkpt>
      <trkpt lat="48.55464" lon="-2.98016">
        <ele>24</ele>
        <time>2013-12-02T14:31:30.1Z</time>
      </trkpt>
      <trkpt lat="48.55463" lon="-2.98012">
        <ele>24</ele>
        <time>2013-12-02T14:31:33.1Z</time>
      </trkpt>
      <trkpt lat="48.55461" lon="-2.98009">
        <ele>24</ele>
        <time>2013-12-02T14:31:36.1Z</time>
      </trkpt>
      <trkpt lat="48.55459" lon="-2.98005">
        <ele>24</ele>
        <time>2013-12-02T14:31:39.1Z</time>
      </trkpt>
      <trkpt lat="48.55458" lon="-2.98003">
        <ele>24</ele>
        <time>2013-12-02T14:31:41.1Z</time>
      </trkpt>
      <trkpt lat="48.55456" lon="-2.98">
        <ele>24</ele>
        <time>2013-12-02T14:31:44.1Z</time>
      </trkpt>
      <trkpt lat="48.55454" lon="-2.97997">
        <ele>23</ele>
        <time>2013-12-02T14:31:46.1Z</time>
      </trkpt>
      <trkpt lat="48.55453" lon="-2.97995">
        <ele>23</ele>
        <time>2013-12-02T14:31:48.1Z</time>
      </trkpt>
      <trkpt lat="48.5545" lon="-2.97992">
        <ele>23</ele>
        <time>2013-12-02T14:31:51.1Z</time>
      </trkpt>
      <trkpt lat="48.55448" lon="-2.97989">
        <ele>23</ele>
        <time>2013-12-02T14:31:54.1Z</time>
      </trkpt>
      <trkpt lat="48.55445" lon="-2.97987">
        <ele>23</ele>
        <time>2013-12-02T14:31:57.1Z</time>
      </trkpt>
      <trkpt lat="48.55443" lon="-2.97985">
        <ele>23</ele>
        <time>2013-12-02T14:31:59.1Z</time>
      </trkpt>
      <trkpt lat="48.5544" lon="-2.97983">
        <ele>23</ele>
        <time>2013-12-02T14:32:02.1Z</time>
      </trkpt>
      <trkpt lat="48.55437" lon="-2.97981">
        <ele>23</ele>
        <time>2013-12-02T14:32:05.1Z</time>
      </trkpt>
      <trkpt lat="48.55434" lon="-2.97978">
        <ele>23</ele>
        <time>2013-12-02T14:32:08.1Z</time>
      </trkpt>
      <trkpt lat="48.55431" lon="-2.97977">
        <ele>23</ele>
        <time>2013-12-02T14:32:11.1Z</time>
      </trkpt>
      <trkpt lat="48.55428" lon="-2.97975">
        <ele>23</ele>
        <time>2013-12-02T14:32:14.1Z</time>
      </trkpt>
      <trkpt lat="48.55426" lon="-2.97975">
        <ele>23</ele>
        <time>2013-12-02T14:32:16.1Z</time>
      </trkpt>
      <trkpt lat="48.55423" lon="-2.97974">
        <ele>23</ele>
        <time>2013-12-02T14:32:18.1Z</time>
      </trkpt>
      <trkpt lat="48.5542" lon="-2.97972">
        <ele>23</ele>
        <time>2013-12-02T14:32:21.1Z</time>
      </trkpt>
      <trkpt lat="48.55416" lon="-2.97971">
        <ele>23</ele>
        <time>2013-12-02T14:32:24.1Z</time>
      </trkpt>
      <trkpt lat="48.55412" lon="-2.9797">
        <ele>23</ele>
        <time>2013-12-02T14:32:27.1Z</time>
      </trkpt>
      <trkpt lat="48.55409" lon="-2.97969">
        <ele>23</ele>
        <time>2013-12-02T14:32:30.1Z</time>
      </trkpt>
      <trkpt lat="48.55405" lon="-2.97969">
        <ele>23</ele>
        <time>2013-12-02T14:32:33.1Z</time>
      </trkpt>
      <trkpt lat="48.55402" lon="-2.97969">
        <ele>23</ele>
        <time>2013-12-02T14:32:36.1Z</time>
      </trkpt>
      <trkpt lat="48.55399" lon="-2.97969">
        <ele>23</ele>
        <time>2013-12-02T14:32:39.1Z</time>
      </trkpt>
      <trkpt lat="48.55396" lon="-2.97969">
        <ele>23</ele>
        <time>2013-12-02T14:32:41.1Z</time>
      </trkpt>
      <trkpt lat="48.55394" lon="-2.97968">
        <ele>23</ele>
        <time>2013-12-02T14:32:43.1Z</time>
      </trkpt>
      <trkpt lat="48.5539" lon="-2.97968">
        <ele>23</ele>
        <time>2013-12-02T14:32:46.1Z</time>
      </trkpt>
      <trkpt lat="48.55388" lon="-2.97968">
        <ele>23</ele>
        <time>2013-12-02T14:32:48.1Z</time>
      </trkpt>
      <trkpt lat="48.55384" lon="-2.97968">
        <ele>23</ele>
        <time>2013-12-02T14:32:51.1Z</time>
      </trkpt>
      <trkpt lat="48.55382" lon="-2.97968">
        <ele>23</ele>
        <time>2013-12-02T14:32:53.1Z</time>
      </trkpt>
      <trkpt lat="48.55379" lon="-2.97968">
        <ele>23</ele>
        <time>2013-12-02T14:32:55.1Z</time>
      </trkpt>
      <trkpt lat="48.55376" lon="-2.97969">
        <ele>23</ele>
        <time>2013-12-02T14:32:58.1Z</time>
      </trkpt>
      <trkpt lat="48.55373" lon="-2.97968">
        <ele>23</ele>
        <time>2013-12-02T14:33:01.1Z</time>
      </trkpt>
      <trkpt lat="48.55369" lon="-2.97968">
        <ele>23</ele>
        <time>2013-12-02T14:33:04.1Z</time>
      </trkpt>
      <trkpt lat="48.55367" lon="-2.97967">
        <ele>23</ele>
        <time>2013-12-02T14:33:06.1Z</time>
      </trkpt>
      <trkpt lat="48.55363" lon="-2.97967">
        <ele>23</ele>
        <time>2013-12-02T14:33:09.1Z</time>
      </trkpt>
      <trkpt lat="48.55361" lon="-2.97967">
        <ele>23</ele>
        <time>2013-12-02T14:33:11.1Z</time>
      </trkpt>
      <trkpt lat="48.55358" lon="-2.97966">
        <ele>22</ele>
        <time>2013-12-02T14:33:14.1Z</time>
      </trkpt>
      <trkpt lat="48.55355" lon="-2.97966">
        <ele>22</ele>
        <time>2013-12-02T14:33:17.1Z</time>
      </trkpt>
      <trkpt lat="48.55352" lon="-2.97965">
        <ele>22</ele>
        <time>2013-12-02T14:33:20.1Z</time>
      </trkpt>
      <trkpt lat="48.55349" lon="-2.97964">
        <ele>22</ele>
        <time>2013-12-02T14:33:23.1Z</time>
      </trkpt>
      <trkpt lat="48.55347" lon="-2.97964">
        <ele>22</ele>
        <time>2013-12-02T14:33:25.1Z</time>
      </trkpt>
      <trkpt lat="48.55345" lon="-2.97964">
        <ele>22</ele>
        <time>2013-12-02T14:33:28.1Z</time>
      </trkpt>
      <trkpt lat="48.55344" lon="-2.97963">
        <ele>22</ele>
        <time>2013-12-02T14:33:30.1Z</time>
      </trkpt>
      <trkpt lat="48.55341" lon="-2.97961">
        <ele>22</ele>
        <time>2013-12-02T14:33:33.1Z</time>
      </trkpt>
      <trkpt lat="48.55338" lon="-2.97961">
        <ele>22</ele>
        <time>2013-12-02T14:33:35.1Z</time>
      </trkpt>
      <trkpt lat="48.55335" lon="-2.97959">
        <ele>22</ele>
        <time>2013-12-02T14:33:38.1Z</time>
      </trkpt>
      <trkpt lat="48.55332" lon="-2.97959">
        <ele>22</ele>
        <time>2013-12-02T14:33:40.1Z</time>
      </trkpt>
      <trkpt lat="48.55328" lon="-2.97957">
        <ele>22</ele>
        <time>2013-12-02T14:33:43.1Z</time>
      </trkpt>
      <trkpt lat="48.55325" lon="-2.97956">
        <ele>21</ele>
        <time>2013-12-02T14:33:46.1Z</time>
      </trkpt>
      <trkpt lat="48.55321" lon="-2.97955">
        <ele>21</ele>
        <time>2013-12-02T14:33:49.1Z</time>
      </trkpt>
      <trkpt lat="48.55318" lon="-2.97954">
        <ele>21</ele>
        <time>2013-12-02T14:33:52.1Z</time>
      </trkpt>
      <trkpt lat="48.55315" lon="-2.97953">
        <ele>21</ele>
        <time>2013-12-02T14:33:54.1Z</time>
      </trkpt>
      <trkpt lat="48.55311" lon="-2.97952">
        <ele>21</ele>
        <time>2013-12-02T14:33:57.1Z</time>
      </trkpt>
      <trkpt lat="48.55308" lon="-2.97951">
        <ele>21</ele>
        <time>2013-12-02T14:34:00.1Z</time>
      </trkpt>
      <trkpt lat="48.55306" lon="-2.9795">
        <ele>21</ele>
        <time>2013-12-02T14:34:02.1Z</time>
      </trkpt>
      <trkpt lat="48.55302" lon="-2.97949">
        <ele>21</ele>
        <time>2013-12-02T14:34:05.1Z</time>
      </trkpt>
      <trkpt lat="48.55298" lon="-2.97949">
        <ele>21</ele>
        <time>2013-12-02T14:34:08.1Z</time>
      </trkpt>
      <trkpt lat="48.55296" lon="-2.97948">
        <ele>21</ele>
        <time>2013-12-02T14:34:10.1Z</time>
      </trkpt>
      <trkpt lat="48.55292" lon="-2.97947">
        <ele>21</ele>
        <time>2013-12-02T14:34:13.1Z</time>
      </trkpt>
      <trkpt lat="48.5529" lon="-2.97947">
        <ele>21</ele>
        <time>2013-12-02T14:34:15.1Z</time>
      </trkpt>
      <trkpt lat="48.55286" lon="-2.97946">
        <ele>21</ele>
        <time>2013-12-02T14:34:18.1Z</time>
      </trkpt>
      <trkpt lat="48.55282" lon="-2.97945">
        <ele>20</ele>
        <time>2013-12-02T14:34:21.1Z</time>
      </trkpt>
      <trkpt lat="48.5528" lon="-2.97945">
        <ele>20</ele>
        <time>2013-12-02T14:34:23.1Z</time>
      </trkpt>
      <trkpt lat="48.55276" lon="-2.97945">
        <ele>20</ele>
        <time>2013-12-02T14:34:26.1Z</time>
      </trkpt>
      <trkpt lat="48.55274" lon="-2.97944">
        <ele>20</ele>
        <time>2013-12-02T14:34:28.1Z</time>
      </trkpt>
      <trkpt lat="48.55271" lon="-2.97944">
        <ele>20</ele>
        <time>2013-12-02T14:34:30.1Z</time>
      </trkpt>
      <trkpt lat="48.55268" lon="-2.97945">
        <ele>20</ele>
        <time>2013-12-02T14:34:33.1Z</time>
      </trkpt>
      <trkpt lat="48.55265" lon="-2.97945">
        <ele>19</ele>
        <time>2013-12-02T14:34:36.1Z</time>
      </trkpt>
      <trkpt lat="48.55261" lon="-2.97945">
        <ele>19</ele>
        <time>2013-12-02T14:34:39.1Z</time>
      </trkpt>
      <trkpt lat="48.55259" lon="-2.97945">
        <ele>19</ele>
        <time>2013-12-02T14:34:41.1Z</time>
      </trkpt>
      <trkpt lat="48.55255" lon="-2.97944">
        <ele>19</ele>
        <time>2013-12-02T14:34:44.1Z</time>
      </trkpt>
      <trkpt lat="48.55252" lon="-2.97943">
        <ele>19</ele>
        <time>2013-12-02T14:34:46.1Z</time>
      </trkpt>
      <trkpt lat="48.5525" lon="-2.97943">
        <ele>19</ele>
        <time>2013-12-02T14:34:48.1Z</time>
      </trkpt>
      <trkpt lat="48.55246" lon="-2.97942">
        <ele>19</ele>
        <time>2013-12-02T14:34:51.1Z</time>
      </trkpt>
      <trkpt lat="48.55244" lon="-2.97941">
        <ele>19</ele>
        <time>2013-12-02T14:34:53.1Z</time>
      </trkpt>
      <trkpt lat="48.5524" lon="-2.9794">
        <ele>19</ele>
        <time>2013-12-02T14:34:56.1Z</time>
      </trkpt>
      <trkpt lat="48.55238" lon="-2.9794">
        <ele>19</ele>
        <time>2013-12-02T14:34:58.1Z</time>
      </trkpt>
      <trkpt lat="48.55235" lon="-2.97939">
        <ele>19</ele>
        <time>2013-12-02T14:35:00.1Z</time>
      </trkpt>
      <trkpt lat="48.55231" lon="-2.97938">
        <ele>19</ele>
        <time>2013-12-02T14:35:03.1Z</time>
      </trkpt>
      <trkpt lat="48.55229" lon="-2.97937">
        <ele>19</ele>
        <time>2013-12-02T14:35:05.1Z</time>
      </trkpt>
      <trkpt lat="48.55225" lon="-2.97937">
        <ele>18</ele>
        <time>2013-12-02T14:35:08.1Z</time>
      </trkpt>
      <trkpt lat="48.55223" lon="-2.97936">
        <ele>18</ele>
        <time>2013-12-02T14:35:10.1Z</time>
      </trkpt>
      <trkpt lat="48.55221" lon="-2.97935">
        <ele>18</ele>
        <time>2013-12-02T14:35:12.1Z</time>
      </trkpt>
      <trkpt lat="48.55217" lon="-2.97935">
        <ele>18</ele>
        <time>2013-12-02T14:35:15.1Z</time>
      </trkpt>
      <trkpt lat="48.55214" lon="-2.97935">
        <ele>18</ele>
        <time>2013-12-02T14:35:17.1Z</time>
      </trkpt>
      <trkpt lat="48.55212" lon="-2.97934">
        <ele>18</ele>
        <time>2013-12-02T14:35:19.1Z</time>
      </trkpt>
      <trkpt lat="48.5521" lon="-2.97934">
        <ele>18</ele>
        <time>2013-12-02T14:35:22.1Z</time>
      </trkpt>
      <trkpt lat="48.55207" lon="-2.97935">
        <ele>18</ele>
        <time>2013-12-02T14:35:25.1Z</time>
      </trkpt>
      <trkpt lat="48.55205" lon="-2.97935">
        <ele>18</ele>
        <time>2013-12-02T14:35:27.1Z</time>
      </trkpt>
      <trkpt lat="48.55203" lon="-2.97935">
        <ele>18</ele>
        <time>2013-12-02T14:35:29.1Z</time>
      </trkpt>
      <trkpt lat="48.552" lon="-2.97935">
        <ele>18</ele>
        <time>2013-12-02T14:35:32.1Z</time>
      </trkpt>
      <trkpt lat="48.55196" lon="-2.97935">
        <ele>18</ele>
        <time>2013-12-02T14:35:35.1Z</time>
      </trkpt>
      <trkpt lat="48.55192" lon="-2.97935">
        <ele>17</ele>
        <time>2013-12-02T14:35:38.1Z</time>
      </trkpt>
      <trkpt lat="48.5519" lon="-2.97934">
        <ele>17</ele>
        <time>2013-12-02T14:35:40.1Z</time>
      </trkpt>
      <trkpt lat="48.55186" lon="-2.97934">
        <ele>17</ele>
        <time>2013-12-02T14:35:43.1Z</time>
      </trkpt>
      <trkpt lat="48.55182" lon="-2.97933">
        <ele>17</ele>
        <time>2013-12-02T14:35:46.1Z</time>
      </trkpt>
      <trkpt lat="48.55178" lon="-2.97934">
        <ele>17</ele>
        <time>2013-12-02T14:35:49.1Z</time>
      </trkpt>
      <trkpt lat="48.55174" lon="-2.97933">
        <ele>17</ele>
        <time>2013-12-02T14:35:52.1Z</time>
      </trkpt>
      <trkpt lat="48.55171" lon="-2.97932">
        <ele>17</ele>
        <time>2013-12-02T14:35:54.1Z</time>
      </trkpt>
      <trkpt lat="48.55167" lon="-2.97931">
        <ele>17</ele>
        <time>2013-12-02T14:35:57.1Z</time>
      </trkpt>
      <trkpt lat="48.55163" lon="-2.9793">
        <ele>17</ele>
        <time>2013-12-02T14:36:00.1Z</time>
      </trkpt>
      <trkpt lat="48.5516" lon="-2.9793">
        <ele>16</ele>
        <time>2013-12-02T14:36:03.1Z</time>
      </trkpt>
      <trkpt lat="48.55157" lon="-2.97929">
        <ele>16</ele>
        <time>2013-12-02T14:36:05.1Z</time>
      </trkpt>
      <trkpt lat="48.55153" lon="-2.97928">
        <ele>15</ele>
        <time>2013-12-02T14:36:08.1Z</time>
      </trkpt>
      <trkpt lat="48.55151" lon="-2.97928">
        <ele>15</ele>
        <time>2013-12-02T14:36:10.1Z</time>
      </trkpt>
      <trkpt lat="48.55149" lon="-2.97928">
        <ele>15</ele>
        <time>2013-12-02T14:36:12.1Z</time>
      </trkpt>
      <trkpt lat="48.55146" lon="-2.97927">
        <ele>15</ele>
        <time>2013-12-02T14:36:15.1Z</time>
      </trkpt>
      <trkpt lat="48.55143" lon="-2.97927">
        <ele>15</ele>
        <time>2013-12-02T14:36:17.1Z</time>
      </trkpt>
      <trkpt lat="48.55141" lon="-2.97926">
        <ele>14</ele>
        <time>2013-12-02T14:36:19.1Z</time>
      </trkpt>
      <trkpt lat="48.55137" lon="-2.97926">
        <ele>14</ele>
        <time>2013-12-02T14:36:22.1Z</time>
      </trkpt>
      <trkpt lat="48.55135" lon="-2.97926">
        <ele>13</ele>
        <time>2013-12-02T14:36:24.1Z</time>
      </trkpt>
      <trkpt lat="48.55132" lon="-2.97925">
        <ele>13</ele>
        <time>2013-12-02T14:36:27.1Z</time>
      </trkpt>
      <trkpt lat="48.55129" lon="-2.97925">
        <ele>13</ele>
        <time>2013-12-02T14:36:29.1Z</time>
      </trkpt>
      <trkpt lat="48.55126" lon="-2.97924">
        <ele>13</ele>
        <time>2013-12-02T14:36:32.1Z</time>
      </trkpt>
      <trkpt lat="48.55124" lon="-2.97923">
        <ele>13</ele>
        <time>2013-12-02T14:36:34.1Z</time>
      </trkpt>
      <trkpt lat="48.55122" lon="-2.97923">
        <ele>12</ele>
        <time>2013-12-02T14:36:36.1Z</time>
      </trkpt>
      <trkpt lat="48.5512" lon="-2.97923">
        <ele>12</ele>
        <time>2013-12-02T14:36:38.1Z</time>
      </trkpt>
      <trkpt lat="48.55116" lon="-2.97921">
        <ele>12</ele>
        <time>2013-12-02T14:36:41.1Z</time>
      </trkpt>
      <trkpt lat="48.55114" lon="-2.97921">
        <ele>12</ele>
        <time>2013-12-02T14:36:43.1Z</time>
      </trkpt>
      <trkpt lat="48.55111" lon="-2.9792">
        <ele>12</ele>
        <time>2013-12-02T14:36:46.1Z</time>
      </trkpt>
      <trkpt lat="48.55109" lon="-2.9792">
        <ele>12</ele>
        <time>2013-12-02T14:36:49.1Z</time>
      </trkpt>
      <trkpt lat="48.55107" lon="-2.97919">
        <ele>11</ele>
        <time>2013-12-02T14:36:51.1Z</time>
      </trkpt>
      <trkpt lat="48.55104" lon="-2.97918">
        <ele>11</ele>
        <time>2013-12-02T14:36:54.1Z</time>
      </trkpt>
      <trkpt lat="48.55102" lon="-2.97918">
        <ele>10</ele>
        <time>2013-12-02T14:36:56.1Z</time>
      </trkpt>
      <trkpt lat="48.55099" lon="-2.97917">
        <ele>10</ele>
        <time>2013-12-02T14:36:59.1Z</time>
      </trkpt>
      <trkpt lat="48.55096" lon="-2.97915">
        <ele>10</ele>
        <time>2013-12-02T14:37:02.1Z</time>
      </trkpt>
      <trkpt lat="48.55093" lon="-2.97912">
        <ele>9</ele>
        <time>2013-12-02T14:37:05.1Z</time>
      </trkpt>
      <trkpt lat="48.5509" lon="-2.97912">
        <ele>9</ele>
        <time>2013-12-02T14:37:07.1Z</time>
      </trkpt>
      <trkpt lat="48.55087" lon="-2.9791">
        <ele>8</ele>
        <time>2013-12-02T14:37:10.1Z</time>
      </trkpt>
      <trkpt lat="48.55084" lon="-2.97909">
        <ele>8</ele>
        <time>2013-12-02T14:37:12.1Z</time>
      </trkpt>
      <trkpt lat="48.55083" lon="-2.97907">
        <ele>7</ele>
        <time>2013-12-02T14:37:14.1Z</time>
      </trkpt>
      <trkpt lat="48.5508" lon="-2.97905">
        <ele>8</ele>
        <time>2013-12-02T14:37:17.1Z</time>
      </trkpt>
      <trkpt lat="48.55076" lon="-2.97903">
        <ele>7</ele>
        <time>2013-12-02T14:37:20.1Z</time>
      </trkpt>
      <trkpt lat="48.55073" lon="-2.979">
        <ele>7</ele>
        <time>2013-12-02T14:37:23.1Z</time>
      </trkpt>
      <trkpt lat="48.55069" lon="-2.97898">
        <ele>7</ele>
        <time>2013-12-02T14:37:26.1Z</time>
      </trkpt>
      <trkpt lat="48.55067" lon="-2.97897">
        <ele>6</ele>
        <time>2013-12-02T14:37:28.1Z</time>
      </trkpt>
      <trkpt lat="48.55064" lon="-2.97895">
        <ele>6</ele>
        <time>2013-12-02T14:37:31.1Z</time>
      </trkpt>
      <trkpt lat="48.5506" lon="-2.97892">
        <ele>6</ele>
        <time>2013-12-02T14:37:34.1Z</time>
      </trkpt>
      <trkpt lat="48.55057" lon="-2.9789">
        <ele>6</ele>
        <time>2013-12-02T14:37:37.1Z</time>
      </trkpt>
      <trkpt lat="48.55055" lon="-2.97888">
        <ele>6</ele>
        <time>2013-12-02T14:37:39.1Z</time>
      </trkpt>
      <trkpt lat="48.55051" lon="-2.97886">
        <ele>6</ele>
        <time>2013-12-02T14:37:42.1Z</time>
      </trkpt>
      <trkpt lat="48.55049" lon="-2.97884">
        <ele>6</ele>
        <time>2013-12-02T14:37:44.1Z</time>
      </trkpt>
      <trkpt lat="48.55046" lon="-2.97883">
        <ele>5</ele>
        <time>2013-12-02T14:37:47.1Z</time>
      </trkpt>
      <trkpt lat="48.55043" lon="-2.97881">
        <ele>5</ele>
        <time>2013-12-02T14:37:50.1Z</time>
      </trkpt>
      <trkpt lat="48.55042" lon="-2.9788">
        <ele>5</ele>
        <time>2013-12-02T14:37:52.1Z</time>
      </trkpt>
      <trkpt lat="48.55039" lon="-2.97879">
        <ele>4</ele>
        <time>2013-12-02T14:37:55.1Z</time>
      </trkpt>
      <trkpt lat="48.55037" lon="-2.97878">
        <ele>4</ele>
        <time>2013-12-02T14:37:57.1Z</time>
      </trkpt>
      <trkpt lat="48.55037" lon="-2.97876">
        <ele>4</ele>
        <time>2013-12-02T14:37:59.1Z</time>
      </trkpt>
      <trkpt lat="48.55037" lon="-2.97875">
        <ele>5</ele>
        <time>2013-12-02T14:38:02.1Z</time>
      </trkpt>
      <trkpt lat="48.55037" lon="-2.97875">
        <ele>5</ele>
        <time>2013-12-02T14:38:05.1Z</time>
      </trkpt>
      <trkpt lat="48.55036" lon="-2.97874">
        <ele>5</ele>
        <time>2013-12-02T14:38:07.1Z</time>
      </trkpt>
      <trkpt lat="48.55035" lon="-2.97875">
        <ele>5</ele>
        <time>2013-12-02T14:38:09.1Z</time>
      </trkpt>
      <trkpt lat="48.55033" lon="-2.97879">
        <ele>4</ele>
        <time>2013-12-02T14:38:12.1Z</time>
      </trkpt>
      <trkpt lat="48.55032" lon="-2.97882">
        <ele>4</ele>
        <time>2013-12-02T14:38:15.1Z</time>
      </trkpt>
      <trkpt lat="48.55032" lon="-2.97885">
        <ele>4</ele>
        <time>2013-12-02T14:38:17.1Z</time>
      </trkpt>
      <trkpt lat="48.55031" lon="-2.97888">
        <ele>4</ele>
        <time>2013-12-02T14:38:19.1Z</time>
      </trkpt>
      <trkpt lat="48.55031" lon="-2.97894">
        <ele>4</ele>
        <time>2013-12-02T14:38:22.1Z</time>
      </trkpt>
      <trkpt lat="48.55032" lon="-2.97897">
        <ele>4</ele>
        <time>2013-12-02T14:38:24.1Z</time>
      </trkpt>
      <trkpt lat="48.55032" lon="-2.97898">
        <ele>5</ele>
        <time>2013-12-02T14:38:27.1Z</time>
      </trkpt>
      <trkpt lat="48.55032" lon="-2.97899">
        <ele>5</ele>
        <time>2013-12-02T14:38:31.1Z</time>
      </trkpt>
      <trkpt lat="48.55032" lon="-2.97899">
        <ele>4</ele>
        <time>2013-12-02T14:38:33.1Z</time>
      </trkpt>
      <trkpt lat="48.55033" lon="-2.97899">
        <ele>4</ele>
        <time>2013-12-02T14:38:36.1Z</time>
      </trkpt>
      <trkpt lat="48.55035" lon="-2.97896">
        <ele>5</ele>
        <time>2013-12-02T14:38:39.1Z</time>
      </trkpt>
      <trkpt lat="48.55035" lon="-2.97892">
        <ele>5</ele>
        <time>2013-12-02T14:38:42.1Z</time>
      </trkpt>
      <trkpt lat="48.55036" lon="-2.97889">
        <ele>4</ele>
        <time>2013-12-02T14:38:44.1Z</time>
      </trkpt>
      <trkpt lat="48.55035" lon="-2.97885">
        <ele>4</ele>
        <time>2013-12-02T14:38:47.1Z</time>
      </trkpt>
      <trkpt lat="48.55033" lon="-2.97882">
        <ele>3</ele>
        <time>2013-12-02T14:38:50.1Z</time>
      </trkpt>
      <trkpt lat="48.55032" lon="-2.97881">
        <ele>3</ele>
        <time>2013-12-02T14:38:52.1Z</time>
      </trkpt>
      <trkpt lat="48.5503" lon="-2.97879">
        <ele>3</ele>
        <time>2013-12-02T14:38:54.1Z</time>
      </trkpt>
      <trkpt lat="48.55029" lon="-2.97878">
        <ele>3</ele>
        <time>2013-12-02T14:38:56.1Z</time>
      </trkpt>
      <trkpt lat="48.55028" lon="-2.97878">
        <ele>3</ele>
        <time>2013-12-02T14:38:59.1Z</time>
      </trkpt>
      <trkpt lat="48.55028" lon="-2.97877">
        <ele>3</ele>
        <time>2013-12-02T14:39:01.1Z</time>
      </trkpt>
      <trkpt lat="48.55027" lon="-2.97877">
        <ele>3</ele>
        <time>2013-12-02T14:39:04.1Z</time>
      </trkpt>
      <trkpt lat="48.55027" lon="-2.97877">
        <ele>3</ele>
        <time>2013-12-02T14:39:07.1Z</time>
      </trkpt>
      <trkpt lat="48.55026" lon="-2.97878">
        <ele>3</ele>
        <time>2013-12-02T14:39:10.1Z</time>
      </trkpt>
      <trkpt lat="48.55026" lon="-2.97878">
        <ele>3</ele>
        <time>2013-12-02T14:39:12.1Z</time>
      </trkpt>
      <trkpt lat="48.55025" lon="-2.97877">
        <ele>3</ele>
        <time>2013-12-02T14:39:14.1Z</time>
      </trkpt>
      <trkpt lat="48.55023" lon="-2.97876">
        <ele>3</ele>
        <time>2013-12-02T14:39:17.1Z</time>
      </trkpt>
      <trkpt lat="48.55023" lon="-2.97875">
        <ele>3</ele>
        <time>2013-12-02T14:39:20.1Z</time>
      </trkpt>
      <trkpt lat="48.55023" lon="-2.97875">
        <ele>3</ele>
        <time>2013-12-02T14:39:22.1Z</time>
      </trkpt>
      <trkpt lat="48.55022" lon="-2.97875">
        <ele>3</ele>
        <time>2013-12-02T14:39:25.1Z</time>
      </trkpt>
      <trkpt lat="48.55022" lon="-2.97875">
        <ele>3</ele>
        <time>2013-12-02T14:39:28.1Z</time>
      </trkpt>
      <trkpt lat="48.55022" lon="-2.97875">
        <ele>3</ele>
        <time>2013-12-02T14:39:30.1Z</time>
      </trkpt>
      <trkpt lat="48.55021" lon="-2.97875">
        <ele>3</ele>
        <time>2013-12-02T14:39:32.1Z</time>
      </trkpt>
      <trkpt lat="48.55021" lon="-2.97876">
        <ele>3</ele>
        <time>2013-12-02T14:39:35.1Z</time>
      </trkpt>
      <trkpt lat="48.5502" lon="-2.97876">
        <ele>3</ele>
        <time>2013-12-02T14:39:38.1Z</time>
      </trkpt>
      <trkpt lat="48.55019" lon="-2.97877">
        <ele>3</ele>
        <time>2013-12-02T14:39:40.1Z</time>
      </trkpt>
      <trkpt lat="48.55019" lon="-2.97878">
        <ele>3</ele>
        <time>2013-12-02T14:39:43.1Z</time>
      </trkpt>
      <trkpt lat="48.55019" lon="-2.97878">
        <ele>2</ele>
        <time>2013-12-02T14:39:46.1Z</time>
      </trkpt>
      <trkpt lat="48.55019" lon="-2.97878">
        <ele>2</ele>
        <time>2013-12-02T14:39:48.1Z</time>
      </trkpt>
      <trkpt lat="48.5502" lon="-2.97878">
        <ele>2</ele>
        <time>2013-12-02T14:39:51.1Z</time>
      </trkpt>
      <trkpt lat="48.5502" lon="-2.97878">
        <ele>2</ele>
        <time>2013-12-02T14:39:53.1Z</time>
      </trkpt>
      <trkpt lat="48.55021" lon="-2.97879">
        <ele>3</ele>
        <time>2013-12-02T14:39:56.1Z</time>
      </trkpt>
      <trkpt lat="48.5502" lon="-2.97879">
        <ele>3</ele>
        <time>2013-12-02T14:39:59.1Z</time>
      </trkpt>
      <trkpt lat="48.5502" lon="-2.97879">
        <ele>3</ele>
        <time>2013-12-02T14:40:02.1Z</time>
      </trkpt>
      <trkpt lat="48.55021" lon="-2.97879">
        <ele>3</ele>
        <time>2013-12-02T14:40:07.1Z</time>
      </trkpt>
      <trkpt lat="48.55021" lon="-2.97878">
        <ele>2</ele>
        <time>2013-12-02T14:40:10.1Z</time>
      </trkpt>
      <trkpt lat="48.55021" lon="-2.97877">
        <ele>2</ele>
        <time>2013-12-02T14:40:15.1Z</time>
      </trkpt>
      <trkpt lat="48.55021" lon="-2.97877">
        <ele>2</ele>
        <time>2013-12-02T14:40:18.1Z</time>
      </trkpt>
      <trkpt lat="48.5502" lon="-2.97874">
        <ele>2</ele>
        <time>2013-12-02T14:40:21.1Z</time>
      </trkpt>
      <trkpt lat="48.55019" lon="-2.97874">
        <ele>2</ele>
        <time>2013-12-02T14:40:24.1Z</time>
      </trkpt>
      <trkpt lat="48.55017" lon="-2.97873">
        <ele>2</ele>
        <time>2013-12-02T14:40:27.1Z</time>
      </trkpt>
      <trkpt lat="48.55016" lon="-2.97872">
        <ele>2</ele>
        <time>2013-12-02T14:40:29.1Z</time>
      </trkpt>
      <trkpt lat="48.55015" lon="-2.97871">
        <ele>3</ele>
        <time>2013-12-02T14:40:31.1Z</time>
      </trkpt>
      <trkpt lat="48.55013" lon="-2.97869">
        <ele>3</ele>
        <time>2013-12-02T14:40:34.1Z</time>
      </trkpt>
      <trkpt lat="48.55011" lon="-2.97867">
        <ele>2</ele>
        <time>2013-12-02T14:40:37.1Z</time>
      </trkpt>
      <trkpt lat="48.55009" lon="-2.97867">
        <ele>2</ele>
        <time>2013-12-02T14:40:39.1Z</time>
      </trkpt>
      <trkpt lat="48.55006" lon="-2.97864">
        <ele>1</ele>
        <time>2013-12-02T14:40:42.1Z</time>
      </trkpt>
      <trkpt lat="48.55004" lon="-2.97862">
        <ele>1</ele>
        <time>2013-12-02T14:40:45.1Z</time>
      </trkpt>
      <trkpt lat="48.55001" lon="-2.9786">
        <ele>1</ele>
        <time>2013-12-02T14:40:47.1Z</time>
      </trkpt>
      <trkpt lat="48.55" lon="-2.97859">
        <ele>1</ele>
        <time>2013-12-02T14:40:49.1Z</time>
      </trkpt>
      <trkpt lat="48.54998" lon="-2.97858">
        <ele>1</ele>
        <time>2013-12-02T14:40:52.1Z</time>
      </trkpt>
      <trkpt lat="48.54995" lon="-2.97857">
        <ele>1</ele>
        <time>2013-12-02T14:40:55.1Z</time>
      </trkpt>
      <trkpt lat="48.54992" lon="-2.97855">
        <ele>1</ele>
        <time>2013-12-02T14:40:58.1Z</time>
      </trkpt>
      <trkpt lat="48.54989" lon="-2.97853">
        <ele>1</ele>
        <time>2013-12-02T14:41:01.1Z</time>
      </trkpt>
      <trkpt lat="48.54986" lon="-2.97852">
        <ele>1</ele>
        <time>2013-12-02T14:41:04.1Z</time>
      </trkpt>
      <trkpt lat="48.54983" lon="-2.97851">
        <ele>1</ele>
        <time>2013-12-02T14:41:07.1Z</time>
      </trkpt>
      <trkpt lat="48.5498" lon="-2.97851">
        <ele>1</ele>
        <time>2013-12-02T14:41:10.1Z</time>
      </trkpt>
      <trkpt lat="48.54979" lon="-2.97851">
        <ele>1</ele>
        <time>2013-12-02T14:41:12.1Z</time>
      </trkpt>
      <trkpt lat="48.54976" lon="-2.97849">
        <ele>1</ele>
        <time>2013-12-02T14:41:15.1Z</time>
      </trkpt>
      <trkpt lat="48.54975" lon="-2.97849">
        <ele>1</ele>
        <time>2013-12-02T14:41:17.1Z</time>
      </trkpt>
      <trkpt lat="48.54973" lon="-2.97848">
        <ele>1</ele>
        <time>2013-12-02T14:41:20.1Z</time>
      </trkpt>
      <trkpt lat="48.54971" lon="-2.97847">
        <ele>1</ele>
        <time>2013-12-02T14:41:22.1Z</time>
      </trkpt>
      <trkpt lat="48.54969" lon="-2.97847">
        <ele>1</ele>
        <time>2013-12-02T14:41:25.1Z</time>
      </trkpt>
      <trkpt lat="48.54967" lon="-2.97847">
        <ele>1</ele>
        <time>2013-12-02T14:41:27.1Z</time>
      </trkpt>
      <trkpt lat="48.54964" lon="-2.97846">
        <ele>95.6</ele>
        <time>2013-12-02T14:41:30.1Z</time>
      </trkpt>
      <trkpt lat="48.54963" lon="-2.97846">
        <ele>1</ele>
        <time>2013-12-02T14:41:32.1Z</time>
      </trkpt>
      <trkpt lat="48.5496" lon="-2.97844">
        <ele>95.6</ele>
        <time>2013-12-02T14:41:35.1Z</time>
      </trkpt>
      <trkpt lat="48.54958" lon="-2.97843">
        <ele>95.5</ele>
        <time>2013-12-02T14:41:38.1Z</time>
      </trkpt>
      <trkpt lat="48.54955" lon="-2.97841">
        <ele>95.5</ele>
        <time>2013-12-02T14:41:41.1Z</time>
      </trkpt>
      <trkpt lat="48.54952" lon="-2.9784">
        <ele>95.5</ele>
        <time>2013-12-02T14:41:44.1Z</time>
      </trkpt>
      <trkpt lat="48.54949" lon="-2.97839">
        <ele>95.4</ele>
        <time>2013-12-02T14:41:47.1Z</time>
      </trkpt>
      <trkpt lat="48.54946" lon="-2.97837">
        <ele>95.3</ele>
        <time>2013-12-02T14:41:50.1Z</time>
      </trkpt>
      <trkpt lat="48.54944" lon="-2.97836">
        <ele>95.3</ele>
        <time>2013-12-02T14:41:52.1Z</time>
      </trkpt>
      <trkpt lat="48.54941" lon="-2.97834">
        <ele>95.3</ele>
        <time>2013-12-02T14:41:55.1Z</time>
      </trkpt>
      <trkpt lat="48.54939" lon="-2.97833">
        <ele>95.2</ele>
        <time>2013-12-02T14:41:57.1Z</time>
      </trkpt>
      <trkpt lat="48.54937" lon="-2.97832">
        <ele>95.1</ele>
        <time>2013-12-02T14:42:00.1Z</time>
      </trkpt>
      <trkpt lat="48.54934" lon="-2.9783">
        <ele>95.1</ele>
        <time>2013-12-02T14:42:02.1Z</time>
      </trkpt>
      <trkpt lat="48.54931" lon="-2.97828">
        <ele>95</ele>
        <time>2013-12-02T14:42:05.1Z</time>
      </trkpt>
      <trkpt lat="48.54929" lon="-2.97827">
        <ele>95</ele>
        <time>2013-12-02T14:42:07.1Z</time>
      </trkpt>
      <trkpt lat="48.54927" lon="-2.97826">
        <ele>94.9</ele>
        <time>2013-12-02T14:42:09.1Z</time>
      </trkpt>
      <trkpt lat="48.54925" lon="-2.97824">
        <ele>94.8</ele>
        <time>2013-12-02T14:42:12.1Z</time>
      </trkpt>
      <trkpt lat="48.54922" lon="-2.97823">
        <ele>94.7</ele>
        <time>2013-12-02T14:42:15.1Z</time>
      </trkpt>
      <trkpt lat="48.54919" lon="-2.97822">
        <ele>94.7</ele>
        <time>2013-12-02T14:42:18.1Z</time>
      </trkpt>
      <trkpt lat="48.54917" lon="-2.97821">
        <ele>-1</ele>
        <time>2013-12-02T14:42:20.1Z</time>
      </trkpt>
      <trkpt lat="48.54916" lon="-2.9782">
        <ele>-1</ele>
        <time>2013-12-02T14:42:22.1Z</time>
      </trkpt>
      <trkpt lat="48.54913" lon="-2.9782">
        <ele>-1</ele>
        <time>2013-12-02T14:42:25.1Z</time>
      </trkpt>
      <trkpt lat="48.54911" lon="-2.97818">
        <ele>-1</ele>
        <time>2013-12-02T14:42:28.1Z</time>
      </trkpt>
      <trkpt lat="48.54909" lon="-2.97817">
        <ele>-2</ele>
        <time>2013-12-02T14:42:30.1Z</time>
      </trkpt>
      <trkpt lat="48.54907" lon="-2.97817">
        <ele>-2</ele>
        <time>2013-12-02T14:42:32.1Z</time>
      </trkpt>
      <trkpt lat="48.54904" lon="-2.97815">
        <ele>-1</ele>
        <time>2013-12-02T14:42:35.1Z</time>
      </trkpt>
      <trkpt lat="48.54901" lon="-2.97813">
        <ele>-2</ele>
        <time>2013-12-02T14:42:38.1Z</time>
      </trkpt>
      <trkpt lat="48.54898" lon="-2.9781">
        <ele>-2</ele>
        <time>2013-12-02T14:42:41.1Z</time>
      </trkpt>
      <trkpt lat="48.54896" lon="-2.97808">
        <ele>-2</ele>
        <time>2013-12-02T14:42:43.1Z</time>
      </trkpt>
      <trkpt lat="48.54894" lon="-2.97807">
        <ele>-2</ele>
        <time>2013-12-02T14:42:45.1Z</time>
      </trkpt>
      <trkpt lat="48.54892" lon="-2.97806">
        <ele>-1</ele>
        <time>2013-12-02T14:42:47.1Z</time>
      </trkpt>
      <trkpt lat="48.54888" lon="-2.97804">
        <ele>-2</ele>
        <time>2013-12-02T14:42:50.1Z</time>
      </trkpt>
      <trkpt lat="48.54885" lon="-2.97801">
        <ele>-2</ele>
        <time>2013-12-02T14:42:53.1Z</time>
      </trkpt>
      <trkpt lat="48.54883" lon="-2.978">
        <ele>-2</ele>
        <time>2013-12-02T14:42:55.1Z</time>
      </trkpt>
      <trkpt lat="48.54879" lon="-2.97798">
        <ele>-2</ele>
        <time>2013-12-02T14:42:58.1Z</time>
      </trkpt>
      <trkpt lat="48.54878" lon="-2.97797">
        <ele>-2</ele>
        <time>2013-12-02T14:43:00.1Z</time>
      </trkpt>
      <trkpt lat="48.54876" lon="-2.97796">
        <ele>-2</ele>
        <time>2013-12-02T14:43:02.1Z</time>
      </trkpt>
      <trkpt lat="48.54872" lon="-2.97795">
        <ele>-2</ele>
        <time>2013-12-02T14:43:05.1Z</time>
      </trkpt>
      <trkpt lat="48.54869" lon="-2.97795">
        <ele>-2</ele>
        <time>2013-12-02T14:43:08.1Z</time>
      </trkpt>
      <trkpt lat="48.54866" lon="-2.97794">
        <ele>-2</ele>
        <time>2013-12-02T14:43:10.1Z</time>
      </trkpt>
      <trkpt lat="48.54864" lon="-2.97792">
        <ele>-1</ele>
        <time>2013-12-02T14:43:13.1Z</time>
      </trkpt>
      <trkpt lat="48.54862" lon="-2.97791">
        <ele>-1</ele>
        <time>2013-12-02T14:43:15.1Z</time>
      </trkpt>
      <trkpt lat="48.54859" lon="-2.97789">
        <ele>-2</ele>
        <time>2013-12-02T14:43:18.1Z</time>
      </trkpt>
      <trkpt lat="48.54856" lon="-2.97787">
        <ele>-2</ele>
        <time>2013-12-02T14:43:21.1Z</time>
      </trkpt>
      <trkpt lat="48.54855" lon="-2.97785">
        <ele>-2</ele>
        <time>2013-12-02T14:43:23.1Z</time>
      </trkpt>
      <trkpt lat="48.54852" lon="-2.97784">
        <ele>-2</ele>
        <time>2013-12-02T14:43:26.1Z</time>
      </trkpt>
      <trkpt lat="48.5485" lon="-2.97782">
        <ele>-2</ele>
        <time>2013-12-02T14:43:28.1Z</time>
      </trkpt>
      <trkpt lat="48.54847" lon="-2.9778">
        <ele>-2</ele>
        <time>2013-12-02T14:43:31.1Z</time>
      </trkpt>
      <trkpt lat="48.54845" lon="-2.97778">
        <ele>-2</ele>
        <time>2013-12-02T14:43:34.1Z</time>
      </trkpt>
      <trkpt lat="48.54842" lon="-2.97777">
        <ele>-2</ele>
        <time>2013-12-02T14:43:37.1Z</time>
      </trkpt>
      <trkpt lat="48.54839" lon="-2.97775">
        <ele>-2</ele>
        <time>2013-12-02T14:43:40.1Z</time>
      </trkpt>
      <trkpt lat="48.54835" lon="-2.97773">
        <ele>-1</ele>
        <time>2013-12-02T14:43:43.1Z</time>
      </trkpt>
      <trkpt lat="48.54833" lon="-2.97768">
        <ele>-1</ele>
        <time>2013-12-02T14:43:46.1Z</time>
      </trkpt>
      <trkpt lat="48.54831" lon="-2.97765">
        <ele>-1</ele>
        <time>2013-12-02T14:43:48.1Z</time>
      </trkpt>
      <trkpt lat="48.54829" lon="-2.97762">
        <ele>-1</ele>
        <time>2013-12-02T14:43:51.1Z</time>
      </trkpt>
      <trkpt lat="48.54827" lon="-2.97759">
        <ele>-1</ele>
        <time>2013-12-02T14:43:53.1Z</time>
      </trkpt>
      <trkpt lat="48.54825" lon="-2.97756">
        <ele>-1</ele>
        <time>2013-12-02T14:43:56.1Z</time>
      </trkpt>
      <trkpt lat="48.54823" lon="-2.97753">
        <ele>-1</ele>
        <time>2013-12-02T14:43:58.1Z</time>
      </trkpt>
      <trkpt lat="48.54821" lon="-2.97751">
        <ele>-1</ele>
        <time>2013-12-02T14:44:00.1Z</time>
      </trkpt>
      <trkpt lat="48.54819" lon="-2.97748">
        <ele>-1</ele>
        <time>2013-12-02T14:44:03.1Z</time>
      </trkpt>
      <trkpt lat="48.54816" lon="-2.97745">
        <ele>-1</ele>
        <time>2013-12-02T14:44:06.1Z</time>
      </trkpt>
      <trkpt lat="48.54815" lon="-2.97744">
        <ele>-1</ele>
        <time>2013-12-02T14:44:08.1Z</time>
      </trkpt>
      <trkpt lat="48.54813" lon="-2.97741">
        <ele>-1</ele>
        <time>2013-12-02T14:44:10.1Z</time>
      </trkpt>
      <trkpt lat="48.5481" lon="-2.97739">
        <ele>-1</ele>
        <time>2013-12-02T14:44:13.1Z</time>
      </trkpt>
      <trkpt lat="48.54808" lon="-2.97737">
        <ele>-1</ele>
        <time>2013-12-02T14:44:15.1Z</time>
      </trkpt>
      <trkpt lat="48.54805" lon="-2.97735">
        <ele>-1</ele>
        <time>2013-12-02T14:44:18.1Z</time>
      </trkpt>
      <trkpt lat="48.54804" lon="-2.97733">
        <ele>93.9</ele>
        <time>2013-12-02T14:44:20.1Z</time>
      </trkpt>
      <trkpt lat="48.548" lon="-2.97731">
        <ele>94</ele>
        <time>2013-12-02T14:44:23.1Z</time>
      </trkpt>
      <trkpt lat="48.54798" lon="-2.9773">
        <ele>94</ele>
        <time>2013-12-02T14:44:26.1Z</time>
      </trkpt>
      <trkpt lat="48.54796" lon="-2.9773">
        <ele>94.1</ele>
        <time>2013-12-02T14:44:29.1Z</time>
      </trkpt>
      <trkpt lat="48.54792" lon="-2.97729">
        <ele>94.2</ele>
        <time>2013-12-02T14:44:32.1Z</time>
      </trkpt>
      <trkpt lat="48.5479" lon="-2.97727">
        <ele>94.1</ele>
        <time>2013-12-02T14:44:35.1Z</time>
      </trkpt>
      <trkpt lat="48.54788" lon="-2.97726">
        <ele>94.1</ele>
        <time>2013-12-02T14:44:37.1Z</time>
      </trkpt>
      <trkpt lat="48.54785" lon="-2.97724">
        <ele>94</ele>
        <time>2013-12-02T14:44:40.1Z</time>
      </trkpt>
      <trkpt lat="48.54784" lon="-2.97723">
        <ele>93.9</ele>
        <time>2013-12-02T14:44:42.1Z</time>
      </trkpt>
      <trkpt lat="48.54781" lon="-2.97722">
        <ele>93.9</ele>
        <time>2013-12-02T14:44:45.1Z</time>
      </trkpt>
      <trkpt lat="48.54778" lon="-2.9772">
        <ele>93.9</ele>
        <time>2013-12-02T14:44:48.1Z</time>
      </trkpt>
      <trkpt lat="48.54775" lon="-2.97719">
        <ele>93.9</ele>
        <time>2013-12-02T14:44:51.1Z</time>
      </trkpt>
      <trkpt lat="48.54773" lon="-2.97717">
        <ele>93.8</ele>
        <time>2013-12-02T14:44:53.1Z</time>
      </trkpt>
      <trkpt lat="48.5477" lon="-2.97716">
        <ele>93.8</ele>
        <time>2013-12-02T14:44:56.1Z</time>
      </trkpt>
      <trkpt lat="48.54767" lon="-2.97714">
        <ele>93.7</ele>
        <time>2013-12-02T14:44:59.1Z</time>
      </trkpt>
      <trkpt lat="48.54765" lon="-2.97713">
        <ele>93.7</ele>
        <time>2013-12-02T14:45:01.1Z</time>
      </trkpt>
      <trkpt lat="48.54763" lon="-2.97711">
        <ele>93.6</ele>
        <time>2013-12-02T14:45:04.1Z</time>
      </trkpt>
      <trkpt lat="48.54761" lon="-2.9771">
        <ele>93.6</ele>
        <time>2013-12-02T14:45:06.1Z</time>
      </trkpt>
      <trkpt lat="48.54758" lon="-2.97709">
        <ele>93.5</ele>
        <time>2013-12-02T14:45:09.1Z</time>
      </trkpt>
      <trkpt lat="48.54756" lon="-2.97709">
        <ele>93.5</ele>
        <time>2013-12-02T14:45:12.1Z</time>
      </trkpt>
      <trkpt lat="48.54754" lon="-2.97708">
        <ele>93.5</ele>
        <time>2013-12-02T14:45:14.1Z</time>
      </trkpt>
      <trkpt lat="48.54751" lon="-2.97707">
        <ele>93.5</ele>
        <time>2013-12-02T14:45:17.1Z</time>
      </trkpt>
      <trkpt lat="48.54748" lon="-2.97707">
        <ele>93.5</ele>
        <time>2013-12-02T14:45:20.1Z</time>
      </trkpt>
      <trkpt lat="48.54745" lon="-2.97707">
        <ele>93.6</ele>
        <time>2013-12-02T14:45:23.1Z</time>
      </trkpt>
      <trkpt lat="48.54743" lon="-2.97706">
        <ele>93.6</ele>
        <time>2013-12-02T14:45:25.1Z</time>
      </trkpt>
      <trkpt lat="48.54739" lon="-2.97705">
        <ele>93.6</ele>
        <time>2013-12-02T14:45:28.1Z</time>
      </trkpt>
      <trkpt lat="48.54736" lon="-2.97705">
        <ele>93.7</ele>
        <time>2013-12-02T14:45:31.1Z</time>
      </trkpt>
      <trkpt lat="48.54733" lon="-2.97705">
        <ele>93.8</ele>
        <time>2013-12-02T14:45:34.1Z</time>
      </trkpt>
      <trkpt lat="48.54731" lon="-2.97705">
        <ele>93.8</ele>
        <time>2013-12-02T14:45:36.1Z</time>
      </trkpt>
      <trkpt lat="48.54728" lon="-2.97704">
        <ele>93.9</ele>
        <time>2013-12-02T14:45:39.1Z</time>
      </trkpt>
      <trkpt lat="48.54725" lon="-2.97704">
        <ele>93.9</ele>
        <time>2013-12-02T14:45:42.1Z</time>
      </trkpt>
      <trkpt lat="48.54722" lon="-2.97704">
        <ele>94</ele>
        <time>2013-12-02T14:45:45.1Z</time>
      </trkpt>
      <trkpt lat="48.54719" lon="-2.97703">
        <ele>94.4</ele>
        <time>2013-12-02T14:45:48.1Z</time>
      </trkpt>
      <trkpt lat="48.54715" lon="-2.97702">
        <ele>94.9</ele>
        <time>2013-12-02T14:45:51.1Z</time>
      </trkpt>
      <trkpt lat="48.54713" lon="-2.97701">
        <ele>95.2</ele>
        <time>2013-12-02T14:45:53.1Z</time>
      </trkpt>
      <trkpt lat="48.5471" lon="-2.977">
        <ele>95.5</ele>
        <time>2013-12-02T14:45:56.1Z</time>
      </trkpt>
      <trkpt lat="48.54707" lon="-2.97698">
        <ele>95.8</ele>
        <time>2013-12-02T14:45:59.1Z</time>
      </trkpt>
      <trkpt lat="48.54705" lon="-2.97698">
        <ele>96</ele>
        <time>2013-12-02T14:46:01.1Z</time>
      </trkpt>
      <trkpt lat="48.54702" lon="-2.97698">
        <ele>96.3</ele>
        <time>2013-12-02T14:46:04.1Z</time>
      </trkpt>
      <trkpt lat="48.547" lon="-2.97697">
        <ele>96.6</ele>
        <time>2013-12-02T14:46:07.1Z</time>
      </trkpt>
      <trkpt lat="48.54698" lon="-2.97696">
        <ele>96.7</ele>
        <time>2013-12-02T14:46:09.1Z</time>
      </trkpt>
      <trkpt lat="48.54697" lon="-2.97696">
        <ele>96.8</ele>
        <time>2013-12-02T14:46:11.1Z</time>
      </trkpt>
      <trkpt lat="48.54694" lon="-2.97693">
        <ele>96.9</ele>
        <time>2013-12-02T14:46:14.1Z</time>
      </trkpt>
      <trkpt lat="48.54693" lon="-2.97692">
        <ele>96.9</ele>
        <time>2013-12-02T14:46:16.1Z</time>
      </trkpt>
      <trkpt lat="48.5469" lon="-2.97691">
        <ele>97</ele>
        <time>2013-12-02T14:46:19.1Z</time>
      </trkpt>
      <trkpt lat="48.54687" lon="-2.97689">
        <ele>97.2</ele>
        <time>2013-12-02T14:46:22.1Z</time>
      </trkpt>
      <trkpt lat="48.54685" lon="-2.97687">
        <ele>97.2</ele>
        <time>2013-12-02T14:46:24.1Z</time>
      </trkpt>
      <trkpt lat="48.54682" lon="-2.97686">
        <ele>97.4</ele>
        <time>2013-12-02T14:46:27.1Z</time>
      </trkpt>
      <trkpt lat="48.54681" lon="-2.97684">
        <ele>97.4</ele>
        <time>2013-12-02T14:46:29.1Z</time>
      </trkpt>
      <trkpt lat="48.54678" lon="-2.97681">
        <ele>97.4</ele>
        <time>2013-12-02T14:46:32.1Z</time>
      </trkpt>
      <trkpt lat="48.54674" lon="-2.9768">
        <ele>97.6</ele>
        <time>2013-12-02T14:46:35.1Z</time>
      </trkpt>
      <trkpt lat="48.54671" lon="-2.97678">
        <ele>97.7</ele>
        <time>2013-12-02T14:46:38.1Z</time>
      </trkpt>
      <trkpt lat="48.54668" lon="-2.97675">
        <ele>97.8</ele>
        <time>2013-12-02T14:46:41.1Z</time>
      </trkpt>
      <trkpt lat="48.54665" lon="-2.97673">
        <ele>97.9</ele>
        <time>2013-12-02T14:46:44.1Z</time>
      </trkpt>
      <trkpt lat="48.54663" lon="-2.9767">
        <ele>1</ele>
        <time>2013-12-02T14:46:46.1Z</time>
      </trkpt>
      <trkpt lat="48.54661" lon="-2.97668">
        <ele>1</ele>
        <time>2013-12-02T14:46:48.1Z</time>
      </trkpt>
      <trkpt lat="48.54658" lon="-2.97666">
        <ele>1</ele>
        <time>2013-12-02T14:46:51.1Z</time>
      </trkpt>
      <trkpt lat="48.54656" lon="-2.97664">
        <ele>1</ele>
        <time>2013-12-02T14:46:53.1Z</time>
      </trkpt>
      <trkpt lat="48.54654" lon="-2.97662">
        <ele>98.8</ele>
        <time>2013-12-02T14:46:55.1Z</time>
      </trkpt>
      <trkpt lat="48.54651" lon="-2.9766">
        <ele>1</ele>
        <time>2013-12-02T14:46:58.1Z</time>
      </trkpt>
      <trkpt lat="48.54649" lon="-2.97659">
        <ele>1</ele>
        <time>2013-12-02T14:47:00.1Z</time>
      </trkpt>
      <trkpt lat="48.54646" lon="-2.97656">
        <ele>1</ele>
        <time>2013-12-02T14:47:03.1Z</time>
      </trkpt>
      <trkpt lat="48.54643" lon="-2.97653">
        <ele>1</ele>
        <time>2013-12-02T14:47:06.1Z</time>
      </trkpt>
      <trkpt lat="48.54641" lon="-2.9765">
        <ele>1</ele>
        <time>2013-12-02T14:47:09.1Z</time>
      </trkpt>
      <trkpt lat="48.54638" lon="-2.97647">
        <ele>1</ele>
        <time>2013-12-02T14:47:12.1Z</time>
      </trkpt>
      <trkpt lat="48.54636" lon="-2.97644">
        <ele>1</ele>
        <time>2013-12-02T14:47:15.1Z</time>
      </trkpt>
      <trkpt lat="48.54633" lon="-2.9764">
        <ele>1</ele>
        <time>2013-12-02T14:47:18.1Z</time>
      </trkpt>
      <trkpt lat="48.5463" lon="-2.97637">
        <ele>1</ele>
        <time>2013-12-02T14:47:21.1Z</time>
      </trkpt>
      <trkpt lat="48.54628" lon="-2.97634">
        <ele>1</ele>
        <time>2013-12-02T14:47:24.1Z</time>
      </trkpt>
      <trkpt lat="48.54627" lon="-2.97632">
        <ele>1</ele>
        <time>2013-12-02T14:47:26.1Z</time>
      </trkpt>
      <trkpt lat="48.54625" lon="-2.9763">
        <ele>1</ele>
        <time>2013-12-02T14:47:28.1Z</time>
      </trkpt>
      <trkpt lat="48.54624" lon="-2.97628">
        <ele>1</ele>
        <time>2013-12-02T14:47:31.1Z</time>
      </trkpt>
      <trkpt lat="48.54623" lon="-2.97626">
        <ele>1</ele>
        <time>2013-12-02T14:47:33.1Z</time>
      </trkpt>
      <trkpt lat="48.54622" lon="-2.97622">
        <ele>1</ele>
        <time>2013-12-02T14:47:36.1Z</time>
      </trkpt>
      <trkpt lat="48.54622" lon="-2.9762">
        <ele>2</ele>
        <time>2013-12-02T14:47:39.1Z</time>
      </trkpt>
      <trkpt lat="48.54621" lon="-2.97617">
        <ele>2</ele>
        <time>2013-12-02T14:47:42.1Z</time>
      </trkpt>
      <trkpt lat="48.5462" lon="-2.97614">
        <ele>2</ele>
        <time>2013-12-02T14:47:44.1Z</time>
      </trkpt>
      <trkpt lat="48.54619" lon="-2.97611">
        <ele>2</ele>
        <time>2013-12-02T14:47:46.1Z</time>
      </trkpt>
      <trkpt lat="48.54619" lon="-2.97608">
        <ele>2</ele>
        <time>2013-12-02T14:47:49.1Z</time>
      </trkpt>
      <trkpt lat="48.54617" lon="-2.97604">
        <ele>2</ele>
        <time>2013-12-02T14:47:51.1Z</time>
      </trkpt>
      <trkpt lat="48.54616" lon="-2.97601">
        <ele>2</ele>
        <time>2013-12-02T14:47:54.1Z</time>
      </trkpt>
      <trkpt lat="48.54613" lon="-2.97599">
        <ele>2</ele>
        <time>2013-12-02T14:47:56.1Z</time>
      </trkpt>
      <trkpt lat="48.5461" lon="-2.97595">
        <ele>2</ele>
        <time>2013-12-02T14:47:59.1Z</time>
      </trkpt>
      <trkpt lat="48.54607" lon="-2.97591">
        <ele>3</ele>
        <time>2013-12-02T14:48:02.1Z</time>
      </trkpt>
      <trkpt lat="48.54605" lon="-2.97588">
        <ele>3</ele>
        <time>2013-12-02T14:48:05.1Z</time>
      </trkpt>
      <trkpt lat="48.54604" lon="-2.97585">
        <ele>3</ele>
        <time>2013-12-02T14:48:07.1Z</time>
      </trkpt>
      <trkpt lat="48.54603" lon="-2.97582">
        <ele>3</ele>
        <time>2013-12-02T14:48:09.1Z</time>
      </trkpt>
      <trkpt lat="48.54601" lon="-2.97578">
        <ele>3</ele>
        <time>2013-12-02T14:48:12.1Z</time>
      </trkpt>
      <trkpt lat="48.546" lon="-2.97576">
        <ele>3</ele>
        <time>2013-12-02T14:48:14.1Z</time>
      </trkpt>
      <trkpt lat="48.54598" lon="-2.97573">
        <ele>3</ele>
        <time>2013-12-02T14:48:17.1Z</time>
      </trkpt>
      <trkpt lat="48.54596" lon="-2.97569">
        <ele>3</ele>
        <time>2013-12-02T14:48:20.1Z</time>
      </trkpt>
      <trkpt lat="48.54594" lon="-2.97567">
        <ele>3</ele>
        <time>2013-12-02T14:48:22.1Z</time>
      </trkpt>
      <trkpt lat="48.54592" lon="-2.97563">
        <ele>3</ele>
        <time>2013-12-02T14:48:25.1Z</time>
      </trkpt>
      <trkpt lat="48.54589" lon="-2.97559">
        <ele>3</ele>
        <time>2013-12-02T14:48:28.1Z</time>
      </trkpt>
      <trkpt lat="48.54586" lon="-2.97555">
        <ele>3</ele>
        <time>2013-12-02T14:48:31.1Z</time>
      </trkpt>
      <trkpt lat="48.54583" lon="-2.97552">
        <ele>3</ele>
        <time>2013-12-02T14:48:34.1Z</time>
      </trkpt>
      <trkpt lat="48.54581" lon="-2.9755">
        <ele>3</ele>
        <time>2013-12-02T14:48:37.1Z</time>
      </trkpt>
      <trkpt lat="48.5458" lon="-2.97548">
        <ele>4</ele>
        <time>2013-12-02T14:48:39.1Z</time>
      </trkpt>
      <trkpt lat="48.54577" lon="-2.97546">
        <ele>3</ele>
        <time>2013-12-02T14:48:42.1Z</time>
      </trkpt>
      <trkpt lat="48.54575" lon="-2.97544">
        <ele>4</ele>
        <time>2013-12-02T14:48:44.1Z</time>
      </trkpt>
      <trkpt lat="48.54571" lon="-2.97541">
        <ele>3</ele>
        <time>2013-12-02T14:48:47.1Z</time>
      </trkpt>
      <trkpt lat="48.54568" lon="-2.97538">
        <ele>4</ele>
        <time>2013-12-02T14:48:50.1Z</time>
      </trkpt>
      <trkpt lat="48.54565" lon="-2.97536">
        <ele>4</ele>
        <time>2013-12-02T14:48:53.1Z</time>
      </trkpt>
      <trkpt lat="48.54561" lon="-2.97534">
        <ele>4</ele>
        <time>2013-12-02T14:48:56.1Z</time>
      </trkpt>
      <trkpt lat="48.54558" lon="-2.97532">
        <ele>4</ele>
        <time>2013-12-02T14:48:58.1Z</time>
      </trkpt>
      <trkpt lat="48.54556" lon="-2.9753">
        <ele>3</ele>
        <time>2013-12-02T14:49:00.1Z</time>
      </trkpt>
      <trkpt lat="48.54552" lon="-2.97527">
        <ele>3</ele>
        <time>2013-12-02T14:49:03.1Z</time>
      </trkpt>
      <trkpt lat="48.54549" lon="-2.97525">
        <ele>3</ele>
        <time>2013-12-02T14:49:06.1Z</time>
      </trkpt>
      <trkpt lat="48.54545" lon="-2.97523">
        <ele>3</ele>
        <time>2013-12-02T14:49:09.1Z</time>
      </trkpt>
      <trkpt lat="48.54543" lon="-2.97521">
        <ele>3</ele>
        <time>2013-12-02T14:49:11.1Z</time>
      </trkpt>
      <trkpt lat="48.54538" lon="-2.97519">
        <ele>3</ele>
        <time>2013-12-02T14:49:14.1Z</time>
      </trkpt>
      <trkpt lat="48.54535" lon="-2.97518">
        <ele>3</ele>
        <time>2013-12-02T14:49:17.1Z</time>
      </trkpt>
      <trkpt lat="48.54531" lon="-2.97516">
        <ele>3</ele>
        <time>2013-12-02T14:49:20.1Z</time>
      </trkpt>
      <trkpt lat="48.54528" lon="-2.97514">
        <ele>3</ele>
        <time>2013-12-02T14:49:23.1Z</time>
      </trkpt>
      <trkpt lat="48.54527" lon="-2.97514">
        <ele>3</ele>
        <time>2013-12-02T14:49:26.1Z</time>
      </trkpt>
      <trkpt lat="48.54525" lon="-2.97513">
        <ele>3</ele>
        <time>2013-12-02T14:49:28.1Z</time>
      </trkpt>
      <trkpt lat="48.54525" lon="-2.97514">
        <ele>3</ele>
        <time>2013-12-02T14:49:30.1Z</time>
      </trkpt>
      <trkpt lat="48.54525" lon="-2.97512">
        <ele>3</ele>
        <time>2013-12-02T14:49:32.1Z</time>
      </trkpt>
      <trkpt lat="48.54524" lon="-2.97514">
        <ele>3</ele>
        <time>2013-12-02T14:49:35.1Z</time>
      </trkpt>
      <trkpt lat="48.54523" lon="-2.97515">
        <ele>3</ele>
        <time>2013-12-02T14:49:38.1Z</time>
      </trkpt>
      <trkpt lat="48.54523" lon="-2.97516">
        <ele>3</ele>
        <time>2013-12-02T14:49:41.1Z</time>
      </trkpt>
      <trkpt lat="48.54523" lon="-2.97517">
        <ele>3</ele>
        <time>2013-12-02T14:49:43.1Z</time>
      </trkpt>
      <trkpt lat="48.54523" lon="-2.97518">
        <ele>2</ele>
        <time>2013-12-02T14:49:45.1Z</time>
      </trkpt>
      <trkpt lat="48.54523" lon="-2.97519">
        <ele>2</ele>
        <time>2013-12-02T14:49:48.1Z</time>
      </trkpt>
      <trkpt lat="48.54523" lon="-2.97519">
        <ele>3</ele>
        <time>2013-12-02T14:49:51.1Z</time>
      </trkpt>
      <trkpt lat="48.54523" lon="-2.9752">
        <ele>3</ele>
        <time>2013-12-02T14:49:53.1Z</time>
      </trkpt>
      <trkpt lat="48.54523" lon="-2.97521">
        <ele>3</ele>
        <time>2013-12-02T14:49:56.1Z</time>
      </trkpt>
      <trkpt lat="48.54524" lon="-2.97522">
        <ele>3</ele>
        <time>2013-12-02T14:49:58.1Z</time>
      </trkpt>
      <trkpt lat="48.54524" lon="-2.97522">
        <ele>3</ele>
        <time>2013-12-02T14:50:00.1Z</time>
      </trkpt>
      <trkpt lat="48.54525" lon="-2.97522">
        <ele>3</ele>
        <time>2013-12-02T14:50:02.1Z</time>
      </trkpt>
      <trkpt lat="48.54525" lon="-2.97522">
        <ele>3</ele>
        <time>2013-12-02T14:50:05.1Z</time>
      </trkpt>
      <trkpt lat="48.54525" lon="-2.97522">
        <ele>3</ele>
        <time>2013-12-02T14:50:07.1Z</time>
      </trkpt>
      <trkpt lat="48.54525" lon="-2.97521">
        <ele>3</ele>
        <time>2013-12-02T14:50:10.1Z</time>
      </trkpt>
      <trkpt lat="48.54526" lon="-2.97521">
        <ele>3</ele>
        <time>2013-12-02T14:50:12.1Z</time>
      </trkpt>
      <trkpt lat="48.54525" lon="-2.97521">
        <ele>3</ele>
        <time>2013-12-02T14:50:14.1Z</time>
      </trkpt>
      <trkpt lat="48.54526" lon="-2.9752">
        <ele>3</ele>
        <time>2013-12-02T14:50:17.1Z</time>
      </trkpt>
      <trkpt lat="48.54527" lon="-2.9752">
        <ele>3</ele>
        <time>2013-12-02T14:50:20.1Z</time>
      </trkpt>
      <trkpt lat="48.54527" lon="-2.9752">
        <ele>3</ele>
        <time>2013-12-02T14:50:22.1Z</time>
      </trkpt>
      <trkpt lat="48.54527" lon="-2.97521">
        <ele>3</ele>
        <time>2013-12-02T14:50:25.1Z</time>
      </trkpt>
      <trkpt lat="48.54526" lon="-2.97521">
        <ele>3</ele>
        <time>2013-12-02T14:50:27.1Z</time>
      </trkpt>
      <trkpt lat="48.54526" lon="-2.97521">
        <ele>3</ele>
        <time>2013-12-02T14:50:30.1Z</time>
      </trkpt>
      <trkpt lat="48.54526" lon="-2.97521">
        <ele>3</ele>
        <time>2013-12-02T14:50:33.1Z</time>
      </trkpt>
      <trkpt lat="48.54527" lon="-2.9752">
        <ele>3</ele>
        <time>2013-12-02T14:50:36.1Z</time>
      </trkpt>
      <trkpt lat="48.54528" lon="-2.9752">
        <ele>3</ele>
        <time>2013-12-02T14:50:40.1Z</time>
      </trkpt>
      <trkpt lat="48.54529" lon="-2.97519">
        <ele>2</ele>
        <time>2013-12-02T14:50:42.1Z</time>
      </trkpt>
      <trkpt lat="48.5453" lon="-2.97518">
        <ele>2</ele>
        <time>2013-12-02T14:50:45.1Z</time>
      </trkpt>
      <trkpt lat="48.54531" lon="-2.97518">
        <ele>2</ele>
        <time>2013-12-02T14:50:48.1Z</time>
      </trkpt>
      <trkpt lat="48.54531" lon="-2.97518">
        <ele>3</ele>
        <time>2013-12-02T14:50:52.1Z</time>
      </trkpt>
      <trkpt lat="48.54531" lon="-2.97518">
        <ele>3</ele>
        <time>2013-12-02T14:50:54.1Z</time>
      </trkpt>
      <trkpt lat="48.54531" lon="-2.97518">
        <ele>3</ele>
        <time>2013-12-02T14:50:58.1Z</time>
      </trkpt>
      <trkpt lat="48.54532" lon="-2.97518">
        <ele>3</ele>
        <time>2013-12-02T14:51:00.1Z</time>
      </trkpt>
      <trkpt lat="48.54532" lon="-2.97518">
        <ele>3</ele>
        <time>2013-12-02T14:51:03.1Z</time>
      </trkpt>
      <trkpt lat="48.54532" lon="-2.97518">
        <ele>3</ele>
        <time>2013-12-02T14:51:06.1Z</time>
      </trkpt>
      <trkpt lat="48.54532" lon="-2.97518">
        <ele>3</ele>
        <time>2013-12-02T14:51:08.1Z</time>
      </trkpt>
      <trkpt lat="48.54533" lon="-2.97518">
        <ele>3</ele>
        <time>2013-12-02T14:51:11.1Z</time>
      </trkpt>
      <trkpt lat="48.54533" lon="-2.97517">
        <ele>2</ele>
        <time>2013-12-02T14:51:13.1Z</time>
      </trkpt>
      <trkpt lat="48.54534" lon="-2.97517">
        <ele>2</ele>
        <time>2013-12-02T14:51:15.1Z</time>
      </trkpt>
      <trkpt lat="48.54534" lon="-2.97517">
        <ele>2</ele>
        <time>2013-12-02T14:51:19.1Z</time>
      </trkpt>
      <trkpt lat="48.54534" lon="-2.97517">
        <ele>2</ele>
        <time>2013-12-02T14:51:22.1Z</time>
      </trkpt>
      <trkpt lat="48.54535" lon="-2.97517">
        <ele>2</ele>
        <time>2013-12-02T14:51:24.1Z</time>
      </trkpt>
      <trkpt lat="48.54534" lon="-2.97517">
        <ele>2</ele>
        <time>2013-12-02T14:51:27.1Z</time>
      </trkpt>
      <trkpt lat="48.54534" lon="-2.97517">
        <ele>2</ele>
        <time>2013-12-02T14:51:29.1Z</time>
      </trkpt>
      <trkpt lat="48.54534" lon="-2.97517">
        <ele>3</ele>
        <time>2013-12-02T14:51:32.1Z</time>
      </trkpt>
      <trkpt lat="48.54534" lon="-2.97517">
        <ele>3</ele>
        <time>2013-12-02T14:51:35.1Z</time>
      </trkpt>
      <trkpt lat="48.54533" lon="-2.97517">
        <ele>3</ele>
        <time>2013-12-02T14:51:37.1Z</time>
      </trkpt>
      <trkpt lat="48.54533" lon="-2.97517">
        <ele>3</ele>
        <time>2013-12-02T14:51:40.1Z</time>
      </trkpt>
      <trkpt lat="48.54533" lon="-2.97516">
        <ele>3</ele>
        <time>2013-12-02T14:51:42.1Z</time>
      </trkpt>
      <trkpt lat="48.54532" lon="-2.97516">
        <ele>3</ele>
        <time>2013-12-02T14:51:45.1Z</time>
      </trkpt>
      <trkpt lat="48.54531" lon="-2.97515">
        <ele>3</ele>
        <time>2013-12-02T14:51:48.1Z</time>
      </trkpt>
      <trkpt lat="48.54531" lon="-2.97514">
        <ele>3</ele>
        <time>2013-12-02T14:51:51.1Z</time>
      </trkpt>
      <trkpt lat="48.54531" lon="-2.97513">
        <ele>3</ele>
        <time>2013-12-02T14:51:55.1Z</time>
      </trkpt>
      <trkpt lat="48.5453" lon="-2.97513">
        <ele>3</ele>
        <time>2013-12-02T14:51:57.1Z</time>
      </trkpt>
      <trkpt lat="48.5453" lon="-2.97512">
        <ele>3</ele>
        <time>2013-12-02T14:52:00.1Z</time>
      </trkpt>
      <trkpt lat="48.54529" lon="-2.97512">
        <ele>3</ele>
        <time>2013-12-02T14:52:03.1Z</time>
      </trkpt>
      <trkpt lat="48.54529" lon="-2.97511">
        <ele>3</ele>
        <time>2013-12-02T14:52:06.1Z</time>
      </trkpt>
      <trkpt lat="48.54528" lon="-2.97511">
        <ele>3</ele>
        <time>2013-12-02T14:52:08.1Z</time>
      </trkpt>
      <trkpt lat="48.54527" lon="-2.97511">
        <ele>3</ele>
        <time>2013-12-02T14:52:11.1Z</time>
      </trkpt>
      <trkpt lat="48.54527" lon="-2.97511">
        <ele>3</ele>
        <time>2013-12-02T14:52:13.1Z</time>
      </trkpt>
      <trkpt lat="48.54526" lon="-2.97512">
        <ele>3</ele>
        <time>2013-12-02T14:52:16.1Z</time>
      </trkpt>
      <trkpt lat="48.54525" lon="-2.97513">
        <ele>3</ele>
        <time>2013-12-02T14:52:19.1Z</time>
      </trkpt>
      <trkpt lat="48.54524" lon="-2.97514">
        <ele>3</ele>
        <time>2013-12-02T14:52:22.1Z</time>
      </trkpt>
      <trkpt lat="48.54524" lon="-2.97515">
        <ele>3</ele>
        <time>2013-12-02T14:52:24.1Z</time>
      </trkpt>
      <trkpt lat="48.54524" lon="-2.97515">
        <ele>3</ele>
        <time>2013-12-02T14:52:26.1Z</time>
      </trkpt>
      <trkpt lat="48.54523" lon="-2.97514">
        <ele>3</ele>
        <time>2013-12-02T14:52:29.1Z</time>
      </trkpt>
      <trkpt lat="48.54522" lon="-2.97513">
        <ele>3</ele>
        <time>2013-12-02T14:52:32.1Z</time>
      </trkpt>
      <trkpt lat="48.5452" lon="-2.97511">
        <ele>3</ele>
        <time>2013-12-02T14:52:35.1Z</time>
      </trkpt>
      <trkpt lat="48.54519" lon="-2.97511">
        <ele>3</ele>
        <time>2013-12-02T14:52:37.1Z</time>
      </trkpt>
      <trkpt lat="48.54518" lon="-2.9751">
        <ele>3</ele>
        <time>2013-12-02T14:52:40.1Z</time>
      </trkpt>
      <trkpt lat="48.54518" lon="-2.97511">
        <ele>3</ele>
        <time>2013-12-02T14:52:43.1Z</time>
      </trkpt>
      <trkpt lat="48.54518" lon="-2.97511">
        <ele>3</ele>
        <time>2013-12-02T14:52:45.1Z</time>
      </trkpt>
      <trkpt lat="48.54518" lon="-2.97511">
        <ele>3</ele>
        <time>2013-12-02T14:52:48.1Z</time>
      </trkpt>
      <trkpt lat="48.54518" lon="-2.97512">
        <ele>3</ele>
        <time>2013-12-02T14:52:50.1Z</time>
      </trkpt>
      <trkpt lat="48.54518" lon="-2.97512">
        <ele>3</ele>
        <time>2013-12-02T14:52:53.1Z</time>
      </trkpt>
      <trkpt lat="48.54518" lon="-2.97512">
        <ele>3</ele>
        <time>2013-12-02T14:52:55.1Z</time>
      </trkpt>
      <trkpt lat="48.54518" lon="-2.97512">
        <ele>3</ele>
        <time>2013-12-02T14:52:58.1Z</time>
      </trkpt>
      <trkpt lat="48.54518" lon="-2.9751">
        <ele>3</ele>
        <time>2013-12-02T14:53:00.1Z</time>
      </trkpt>
      <trkpt lat="48.54518" lon="-2.97509">
        <ele>3</ele>
        <time>2013-12-02T14:53:03.1Z</time>
      </trkpt>
      <trkpt lat="48.54519" lon="-2.97508">
        <ele>3</ele>
        <time>2013-12-02T14:53:06.1Z</time>
      </trkpt>
      <trkpt lat="48.54519" lon="-2.97508">
        <ele>3</ele>
        <time>2013-12-02T14:53:08.1Z</time>
      </trkpt>
      <trkpt lat="48.5452" lon="-2.97508">
        <ele>3</ele>
        <time>2013-12-02T14:53:11.1Z</time>
      </trkpt>
      <trkpt lat="48.5452" lon="-2.97508">
        <ele>3</ele>
        <time>2013-12-02T14:53:15.1Z</time>
      </trkpt>
      <trkpt lat="48.54521" lon="-2.97508">
        <ele>3</ele>
        <time>2013-12-02T14:53:17.1Z</time>
      </trkpt>
      <trkpt lat="48.54521" lon="-2.97508">
        <ele>3</ele>
        <time>2013-12-02T14:53:20.1Z</time>
      </trkpt>
      <trkpt lat="48.54521" lon="-2.97507">
        <ele>3</ele>
        <time>2013-12-02T14:53:22.1Z</time>
      </trkpt>
      <trkpt lat="48.54521" lon="-2.97508">
        <ele>3</ele>
        <time>2013-12-02T14:53:24.1Z</time>
      </trkpt>
      <trkpt lat="48.54522" lon="-2.97508">
        <ele>3</ele>
        <time>2013-12-02T14:53:27.1Z</time>
      </trkpt>
      <trkpt lat="48.54522" lon="-2.97508">
        <ele>3</ele>
        <time>2013-12-02T14:53:30.1Z</time>
      </trkpt>
      <trkpt lat="48.54522" lon="-2.97507">
        <ele>3</ele>
        <time>2013-12-02T14:53:32.1Z</time>
      </trkpt>
      <trkpt lat="48.54524" lon="-2.97508">
        <ele>3</ele>
        <time>2013-12-02T14:53:35.1Z</time>
      </trkpt>
      <trkpt lat="48.54527" lon="-2.97508">
        <ele>3</ele>
        <time>2013-12-02T14:53:38.1Z</time>
      </trkpt>
      <trkpt lat="48.54528" lon="-2.97509">
        <ele>3</ele>
        <time>2013-12-02T14:53:41.1Z</time>
      </trkpt>
      <trkpt lat="48.54528" lon="-2.97508">
        <ele>3</ele>
        <time>2013-12-02T14:53:44.1Z</time>
      </trkpt>
      <trkpt lat="48.54528" lon="-2.97507">
        <ele>3</ele>
        <time>2013-12-02T14:53:46.1Z</time>
      </trkpt>
      <trkpt lat="48.54528" lon="-2.97507">
        <ele>3</ele>
        <time>2013-12-02T14:53:49.1Z</time>
      </trkpt>
      <trkpt lat="48.54529" lon="-2.97508">
        <ele>3</ele>
        <time>2013-12-02T14:53:52.1Z</time>
      </trkpt>
      <trkpt lat="48.54529" lon="-2.97508">
        <ele>3</ele>
        <time>2013-12-02T14:53:54.1Z</time>
      </trkpt>
      <trkpt lat="48.54529" lon="-2.97507">
        <ele>3</ele>
        <time>2013-12-02T14:53:57.1Z</time>
      </trkpt>
      <trkpt lat="48.54528" lon="-2.97506">
        <ele>3</ele>
        <time>2013-12-02T14:53:59.1Z</time>
      </trkpt>
      <trkpt lat="48.54528" lon="-2.97504">
        <ele>3</ele>
        <time>2013-12-02T14:54:02.1Z</time>
      </trkpt>
      <trkpt lat="48.54528" lon="-2.97503">
        <ele>2</ele>
        <time>2013-12-02T14:54:05.1Z</time>
      </trkpt>
      <trkpt lat="48.54527" lon="-2.97501">
        <ele>3</ele>
        <time>2013-12-02T14:54:08.1Z</time>
      </trkpt>
      <trkpt lat="48.54527" lon="-2.975">
        <ele>3</ele>
        <time>2013-12-02T14:54:10.1Z</time>
      </trkpt>
      <trkpt lat="48.54527" lon="-2.975">
        <ele>3</ele>
        <time>2013-12-02T14:54:12.1Z</time>
      </trkpt>
      <trkpt lat="48.54525" lon="-2.975">
        <ele>3</ele>
        <time>2013-12-02T14:54:15.1Z</time>
      </trkpt>
      <trkpt lat="48.54525" lon="-2.97501">
        <ele>3</ele>
        <time>2013-12-02T14:54:17.1Z</time>
      </trkpt>
      <trkpt lat="48.54525" lon="-2.97502">
        <ele>3</ele>
        <time>2013-12-02T14:54:19.1Z</time>
      </trkpt>
      <trkpt lat="48.54524" lon="-2.97503">
        <ele>3</ele>
        <time>2013-12-02T14:54:22.1Z</time>
      </trkpt>
      <trkpt lat="48.54523" lon="-2.97503">
        <ele>3</ele>
        <time>2013-12-02T14:54:25.1Z</time>
      </trkpt>
      <trkpt lat="48.54523" lon="-2.97504">
        <ele>3</ele>
        <time>2013-12-02T14:54:27.1Z</time>
      </trkpt>
      <trkpt lat="48.54523" lon="-2.97504">
        <ele>3</ele>
        <time>2013-12-02T14:54:30.1Z</time>
      </trkpt>
      <trkpt lat="48.54522" lon="-2.97505">
        <ele>3</ele>
        <time>2013-12-02T14:54:32.1Z</time>
      </trkpt>
      <trkpt lat="48.5452" lon="-2.97504">
        <ele>3</ele>
        <time>2013-12-02T14:54:35.1Z</time>
      </trkpt>
      <trkpt lat="48.54519" lon="-2.97505">
        <ele>3</ele>
        <time>2013-12-02T14:54:38.1Z</time>
      </trkpt>
      <trkpt lat="48.54517" lon="-2.97504">
        <ele>3</ele>
        <time>2013-12-02T14:54:40.1Z</time>
      </trkpt>
      <trkpt lat="48.54515" lon="-2.97502">
        <ele>3</ele>
        <time>2013-12-02T14:54:42.1Z</time>
      </trkpt>
      <trkpt lat="48.54513" lon="-2.97501">
        <ele>3</ele>
        <time>2013-12-02T14:54:45.1Z</time>
      </trkpt>
      <trkpt lat="48.5451" lon="-2.975">
        <ele>2</ele>
        <time>2013-12-02T14:54:48.1Z</time>
      </trkpt>
      <trkpt lat="48.54509" lon="-2.97497">
        <ele>2</ele>
        <time>2013-12-02T14:54:51.1Z</time>
      </trkpt>
      <trkpt lat="48.54507" lon="-2.97496">
        <ele>2</ele>
        <time>2013-12-02T14:54:53.1Z</time>
      </trkpt>
      <trkpt lat="48.54505" lon="-2.97495">
        <ele>2</ele>
        <time>2013-12-02T14:54:56.1Z</time>
      </trkpt>
      <trkpt lat="48.54503" lon="-2.97494">
        <ele>2</ele>
        <time>2013-12-02T14:54:58.1Z</time>
      </trkpt>
      <trkpt lat="48.54502" lon="-2.97492">
        <ele>2</ele>
        <time>2013-12-02T14:55:01.1Z</time>
      </trkpt>
      <trkpt lat="48.545" lon="-2.97491">
        <ele>2</ele>
        <time>2013-12-02T14:55:04.1Z</time>
      </trkpt>
      <trkpt lat="48.54498" lon="-2.9749">
        <ele>2</ele>
        <time>2013-12-02T14:55:06.1Z</time>
      </trkpt>
      <trkpt lat="48.54496" lon="-2.97487">
        <ele>2</ele>
        <time>2013-12-02T14:55:09.1Z</time>
      </trkpt>
      <trkpt lat="48.54494" lon="-2.97486">
        <ele>2</ele>
        <time>2013-12-02T14:55:11.1Z</time>
      </trkpt>
      <trkpt lat="48.54491" lon="-2.97483">
        <ele>2</ele>
        <time>2013-12-02T14:55:14.1Z</time>
      </trkpt>
      <trkpt lat="48.54489" lon="-2.97483">
        <ele>2</ele>
        <time>2013-12-02T14:55:16.1Z</time>
      </trkpt>
      <trkpt lat="48.54486" lon="-2.97481">
        <ele>2</ele>
        <time>2013-12-02T14:55:19.1Z</time>
      </trkpt>
      <trkpt lat="48.54484" lon="-2.9748">
        <ele>2</ele>
        <time>2013-12-02T14:55:21.1Z</time>
      </trkpt>
      <trkpt lat="48.54481" lon="-2.97479">
        <ele>1</ele>
        <time>2013-12-02T14:55:24.1Z</time>
      </trkpt>
      <trkpt lat="48.54479" lon="-2.97478">
        <ele>2</ele>
        <time>2013-12-02T14:55:26.1Z</time>
      </trkpt>
      <trkpt lat="48.54477" lon="-2.97476">
        <ele>2</ele>
        <time>2013-12-02T14:55:29.1Z</time>
      </trkpt>
      <trkpt lat="48.54474" lon="-2.97474">
        <ele>2</ele>
        <time>2013-12-02T14:55:32.1Z</time>
      </trkpt>
      <trkpt lat="48.54471" lon="-2.97473">
        <ele>2</ele>
        <time>2013-12-02T14:55:35.1Z</time>
      </trkpt>
      <trkpt lat="48.54469" lon="-2.97472">
        <ele>2</ele>
        <time>2013-12-02T14:55:37.1Z</time>
      </trkpt>
      <trkpt lat="48.54466" lon="-2.97472">
        <ele>2</ele>
        <time>2013-12-02T14:55:39.1Z</time>
      </trkpt>
      <trkpt lat="48.54463" lon="-2.9747">
        <ele>2</ele>
        <time>2013-12-02T14:55:42.1Z</time>
      </trkpt>
      <trkpt lat="48.54461" lon="-2.97469">
        <ele>2</ele>
        <time>2013-12-02T14:55:44.1Z</time>
      </trkpt>
      <trkpt lat="48.54457" lon="-2.97469">
        <ele>2</ele>
        <time>2013-12-02T14:55:47.1Z</time>
      </trkpt>
      <trkpt lat="48.54455" lon="-2.97469">
        <ele>2</ele>
        <time>2013-12-02T14:55:49.1Z</time>
      </trkpt>
      <trkpt lat="48.54451" lon="-2.97469">
        <ele>1</ele>
        <time>2013-12-02T14:55:52.1Z</time>
      </trkpt>
      <trkpt lat="48.5445" lon="-2.97469">
        <ele>1</ele>
        <time>2013-12-02T14:55:54.1Z</time>
      </trkpt>
      <trkpt lat="48.54448" lon="-2.97469">
        <ele>1</ele>
        <time>2013-12-02T14:55:56.1Z</time>
      </trkpt>
      <trkpt lat="48.54444" lon="-2.97468">
        <ele>1</ele>
        <time>2013-12-02T14:55:59.1Z</time>
      </trkpt>
      <trkpt lat="48.54441" lon="-2.97469">
        <ele>1</ele>
        <time>2013-12-02T14:56:02.1Z</time>
      </trkpt>
      <trkpt lat="48.5444" lon="-2.97469">
        <ele>1</ele>
        <time>2013-12-02T14:56:04.1Z</time>
      </trkpt>
      <trkpt lat="48.54436" lon="-2.9747">
        <ele>1</ele>
        <time>2013-12-02T14:56:07.1Z</time>
      </trkpt>
      <trkpt lat="48.54435" lon="-2.97471">
        <ele>1</ele>
        <time>2013-12-02T14:56:09.1Z</time>
      </trkpt>
      <trkpt lat="48.54432" lon="-2.97472">
        <ele>2</ele>
        <time>2013-12-02T14:56:12.1Z</time>
      </trkpt>
      <trkpt lat="48.5443" lon="-2.97473">
        <ele>2</ele>
        <time>2013-12-02T14:56:15.1Z</time>
      </trkpt>
      <trkpt lat="48.54427" lon="-2.97474">
        <ele>2</ele>
        <time>2013-12-02T14:56:17.1Z</time>
      </trkpt>
      <trkpt lat="48.54425" lon="-2.97474">
        <ele>2</ele>
        <time>2013-12-02T14:56:20.1Z</time>
      </trkpt>
      <trkpt lat="48.54422" lon="-2.97474">
        <ele>2</ele>
        <time>2013-12-02T14:56:23.1Z</time>
      </trkpt>
      <trkpt lat="48.5442" lon="-2.97474">
        <ele>2</ele>
        <time>2013-12-02T14:56:25.1Z</time>
      </trkpt>
      <trkpt lat="48.54417" lon="-2.97474">
        <ele>2</ele>
        <time>2013-12-02T14:56:28.1Z</time>
      </trkpt>
      <trkpt lat="48.54415" lon="-2.97473">
        <ele>2</ele>
        <time>2013-12-02T14:56:30.1Z</time>
      </trkpt>
      <trkpt lat="48.54413" lon="-2.97471">
        <ele>2</ele>
        <time>2013-12-02T14:56:33.1Z</time>
      </trkpt>
      <trkpt lat="48.54411" lon="-2.97471">
        <ele>2</ele>
        <time>2013-12-02T14:56:35.1Z</time>
      </trkpt>
      <trkpt lat="48.54408" lon="-2.9747">
        <ele>2</ele>
        <time>2013-12-02T14:56:38.1Z</time>
      </trkpt>
      <trkpt lat="48.54405" lon="-2.97468">
        <ele>2</ele>
        <time>2013-12-02T14:56:41.1Z</time>
      </trkpt>
      <trkpt lat="48.54401" lon="-2.97467">
        <ele>2</ele>
        <time>2013-12-02T14:56:44.1Z</time>
      </trkpt>
      <trkpt lat="48.54398" lon="-2.97466">
        <ele>2</ele>
        <time>2013-12-02T14:56:47.1Z</time>
      </trkpt>
      <trkpt lat="48.54394" lon="-2.97465">
        <ele>2</ele>
        <time>2013-12-02T14:56:50.1Z</time>
      </trkpt>
      <trkpt lat="48.54392" lon="-2.97463">
        <ele>2</ele>
        <time>2013-12-02T14:56:52.1Z</time>
      </trkpt>
      <trkpt lat="48.54388" lon="-2.97462">
        <ele>2</ele>
        <time>2013-12-02T14:56:55.1Z</time>
      </trkpt>
      <trkpt lat="48.54386" lon="-2.97461">
        <ele>2</ele>
        <time>2013-12-02T14:56:57.1Z</time>
      </trkpt>
      <trkpt lat="48.54382" lon="-2.97458">
        <ele>2</ele>
        <time>2013-12-02T14:57:00.1Z</time>
      </trkpt>
      <trkpt lat="48.5438" lon="-2.97457">
        <ele>2</ele>
        <time>2013-12-02T14:57:02.1Z</time>
      </trkpt>
      <trkpt lat="48.54377" lon="-2.97454">
        <ele>2</ele>
        <time>2013-12-02T14:57:05.1Z</time>
      </trkpt>
      <trkpt lat="48.54373" lon="-2.97452">
        <ele>2</ele>
        <time>2013-12-02T14:57:08.1Z</time>
      </trkpt>
      <trkpt lat="48.54371" lon="-2.9745">
        <ele>2</ele>
        <time>2013-12-02T14:57:10.1Z</time>
      </trkpt>
      <trkpt lat="48.54368" lon="-2.97447">
        <ele>2</ele>
        <time>2013-12-02T14:57:13.1Z</time>
      </trkpt>
      <trkpt lat="48.54365" lon="-2.97446">
        <ele>2</ele>
        <time>2013-12-02T14:57:16.1Z</time>
      </trkpt>
      <trkpt lat="48.54363" lon="-2.97445">
        <ele>2</ele>
        <time>2013-12-02T14:57:18.1Z</time>
      </trkpt>
      <trkpt lat="48.54359" lon="-2.97443">
        <ele>2</ele>
        <time>2013-12-02T14:57:21.1Z</time>
      </trkpt>
      <trkpt lat="48.54357" lon="-2.97441">
        <ele>2</ele>
        <time>2013-12-02T14:57:23.1Z</time>
      </trkpt>
      <trkpt lat="48.54354" lon="-2.97439">
        <ele>2</ele>
        <time>2013-12-02T14:57:26.1Z</time>
      </trkpt>
      <trkpt lat="48.54353" lon="-2.97437">
        <ele>2</ele>
        <time>2013-12-02T14:57:28.1Z</time>
      </trkpt>
      <trkpt lat="48.5435" lon="-2.97435">
        <ele>2</ele>
        <time>2013-12-02T14:57:31.1Z</time>
      </trkpt>
      <trkpt lat="48.54347" lon="-2.97432">
        <ele>3</ele>
        <time>2013-12-02T14:57:34.1Z</time>
      </trkpt>
      <trkpt lat="48.54344" lon="-2.9743">
        <ele>2</ele>
        <time>2013-12-02T14:57:37.1Z</time>
      </trkpt>
      <trkpt lat="48.5434" lon="-2.97428">
        <ele>2</ele>
        <time>2013-12-02T14:57:40.1Z</time>
      </trkpt>
      <trkpt lat="48.54338" lon="-2.97426">
        <ele>2</ele>
        <time>2013-12-02T14:57:43.1Z</time>
      </trkpt>
      <trkpt lat="48.54336" lon="-2.97425">
        <ele>2</ele>
        <time>2013-12-02T14:57:45.1Z</time>
      </trkpt>
      <trkpt lat="48.54333" lon="-2.97423">
        <ele>2</ele>
        <time>2013-12-02T14:57:48.1Z</time>
      </trkpt>
      <trkpt lat="48.5433" lon="-2.9742">
        <ele>2</ele>
        <time>2013-12-02T14:57:51.1Z</time>
      </trkpt>
      <trkpt lat="48.54328" lon="-2.97419">
        <ele>2</ele>
        <time>2013-12-02T14:57:53.1Z</time>
      </trkpt>
      <trkpt lat="48.54325" lon="-2.97416">
        <ele>2</ele>
        <time>2013-12-02T14:57:56.1Z</time>
      </trkpt>
      <trkpt lat="48.54324" lon="-2.97415">
        <ele>2</ele>
        <time>2013-12-02T14:57:58.1Z</time>
      </trkpt>
      <trkpt lat="48.54321" lon="-2.97412">
        <ele>2</ele>
        <time>2013-12-02T14:58:01.1Z</time>
      </trkpt>
      <trkpt lat="48.54319" lon="-2.9741">
        <ele>2</ele>
        <time>2013-12-02T14:58:04.1Z</time>
      </trkpt>
      <trkpt lat="48.54316" lon="-2.97407">
        <ele>2</ele>
        <time>2013-12-02T14:58:07.1Z</time>
      </trkpt>
      <trkpt lat="48.54315" lon="-2.97405">
        <ele>2</ele>
        <time>2013-12-02T14:58:09.1Z</time>
      </trkpt>
      <trkpt lat="48.54312" lon="-2.97403">
        <ele>2</ele>
        <time>2013-12-02T14:58:12.1Z</time>
      </trkpt>
      <trkpt lat="48.5431" lon="-2.97401">
        <ele>3</ele>
        <time>2013-12-02T14:58:14.1Z</time>
      </trkpt>
      <trkpt lat="48.54307" lon="-2.97398">
        <ele>3</ele>
        <time>2013-12-02T14:58:17.1Z</time>
      </trkpt>
      <trkpt lat="48.54305" lon="-2.97394">
        <ele>2</ele>
        <time>2013-12-02T14:58:20.1Z</time>
      </trkpt>
      <trkpt lat="48.54303" lon="-2.97391">
        <ele>2</ele>
        <time>2013-12-02T14:58:22.1Z</time>
      </trkpt>
      <trkpt lat="48.543" lon="-2.97388">
        <ele>2</ele>
        <time>2013-12-02T14:58:25.1Z</time>
      </trkpt>
      <trkpt lat="48.54298" lon="-2.97385">
        <ele>2</ele>
        <time>2013-12-02T14:58:28.1Z</time>
      </trkpt>
      <trkpt lat="48.54295" lon="-2.97382">
        <ele>2</ele>
        <time>2013-12-02T14:58:31.1Z</time>
      </trkpt>
      <trkpt lat="48.54292" lon="-2.97379">
        <ele>2</ele>
        <time>2013-12-02T14:58:34.1Z</time>
      </trkpt>
      <trkpt lat="48.5429" lon="-2.97376">
        <ele>2</ele>
        <time>2013-12-02T14:58:37.1Z</time>
      </trkpt>
      <trkpt lat="48.54287" lon="-2.97374">
        <ele>2</ele>
        <time>2013-12-02T14:58:40.1Z</time>
      </trkpt>
      <trkpt lat="48.54285" lon="-2.97372">
        <ele>2</ele>
        <time>2013-12-02T14:58:42.1Z</time>
      </trkpt>
      <trkpt lat="48.54282" lon="-2.97369">
        <ele>2</ele>
        <time>2013-12-02T14:58:45.1Z</time>
      </trkpt>
      <trkpt lat="48.5428" lon="-2.97365">
        <ele>3</ele>
        <time>2013-12-02T14:58:48.1Z</time>
      </trkpt>
      <trkpt lat="48.54279" lon="-2.97362">
        <ele>3</ele>
        <time>2013-12-02T14:58:50.1Z</time>
      </trkpt>
      <trkpt lat="48.54277" lon="-2.97358">
        <ele>3</ele>
        <time>2013-12-02T14:58:53.1Z</time>
      </trkpt>
      <trkpt lat="48.54276" lon="-2.97355">
        <ele>3</ele>
        <time>2013-12-02T14:58:55.1Z</time>
      </trkpt>
      <trkpt lat="48.54274" lon="-2.97353">
        <ele>3</ele>
        <time>2013-12-02T14:58:57.1Z</time>
      </trkpt>
      <trkpt lat="48.54272" lon="-2.97349">
        <ele>3</ele>
        <time>2013-12-02T14:59:00.1Z</time>
      </trkpt>
      <trkpt lat="48.54271" lon="-2.97346">
        <ele>3</ele>
        <time>2013-12-02T14:59:02.1Z</time>
      </trkpt>
      <trkpt lat="48.54269" lon="-2.97344">
        <ele>3</ele>
        <time>2013-12-02T14:59:04.1Z</time>
      </trkpt>
      <trkpt lat="48.54267" lon="-2.9734">
        <ele>3</ele>
        <time>2013-12-02T14:59:07.1Z</time>
      </trkpt>
      <trkpt lat="48.54266" lon="-2.97337">
        <ele>3</ele>
        <time>2013-12-02T14:59:09.1Z</time>
      </trkpt>
      <trkpt lat="48.54266" lon="-2.97335">
        <ele>3</ele>
        <time>2013-12-02T14:59:11.1Z</time>
      </trkpt>
      <trkpt lat="48.54264" lon="-2.97331">
        <ele>3</ele>
        <time>2013-12-02T14:59:14.1Z</time>
      </trkpt>
      <trkpt lat="48.54262" lon="-2.97328">
        <ele>3</ele>
        <time>2013-12-02T14:59:16.1Z</time>
      </trkpt>
      <trkpt lat="48.54262" lon="-2.97325">
        <ele>3</ele>
        <time>2013-12-02T14:59:19.1Z</time>
      </trkpt>
      <trkpt lat="48.54264" lon="-2.97323">
        <ele>3</ele>
        <time>2013-12-02T14:59:22.1Z</time>
      </trkpt>
      <trkpt lat="48.54264" lon="-2.97323">
        <ele>4</ele>
        <time>2013-12-02T14:59:25.1Z</time>
      </trkpt>
      <trkpt lat="48.54263" lon="-2.97322">
        <ele>3</ele>
        <time>2013-12-02T14:59:28.1Z</time>
      </trkpt>
      <trkpt lat="48.54261" lon="-2.97321">
        <ele>3</ele>
        <time>2013-12-02T14:59:30.1Z</time>
      </trkpt>
      <trkpt lat="48.5426" lon="-2.9732">
        <ele>3</ele>
        <time>2013-12-02T14:59:32.1Z</time>
      </trkpt>
      <trkpt lat="48.54258" lon="-2.97317">
        <ele>3</ele>
        <time>2013-12-02T14:59:35.1Z</time>
      </trkpt>
      <trkpt lat="48.54257" lon="-2.97314">
        <ele>3</ele>
        <time>2013-12-02T14:59:38.1Z</time>
      </trkpt>
      <trkpt lat="48.54256" lon="-2.97313">
        <ele>3</ele>
        <time>2013-12-02T14:59:41.1Z</time>
      </trkpt>
      <trkpt lat="48.54255" lon="-2.9731">
        <ele>3</ele>
        <time>2013-12-02T14:59:43.1Z</time>
      </trkpt>
      <trkpt lat="48.54254" lon="-2.97307">
        <ele>3</ele>
        <time>2013-12-02T14:59:45.1Z</time>
      </trkpt>
      <trkpt lat="48.54253" lon="-2.97304">
        <ele>3</ele>
        <time>2013-12-02T14:59:47.1Z</time>
      </trkpt>
      <trkpt lat="48.5425" lon="-2.97299">
        <ele>3</ele>
        <time>2013-12-02T14:59:50.1Z</time>
      </trkpt>
      <trkpt lat="48.5425" lon="-2.97297">
        <ele>3</ele>
        <time>2013-12-02T14:59:52.1Z</time>
      </trkpt>
      <trkpt lat="48.5425" lon="-2.97295">
        <ele>3</ele>
        <time>2013-12-02T14:59:55.1Z</time>
      </trkpt>
      <trkpt lat="48.54249" lon="-2.97294">
        <ele>3</ele>
        <time>2013-12-02T14:59:57.1Z</time>
      </trkpt>
      <trkpt lat="48.54249" lon="-2.97294">
        <ele>3</ele>
        <time>2013-12-02T14:59:59.1Z</time>
      </trkpt>
      <trkpt lat="48.54248" lon="-2.97291">
        <ele>4</ele>
        <time>2013-12-02T15:00:02.1Z</time>
      </trkpt>
      <trkpt lat="48.54247" lon="-2.97288">
        <ele>4</ele>
        <time>2013-12-02T15:00:04.1Z</time>
      </trkpt>
      <trkpt lat="48.54246" lon="-2.97285">
        <ele>4</ele>
        <time>2013-12-02T15:00:06.1Z</time>
      </trkpt>
      <trkpt lat="48.54245" lon="-2.97282">
        <ele>4</ele>
        <time>2013-12-02T15:00:08.1Z</time>
      </trkpt>
      <trkpt lat="48.54243" lon="-2.97278">
        <ele>4</ele>
        <time>2013-12-02T15:00:10.1Z</time>
      </trkpt>
      <trkpt lat="48.54242" lon="-2.97274">
        <ele>4</ele>
        <time>2013-12-02T15:00:13.1Z</time>
      </trkpt>
      <trkpt lat="48.54241" lon="-2.97272">
        <ele>4</ele>
        <time>2013-12-02T15:00:15.1Z</time>
      </trkpt>
      <trkpt lat="48.54239" lon="-2.97269">
        <ele>4</ele>
        <time>2013-12-02T15:00:18.1Z</time>
      </trkpt>
      <trkpt lat="48.54237" lon="-2.97266">
        <ele>4</ele>
        <time>2013-12-02T15:00:21.1Z</time>
      </trkpt>
      <trkpt lat="48.54236" lon="-2.97263">
        <ele>4</ele>
        <time>2013-12-02T15:00:23.1Z</time>
      </trkpt>
      <trkpt lat="48.54234" lon="-2.97258">
        <ele>4</ele>
        <time>2013-12-02T15:00:26.1Z</time>
      </trkpt>
      <trkpt lat="48.54231" lon="-2.97254">
        <ele>4</ele>
        <time>2013-12-02T15:00:29.1Z</time>
      </trkpt>
      <trkpt lat="48.5423" lon="-2.97252">
        <ele>4</ele>
        <time>2013-12-02T15:00:31.1Z</time>
      </trkpt>
      <trkpt lat="48.54228" lon="-2.97248">
        <ele>4</ele>
        <time>2013-12-02T15:00:34.1Z</time>
      </trkpt>
      <trkpt lat="48.54226" lon="-2.97246">
        <ele>5</ele>
        <time>2013-12-02T15:00:36.1Z</time>
      </trkpt>
      <trkpt lat="48.54225" lon="-2.97244">
        <ele>5</ele>
        <time>2013-12-02T15:00:38.1Z</time>
      </trkpt>
      <trkpt lat="48.54223" lon="-2.97242">
        <ele>5</ele>
        <time>2013-12-02T15:00:40.1Z</time>
      </trkpt>
      <trkpt lat="48.54221" lon="-2.9724">
        <ele>5</ele>
        <time>2013-12-02T15:00:42.1Z</time>
      </trkpt>
      <trkpt lat="48.54219" lon="-2.97238">
        <ele>5</ele>
        <time>2013-12-02T15:00:44.1Z</time>
      </trkpt>
      <trkpt lat="48.54216" lon="-2.97236">
        <ele>5</ele>
        <time>2013-12-02T15:00:47.1Z</time>
      </trkpt>
      <trkpt lat="48.54215" lon="-2.97235">
        <ele>5</ele>
        <time>2013-12-02T15:00:49.1Z</time>
      </trkpt>
      <trkpt lat="48.54213" lon="-2.97235">
        <ele>5</ele>
        <time>2013-12-02T15:00:52.1Z</time>
      </trkpt>
      <trkpt lat="48.54213" lon="-2.97235">
        <ele>5</ele>
        <time>2013-12-02T15:00:55.1Z</time>
      </trkpt>
      <trkpt lat="48.54211" lon="-2.97236">
        <ele>5</ele>
        <time>2013-12-02T15:00:58.1Z</time>
      </trkpt>
      <trkpt lat="48.54209" lon="-2.97237">
        <ele>5</ele>
        <time>2013-12-02T15:01:00.1Z</time>
      </trkpt>
      <trkpt lat="48.54207" lon="-2.9724">
        <ele>5</ele>
        <time>2013-12-02T15:01:03.1Z</time>
      </trkpt>
      <trkpt lat="48.54206" lon="-2.97243">
        <ele>5</ele>
        <time>2013-12-02T15:01:05.1Z</time>
      </trkpt>
      <trkpt lat="48.54205" lon="-2.97246">
        <ele>5</ele>
        <time>2013-12-02T15:01:07.1Z</time>
      </trkpt>
      <trkpt lat="48.54204" lon="-2.97248">
        <ele>6</ele>
        <time>2013-12-02T15:01:09.1Z</time>
      </trkpt>
      <trkpt lat="48.54203" lon="-2.97251">
        <ele>5</ele>
        <time>2013-12-02T15:01:11.1Z</time>
      </trkpt>
      <trkpt lat="48.54203" lon="-2.97253">
        <ele>5</ele>
        <time>2013-12-02T15:01:13.1Z</time>
      </trkpt>
      <trkpt lat="48.54202" lon="-2.97256">
        <ele>6</ele>
        <time>2013-12-02T15:01:15.1Z</time>
      </trkpt>
      <trkpt lat="48.542" lon="-2.9726">
        <ele>6</ele>
        <time>2013-12-02T15:01:18.1Z</time>
      </trkpt>
      <trkpt lat="48.54199" lon="-2.97263">
        <ele>6</ele>
        <time>2013-12-02T15:01:20.1Z</time>
      </trkpt>
      <trkpt lat="48.54198" lon="-2.97267">
        <ele>5</ele>
        <time>2013-12-02T15:01:23.1Z</time>
      </trkpt>
      <trkpt lat="48.54197" lon="-2.9727">
        <ele>5</ele>
        <time>2013-12-02T15:01:25.1Z</time>
      </trkpt>
      <trkpt lat="48.54196" lon="-2.97273">
        <ele>5</ele>
        <time>2013-12-02T15:01:27.1Z</time>
      </trkpt>
      <trkpt lat="48.54194" lon="-2.97278">
        <ele>5</ele>
        <time>2013-12-02T15:01:30.1Z</time>
      </trkpt>
      <trkpt lat="48.54194" lon="-2.97281">
        <ele>5</ele>
        <time>2013-12-02T15:01:32.1Z</time>
      </trkpt>
      <trkpt lat="48.54192" lon="-2.97286">
        <ele>5</ele>
        <time>2013-12-02T15:01:35.1Z</time>
      </trkpt>
      <trkpt lat="48.54191" lon="-2.97289">
        <ele>5</ele>
        <time>2013-12-02T15:01:38.1Z</time>
      </trkpt>
      <trkpt lat="48.5419" lon="-2.97292">
        <ele>5</ele>
        <time>2013-12-02T15:01:40.1Z</time>
      </trkpt>
      <trkpt lat="48.54189" lon="-2.97294">
        <ele>5</ele>
        <time>2013-12-02T15:01:42.1Z</time>
      </trkpt>
      <trkpt lat="48.54187" lon="-2.97298">
        <ele>5</ele>
        <time>2013-12-02T15:01:45.1Z</time>
      </trkpt>
      <trkpt lat="48.54185" lon="-2.97302">
        <ele>5</ele>
        <time>2013-12-02T15:01:48.1Z</time>
      </trkpt>
      <trkpt lat="48.54184" lon="-2.97306">
        <ele>5</ele>
        <time>2013-12-02T15:01:51.1Z</time>
      </trkpt>
      <trkpt lat="48.54183" lon="-2.97309">
        <ele>5</ele>
        <time>2013-12-02T15:01:53.1Z</time>
      </trkpt>
      <trkpt lat="48.54182" lon="-2.97311">
        <ele>5</ele>
        <time>2013-12-02T15:01:55.1Z</time>
      </trkpt>
      <trkpt lat="48.54179" lon="-2.97314">
        <ele>5</ele>
        <time>2013-12-02T15:01:58.1Z</time>
      </trkpt>
      <trkpt lat="48.54178" lon="-2.97318">
        <ele>5</ele>
        <time>2013-12-02T15:02:01.1Z</time>
      </trkpt>
      <trkpt lat="48.54177" lon="-2.9732">
        <ele>5</ele>
        <time>2013-12-02T15:02:03.1Z</time>
      </trkpt>
      <trkpt lat="48.54175" lon="-2.97324">
        <ele>5</ele>
        <time>2013-12-02T15:02:06.1Z</time>
      </trkpt>
      <trkpt lat="48.54174" lon="-2.97327">
        <ele>5</ele>
        <time>2013-12-02T15:02:08.1Z</time>
      </trkpt>
      <trkpt lat="48.54173" lon="-2.97332">
        <ele>5</ele>
        <time>2013-12-02T15:02:11.1Z</time>
      </trkpt>
      <trkpt lat="48.54173" lon="-2.97334">
        <ele>5</ele>
        <time>2013-12-02T15:02:13.1Z</time>
      </trkpt>
      <trkpt lat="48.54172" lon="-2.97339">
        <ele>5</ele>
        <time>2013-12-02T15:02:16.1Z</time>
      </trkpt>
      <trkpt lat="48.54172" lon="-2.97342">
        <ele>5</ele>
        <time>2013-12-02T15:02:18.1Z</time>
      </trkpt>
      <trkpt lat="48.54172" lon="-2.97346">
        <ele>5</ele>
        <time>2013-12-02T15:02:21.1Z</time>
      </trkpt>
      <trkpt lat="48.54171" lon="-2.97349">
        <ele>5</ele>
        <time>2013-12-02T15:02:23.1Z</time>
      </trkpt>
      <trkpt lat="48.5417" lon="-2.97351">
        <ele>5</ele>
        <time>2013-12-02T15:02:25.1Z</time>
      </trkpt>
      <trkpt lat="48.54169" lon="-2.97353">
        <ele>5</ele>
        <time>2013-12-02T15:02:27.1Z</time>
      </trkpt>
      <trkpt lat="48.54169" lon="-2.97358">
        <ele>5</ele>
        <time>2013-12-02T15:02:30.1Z</time>
      </trkpt>
      <trkpt lat="48.54169" lon="-2.97364">
        <ele>5</ele>
        <time>2013-12-02T15:02:33.1Z</time>
      </trkpt>
      <trkpt lat="48.54168" lon="-2.97367">
        <ele>6</ele>
        <time>2013-12-02T15:02:35.1Z</time>
      </trkpt>
      <trkpt lat="48.54168" lon="-2.97373">
        <ele>6</ele>
        <time>2013-12-02T15:02:38.1Z</time>
      </trkpt>
      <trkpt lat="48.54168" lon="-2.97377">
        <ele>6</ele>
        <time>2013-12-02T15:02:40.1Z</time>
      </trkpt>
      <trkpt lat="48.54167" lon="-2.9738">
        <ele>6</ele>
        <time>2013-12-02T15:02:42.1Z</time>
      </trkpt>
      <trkpt lat="48.54166" lon="-2.97383">
        <ele>5</ele>
        <time>2013-12-02T15:02:44.1Z</time>
      </trkpt>
      <trkpt lat="48.54166" lon="-2.97388">
        <ele>5</ele>
        <time>2013-12-02T15:02:47.1Z</time>
      </trkpt>
      <trkpt lat="48.54166" lon="-2.97393">
        <ele>6</ele>
        <time>2013-12-02T15:02:50.1Z</time>
      </trkpt>
      <trkpt lat="48.54166" lon="-2.97396">
        <ele>6</ele>
        <time>2013-12-02T15:02:52.1Z</time>
      </trkpt>
      <trkpt lat="48.54166" lon="-2.97398">
        <ele>6</ele>
        <time>2013-12-02T15:02:55.1Z</time>
      </trkpt>
      <trkpt lat="48.54166" lon="-2.97398">
        <ele>6</ele>
        <time>2013-12-02T15:02:58.1Z</time>
      </trkpt>
      <trkpt lat="48.54166" lon="-2.97398">
        <ele>6</ele>
        <time>2013-12-02T15:03:00.1Z</time>
      </trkpt>
      <trkpt lat="48.54165" lon="-2.97398">
        <ele>6</ele>
        <time>2013-12-02T15:03:03.1Z</time>
      </trkpt>
      <trkpt lat="48.54164" lon="-2.97397">
        <ele>5</ele>
        <time>2013-12-02T15:03:06.1Z</time>
      </trkpt>
      <trkpt lat="48.54164" lon="-2.97397">
        <ele>6</ele>
        <time>2013-12-02T15:03:08.1Z</time>
      </trkpt>
      <trkpt lat="48.54164" lon="-2.97397">
        <ele>6</ele>
        <time>2013-12-02T15:03:11.1Z</time>
      </trkpt>
      <trkpt lat="48.54162" lon="-2.97395">
        <ele>6</ele>
        <time>2013-12-02T15:03:14.1Z</time>
      </trkpt>
      <trkpt lat="48.54161" lon="-2.97396">
        <ele>6</ele>
        <time>2013-12-02T15:03:16.1Z</time>
      </trkpt>
      <trkpt lat="48.5416" lon="-2.97396">
        <ele>6</ele>
        <time>2013-12-02T15:03:18.1Z</time>
      </trkpt>
      <trkpt lat="48.54158" lon="-2.97396">
        <ele>6</ele>
        <time>2013-12-02T15:03:20.1Z</time>
      </trkpt>
      <trkpt lat="48.54156" lon="-2.97395">
        <ele>6</ele>
        <time>2013-12-02T15:03:23.1Z</time>
      </trkpt>
      <trkpt lat="48.54155" lon="-2.97393">
        <ele>6</ele>
        <time>2013-12-02T15:03:25.1Z</time>
      </trkpt>
      <trkpt lat="48.54155" lon="-2.97392">
        <ele>6</ele>
        <time>2013-12-02T15:03:27.1Z</time>
      </trkpt>
      <trkpt lat="48.54155" lon="-2.97389">
        <ele>6</ele>
        <time>2013-12-02T15:03:30.1Z</time>
      </trkpt>
      <trkpt lat="48.54155" lon="-2.97386">
        <ele>6</ele>
        <time>2013-12-02T15:03:32.1Z</time>
      </trkpt>
      <trkpt lat="48.54155" lon="-2.97383">
        <ele>6</ele>
        <time>2013-12-02T15:03:35.1Z</time>
      </trkpt>
      <trkpt lat="48.54155" lon="-2.97381">
        <ele>7</ele>
        <time>2013-12-02T15:03:37.1Z</time>
      </trkpt>
      <trkpt lat="48.54155" lon="-2.97378">
        <ele>7</ele>
        <time>2013-12-02T15:03:40.1Z</time>
      </trkpt>
      <trkpt lat="48.54155" lon="-2.97376">
        <ele>7</ele>
        <time>2013-12-02T15:03:42.1Z</time>
      </trkpt>
      <trkpt lat="48.54156" lon="-2.97374">
        <ele>7</ele>
        <time>2013-12-02T15:03:44.1Z</time>
      </trkpt>
      <trkpt lat="48.54156" lon="-2.97372">
        <ele>7</ele>
        <time>2013-12-02T15:03:46.1Z</time>
      </trkpt>
      <trkpt lat="48.54156" lon="-2.97369">
        <ele>7</ele>
        <time>2013-12-02T15:03:49.1Z</time>
      </trkpt>
      <trkpt lat="48.54156" lon="-2.97365">
        <ele>8</ele>
        <time>2013-12-02T15:03:51.1Z</time>
      </trkpt>
      <trkpt lat="48.54157" lon="-2.97363">
        <ele>8</ele>
        <time>2013-12-02T15:03:53.1Z</time>
      </trkpt>
      <trkpt lat="48.54157" lon="-2.97359">
        <ele>8</ele>
        <time>2013-12-02T15:03:56.1Z</time>
      </trkpt>
      <trkpt lat="48.54156" lon="-2.97355">
        <ele>9</ele>
        <time>2013-12-02T15:03:59.1Z</time>
      </trkpt>
      <trkpt lat="48.54156" lon="-2.97352">
        <ele>9</ele>
        <time>2013-12-02T15:04:01.1Z</time>
      </trkpt>
      <trkpt lat="48.54155" lon="-2.97349">
        <ele>9</ele>
        <time>2013-12-02T15:04:03.1Z</time>
      </trkpt>
      <trkpt lat="48.54154" lon="-2.97345">
        <ele>10</ele>
        <time>2013-12-02T15:04:06.1Z</time>
      </trkpt>
      <trkpt lat="48.54153" lon="-2.9734">
        <ele>10</ele>
        <time>2013-12-02T15:04:09.1Z</time>
      </trkpt>
      <trkpt lat="48.54152" lon="-2.97336">
        <ele>10</ele>
        <time>2013-12-02T15:04:11.1Z</time>
      </trkpt>
      <trkpt lat="48.5415" lon="-2.9733">
        <ele>10</ele>
        <time>2013-12-02T15:04:14.1Z</time>
      </trkpt>
      <trkpt lat="48.54149" lon="-2.97324">
        <ele>11</ele>
        <time>2013-12-02T15:04:17.1Z</time>
      </trkpt>
      <trkpt lat="48.54149" lon="-2.97321">
        <ele>11</ele>
        <time>2013-12-02T15:04:19.1Z</time>
      </trkpt>
      <trkpt lat="48.54148" lon="-2.97317">
        <ele>12</ele>
        <time>2013-12-02T15:04:22.1Z</time>
      </trkpt>
      <trkpt lat="48.54147" lon="-2.97315">
        <ele>12</ele>
        <time>2013-12-02T15:04:24.1Z</time>
      </trkpt>
      <trkpt lat="48.54146" lon="-2.9731">
        <ele>12</ele>
        <time>2013-12-02T15:04:27.1Z</time>
      </trkpt>
      <trkpt lat="48.54145" lon="-2.97307">
        <ele>12</ele>
        <time>2013-12-02T15:04:29.1Z</time>
      </trkpt>
      <trkpt lat="48.54143" lon="-2.97303">
        <ele>12</ele>
        <time>2013-12-02T15:04:32.1Z</time>
      </trkpt>
      <trkpt lat="48.54142" lon="-2.97298">
        <ele>13</ele>
        <time>2013-12-02T15:04:35.1Z</time>
      </trkpt>
      <trkpt lat="48.54141" lon="-2.97295">
        <ele>13</ele>
        <time>2013-12-02T15:04:37.1Z</time>
      </trkpt>
      <trkpt lat="48.54139" lon="-2.97289">
        <ele>13</ele>
        <time>2013-12-02T15:04:40.1Z</time>
      </trkpt>
      <trkpt lat="48.54138" lon="-2.97284">
        <ele>13</ele>
        <time>2013-12-02T15:04:43.1Z</time>
      </trkpt>
      <trkpt lat="48.54136" lon="-2.97281">
        <ele>12</ele>
        <time>2013-12-02T15:04:45.1Z</time>
      </trkpt>
      <trkpt lat="48.54134" lon="-2.97276">
        <ele>12</ele>
        <time>2013-12-02T15:04:48.1Z</time>
      </trkpt>
      <trkpt lat="48.54133" lon="-2.97273">
        <ele>13</ele>
        <time>2013-12-02T15:04:50.1Z</time>
      </trkpt>
      <trkpt lat="48.54131" lon="-2.9727">
        <ele>13</ele>
        <time>2013-12-02T15:04:52.1Z</time>
      </trkpt>
      <trkpt lat="48.5413" lon="-2.97267">
        <ele>14</ele>
        <time>2013-12-02T15:04:54.1Z</time>
      </trkpt>
      <trkpt lat="48.54129" lon="-2.97264">
        <ele>14</ele>
        <time>2013-12-02T15:04:56.1Z</time>
      </trkpt>
      <trkpt lat="48.54127" lon="-2.97262">
        <ele>14</ele>
        <time>2013-12-02T15:04:58.1Z</time>
      </trkpt>
      <trkpt lat="48.54125" lon="-2.97258">
        <ele>14</ele>
        <time>2013-12-02T15:05:01.1Z</time>
      </trkpt>
      <trkpt lat="48.54123" lon="-2.97257">
        <ele>14</ele>
        <time>2013-12-02T15:05:03.1Z</time>
      </trkpt>
      <trkpt lat="48.54121" lon="-2.97255">
        <ele>14</ele>
        <time>2013-12-02T15:05:06.1Z</time>
      </trkpt>
      <trkpt lat="48.5412" lon="-2.97254">
        <ele>15</ele>
        <time>2013-12-02T15:05:08.1Z</time>
      </trkpt>
      <trkpt lat="48.54118" lon="-2.97253">
        <ele>15</ele>
        <time>2013-12-02T15:05:10.1Z</time>
      </trkpt>
      <trkpt lat="48.54116" lon="-2.97252">
        <ele>15</ele>
        <time>2013-12-02T15:05:13.1Z</time>
      </trkpt>
      <trkpt lat="48.54115" lon="-2.97252">
        <ele>15</ele>
        <time>2013-12-02T15:05:15.1Z</time>
      </trkpt>
      <trkpt lat="48.54113" lon="-2.97253">
        <ele>15</ele>
        <time>2013-12-02T15:05:17.1Z</time>
      </trkpt>
      <trkpt lat="48.54111" lon="-2.97254">
        <ele>15</ele>
        <time>2013-12-02T15:05:20.1Z</time>
      </trkpt>
      <trkpt lat="48.54108" lon="-2.97257">
        <ele>15</ele>
        <time>2013-12-02T15:05:23.1Z</time>
      </trkpt>
      <trkpt lat="48.54108" lon="-2.97262">
        <ele>16</ele>
        <time>2013-12-02T15:05:26.1Z</time>
      </trkpt>
      <trkpt lat="48.54107" lon="-2.97266">
        <ele>16</ele>
        <time>2013-12-02T15:05:29.1Z</time>
      </trkpt>
      <trkpt lat="48.54107" lon="-2.9727">
        <ele>16</ele>
        <time>2013-12-02T15:05:32.1Z</time>
      </trkpt>
      <trkpt lat="48.54106" lon="-2.97274">
        <ele>16</ele>
        <time>2013-12-02T15:05:35.1Z</time>
      </trkpt>
      <trkpt lat="48.54106" lon="-2.97278">
        <ele>16</ele>
        <time>2013-12-02T15:05:38.1Z</time>
      </trkpt>
      <trkpt lat="48.54105" lon="-2.97281">
        <ele>16</ele>
        <time>2013-12-02T15:05:40.1Z</time>
      </trkpt>
      <trkpt lat="48.54106" lon="-2.97285">
        <ele>16</ele>
        <time>2013-12-02T15:05:43.1Z</time>
      </trkpt>
      <trkpt lat="48.54106" lon="-2.9729">
        <ele>16</ele>
        <time>2013-12-02T15:05:46.1Z</time>
      </trkpt>
      <trkpt lat="48.54107" lon="-2.97292">
        <ele>16</ele>
        <time>2013-12-02T15:05:48.1Z</time>
      </trkpt>
      <trkpt lat="48.54108" lon="-2.97297">
        <ele>16</ele>
        <time>2013-12-02T15:05:51.1Z</time>
      </trkpt>
      <trkpt lat="48.5411" lon="-2.97301">
        <ele>16</ele>
        <time>2013-12-02T15:05:54.1Z</time>
      </trkpt>
      <trkpt lat="48.5411" lon="-2.97304">
        <ele>16</ele>
        <time>2013-12-02T15:05:56.1Z</time>
      </trkpt>
      <trkpt lat="48.54111" lon="-2.97308">
        <ele>16</ele>
        <time>2013-12-02T15:05:59.1Z</time>
      </trkpt>
      <trkpt lat="48.5411" lon="-2.97312">
        <ele>16</ele>
        <time>2013-12-02T15:06:02.1Z</time>
      </trkpt>
      <trkpt lat="48.5411" lon="-2.97315">
        <ele>17</ele>
        <time>2013-12-02T15:06:05.1Z</time>
      </trkpt>
      <trkpt lat="48.54109" lon="-2.97317">
        <ele>17</ele>
        <time>2013-12-02T15:06:07.1Z</time>
      </trkpt>
      <trkpt lat="48.54108" lon="-2.97319">
        <ele>17</ele>
        <time>2013-12-02T15:06:10.1Z</time>
      </trkpt>
      <trkpt lat="48.54107" lon="-2.97319">
        <ele>17</ele>
        <time>2013-12-02T15:06:12.1Z</time>
      </trkpt>
      <trkpt lat="48.54107" lon="-2.97319">
        <ele>17</ele>
        <time>2013-12-02T15:06:14.1Z</time>
      </trkpt>
      <trkpt lat="48.54106" lon="-2.97318">
        <ele>17</ele>
        <time>2013-12-02T15:06:16.1Z</time>
      </trkpt>
      <trkpt lat="48.54105" lon="-2.97318">
        <ele>17</ele>
        <time>2013-12-02T15:06:18.1Z</time>
      </trkpt>
      <trkpt lat="48.54103" lon="-2.97318">
        <ele>17</ele>
        <time>2013-12-02T15:06:21.1Z</time>
      </trkpt>
      <trkpt lat="48.54102" lon="-2.97319">
        <ele>17</ele>
        <time>2013-12-02T15:06:24.1Z</time>
      </trkpt>
      <trkpt lat="48.541" lon="-2.97319">
        <ele>17</ele>
        <time>2013-12-02T15:06:27.1Z</time>
      </trkpt>
      <trkpt lat="48.54099" lon="-2.97318">
        <ele>17</ele>
        <time>2013-12-02T15:06:30.1Z</time>
      </trkpt>
      <trkpt lat="48.54097" lon="-2.97317">
        <ele>18</ele>
        <time>2013-12-02T15:06:32.1Z</time>
      </trkpt>
      <trkpt lat="48.54095" lon="-2.97317">
        <ele>18</ele>
        <time>2013-12-02T15:06:34.1Z</time>
      </trkpt>
      <trkpt lat="48.54094" lon="-2.97317">
        <ele>18</ele>
        <time>2013-12-02T15:06:36.1Z</time>
      </trkpt>
      <trkpt lat="48.54091" lon="-2.97316">
        <ele>18</ele>
        <time>2013-12-02T15:06:39.1Z</time>
      </trkpt>
      <trkpt lat="48.54089" lon="-2.97316">
        <ele>18</ele>
        <time>2013-12-02T15:06:41.1Z</time>
      </trkpt>
      <trkpt lat="48.54086" lon="-2.97315">
        <ele>19</ele>
        <time>2013-12-02T15:06:44.1Z</time>
      </trkpt>
      <trkpt lat="48.54082" lon="-2.97314">
        <ele>19</ele>
        <time>2013-12-02T15:06:47.1Z</time>
      </trkpt>
      <trkpt lat="48.5408" lon="-2.97313">
        <ele>19</ele>
        <time>2013-12-02T15:06:49.1Z</time>
      </trkpt>
      <trkpt lat="48.54078" lon="-2.97313">
        <ele>19</ele>
        <time>2013-12-02T15:06:52.1Z</time>
      </trkpt>
      <trkpt lat="48.54074" lon="-2.97312">
        <ele>20</ele>
        <time>2013-12-02T15:06:55.1Z</time>
      </trkpt>
      <trkpt lat="48.54072" lon="-2.9731">
        <ele>19</ele>
        <time>2013-12-02T15:06:57.1Z</time>
      </trkpt>
      <trkpt lat="48.54069" lon="-2.97309">
        <ele>20</ele>
        <time>2013-12-02T15:07:00.1Z</time>
      </trkpt>
      <trkpt lat="48.54067" lon="-2.97308">
        <ele>20</ele>
        <time>2013-12-02T15:07:02.1Z</time>
      </trkpt>
      <trkpt lat="48.54065" lon="-2.97307">
        <ele>20</ele>
        <time>2013-12-02T15:07:04.1Z</time>
      </trkpt>
      <trkpt lat="48.54062" lon="-2.97306">
        <ele>20</ele>
        <time>2013-12-02T15:07:07.1Z</time>
      </trkpt>
      <trkpt lat="48.54059" lon="-2.97306">
        <ele>20</ele>
        <time>2013-12-02T15:07:09.1Z</time>
      </trkpt>
      <trkpt lat="48.54056" lon="-2.97305">
        <ele>20</ele>
        <time>2013-12-02T15:07:12.1Z</time>
      </trkpt>
      <trkpt lat="48.54052" lon="-2.97305">
        <ele>20</ele>
        <time>2013-12-02T15:07:15.1Z</time>
      </trkpt>
      <trkpt lat="48.54049" lon="-2.97304">
        <ele>21</ele>
        <time>2013-12-02T15:07:18.1Z</time>
      </trkpt>
      <trkpt lat="48.54047" lon="-2.97304">
        <ele>21</ele>
        <time>2013-12-02T15:07:20.1Z</time>
      </trkpt>
      <trkpt lat="48.54045" lon="-2.97303">
        <ele>21</ele>
        <time>2013-12-02T15:07:23.1Z</time>
      </trkpt>
      <trkpt lat="48.54042" lon="-2.97301">
        <ele>21</ele>
        <time>2013-12-02T15:07:26.1Z</time>
      </trkpt>
      <trkpt lat="48.5404" lon="-2.973">
        <ele>21</ele>
        <time>2013-12-02T15:07:29.1Z</time>
      </trkpt>
      <trkpt lat="48.54037" lon="-2.973">
        <ele>21</ele>
        <time>2013-12-02T15:07:32.1Z</time>
      </trkpt>
      <trkpt lat="48.54036" lon="-2.97299">
        <ele>21</ele>
        <time>2013-12-02T15:07:34.1Z</time>
      </trkpt>
      <trkpt lat="48.54033" lon="-2.97298">
        <ele>21</ele>
        <time>2013-12-02T15:07:37.1Z</time>
      </trkpt>
      <trkpt lat="48.54031" lon="-2.97298">
        <ele>21</ele>
        <time>2013-12-02T15:07:39.1Z</time>
      </trkpt>
      <trkpt lat="48.54029" lon="-2.97298">
        <ele>22</ele>
        <time>2013-12-02T15:07:42.1Z</time>
      </trkpt>
      <trkpt lat="48.54026" lon="-2.97297">
        <ele>22</ele>
        <time>2013-12-02T15:07:44.1Z</time>
      </trkpt>
      <trkpt lat="48.54024" lon="-2.97298">
        <ele>22</ele>
        <time>2013-12-02T15:07:47.1Z</time>
      </trkpt>
      <trkpt lat="48.5402" lon="-2.97298">
        <ele>22</ele>
        <time>2013-12-02T15:07:50.1Z</time>
      </trkpt>
      <trkpt lat="48.54018" lon="-2.97298">
        <ele>22</ele>
        <time>2013-12-02T15:07:52.1Z</time>
      </trkpt>
      <trkpt lat="48.54014" lon="-2.97298">
        <ele>22</ele>
        <time>2013-12-02T15:07:55.1Z</time>
      </trkpt>
      <trkpt lat="48.54011" lon="-2.97298">
        <ele>22</ele>
        <time>2013-12-02T15:07:57.1Z</time>
      </trkpt>
      <trkpt lat="48.54007" lon="-2.97298">
        <ele>22</ele>
        <time>2013-12-02T15:08:00.1Z</time>
      </trkpt>
      <trkpt lat="48.54004" lon="-2.97298">
        <ele>22</ele>
        <time>2013-12-02T15:08:03.1Z</time>
      </trkpt>
      <trkpt lat="48.54002" lon="-2.97298">
        <ele>22</ele>
        <time>2013-12-02T15:08:05.1Z</time>
      </trkpt>
      <trkpt lat="48.53999" lon="-2.973">
        <ele>22</ele>
        <time>2013-12-02T15:08:08.1Z</time>
      </trkpt>
      <trkpt lat="48.53996" lon="-2.97301">
        <ele>21</ele>
        <time>2013-12-02T15:08:11.1Z</time>
      </trkpt>
      <trkpt lat="48.53993" lon="-2.97302">
        <ele>21</ele>
        <time>2013-12-02T15:08:13.1Z</time>
      </trkpt>
      <trkpt lat="48.5399" lon="-2.97303">
        <ele>21</ele>
        <time>2013-12-02T15:08:16.1Z</time>
      </trkpt>
      <trkpt lat="48.53988" lon="-2.97304">
        <ele>21</ele>
        <time>2013-12-02T15:08:18.1Z</time>
      </trkpt>
      <trkpt lat="48.53985" lon="-2.97304">
        <ele>21</ele>
        <time>2013-12-02T15:08:21.1Z</time>
      </trkpt>
      <trkpt lat="48.53983" lon="-2.97305">
        <ele>21</ele>
        <time>2013-12-02T15:08:23.1Z</time>
      </trkpt>
      <trkpt lat="48.5398" lon="-2.97305">
        <ele>21</ele>
        <time>2013-12-02T15:08:26.1Z</time>
      </trkpt>
      <trkpt lat="48.53979" lon="-2.97304">
        <ele>21</ele>
        <time>2013-12-02T15:08:28.1Z</time>
      </trkpt>
      <trkpt lat="48.53978" lon="-2.97301">
        <ele>21</ele>
        <time>2013-12-02T15:08:31.1Z</time>
      </trkpt>
      <trkpt lat="48.53978" lon="-2.97297">
        <ele>22</ele>
        <time>2013-12-02T15:08:34.1Z</time>
      </trkpt>
      <trkpt lat="48.53978" lon="-2.97294">
        <ele>22</ele>
        <time>2013-12-02T15:08:36.1Z</time>
      </trkpt>
      <trkpt lat="48.53979" lon="-2.97291">
        <ele>22</ele>
        <time>2013-12-02T15:08:38.1Z</time>
      </trkpt>
      <trkpt lat="48.5398" lon="-2.97288">
        <ele>22</ele>
        <time>2013-12-02T15:08:40.1Z</time>
      </trkpt>
      <trkpt lat="48.53981" lon="-2.97285">
        <ele>22</ele>
        <time>2013-12-02T15:08:42.1Z</time>
      </trkpt>
      <trkpt lat="48.53983" lon="-2.9728">
        <ele>21</ele>
        <time>2013-12-02T15:08:45.1Z</time>
      </trkpt>
      <trkpt lat="48.53985" lon="-2.97276">
        <ele>21</ele>
        <time>2013-12-02T15:08:48.1Z</time>
      </trkpt>
      <trkpt lat="48.53986" lon="-2.97273">
        <ele>21</ele>
        <time>2013-12-02T15:08:50.1Z</time>
      </trkpt>
      <trkpt lat="48.53987" lon="-2.97269">
        <ele>21</ele>
        <time>2013-12-02T15:08:53.1Z</time>
      </trkpt>
      <trkpt lat="48.53988" lon="-2.97266">
        <ele>21</ele>
        <time>2013-12-02T15:08:55.1Z</time>
      </trkpt>
      <trkpt lat="48.53988" lon="-2.97264">
        <ele>21</ele>
        <time>2013-12-02T15:08:57.1Z</time>
      </trkpt>
      <trkpt lat="48.53989" lon="-2.97259">
        <ele>21</ele>
        <time>2013-12-02T15:09:00.1Z</time>
      </trkpt>
      <trkpt lat="48.53991" lon="-2.97256">
        <ele>21</ele>
        <time>2013-12-02T15:09:02.1Z</time>
      </trkpt>
      <trkpt lat="48.53992" lon="-2.97251">
        <ele>21</ele>
        <time>2013-12-02T15:09:05.1Z</time>
      </trkpt>
      <trkpt lat="48.53993" lon="-2.97247">
        <ele>20</ele>
        <time>2013-12-02T15:09:08.1Z</time>
      </trkpt>
      <trkpt lat="48.53994" lon="-2.97242">
        <ele>20</ele>
        <time>2013-12-02T15:09:11.1Z</time>
      </trkpt>
      <trkpt lat="48.53994" lon="-2.97239">
        <ele>20</ele>
        <time>2013-12-02T15:09:13.1Z</time>
      </trkpt>
      <trkpt lat="48.53996" lon="-2.97235">
        <ele>20</ele>
        <time>2013-12-02T15:09:16.1Z</time>
      </trkpt>
      <trkpt lat="48.53997" lon="-2.97232">
        <ele>20</ele>
        <time>2013-12-02T15:09:18.1Z</time>
      </trkpt>
      <trkpt lat="48.53999" lon="-2.97228">
        <ele>20</ele>
        <time>2013-12-02T15:09:20.1Z</time>
      </trkpt>
      <trkpt lat="48.54" lon="-2.97223">
        <ele>19</ele>
        <time>2013-12-02T15:09:23.1Z</time>
      </trkpt>
      <trkpt lat="48.54002" lon="-2.97219">
        <ele>19</ele>
        <time>2013-12-02T15:09:26.1Z</time>
      </trkpt>
      <trkpt lat="48.54003" lon="-2.97216">
        <ele>19</ele>
        <time>2013-12-02T15:09:28.1Z</time>
      </trkpt>
      <trkpt lat="48.54004" lon="-2.97212">
        <ele>19</ele>
        <time>2013-12-02T15:09:31.1Z</time>
      </trkpt>
      <trkpt lat="48.54005" lon="-2.97208">
        <ele>19</ele>
        <time>2013-12-02T15:09:33.1Z</time>
      </trkpt>
      <trkpt lat="48.54007" lon="-2.97204">
        <ele>19</ele>
        <time>2013-12-02T15:09:36.1Z</time>
      </trkpt>
      <trkpt lat="48.54009" lon="-2.97199">
        <ele>18</ele>
        <time>2013-12-02T15:09:39.1Z</time>
      </trkpt>
      <trkpt lat="48.5401" lon="-2.97196">
        <ele>18</ele>
        <time>2013-12-02T15:09:41.1Z</time>
      </trkpt>
      <trkpt lat="48.54011" lon="-2.97193">
        <ele>18</ele>
        <time>2013-12-02T15:09:43.1Z</time>
      </trkpt>
      <trkpt lat="48.54013" lon="-2.97189">
        <ele>17</ele>
        <time>2013-12-02T15:09:46.1Z</time>
      </trkpt>
      <trkpt lat="48.54014" lon="-2.97184">
        <ele>17</ele>
        <time>2013-12-02T15:09:49.1Z</time>
      </trkpt>
      <trkpt lat="48.54016" lon="-2.9718">
        <ele>18</ele>
        <time>2013-12-02T15:09:52.1Z</time>
      </trkpt>
      <trkpt lat="48.54018" lon="-2.97178">
        <ele>17</ele>
        <time>2013-12-02T15:09:54.1Z</time>
      </trkpt>
      <trkpt lat="48.54018" lon="-2.97174">
        <ele>17</ele>
        <time>2013-12-02T15:09:56.1Z</time>
      </trkpt>
      <trkpt lat="48.54019" lon="-2.97169">
        <ele>17</ele>
        <time>2013-12-02T15:09:59.1Z</time>
      </trkpt>
      <trkpt lat="48.5402" lon="-2.97165">
        <ele>17</ele>
        <time>2013-12-02T15:10:02.1Z</time>
      </trkpt>
      <trkpt lat="48.54021" lon="-2.9716">
        <ele>17</ele>
        <time>2013-12-02T15:10:05.1Z</time>
      </trkpt>
      <trkpt lat="48.54023" lon="-2.97155">
        <ele>18</ele>
        <time>2013-12-02T15:10:08.1Z</time>
      </trkpt>
      <trkpt lat="48.54024" lon="-2.97151">
        <ele>18</ele>
        <time>2013-12-02T15:10:11.1Z</time>
      </trkpt>
      <trkpt lat="48.54026" lon="-2.97147">
        <ele>18</ele>
        <time>2013-12-02T15:10:14.1Z</time>
      </trkpt>
      <trkpt lat="48.54027" lon="-2.97142">
        <ele>17</ele>
        <time>2013-12-02T15:10:17.1Z</time>
      </trkpt>
      <trkpt lat="48.54028" lon="-2.97138">
        <ele>18</ele>
        <time>2013-12-02T15:10:19.1Z</time>
      </trkpt>
      <trkpt lat="48.54028" lon="-2.97135">
        <ele>17</ele>
        <time>2013-12-02T15:10:21.1Z</time>
      </trkpt>
      <trkpt lat="48.54029" lon="-2.97132">
        <ele>17</ele>
        <time>2013-12-02T15:10:23.1Z</time>
      </trkpt>
      <trkpt lat="48.54031" lon="-2.97127">
        <ele>16</ele>
        <time>2013-12-02T15:10:26.1Z</time>
      </trkpt>
      <trkpt lat="48.54031" lon="-2.97124">
        <ele>16</ele>
        <time>2013-12-02T15:10:28.1Z</time>
      </trkpt>
      <trkpt lat="48.54029" lon="-2.9712">
        <ele>16</ele>
        <time>2013-12-02T15:10:31.1Z</time>
      </trkpt>
      <trkpt lat="48.54028" lon="-2.97116">
        <ele>17</ele>
        <time>2013-12-02T15:10:33.1Z</time>
      </trkpt>
      <trkpt lat="48.54027" lon="-2.97113">
        <ele>16</ele>
        <time>2013-12-02T15:10:36.1Z</time>
      </trkpt>
      <trkpt lat="48.54026" lon="-2.97112">
        <ele>16</ele>
        <time>2013-12-02T15:10:38.1Z</time>
      </trkpt>
      <trkpt lat="48.54025" lon="-2.97111">
        <ele>16</ele>
        <time>2013-12-02T15:10:41.1Z</time>
      </trkpt>
      <trkpt lat="48.54023" lon="-2.9711">
        <ele>17</ele>
        <time>2013-12-02T15:10:44.1Z</time>
      </trkpt>
      <trkpt lat="48.54021" lon="-2.97111">
        <ele>17</ele>
        <time>2013-12-02T15:10:46.1Z</time>
      </trkpt>
      <trkpt lat="48.54018" lon="-2.97113">
        <ele>17</ele>
        <time>2013-12-02T15:10:49.1Z</time>
      </trkpt>
      <trkpt lat="48.54017" lon="-2.97114">
        <ele>17</ele>
        <time>2013-12-02T15:10:51.1Z</time>
      </trkpt>
      <trkpt lat="48.54014" lon="-2.97114">
        <ele>16</ele>
        <time>2013-12-02T15:10:53.1Z</time>
      </trkpt>
      <trkpt lat="48.54011" lon="-2.97117">
        <ele>16</ele>
        <time>2013-12-02T15:10:56.1Z</time>
      </trkpt>
      <trkpt lat="48.54009" lon="-2.97117">
        <ele>16</ele>
        <time>2013-12-02T15:10:58.1Z</time>
      </trkpt>
      <trkpt lat="48.54004" lon="-2.97119">
        <ele>16</ele>
        <time>2013-12-02T15:11:01.1Z</time>
      </trkpt>
      <trkpt lat="48.54001" lon="-2.97119">
        <ele>16</ele>
        <time>2013-12-02T15:11:04.1Z</time>
      </trkpt>
      <trkpt lat="48.53999" lon="-2.97119">
        <ele>16</ele>
        <time>2013-12-02T15:11:06.1Z</time>
      </trkpt>
      <trkpt lat="48.53997" lon="-2.97119">
        <ele>16</ele>
        <time>2013-12-02T15:11:08.1Z</time>
      </trkpt>
      <trkpt lat="48.53993" lon="-2.97119">
        <ele>15</ele>
        <time>2013-12-02T15:11:11.1Z</time>
      </trkpt>
      <trkpt lat="48.53991" lon="-2.97119">
        <ele>15</ele>
        <time>2013-12-02T15:11:13.1Z</time>
      </trkpt>
      <trkpt lat="48.53987" lon="-2.97121">
        <ele>15</ele>
        <time>2013-12-02T15:11:16.1Z</time>
      </trkpt>
      <trkpt lat="48.53983" lon="-2.97123">
        <ele>15</ele>
        <time>2013-12-02T15:11:19.1Z</time>
      </trkpt>
      <trkpt lat="48.5398" lon="-2.97125">
        <ele>15</ele>
        <time>2013-12-02T15:11:22.1Z</time>
      </trkpt>
      <trkpt lat="48.53978" lon="-2.97125">
        <ele>15</ele>
        <time>2013-12-02T15:11:24.1Z</time>
      </trkpt>
      <trkpt lat="48.53975" lon="-2.97126">
        <ele>15</ele>
        <time>2013-12-02T15:11:26.1Z</time>
      </trkpt>
      <trkpt lat="48.53971" lon="-2.97127">
        <ele>15</ele>
        <time>2013-12-02T15:11:29.1Z</time>
      </trkpt>
      <trkpt lat="48.5397" lon="-2.97127">
        <ele>15</ele>
        <time>2013-12-02T15:11:31.1Z</time>
      </trkpt>
      <trkpt lat="48.53968" lon="-2.97128">
        <ele>15</ele>
        <time>2013-12-02T15:11:33.1Z</time>
      </trkpt>
      <trkpt lat="48.53965" lon="-2.97129">
        <ele>14</ele>
        <time>2013-12-02T15:11:36.1Z</time>
      </trkpt>
      <trkpt lat="48.53962" lon="-2.97129">
        <ele>15</ele>
        <time>2013-12-02T15:11:38.1Z</time>
      </trkpt>
      <trkpt lat="48.5396" lon="-2.9713">
        <ele>15</ele>
        <time>2013-12-02T15:11:40.1Z</time>
      </trkpt>
      <trkpt lat="48.53958" lon="-2.97131">
        <ele>15</ele>
        <time>2013-12-02T15:11:42.1Z</time>
      </trkpt>
      <trkpt lat="48.53956" lon="-2.97132">
        <ele>15</ele>
        <time>2013-12-02T15:11:45.1Z</time>
      </trkpt>
      <trkpt lat="48.53953" lon="-2.97132">
        <ele>15</ele>
        <time>2013-12-02T15:11:48.1Z</time>
      </trkpt>
      <trkpt lat="48.5395" lon="-2.97131">
        <ele>15</ele>
        <time>2013-12-02T15:11:51.1Z</time>
      </trkpt>
      <trkpt lat="48.53948" lon="-2.97132">
        <ele>15</ele>
        <time>2013-12-02T15:11:53.1Z</time>
      </trkpt>
      <trkpt lat="48.53944" lon="-2.97134">
        <ele>15</ele>
        <time>2013-12-02T15:11:56.1Z</time>
      </trkpt>
      <trkpt lat="48.53942" lon="-2.97135">
        <ele>15</ele>
        <time>2013-12-02T15:11:58.1Z</time>
      </trkpt>
      <trkpt lat="48.53938" lon="-2.97137">
        <ele>15</ele>
        <time>2013-12-02T15:12:01.1Z</time>
      </trkpt>
      <trkpt lat="48.53935" lon="-2.97138">
        <ele>15</ele>
        <time>2013-12-02T15:12:03.1Z</time>
      </trkpt>
      <trkpt lat="48.53931" lon="-2.97139">
        <ele>15</ele>
        <time>2013-12-02T15:12:06.1Z</time>
      </trkpt>
      <trkpt lat="48.53928" lon="-2.9714">
        <ele>15</ele>
        <time>2013-12-02T15:12:09.1Z</time>
      </trkpt>
      <trkpt lat="48.53926" lon="-2.97141">
        <ele>15</ele>
        <time>2013-12-02T15:12:11.1Z</time>
      </trkpt>
      <trkpt lat="48.53925" lon="-2.97142">
        <ele>15</ele>
        <time>2013-12-02T15:12:13.1Z</time>
      </trkpt>
      <trkpt lat="48.53925" lon="-2.97143">
        <ele>15</ele>
        <time>2013-12-02T15:12:16.1Z</time>
      </trkpt>
      <trkpt lat="48.53924" lon="-2.97143">
        <ele>15</ele>
        <time>2013-12-02T15:12:20.1Z</time>
      </trkpt>
      <trkpt lat="48.53924" lon="-2.97142">
        <ele>16</ele>
        <time>2013-12-02T15:12:23.1Z</time>
      </trkpt>
      <trkpt lat="48.53924" lon="-2.97141">
        <ele>16</ele>
        <time>2013-12-02T15:12:25.1Z</time>
      </trkpt>
      <trkpt lat="48.53924" lon="-2.97141">
        <ele>16</ele>
        <time>2013-12-02T15:12:27.1Z</time>
      </trkpt>
      <trkpt lat="48.53924" lon="-2.9714">
        <ele>16</ele>
        <time>2013-12-02T15:12:29.1Z</time>
      </trkpt>
      <trkpt lat="48.53923" lon="-2.9714">
        <ele>15</ele>
        <time>2013-12-02T15:12:32.1Z</time>
      </trkpt>
      <trkpt lat="48.53923" lon="-2.9714">
        <ele>15</ele>
        <time>2013-12-02T15:12:35.1Z</time>
      </trkpt>
      <trkpt lat="48.53923" lon="-2.9714">
        <ele>15</ele>
        <time>2013-12-02T15:12:39.1Z</time>
      </trkpt>
      <trkpt lat="48.53923" lon="-2.9714">
        <ele>15</ele>
        <time>2013-12-02T15:12:41.1Z</time>
      </trkpt>
      <trkpt lat="48.53922" lon="-2.97139">
        <ele>16</ele>
        <time>2013-12-02T15:12:44.1Z</time>
      </trkpt>
      <trkpt lat="48.53922" lon="-2.97139">
        <ele>16</ele>
        <time>2013-12-02T15:12:47.1Z</time>
      </trkpt>
      <trkpt lat="48.53922" lon="-2.97139">
        <ele>16</ele>
        <time>2013-12-02T15:12:49.1Z</time>
      </trkpt>
      <trkpt lat="48.53921" lon="-2.97137">
        <ele>15</ele>
        <time>2013-12-02T15:12:52.1Z</time>
      </trkpt>
      <trkpt lat="48.5392" lon="-2.97134">
        <ele>15</ele>
        <time>2013-12-02T15:12:54.1Z</time>
      </trkpt>
      <trkpt lat="48.53917" lon="-2.9713">
        <ele>16</ele>
        <time>2013-12-02T15:12:57.1Z</time>
      </trkpt>
      <trkpt lat="48.53915" lon="-2.97129">
        <ele>16</ele>
        <time>2013-12-02T15:13:00.1Z</time>
      </trkpt>
      <trkpt lat="48.53913" lon="-2.9713">
        <ele>16</ele>
        <time>2013-12-02T15:13:02.1Z</time>
      </trkpt>
      <trkpt lat="48.5391" lon="-2.9713">
        <ele>16</ele>
        <time>2013-12-02T15:13:05.1Z</time>
      </trkpt>
      <trkpt lat="48.53909" lon="-2.97127">
        <ele>16</ele>
        <time>2013-12-02T15:13:08.1Z</time>
      </trkpt>
      <trkpt lat="48.53908" lon="-2.97126">
        <ele>16</ele>
        <time>2013-12-02T15:13:10.1Z</time>
      </trkpt>
      <trkpt lat="48.53906" lon="-2.97124">
        <ele>16</ele>
        <time>2013-12-02T15:13:13.1Z</time>
      </trkpt>
      <trkpt lat="48.53905" lon="-2.97121">
        <ele>16</ele>
        <time>2013-12-02T15:13:15.1Z</time>
      </trkpt>
      <trkpt lat="48.53905" lon="-2.97117">
        <ele>16</ele>
        <time>2013-12-02T15:13:17.1Z</time>
      </trkpt>
      <trkpt lat="48.53904" lon="-2.97112">
        <ele>15</ele>
        <time>2013-12-02T15:13:20.1Z</time>
      </trkpt>
      <trkpt lat="48.53904" lon="-2.97108">
        <ele>15</ele>
        <time>2013-12-02T15:13:22.1Z</time>
      </trkpt>
      <trkpt lat="48.53903" lon="-2.97105">
        <ele>14</ele>
        <time>2013-12-02T15:13:25.1Z</time>
      </trkpt>
      <trkpt lat="48.53902" lon="-2.97103">
        <ele>14</ele>
        <time>2013-12-02T15:13:27.1Z</time>
      </trkpt>
      <trkpt lat="48.53901" lon="-2.97101">
        <ele>14</ele>
        <time>2013-12-02T15:13:30.1Z</time>
      </trkpt>
      <trkpt lat="48.53901" lon="-2.97098">
        <ele>14</ele>
        <time>2013-12-02T15:13:32.1Z</time>
      </trkpt>
      <trkpt lat="48.53899" lon="-2.97096">
        <ele>14</ele>
        <time>2013-12-02T15:13:34.1Z</time>
      </trkpt>
      <trkpt lat="48.53898" lon="-2.97094">
        <ele>14</ele>
        <time>2013-12-02T15:13:36.1Z</time>
      </trkpt>
      <trkpt lat="48.53896" lon="-2.97092">
        <ele>14</ele>
        <time>2013-12-02T15:13:38.1Z</time>
      </trkpt>
      <trkpt lat="48.53894" lon="-2.97091">
        <ele>14</ele>
        <time>2013-12-02T15:13:40.1Z</time>
      </trkpt>
      <trkpt lat="48.53893" lon="-2.9709">
        <ele>14</ele>
        <time>2013-12-02T15:13:42.1Z</time>
      </trkpt>
      <trkpt lat="48.53894" lon="-2.97089">
        <ele>14</ele>
        <time>2013-12-02T15:13:45.1Z</time>
      </trkpt>
      <trkpt lat="48.53896" lon="-2.9709">
        <ele>14</ele>
        <time>2013-12-02T15:13:47.1Z</time>
      </trkpt>
      <trkpt lat="48.53899" lon="-2.97091">
        <ele>14</ele>
        <time>2013-12-02T15:13:50.1Z</time>
      </trkpt>
      <trkpt lat="48.53901" lon="-2.97092">
        <ele>14</ele>
        <time>2013-12-02T15:13:52.1Z</time>
      </trkpt>
      <trkpt lat="48.53903" lon="-2.97094">
        <ele>14</ele>
        <time>2013-12-02T15:13:55.1Z</time>
      </trkpt>
      <trkpt lat="48.53904" lon="-2.97097">
        <ele>14</ele>
        <time>2013-12-02T15:13:58.1Z</time>
      </trkpt>
      <trkpt lat="48.53904" lon="-2.97099">
        <ele>14</ele>
        <time>2013-12-02T15:14:00.1Z</time>
      </trkpt>
      <trkpt lat="48.53905" lon="-2.97101">
        <ele>14</ele>
        <time>2013-12-02T15:14:02.1Z</time>
      </trkpt>
      <trkpt lat="48.53906" lon="-2.97103">
        <ele>14</ele>
        <time>2013-12-02T15:14:05.1Z</time>
      </trkpt>
      <trkpt lat="48.53908" lon="-2.97104">
        <ele>14</ele>
        <time>2013-12-02T15:14:07.1Z</time>
      </trkpt>
      <trkpt lat="48.5391" lon="-2.97105">
        <ele>14</ele>
        <time>2013-12-02T15:14:09.1Z</time>
      </trkpt>
      <trkpt lat="48.53912" lon="-2.97104">
        <ele>14</ele>
        <time>2013-12-02T15:14:11.1Z</time>
      </trkpt>
      <trkpt lat="48.53912" lon="-2.97105">
        <ele>14</ele>
        <time>2013-12-02T15:14:14.1Z</time>
      </trkpt>
      <trkpt lat="48.53913" lon="-2.97104">
        <ele>14</ele>
        <time>2013-12-02T15:14:16.1Z</time>
      </trkpt>
      <trkpt lat="48.53913" lon="-2.97102">
        <ele>14</ele>
        <time>2013-12-02T15:14:19.1Z</time>
      </trkpt>
      <trkpt lat="48.53913" lon="-2.97101">
        <ele>14</ele>
        <time>2013-12-02T15:14:21.1Z</time>
      </trkpt>
      <trkpt lat="48.53914" lon="-2.971">
        <ele>14</ele>
        <time>2013-12-02T15:14:23.1Z</time>
      </trkpt>
      <trkpt lat="48.53915" lon="-2.97098">
        <ele>14</ele>
        <time>2013-12-02T15:14:25.1Z</time>
      </trkpt>
      <trkpt lat="48.53915" lon="-2.97097">
        <ele>14</ele>
        <time>2013-12-02T15:14:28.1Z</time>
      </trkpt>
      <trkpt lat="48.53916" lon="-2.97097">
        <ele>14</ele>
        <time>2013-12-02T15:14:30.1Z</time>
      </trkpt>
      <trkpt lat="48.53916" lon="-2.97097">
        <ele>14</ele>
        <time>2013-12-02T15:14:32.1Z</time>
      </trkpt>
      <trkpt lat="48.53917" lon="-2.97096">
        <ele>13</ele>
        <time>2013-12-02T15:14:35.1Z</time>
      </trkpt>
      <trkpt lat="48.53917" lon="-2.97096">
        <ele>13</ele>
        <time>2013-12-02T15:14:37.1Z</time>
      </trkpt>
      <trkpt lat="48.53917" lon="-2.97095">
        <ele>13</ele>
        <time>2013-12-02T15:14:40.1Z</time>
      </trkpt>
      <trkpt lat="48.53921" lon="-2.97093">
        <ele>13</ele>
        <time>2013-12-02T15:14:43.1Z</time>
      </trkpt>
      <trkpt lat="48.53924" lon="-2.97092">
        <ele>12</ele>
        <time>2013-12-02T15:14:45.1Z</time>
      </trkpt>
      <trkpt lat="48.53927" lon="-2.97091">
        <ele>12</ele>
        <time>2013-12-02T15:14:47.1Z</time>
      </trkpt>
      <trkpt lat="48.53931" lon="-2.97089">
        <ele>12</ele>
        <time>2013-12-02T15:14:50.1Z</time>
      </trkpt>
      <trkpt lat="48.53933" lon="-2.97088">
        <ele>12</ele>
        <time>2013-12-02T15:14:52.1Z</time>
      </trkpt>
      <trkpt lat="48.53936" lon="-2.97087">
        <ele>12</ele>
        <time>2013-12-02T15:14:54.1Z</time>
      </trkpt>
      <trkpt lat="48.5394" lon="-2.97086">
        <ele>12</ele>
        <time>2013-12-02T15:14:57.1Z</time>
      </trkpt>
      <trkpt lat="48.53943" lon="-2.97085">
        <ele>12</ele>
        <time>2013-12-02T15:15:00.1Z</time>
      </trkpt>
      <trkpt lat="48.53946" lon="-2.97084">
        <ele>12</ele>
        <time>2013-12-02T15:15:02.1Z</time>
      </trkpt>
      <trkpt lat="48.53949" lon="-2.97084">
        <ele>12</ele>
        <time>2013-12-02T15:15:05.1Z</time>
      </trkpt>
      <trkpt lat="48.53952" lon="-2.97084">
        <ele>12</ele>
        <time>2013-12-02T15:15:07.1Z</time>
      </trkpt>
      <trkpt lat="48.53957" lon="-2.97084">
        <ele>12</ele>
        <time>2013-12-02T15:15:10.1Z</time>
      </trkpt>
      <trkpt lat="48.53959" lon="-2.97083">
        <ele>12</ele>
        <time>2013-12-02T15:15:12.1Z</time>
      </trkpt>
      <trkpt lat="48.53962" lon="-2.97082">
        <ele>12</ele>
        <time>2013-12-02T15:15:15.1Z</time>
      </trkpt>
      <trkpt lat="48.53965" lon="-2.9708">
        <ele>12</ele>
        <time>2013-12-02T15:15:18.1Z</time>
      </trkpt>
      <trkpt lat="48.53968" lon="-2.97079">
        <ele>12</ele>
        <time>2013-12-02T15:15:21.1Z</time>
      </trkpt>
      <trkpt lat="48.5397" lon="-2.97078">
        <ele>12</ele>
        <time>2013-12-02T15:15:23.1Z</time>
      </trkpt>
      <trkpt lat="48.53972" lon="-2.9708">
        <ele>12</ele>
        <time>2013-12-02T15:15:25.1Z</time>
      </trkpt>
      <trkpt lat="48.53976" lon="-2.97081">
        <ele>12</ele>
        <time>2013-12-02T15:15:28.1Z</time>
      </trkpt>
      <trkpt lat="48.53978" lon="-2.9708">
        <ele>12</ele>
        <time>2013-12-02T15:15:30.1Z</time>
      </trkpt>
      <trkpt lat="48.53982" lon="-2.97079">
        <ele>12</ele>
        <time>2013-12-02T15:15:33.1Z</time>
      </trkpt>
      <trkpt lat="48.53984" lon="-2.97078">
        <ele>12</ele>
        <time>2013-12-02T15:15:35.1Z</time>
      </trkpt>
      <trkpt lat="48.53988" lon="-2.97077">
        <ele>12</ele>
        <time>2013-12-02T15:15:38.1Z</time>
      </trkpt>
      <trkpt lat="48.5399" lon="-2.97077">
        <ele>12</ele>
        <time>2013-12-02T15:15:40.1Z</time>
      </trkpt>
      <trkpt lat="48.53993" lon="-2.97076">
        <ele>12</ele>
        <time>2013-12-02T15:15:43.1Z</time>
      </trkpt>
      <trkpt lat="48.53995" lon="-2.97076">
        <ele>12</ele>
        <time>2013-12-02T15:15:45.1Z</time>
      </trkpt>
      <trkpt lat="48.53998" lon="-2.97075">
        <ele>12</ele>
        <time>2013-12-02T15:15:48.1Z</time>
      </trkpt>
      <trkpt lat="48.54" lon="-2.97073">
        <ele>12</ele>
        <time>2013-12-02T15:15:50.1Z</time>
      </trkpt>
      <trkpt lat="48.54004" lon="-2.9707">
        <ele>12</ele>
        <time>2013-12-02T15:15:53.1Z</time>
      </trkpt>
      <trkpt lat="48.54006" lon="-2.97069">
        <ele>13</ele>
        <time>2013-12-02T15:15:55.1Z</time>
      </trkpt>
      <trkpt lat="48.54008" lon="-2.97065">
        <ele>13</ele>
        <time>2013-12-02T15:15:58.1Z</time>
      </trkpt>
      <trkpt lat="48.5401" lon="-2.97063">
        <ele>13</ele>
        <time>2013-12-02T15:16:00.1Z</time>
      </trkpt>
      <trkpt lat="48.54012" lon="-2.97061">
        <ele>12</ele>
        <time>2013-12-02T15:16:02.1Z</time>
      </trkpt>
      <trkpt lat="48.54015" lon="-2.97059">
        <ele>13</ele>
        <time>2013-12-02T15:16:05.1Z</time>
      </trkpt>
      <trkpt lat="48.54017" lon="-2.97058">
        <ele>13</ele>
        <time>2013-12-02T15:16:07.1Z</time>
      </trkpt>
      <trkpt lat="48.5402" lon="-2.97057">
        <ele>13</ele>
        <time>2013-12-02T15:16:10.1Z</time>
      </trkpt>
      <trkpt lat="48.54021" lon="-2.97057">
        <ele>13</ele>
        <time>2013-12-02T15:16:12.1Z</time>
      </trkpt>
      <trkpt lat="48.54023" lon="-2.97057">
        <ele>13</ele>
        <time>2013-12-02T15:16:15.1Z</time>
      </trkpt>
      <trkpt lat="48.54026" lon="-2.97056">
        <ele>13</ele>
        <time>2013-12-02T15:16:18.1Z</time>
      </trkpt>
      <trkpt lat="48.54028" lon="-2.97055">
        <ele>13</ele>
        <time>2013-12-02T15:16:20.1Z</time>
      </trkpt>
      <trkpt lat="48.5403" lon="-2.97053">
        <ele>13</ele>
        <time>2013-12-02T15:16:23.1Z</time>
      </trkpt>
      <trkpt lat="48.54033" lon="-2.97052">
        <ele>13</ele>
        <time>2013-12-02T15:16:25.1Z</time>
      </trkpt>
      <trkpt lat="48.54034" lon="-2.97051">
        <ele>12</ele>
        <time>2013-12-02T15:16:27.1Z</time>
      </trkpt>
      <trkpt lat="48.54039" lon="-2.97049">
        <ele>12</ele>
        <time>2013-12-02T15:16:30.1Z</time>
      </trkpt>
      <trkpt lat="48.54041" lon="-2.97048">
        <ele>12</ele>
        <time>2013-12-02T15:16:32.1Z</time>
      </trkpt>
      <trkpt lat="48.54044" lon="-2.97046">
        <ele>12</ele>
        <time>2013-12-02T15:16:35.1Z</time>
      </trkpt>
      <trkpt lat="48.54047" lon="-2.97044">
        <ele>12</ele>
        <time>2013-12-02T15:16:38.1Z</time>
      </trkpt>
      <trkpt lat="48.54049" lon="-2.97043">
        <ele>12</ele>
        <time>2013-12-02T15:16:40.1Z</time>
      </trkpt>
      <trkpt lat="48.54051" lon="-2.97042">
        <ele>12</ele>
        <time>2013-12-02T15:16:43.1Z</time>
      </trkpt>
      <trkpt lat="48.54054" lon="-2.9704">
        <ele>13</ele>
        <time>2013-12-02T15:16:46.1Z</time>
      </trkpt>
      <trkpt lat="48.54057" lon="-2.97039">
        <ele>13</ele>
        <time>2013-12-02T15:16:48.1Z</time>
      </trkpt>
      <trkpt lat="48.54059" lon="-2.97038">
        <ele>13</ele>
        <time>2013-12-02T15:16:50.1Z</time>
      </trkpt>
      <trkpt lat="48.54062" lon="-2.97036">
        <ele>13</ele>
        <time>2013-12-02T15:16:53.1Z</time>
      </trkpt>
      <trkpt lat="48.54064" lon="-2.97035">
        <ele>12</ele>
        <time>2013-12-02T15:16:55.1Z</time>
      </trkpt>
      <trkpt lat="48.54066" lon="-2.97034">
        <ele>12</ele>
        <time>2013-12-02T15:16:57.1Z</time>
      </trkpt>
      <trkpt lat="48.5407" lon="-2.97031">
        <ele>12</ele>
        <time>2013-12-02T15:17:00.1Z</time>
      </trkpt>
      <trkpt lat="48.54073" lon="-2.97027">
        <ele>12</ele>
        <time>2013-12-02T15:17:03.1Z</time>
      </trkpt>
      <trkpt lat="48.54075" lon="-2.97024">
        <ele>12</ele>
        <time>2013-12-02T15:17:05.1Z</time>
      </trkpt>
      <trkpt lat="48.54076" lon="-2.97022">
        <ele>12</ele>
        <time>2013-12-02T15:17:07.1Z</time>
      </trkpt>
      <trkpt lat="48.54079" lon="-2.97018">
        <ele>12</ele>
        <time>2013-12-02T15:17:10.1Z</time>
      </trkpt>
      <trkpt lat="48.5408" lon="-2.97013">
        <ele>12</ele>
        <time>2013-12-02T15:17:13.1Z</time>
      </trkpt>
      <trkpt lat="48.54082" lon="-2.9701">
        <ele>12</ele>
        <time>2013-12-02T15:17:15.1Z</time>
      </trkpt>
      <trkpt lat="48.54083" lon="-2.97007">
        <ele>12</ele>
        <time>2013-12-02T15:17:18.1Z</time>
      </trkpt>
      <trkpt lat="48.54085" lon="-2.97004">
        <ele>12</ele>
        <time>2013-12-02T15:17:20.1Z</time>
      </trkpt>
      <trkpt lat="48.54086" lon="-2.97001">
        <ele>12</ele>
        <time>2013-12-02T15:17:22.1Z</time>
      </trkpt>
      <trkpt lat="48.54088" lon="-2.96998">
        <ele>12</ele>
        <time>2013-12-02T15:17:24.1Z</time>
      </trkpt>
      <trkpt lat="48.54089" lon="-2.96996">
        <ele>12</ele>
        <time>2013-12-02T15:17:26.1Z</time>
      </trkpt>
      <trkpt lat="48.54092" lon="-2.96993">
        <ele>12</ele>
        <time>2013-12-02T15:17:29.1Z</time>
      </trkpt>
      <trkpt lat="48.54094" lon="-2.96992">
        <ele>12</ele>
        <time>2013-12-02T15:17:31.1Z</time>
      </trkpt>
      <trkpt lat="48.54096" lon="-2.96991">
        <ele>12</ele>
        <time>2013-12-02T15:17:34.1Z</time>
      </trkpt>
      <trkpt lat="48.54098" lon="-2.9699">
        <ele>12</ele>
        <time>2013-12-02T15:17:36.1Z</time>
      </trkpt>
      <trkpt lat="48.54099" lon="-2.96985">
        <ele>12</ele>
        <time>2013-12-02T15:17:39.1Z</time>
      </trkpt>
      <trkpt lat="48.54099" lon="-2.96983">
        <ele>12</ele>
        <time>2013-12-02T15:17:41.1Z</time>
      </trkpt>
      <trkpt lat="48.541" lon="-2.9698">
        <ele>12</ele>
        <time>2013-12-02T15:17:43.1Z</time>
      </trkpt>
      <trkpt lat="48.541" lon="-2.96977">
        <ele>12</ele>
        <time>2013-12-02T15:17:45.1Z</time>
      </trkpt>
      <trkpt lat="48.541" lon="-2.96974">
        <ele>12</ele>
        <time>2013-12-02T15:17:47.1Z</time>
      </trkpt>
      <trkpt lat="48.54101" lon="-2.96972">
        <ele>12</ele>
        <time>2013-12-02T15:17:49.1Z</time>
      </trkpt>
      <trkpt lat="48.54101" lon="-2.96969">
        <ele>11</ele>
        <time>2013-12-02T15:17:51.1Z</time>
      </trkpt>
      <trkpt lat="48.54101" lon="-2.96966">
        <ele>12</ele>
        <time>2013-12-02T15:17:54.1Z</time>
      </trkpt>
      <trkpt lat="48.54102" lon="-2.96962">
        <ele>12</ele>
        <time>2013-12-02T15:17:56.1Z</time>
      </trkpt>
      <trkpt lat="48.54103" lon="-2.96959">
        <ele>12</ele>
        <time>2013-12-02T15:17:58.1Z</time>
      </trkpt>
      <trkpt lat="48.54104" lon="-2.96954">
        <ele>12</ele>
        <time>2013-12-02T15:18:01.1Z</time>
      </trkpt>
      <trkpt lat="48.54103" lon="-2.96951">
        <ele>12</ele>
        <time>2013-12-02T15:18:03.1Z</time>
      </trkpt>
      <trkpt lat="48.54103" lon="-2.96947">
        <ele>12</ele>
        <time>2013-12-02T15:18:05.1Z</time>
      </trkpt>
      <trkpt lat="48.54103" lon="-2.96943">
        <ele>12</ele>
        <time>2013-12-02T15:18:08.1Z</time>
      </trkpt>
      <trkpt lat="48.54102" lon="-2.96937">
        <ele>12</ele>
        <time>2013-12-02T15:18:11.1Z</time>
      </trkpt>
      <trkpt lat="48.54101" lon="-2.9693">
        <ele>12</ele>
        <time>2013-12-02T15:18:14.1Z</time>
      </trkpt>
      <trkpt lat="48.54101" lon="-2.96926">
        <ele>12</ele>
        <time>2013-12-02T15:18:16.1Z</time>
      </trkpt>
      <trkpt lat="48.541" lon="-2.9692">
        <ele>11</ele>
        <time>2013-12-02T15:18:19.1Z</time>
      </trkpt>
      <trkpt lat="48.541" lon="-2.96913">
        <ele>11</ele>
        <time>2013-12-02T15:18:22.1Z</time>
      </trkpt>
      <trkpt lat="48.541" lon="-2.96909">
        <ele>11</ele>
        <time>2013-12-02T15:18:24.1Z</time>
      </trkpt>
      <trkpt lat="48.54101" lon="-2.96903">
        <ele>11</ele>
        <time>2013-12-02T15:18:27.1Z</time>
      </trkpt>
      <trkpt lat="48.54101" lon="-2.96898">
        <ele>11</ele>
        <time>2013-12-02T15:18:30.1Z</time>
      </trkpt>
      <trkpt lat="48.54101" lon="-2.96894">
        <ele>11</ele>
        <time>2013-12-02T15:18:32.1Z</time>
      </trkpt>
      <trkpt lat="48.54102" lon="-2.9689">
        <ele>12</ele>
        <time>2013-12-02T15:18:34.1Z</time>
      </trkpt>
      <trkpt lat="48.54102" lon="-2.96887">
        <ele>12</ele>
        <time>2013-12-02T15:18:36.1Z</time>
      </trkpt>
      <trkpt lat="48.54103" lon="-2.96882">
        <ele>12</ele>
        <time>2013-12-02T15:18:39.1Z</time>
      </trkpt>
      <trkpt lat="48.54104" lon="-2.96881">
        <ele>13</ele>
        <time>2013-12-02T15:18:41.1Z</time>
      </trkpt>
      <trkpt lat="48.54104" lon="-2.9688">
        <ele>13</ele>
        <time>2013-12-02T15:18:43.1Z</time>
      </trkpt>
      <trkpt lat="48.54104" lon="-2.9688">
        <ele>13</ele>
        <time>2013-12-02T15:18:46.1Z</time>
      </trkpt>
      <trkpt lat="48.54103" lon="-2.96882">
        <ele>12</ele>
        <time>2013-12-02T15:18:48.1Z</time>
      </trkpt>
      <trkpt lat="48.54102" lon="-2.96881">
        <ele>12</ele>
        <time>2013-12-02T15:18:50.1Z</time>
      </trkpt>
      <trkpt lat="48.54101" lon="-2.96878">
        <ele>11</ele>
        <time>2013-12-02T15:18:53.1Z</time>
      </trkpt>
      <trkpt lat="48.541" lon="-2.96872">
        <ele>11</ele>
        <time>2013-12-02T15:18:56.1Z</time>
      </trkpt>
      <trkpt lat="48.541" lon="-2.96866">
        <ele>11</ele>
        <time>2013-12-02T15:18:59.1Z</time>
      </trkpt>
      <trkpt lat="48.54099" lon="-2.96863">
        <ele>11</ele>
        <time>2013-12-02T15:19:01.1Z</time>
      </trkpt>
      <trkpt lat="48.541" lon="-2.96857">
        <ele>11</ele>
        <time>2013-12-02T15:19:04.1Z</time>
      </trkpt>
      <trkpt lat="48.541" lon="-2.96852">
        <ele>11</ele>
        <time>2013-12-02T15:19:07.1Z</time>
      </trkpt>
      <trkpt lat="48.541" lon="-2.96849">
        <ele>11</ele>
        <time>2013-12-02T15:19:09.1Z</time>
      </trkpt>
      <trkpt lat="48.54102" lon="-2.96843">
        <ele>11</ele>
        <time>2013-12-02T15:19:12.1Z</time>
      </trkpt>
      <trkpt lat="48.54102" lon="-2.9684">
        <ele>11</ele>
        <time>2013-12-02T15:19:14.1Z</time>
      </trkpt>
      <trkpt lat="48.54104" lon="-2.96836">
        <ele>11</ele>
        <time>2013-12-02T15:19:17.1Z</time>
      </trkpt>
      <trkpt lat="48.54105" lon="-2.96833">
        <ele>11</ele>
        <time>2013-12-02T15:19:19.1Z</time>
      </trkpt>
      <trkpt lat="48.54107" lon="-2.96831">
        <ele>11</ele>
        <time>2013-12-02T15:19:21.1Z</time>
      </trkpt>
      <trkpt lat="48.54109" lon="-2.96829">
        <ele>11</ele>
        <time>2013-12-02T15:19:23.1Z</time>
      </trkpt>
      <trkpt lat="48.5411" lon="-2.96827">
        <ele>12</ele>
        <time>2013-12-02T15:19:25.1Z</time>
      </trkpt>
      <trkpt lat="48.54113" lon="-2.96823">
        <ele>12</ele>
        <time>2013-12-02T15:19:28.1Z</time>
      </trkpt>
      <trkpt lat="48.54114" lon="-2.96822">
        <ele>12</ele>
        <time>2013-12-02T15:19:30.1Z</time>
      </trkpt>
      <trkpt lat="48.54116" lon="-2.9682">
        <ele>12</ele>
        <time>2013-12-02T15:19:32.1Z</time>
      </trkpt>
      <trkpt lat="48.54119" lon="-2.96818">
        <ele>12</ele>
        <time>2013-12-02T15:19:35.1Z</time>
      </trkpt>
      <trkpt lat="48.54121" lon="-2.96818">
        <ele>12</ele>
        <time>2013-12-02T15:19:37.1Z</time>
      </trkpt>
      <trkpt lat="48.54123" lon="-2.96818">
        <ele>12</ele>
        <time>2013-12-02T15:19:39.1Z</time>
      </trkpt>
      <trkpt lat="48.54125" lon="-2.96818">
        <ele>13</ele>
        <time>2013-12-02T15:19:42.1Z</time>
      </trkpt>
      <trkpt lat="48.54127" lon="-2.96818">
        <ele>12</ele>
        <time>2013-12-02T15:19:44.1Z</time>
      </trkpt>
      <trkpt lat="48.5413" lon="-2.96816">
        <ele>12</ele>
        <time>2013-12-02T15:19:47.1Z</time>
      </trkpt>
      <trkpt lat="48.5413" lon="-2.96814">
        <ele>12</ele>
        <time>2013-12-02T15:19:50.1Z</time>
      </trkpt>
      <trkpt lat="48.54131" lon="-2.96811">
        <ele>11</ele>
        <time>2013-12-02T15:19:53.1Z</time>
      </trkpt>
      <trkpt lat="48.54131" lon="-2.96809">
        <ele>11</ele>
        <time>2013-12-02T15:19:56.1Z</time>
      </trkpt>
      <trkpt lat="48.54131" lon="-2.96807">
        <ele>10</ele>
        <time>2013-12-02T15:19:58.1Z</time>
      </trkpt>
      <trkpt lat="48.54131" lon="-2.96805">
        <ele>10</ele>
        <time>2013-12-02T15:20:00.1Z</time>
      </trkpt>
      <trkpt lat="48.54131" lon="-2.96803">
        <ele>9</ele>
        <time>2013-12-02T15:20:02.1Z</time>
      </trkpt>
      <trkpt lat="48.54131" lon="-2.96798">
        <ele>8</ele>
        <time>2013-12-02T15:20:05.1Z</time>
      </trkpt>
      <trkpt lat="48.54131" lon="-2.96797">
        <ele>8</ele>
        <time>2013-12-02T15:20:07.1Z</time>
      </trkpt>
      <trkpt lat="48.54131" lon="-2.96795">
        <ele>8</ele>
        <time>2013-12-02T15:20:10.1Z</time>
      </trkpt>
      <trkpt lat="48.54132" lon="-2.96793">
        <ele>8</ele>
        <time>2013-12-02T15:20:13.1Z</time>
      </trkpt>
      <trkpt lat="48.54131" lon="-2.9679">
        <ele>8</ele>
        <time>2013-12-02T15:20:16.1Z</time>
      </trkpt>
      <trkpt lat="48.5413" lon="-2.9679">
        <ele>8</ele>
        <time>2013-12-02T15:20:18.1Z</time>
      </trkpt>
      <trkpt lat="48.54128" lon="-2.9679">
        <ele>8</ele>
        <time>2013-12-02T15:20:20.1Z</time>
      </trkpt>
      <trkpt lat="48.54126" lon="-2.96791">
        <ele>7</ele>
        <time>2013-12-02T15:20:22.1Z</time>
      </trkpt>
      <trkpt lat="48.54123" lon="-2.9679">
        <ele>7</ele>
        <time>2013-12-02T15:20:25.1Z</time>
      </trkpt>
      <trkpt lat="48.54122" lon="-2.96788">
        <ele>7</ele>
        <time>2013-12-02T15:20:28.1Z</time>
      </trkpt>
      <trkpt lat="48.54122" lon="-2.96788">
        <ele>8</ele>
        <time>2013-12-02T15:20:30.1Z</time>
      </trkpt>
      <trkpt lat="48.54123" lon="-2.96788">
        <ele>8</ele>
        <time>2013-12-02T15:20:33.1Z</time>
      </trkpt>
      <trkpt lat="48.54122" lon="-2.96787">
        <ele>8</ele>
        <time>2013-12-02T15:20:36.1Z</time>
      </trkpt>
      <trkpt lat="48.54123" lon="-2.96787">
        <ele>8</ele>
        <time>2013-12-02T15:20:38.1Z</time>
      </trkpt>
      <trkpt lat="48.54123" lon="-2.96786">
        <ele>8</ele>
        <time>2013-12-02T15:20:40.1Z</time>
      </trkpt>
      <trkpt lat="48.54124" lon="-2.96785">
        <ele>7</ele>
        <time>2013-12-02T15:20:43.1Z</time>
      </trkpt>
      <trkpt lat="48.54124" lon="-2.96786">
        <ele>7</ele>
        <time>2013-12-02T15:20:46.1Z</time>
      </trkpt>
      <trkpt lat="48.54124" lon="-2.96788">
        <ele>7</ele>
        <time>2013-12-02T15:20:48.1Z</time>
      </trkpt>
      <trkpt lat="48.54124" lon="-2.9679">
        <ele>7</ele>
        <time>2013-12-02T15:20:50.1Z</time>
      </trkpt>
      <trkpt lat="48.54125" lon="-2.96794">
        <ele>7</ele>
        <time>2013-12-02T15:20:53.1Z</time>
      </trkpt>
      <trkpt lat="48.54124" lon="-2.96793">
        <ele>7</ele>
        <time>2013-12-02T15:20:56.1Z</time>
      </trkpt>
      <trkpt lat="48.54124" lon="-2.96793">
        <ele>7</ele>
        <time>2013-12-02T15:20:58.1Z</time>
      </trkpt>
      <trkpt lat="48.54124" lon="-2.96793">
        <ele>7</ele>
        <time>2013-12-02T15:21:00.1Z</time>
      </trkpt>
      <trkpt lat="48.54126" lon="-2.96791">
        <ele>7</ele>
        <time>2013-12-02T15:21:03.1Z</time>
      </trkpt>
      <trkpt lat="48.54127" lon="-2.96788">
        <ele>7</ele>
        <time>2013-12-02T15:21:06.1Z</time>
      </trkpt>
      <trkpt lat="48.54127" lon="-2.96785">
        <ele>7</ele>
        <time>2013-12-02T15:21:08.1Z</time>
      </trkpt>
      <trkpt lat="48.54126" lon="-2.96781">
        <ele>7</ele>
        <time>2013-12-02T15:21:11.1Z</time>
      </trkpt>
      <trkpt lat="48.54125" lon="-2.96777">
        <ele>7</ele>
        <time>2013-12-02T15:21:14.1Z</time>
      </trkpt>
      <trkpt lat="48.54124" lon="-2.96773">
        <ele>7</ele>
        <time>2013-12-02T15:21:17.1Z</time>
      </trkpt>
      <trkpt lat="48.54124" lon="-2.96769">
        <ele>7</ele>
        <time>2013-12-02T15:21:19.1Z</time>
      </trkpt>
      <trkpt lat="48.54123" lon="-2.96765">
        <ele>8</ele>
        <time>2013-12-02T15:21:22.1Z</time>
      </trkpt>
      <trkpt lat="48.54123" lon="-2.96762">
        <ele>8</ele>
        <time>2013-12-02T15:21:24.1Z</time>
      </trkpt>
      <trkpt lat="48.54122" lon="-2.96759">
        <ele>8</ele>
        <time>2013-12-02T15:21:26.1Z</time>
      </trkpt>
      <trkpt lat="48.54122" lon="-2.96757">
        <ele>8</ele>
        <time>2013-12-02T15:21:29.1Z</time>
      </trkpt>
      <trkpt lat="48.54122" lon="-2.96755">
        <ele>8</ele>
        <time>2013-12-02T15:21:31.1Z</time>
      </trkpt>
      <trkpt lat="48.54122" lon="-2.96753">
        <ele>8</ele>
        <time>2013-12-02T15:21:33.1Z</time>
      </trkpt>
      <trkpt lat="48.54121" lon="-2.96751">
        <ele>8</ele>
        <time>2013-12-02T15:21:35.1Z</time>
      </trkpt>
      <trkpt lat="48.54119" lon="-2.96749">
        <ele>8</ele>
        <time>2013-12-02T15:21:38.1Z</time>
      </trkpt>
      <trkpt lat="48.54119" lon="-2.96749">
        <ele>8</ele>
        <time>2013-12-02T15:21:41.1Z</time>
      </trkpt>
      <trkpt lat="48.54118" lon="-2.96747">
        <ele>8</ele>
        <time>2013-12-02T15:21:44.1Z</time>
      </trkpt>
      <trkpt lat="48.54117" lon="-2.96747">
        <ele>8</ele>
        <time>2013-12-02T15:21:47.1Z</time>
      </trkpt>
      <trkpt lat="48.54117" lon="-2.96747">
        <ele>7</ele>
        <time>2013-12-02T15:21:49.1Z</time>
      </trkpt>
      <trkpt lat="48.54116" lon="-2.96746">
        <ele>7</ele>
        <time>2013-12-02T15:21:52.1Z</time>
      </trkpt>
      <trkpt lat="48.54116" lon="-2.96746">
        <ele>7</ele>
        <time>2013-12-02T15:21:55.1Z</time>
      </trkpt>
      <trkpt lat="48.54115" lon="-2.96746">
        <ele>7</ele>
        <time>2013-12-02T15:21:57.1Z</time>
      </trkpt>
      <trkpt lat="48.54115" lon="-2.96745">
        <ele>7</ele>
        <time>2013-12-02T15:21:59.1Z</time>
      </trkpt>
      <trkpt lat="48.54116" lon="-2.96742">
        <ele>8</ele>
        <time>2013-12-02T15:22:02.1Z</time>
      </trkpt>
      <trkpt lat="48.54115" lon="-2.9674">
        <ele>8</ele>
        <time>2013-12-02T15:22:04.1Z</time>
      </trkpt>
      <trkpt lat="48.54114" lon="-2.96738">
        <ele>8</ele>
        <time>2013-12-02T15:22:07.1Z</time>
      </trkpt>
      <trkpt lat="48.54112" lon="-2.96736">
        <ele>7</ele>
        <time>2013-12-02T15:22:10.1Z</time>
      </trkpt>
      <trkpt lat="48.5411" lon="-2.96734">
        <ele>7</ele>
        <time>2013-12-02T15:22:13.1Z</time>
      </trkpt>
      <trkpt lat="48.54108" lon="-2.96732">
        <ele>7</ele>
        <time>2013-12-02T15:22:16.1Z</time>
      </trkpt>
      <trkpt lat="48.54107" lon="-2.96731">
        <ele>7</ele>
        <time>2013-12-02T15:22:18.1Z</time>
      </trkpt>
      <trkpt lat="48.54106" lon="-2.9673">
        <ele>8</ele>
        <time>2013-12-02T15:22:21.1Z</time>
      </trkpt>
      <trkpt lat="48.54106" lon="-2.96728">
        <ele>8</ele>
        <time>2013-12-02T15:22:24.1Z</time>
      </trkpt>
      <trkpt lat="48.54105" lon="-2.96726">
        <ele>9</ele>
        <time>2013-12-02T15:22:27.1Z</time>
      </trkpt>
      <trkpt lat="48.54105" lon="-2.96726">
        <ele>9</ele>
        <time>2013-12-02T15:22:29.1Z</time>
      </trkpt>
      <trkpt lat="48.54104" lon="-2.96725">
        <ele>10</ele>
        <time>2013-12-02T15:22:32.1Z</time>
      </trkpt>
      <trkpt lat="48.54103" lon="-2.96724">
        <ele>10</ele>
        <time>2013-12-02T15:22:34.1Z</time>
      </trkpt>
      <trkpt lat="48.54103" lon="-2.96722">
        <ele>11</ele>
        <time>2013-12-02T15:22:37.1Z</time>
      </trkpt>
      <trkpt lat="48.54102" lon="-2.96721">
        <ele>11</ele>
        <time>2013-12-02T15:22:40.1Z</time>
      </trkpt>
      <trkpt lat="48.54101" lon="-2.96721">
        <ele>11</ele>
        <time>2013-12-02T15:22:42.1Z</time>
      </trkpt>
      <trkpt lat="48.54101" lon="-2.9672">
        <ele>11</ele>
        <time>2013-12-02T15:22:45.1Z</time>
      </trkpt>
      <trkpt lat="48.54102" lon="-2.9672">
        <ele>12</ele>
        <time>2013-12-02T15:22:48.1Z</time>
      </trkpt>
      <trkpt lat="48.54102" lon="-2.96721">
        <ele>12</ele>
        <time>2013-12-02T15:22:50.1Z</time>
      </trkpt>
      <trkpt lat="48.54102" lon="-2.9672">
        <ele>12</ele>
        <time>2013-12-02T15:22:53.1Z</time>
      </trkpt>
      <trkpt lat="48.54102" lon="-2.96719">
        <ele>12</ele>
        <time>2013-12-02T15:22:55.1Z</time>
      </trkpt>
      <trkpt lat="48.54102" lon="-2.96719">
        <ele>11</ele>
        <time>2013-12-02T15:22:57.1Z</time>
      </trkpt>
      <trkpt lat="48.54102" lon="-2.96719">
        <ele>11</ele>
        <time>2013-12-02T15:23:00.1Z</time>
      </trkpt>
      <trkpt lat="48.54102" lon="-2.9672">
        <ele>11</ele>
        <time>2013-12-02T15:23:04.1Z</time>
      </trkpt>
      <trkpt lat="48.54101" lon="-2.9672">
        <ele>11</ele>
        <time>2013-12-02T15:23:08.1Z</time>
      </trkpt>
      <trkpt lat="48.54102" lon="-2.9672">
        <ele>11</ele>
        <time>2013-12-02T15:23:11.1Z</time>
      </trkpt>
      <trkpt lat="48.54102" lon="-2.9672">
        <ele>11</ele>
        <time>2013-12-02T15:23:14.1Z</time>
      </trkpt>
      <trkpt lat="48.54102" lon="-2.9672">
        <ele>12</ele>
        <time>2013-12-02T15:23:17.1Z</time>
      </trkpt>
      <trkpt lat="48.54104" lon="-2.9672">
        <ele>11</ele>
        <time>2013-12-02T15:23:20.1Z</time>
      </trkpt>
      <trkpt lat="48.54105" lon="-2.96719">
        <ele>11</ele>
        <time>2013-12-02T15:23:22.1Z</time>
      </trkpt>
      <trkpt lat="48.54108" lon="-2.96719">
        <ele>11</ele>
        <time>2013-12-02T15:23:25.1Z</time>
      </trkpt>
      <trkpt lat="48.54109" lon="-2.96718">
        <ele>11</ele>
        <time>2013-12-02T15:23:27.1Z</time>
      </trkpt>
      <trkpt lat="48.54111" lon="-2.96718">
        <ele>10</ele>
        <time>2013-12-02T15:23:30.1Z</time>
      </trkpt>
      <trkpt lat="48.54113" lon="-2.96718">
        <ele>10</ele>
        <time>2013-12-02T15:23:32.1Z</time>
      </trkpt>
      <trkpt lat="48.54115" lon="-2.96718">
        <ele>10</ele>
        <time>2013-12-02T15:23:35.1Z</time>
      </trkpt>
      <trkpt lat="48.54116" lon="-2.96719">
        <ele>10</ele>
        <time>2013-12-02T15:23:37.1Z</time>
      </trkpt>
      <trkpt lat="48.54118" lon="-2.96721">
        <ele>10</ele>
        <time>2013-12-02T15:23:39.1Z</time>
      </trkpt>
      <trkpt lat="48.54119" lon="-2.9672">
        <ele>9</ele>
        <time>2013-12-02T15:23:42.1Z</time>
      </trkpt>
      <trkpt lat="48.54119" lon="-2.96719">
        <ele>9</ele>
        <time>2013-12-02T15:23:44.1Z</time>
      </trkpt>
      <trkpt lat="48.5412" lon="-2.9672">
        <ele>9</ele>
        <time>2013-12-02T15:23:46.1Z</time>
      </trkpt>
      <trkpt lat="48.54121" lon="-2.9672">
        <ele>10</ele>
        <time>2013-12-02T15:23:48.1Z</time>
      </trkpt>
      <trkpt lat="48.54124" lon="-2.96718">
        <ele>9</ele>
        <time>2013-12-02T15:23:51.1Z</time>
      </trkpt>
      <trkpt lat="48.54126" lon="-2.96718">
        <ele>9</ele>
        <time>2013-12-02T15:23:53.1Z</time>
      </trkpt>
      <trkpt lat="48.54128" lon="-2.96716">
        <ele>9</ele>
        <time>2013-12-02T15:23:55.1Z</time>
      </trkpt>
      <trkpt lat="48.54131" lon="-2.96715">
        <ele>8</ele>
        <time>2013-12-02T15:23:58.1Z</time>
      </trkpt>
      <trkpt lat="48.54133" lon="-2.96714">
        <ele>8</ele>
        <time>2013-12-02T15:24:00.1Z</time>
      </trkpt>
      <trkpt lat="48.54135" lon="-2.96711">
        <ele>8</ele>
        <time>2013-12-02T15:24:03.1Z</time>
      </trkpt>
      <trkpt lat="48.54137" lon="-2.96708">
        <ele>8</ele>
        <time>2013-12-02T15:24:05.1Z</time>
      </trkpt>
      <trkpt lat="48.54138" lon="-2.96706">
        <ele>8</ele>
        <time>2013-12-02T15:24:07.1Z</time>
      </trkpt>
      <trkpt lat="48.54141" lon="-2.96703">
        <ele>8</ele>
        <time>2013-12-02T15:24:10.1Z</time>
      </trkpt>
      <trkpt lat="48.54142" lon="-2.967">
        <ele>8</ele>
        <time>2013-12-02T15:24:12.1Z</time>
      </trkpt>
      <trkpt lat="48.54145" lon="-2.96696">
        <ele>9</ele>
        <time>2013-12-02T15:24:15.1Z</time>
      </trkpt>
      <trkpt lat="48.54147" lon="-2.96694">
        <ele>9</ele>
        <time>2013-12-02T15:24:17.1Z</time>
      </trkpt>
      <trkpt lat="48.54148" lon="-2.96691">
        <ele>9</ele>
        <time>2013-12-02T15:24:19.1Z</time>
      </trkpt>
      <trkpt lat="48.5415" lon="-2.96688">
        <ele>9</ele>
        <time>2013-12-02T15:24:21.1Z</time>
      </trkpt>
      <trkpt lat="48.54152" lon="-2.96684">
        <ele>10</ele>
        <time>2013-12-02T15:24:24.1Z</time>
      </trkpt>
      <trkpt lat="48.54153" lon="-2.96682">
        <ele>10</ele>
        <time>2013-12-02T15:24:26.1Z</time>
      </trkpt>
      <trkpt lat="48.54155" lon="-2.9668">
        <ele>10</ele>
        <time>2013-12-02T15:24:28.1Z</time>
      </trkpt>
      <trkpt lat="48.54157" lon="-2.96678">
        <ele>10</ele>
        <time>2013-12-02T15:24:31.1Z</time>
      </trkpt>
      <trkpt lat="48.54159" lon="-2.96675">
        <ele>10</ele>
        <time>2013-12-02T15:24:34.1Z</time>
      </trkpt>
      <trkpt lat="48.5416" lon="-2.96674">
        <ele>10</ele>
        <time>2013-12-02T15:24:36.1Z</time>
      </trkpt>
      <trkpt lat="48.54161" lon="-2.96672">
        <ele>11</ele>
        <time>2013-12-02T15:24:38.1Z</time>
      </trkpt>
      <trkpt lat="48.54162" lon="-2.96669">
        <ele>11</ele>
        <time>2013-12-02T15:24:40.1Z</time>
      </trkpt>
      <trkpt lat="48.54162" lon="-2.96667">
        <ele>11</ele>
        <time>2013-12-02T15:24:42.1Z</time>
      </trkpt>
      <trkpt lat="48.54161" lon="-2.96665">
        <ele>11</ele>
        <time>2013-12-02T15:24:44.1Z</time>
      </trkpt>
      <trkpt lat="48.5416" lon="-2.96664">
        <ele>11</ele>
        <time>2013-12-02T15:24:47.1Z</time>
      </trkpt>
      <trkpt lat="48.54159" lon="-2.96663">
        <ele>12</ele>
        <time>2013-12-02T15:24:50.1Z</time>
      </trkpt>
      <trkpt lat="48.54158" lon="-2.96661">
        <ele>12</ele>
        <time>2013-12-02T15:24:52.1Z</time>
      </trkpt>
      <trkpt lat="48.54159" lon="-2.96658">
        <ele>13</ele>
        <time>2013-12-02T15:24:54.1Z</time>
      </trkpt>
      <trkpt lat="48.5416" lon="-2.96656">
        <ele>13</ele>
        <time>2013-12-02T15:24:57.1Z</time>
      </trkpt>
      <trkpt lat="48.5416" lon="-2.96654">
        <ele>14</ele>
        <time>2013-12-02T15:24:59.1Z</time>
      </trkpt>
      <trkpt lat="48.54159" lon="-2.96652">
        <ele>14</ele>
        <time>2013-12-02T15:25:01.1Z</time>
      </trkpt>
      <trkpt lat="48.54158" lon="-2.96651">
        <ele>14</ele>
        <time>2013-12-02T15:25:03.1Z</time>
      </trkpt>
      <trkpt lat="48.54158" lon="-2.96651">
        <ele>15</ele>
        <time>2013-12-02T15:25:06.1Z</time>
      </trkpt>
      <trkpt lat="48.54157" lon="-2.96651">
        <ele>15</ele>
        <time>2013-12-02T15:25:09.1Z</time>
      </trkpt>
      <trkpt lat="48.54157" lon="-2.96651">
        <ele>16</ele>
        <time>2013-12-02T15:25:11.1Z</time>
      </trkpt>
      <trkpt lat="48.54156" lon="-2.96652">
        <ele>16</ele>
        <time>2013-12-02T15:25:14.1Z</time>
      </trkpt>
      <trkpt lat="48.54156" lon="-2.96652">
        <ele>16</ele>
        <time>2013-12-02T15:25:16.1Z</time>
      </trkpt>
      <trkpt lat="48.54154" lon="-2.96653">
        <ele>16</ele>
        <time>2013-12-02T15:25:19.1Z</time>
      </trkpt>
      <trkpt lat="48.54153" lon="-2.96654">
        <ele>16</ele>
        <time>2013-12-02T15:25:21.1Z</time>
      </trkpt>
      <trkpt lat="48.54151" lon="-2.96655">
        <ele>16</ele>
        <time>2013-12-02T15:25:24.1Z</time>
      </trkpt>
      <trkpt lat="48.5415" lon="-2.96656">
        <ele>17</ele>
        <time>2013-12-02T15:25:26.1Z</time>
      </trkpt>
      <trkpt lat="48.54147" lon="-2.96657">
        <ele>17</ele>
        <time>2013-12-02T15:25:29.1Z</time>
      </trkpt>
      <trkpt lat="48.54146" lon="-2.96657">
        <ele>18</ele>
        <time>2013-12-02T15:25:31.1Z</time>
      </trkpt>
      <trkpt lat="48.54144" lon="-2.96658">
        <ele>19</ele>
        <time>2013-12-02T15:25:34.1Z</time>
      </trkpt>
      <trkpt lat="48.54139" lon="-2.96661">
        <ele>20</ele>
        <time>2013-12-02T15:25:37.1Z</time>
      </trkpt>
      <trkpt lat="48.54137" lon="-2.96661">
        <ele>21</ele>
        <time>2013-12-02T15:25:39.1Z</time>
      </trkpt>
      <trkpt lat="48.54135" lon="-2.96661">
        <ele>22</ele>
        <time>2013-12-02T15:25:42.1Z</time>
      </trkpt>
      <trkpt lat="48.54134" lon="-2.96662">
        <ele>22</ele>
        <time>2013-12-02T15:25:45.1Z</time>
      </trkpt>
      <trkpt lat="48.54133" lon="-2.96661">
        <ele>22</ele>
        <time>2013-12-02T15:25:47.1Z</time>
      </trkpt>
      <trkpt lat="48.54131" lon="-2.96661">
        <ele>22</ele>
        <time>2013-12-02T15:25:49.1Z</time>
      </trkpt>
      <trkpt lat="48.54129" lon="-2.96659">
        <ele>23</ele>
        <time>2013-12-02T15:25:52.1Z</time>
      </trkpt>
      <trkpt lat="48.54127" lon="-2.96656">
        <ele>23</ele>
        <time>2013-12-02T15:25:55.1Z</time>
      </trkpt>
      <trkpt lat="48.54127" lon="-2.96654">
        <ele>23</ele>
        <time>2013-12-02T15:25:57.1Z</time>
      </trkpt>
      <trkpt lat="48.54126" lon="-2.96652">
        <ele>24</ele>
        <time>2013-12-02T15:25:59.1Z</time>
      </trkpt>
      <trkpt lat="48.54125" lon="-2.96649">
        <ele>24</ele>
        <time>2013-12-02T15:26:01.1Z</time>
      </trkpt>
      <trkpt lat="48.54124" lon="-2.96646">
        <ele>25</ele>
        <time>2013-12-02T15:26:03.1Z</time>
      </trkpt>
      <trkpt lat="48.54122" lon="-2.96642">
        <ele>25</ele>
        <time>2013-12-02T15:26:06.1Z</time>
      </trkpt>
      <trkpt lat="48.54121" lon="-2.96639">
        <ele>26</ele>
        <time>2013-12-02T15:26:08.1Z</time>
      </trkpt>
      <trkpt lat="48.54119" lon="-2.96635">
        <ele>26</ele>
        <time>2013-12-02T15:26:11.1Z</time>
      </trkpt>
      <trkpt lat="48.54117" lon="-2.96632">
        <ele>27</ele>
        <time>2013-12-02T15:26:14.1Z</time>
      </trkpt>
      <trkpt lat="48.54115" lon="-2.96628">
        <ele>27</ele>
        <time>2013-12-02T15:26:17.1Z</time>
      </trkpt>
      <trkpt lat="48.54113" lon="-2.96625">
        <ele>28</ele>
        <time>2013-12-02T15:26:19.1Z</time>
      </trkpt>
      <trkpt lat="48.54111" lon="-2.96621">
        <ele>29</ele>
        <time>2013-12-02T15:26:22.1Z</time>
      </trkpt>
      <trkpt lat="48.5411" lon="-2.96619">
        <ele>29</ele>
        <time>2013-12-02T15:26:24.1Z</time>
      </trkpt>
      <trkpt lat="48.5411" lon="-2.96616">
        <ele>29</ele>
        <time>2013-12-02T15:26:27.1Z</time>
      </trkpt>
      <trkpt lat="48.5411" lon="-2.96615">
        <ele>30</ele>
        <time>2013-12-02T15:26:29.1Z</time>
      </trkpt>
      <trkpt lat="48.54109" lon="-2.96615">
        <ele>30</ele>
        <time>2013-12-02T15:26:31.1Z</time>
      </trkpt>
      <trkpt lat="48.54108" lon="-2.96615">
        <ele>30</ele>
        <time>2013-12-02T15:26:34.1Z</time>
      </trkpt>
      <trkpt lat="48.54108" lon="-2.96615">
        <ele>30</ele>
        <time>2013-12-02T15:26:36.1Z</time>
      </trkpt>
      <trkpt lat="48.54107" lon="-2.96614">
        <ele>30</ele>
        <time>2013-12-02T15:26:39.1Z</time>
      </trkpt>
      <trkpt lat="48.54107" lon="-2.96613">
        <ele>30</ele>
        <time>2013-12-02T15:26:42.1Z</time>
      </trkpt>
      <trkpt lat="48.54106" lon="-2.96609">
        <ele>30</ele>
        <time>2013-12-02T15:26:45.1Z</time>
      </trkpt>
      <trkpt lat="48.54105" lon="-2.96607">
        <ele>30</ele>
        <time>2013-12-02T15:26:47.1Z</time>
      </trkpt>
      <trkpt lat="48.54105" lon="-2.96607">
        <ele>30</ele>
        <time>2013-12-02T15:26:50.1Z</time>
      </trkpt>
      <trkpt lat="48.54104" lon="-2.96606">
        <ele>30</ele>
        <time>2013-12-02T15:26:53.1Z</time>
      </trkpt>
      <trkpt lat="48.54104" lon="-2.96605">
        <ele>31</ele>
        <time>2013-12-02T15:26:55.1Z</time>
      </trkpt>
      <trkpt lat="48.54102" lon="-2.96603">
        <ele>30</ele>
        <time>2013-12-02T15:26:58.1Z</time>
      </trkpt>
      <trkpt lat="48.54103" lon="-2.96602">
        <ele>30</ele>
        <time>2013-12-02T15:27:00.1Z</time>
      </trkpt>
      <trkpt lat="48.54102" lon="-2.966">
        <ele>30</ele>
        <time>2013-12-02T15:27:03.1Z</time>
      </trkpt>
      <trkpt lat="48.54102" lon="-2.966">
        <ele>31</ele>
        <time>2013-12-02T15:27:08.1Z</time>
      </trkpt>
      <trkpt lat="48.54102" lon="-2.966">
        <ele>31</ele>
        <time>2013-12-02T15:27:11.1Z</time>
      </trkpt>
      <trkpt lat="48.54102" lon="-2.96601">
        <ele>31</ele>
        <time>2013-12-02T15:27:13.1Z</time>
      </trkpt>
      <trkpt lat="48.54101" lon="-2.96601">
        <ele>31</ele>
        <time>2013-12-02T15:27:16.1Z</time>
      </trkpt>
      <trkpt lat="48.54101" lon="-2.96601">
        <ele>31</ele>
        <time>2013-12-02T15:27:18.1Z</time>
      </trkpt>
      <trkpt lat="48.54101" lon="-2.96601">
        <ele>31</ele>
        <time>2013-12-02T15:27:20.1Z</time>
      </trkpt>
      <trkpt lat="48.541" lon="-2.96601">
        <ele>31</ele>
        <time>2013-12-02T15:27:22.1Z</time>
      </trkpt>
      <trkpt lat="48.541" lon="-2.96602">
        <ele>31</ele>
        <time>2013-12-02T15:27:25.1Z</time>
      </trkpt>
      <trkpt lat="48.541" lon="-2.96602">
        <ele>31</ele>
        <time>2013-12-02T15:27:27.1Z</time>
      </trkpt>
      <trkpt lat="48.541" lon="-2.96603">
        <ele>31</ele>
        <time>2013-12-02T15:27:30.1Z</time>
      </trkpt>
      <trkpt lat="48.54099" lon="-2.96603">
        <ele>31</ele>
        <time>2013-12-02T15:27:32.1Z</time>
      </trkpt>
      <trkpt lat="48.54099" lon="-2.96603">
        <ele>31</ele>
        <time>2013-12-02T15:27:37.1Z</time>
      </trkpt>
      <trkpt lat="48.54099" lon="-2.96603">
        <ele>31</ele>
        <time>2013-12-02T15:27:39.1Z</time>
      </trkpt>
      <trkpt lat="48.54099" lon="-2.96602">
        <ele>31</ele>
        <time>2013-12-02T15:27:42.1Z</time>
      </trkpt>
      <trkpt lat="48.54099" lon="-2.96603">
        <ele>31</ele>
        <time>2013-12-02T15:27:46.1Z</time>
      </trkpt>
      <trkpt lat="48.54099" lon="-2.96603">
        <ele>30</ele>
        <time>2013-12-02T15:27:49.1Z</time>
      </trkpt>
      <trkpt lat="48.54099" lon="-2.96603">
        <ele>30</ele>
        <time>2013-12-02T15:27:52.1Z</time>
      </trkpt>
      <trkpt lat="48.54099" lon="-2.96603">
        <ele>31</ele>
        <time>2013-12-02T15:27:54.1Z</time>
      </trkpt>
      <trkpt lat="48.54098" lon="-2.96603">
        <ele>31</ele>
        <time>2013-12-02T15:27:57.1Z</time>
      </trkpt>
      <trkpt lat="48.54098" lon="-2.96603">
        <ele>31</ele>
        <time>2013-12-02T15:28:00.1Z</time>
      </trkpt>
      <trkpt lat="48.54097" lon="-2.96604">
        <ele>31</ele>
        <time>2013-12-02T15:28:03.1Z</time>
      </trkpt>
      <trkpt lat="48.54097" lon="-2.96604">
        <ele>31</ele>
        <time>2013-12-02T15:28:05.1Z</time>
      </trkpt>
      <trkpt lat="48.54097" lon="-2.96604">
        <ele>31</ele>
        <time>2013-12-02T15:28:08.1Z</time>
      </trkpt>
      <trkpt lat="48.54097" lon="-2.96604">
        <ele>31</ele>
        <time>2013-12-02T15:28:11.1Z</time>
      </trkpt>
      <trkpt lat="48.54097" lon="-2.96604">
        <ele>31</ele>
        <time>2013-12-02T15:28:14.1Z</time>
      </trkpt>
      <trkpt lat="48.54096" lon="-2.96605">
        <ele>31</ele>
        <time>2013-12-02T15:28:17.1Z</time>
      </trkpt>
      <trkpt lat="48.54096" lon="-2.96605">
        <ele>31</ele>
        <time>2013-12-02T15:28:19.1Z</time>
      </trkpt>
      <trkpt lat="48.54096" lon="-2.96606">
        <ele>30</ele>
        <time>2013-12-02T15:28:21.1Z</time>
      </trkpt>
      <trkpt lat="48.54096" lon="-2.96606">
        <ele>31</ele>
        <time>2013-12-02T15:28:25.1Z</time>
      </trkpt>
      <trkpt lat="48.54096" lon="-2.96606">
        <ele>31</ele>
        <time>2013-12-02T15:28:27.1Z</time>
      </trkpt>
      <trkpt lat="48.54095" lon="-2.96607">
        <ele>31</ele>
        <time>2013-12-02T15:28:30.1Z</time>
      </trkpt>
      <trkpt lat="48.54094" lon="-2.96606">
        <ele>31</ele>
        <time>2013-12-02T15:28:32.1Z</time>
      </trkpt>
      <trkpt lat="48.54094" lon="-2.96604">
        <ele>31</ele>
        <time>2013-12-02T15:28:34.1Z</time>
      </trkpt>
      <trkpt lat="48.54092" lon="-2.96603">
        <ele>31</ele>
        <time>2013-12-02T15:28:37.1Z</time>
      </trkpt>
      <trkpt lat="48.54092" lon="-2.96602">
        <ele>31</ele>
        <time>2013-12-02T15:28:39.1Z</time>
      </trkpt>
      <trkpt lat="48.5409" lon="-2.966">
        <ele>31</ele>
        <time>2013-12-02T15:28:42.1Z</time>
      </trkpt>
      <trkpt lat="48.54088" lon="-2.96599">
        <ele>31</ele>
        <time>2013-12-02T15:28:44.1Z</time>
      </trkpt>
      <trkpt lat="48.54087" lon="-2.96597">
        <ele>31</ele>
        <time>2013-12-02T15:28:47.1Z</time>
      </trkpt>
      <trkpt lat="48.54087" lon="-2.96596">
        <ele>32</ele>
        <time>2013-12-02T15:28:49.1Z</time>
      </trkpt>
      <trkpt lat="48.54087" lon="-2.96594">
        <ele>32</ele>
        <time>2013-12-02T15:28:51.1Z</time>
      </trkpt>
      <trkpt lat="48.54085" lon="-2.96592">
        <ele>32</ele>
        <time>2013-12-02T15:28:54.1Z</time>
      </trkpt>
      <trkpt lat="48.54084" lon="-2.9659">
        <ele>32</ele>
        <time>2013-12-02T15:28:57.1Z</time>
      </trkpt>
      <trkpt lat="48.54082" lon="-2.96588">
        <ele>32</ele>
        <time>2013-12-02T15:28:59.1Z</time>
      </trkpt>
      <trkpt lat="48.54081" lon="-2.96586">
        <ele>33</ele>
        <time>2013-12-02T15:29:01.1Z</time>
      </trkpt>
      <trkpt lat="48.54079" lon="-2.96583">
        <ele>33</ele>
        <time>2013-12-02T15:29:04.1Z</time>
      </trkpt>
      <trkpt lat="48.54078" lon="-2.96582">
        <ele>33</ele>
        <time>2013-12-02T15:29:06.1Z</time>
      </trkpt>
      <trkpt lat="48.54076" lon="-2.96579">
        <ele>33</ele>
        <time>2013-12-02T15:29:09.1Z</time>
      </trkpt>
      <trkpt lat="48.54075" lon="-2.96577">
        <ele>33</ele>
        <time>2013-12-02T15:29:11.1Z</time>
      </trkpt>
      <trkpt lat="48.54072" lon="-2.96574">
        <ele>34</ele>
        <time>2013-12-02T15:29:14.1Z</time>
      </trkpt>
      <trkpt lat="48.54071" lon="-2.96572">
        <ele>34</ele>
        <time>2013-12-02T15:29:16.1Z</time>
      </trkpt>
      <trkpt lat="48.5407" lon="-2.9657">
        <ele>34</ele>
        <time>2013-12-02T15:29:18.1Z</time>
      </trkpt>
      <trkpt lat="48.54068" lon="-2.96568">
        <ele>34</ele>
        <time>2013-12-02T15:29:21.1Z</time>
      </trkpt>
      <trkpt lat="48.54065" lon="-2.96564">
        <ele>34</ele>
        <time>2013-12-02T15:29:24.1Z</time>
      </trkpt>
      <trkpt lat="48.54064" lon="-2.96561">
        <ele>35</ele>
        <time>2013-12-02T15:29:27.1Z</time>
      </trkpt>
      <trkpt lat="48.54062" lon="-2.96558">
        <ele>35</ele>
        <time>2013-12-02T15:29:30.1Z</time>
      </trkpt>
      <trkpt lat="48.5406" lon="-2.96555">
        <ele>35</ele>
        <time>2013-12-02T15:29:33.1Z</time>
      </trkpt>
      <trkpt lat="48.54059" lon="-2.96553">
        <ele>35</ele>
        <time>2013-12-02T15:29:35.1Z</time>
      </trkpt>
      <trkpt lat="48.54057" lon="-2.9655">
        <ele>35</ele>
        <time>2013-12-02T15:29:38.1Z</time>
      </trkpt>
      <trkpt lat="48.54055" lon="-2.96548">
        <ele>36</ele>
        <time>2013-12-02T15:29:41.1Z</time>
      </trkpt>
      <trkpt lat="48.54054" lon="-2.96546">
        <ele>36</ele>
        <time>2013-12-02T15:29:43.1Z</time>
      </trkpt>
      <trkpt lat="48.54053" lon="-2.96543">
        <ele>36</ele>
        <time>2013-12-02T15:29:46.1Z</time>
      </trkpt>
      <trkpt lat="48.54052" lon="-2.9654">
        <ele>36</ele>
        <time>2013-12-02T15:29:48.1Z</time>
      </trkpt>
      <trkpt lat="48.5405" lon="-2.96536">
        <ele>37</ele>
        <time>2013-12-02T15:29:51.1Z</time>
      </trkpt>
      <trkpt lat="48.54049" lon="-2.96534">
        <ele>37</ele>
        <time>2013-12-02T15:29:53.1Z</time>
      </trkpt>
      <trkpt lat="48.54047" lon="-2.9653">
        <ele>37</ele>
        <time>2013-12-02T15:29:56.1Z</time>
      </trkpt>
      <trkpt lat="48.54046" lon="-2.96526">
        <ele>37</ele>
        <time>2013-12-02T15:29:59.1Z</time>
      </trkpt>
      <trkpt lat="48.54045" lon="-2.96524">
        <ele>37</ele>
        <time>2013-12-02T15:30:01.1Z</time>
      </trkpt>
      <trkpt lat="48.54043" lon="-2.96521">
        <ele>37</ele>
        <time>2013-12-02T15:30:03.1Z</time>
      </trkpt>
      <trkpt lat="48.54042" lon="-2.96518">
        <ele>37</ele>
        <time>2013-12-02T15:30:05.1Z</time>
      </trkpt>
      <trkpt lat="48.5404" lon="-2.96516">
        <ele>37</ele>
        <time>2013-12-02T15:30:07.1Z</time>
      </trkpt>
      <trkpt lat="48.54039" lon="-2.96513">
        <ele>37</ele>
        <time>2013-12-02T15:30:10.1Z</time>
      </trkpt>
      <trkpt lat="48.54037" lon="-2.9651">
        <ele>37</ele>
        <time>2013-12-02T15:30:13.1Z</time>
      </trkpt>
      <trkpt lat="48.54035" lon="-2.96506">
        <ele>38</ele>
        <time>2013-12-02T15:30:16.1Z</time>
      </trkpt>
      <trkpt lat="48.54034" lon="-2.96503">
        <ele>38</ele>
        <time>2013-12-02T15:30:18.1Z</time>
      </trkpt>
      <trkpt lat="48.54033" lon="-2.96501">
        <ele>38</ele>
        <time>2013-12-02T15:30:20.1Z</time>
      </trkpt>
      <trkpt lat="48.54031" lon="-2.96498">
        <ele>38</ele>
        <time>2013-12-02T15:30:22.1Z</time>
      </trkpt>
      <trkpt lat="48.5403" lon="-2.96495">
        <ele>38</ele>
        <time>2013-12-02T15:30:25.1Z</time>
      </trkpt>
      <trkpt lat="48.54029" lon="-2.96492">
        <ele>38</ele>
        <time>2013-12-02T15:30:27.1Z</time>
      </trkpt>
      <trkpt lat="48.54028" lon="-2.9649">
        <ele>38</ele>
        <time>2013-12-02T15:30:29.1Z</time>
      </trkpt>
      <trkpt lat="48.54028" lon="-2.96487">
        <ele>38</ele>
        <time>2013-12-02T15:30:31.1Z</time>
      </trkpt>
      <trkpt lat="48.54026" lon="-2.96484">
        <ele>38</ele>
        <time>2013-12-02T15:30:33.1Z</time>
      </trkpt>
      <trkpt lat="48.54026" lon="-2.96482">
        <ele>38</ele>
        <time>2013-12-02T15:30:35.1Z</time>
      </trkpt>
      <trkpt lat="48.54024" lon="-2.96479">
        <ele>38</ele>
        <time>2013-12-02T15:30:37.1Z</time>
      </trkpt>
      <trkpt lat="48.54022" lon="-2.96475">
        <ele>38</ele>
        <time>2013-12-02T15:30:40.1Z</time>
      </trkpt>
      <trkpt lat="48.5402" lon="-2.96471">
        <ele>38</ele>
        <time>2013-12-02T15:30:43.1Z</time>
      </trkpt>
      <trkpt lat="48.54018" lon="-2.96468">
        <ele>38</ele>
        <time>2013-12-02T15:30:45.1Z</time>
      </trkpt>
      <trkpt lat="48.54018" lon="-2.96465">
        <ele>38</ele>
        <time>2013-12-02T15:30:47.1Z</time>
      </trkpt>
      <trkpt lat="48.54017" lon="-2.96462">
        <ele>38</ele>
        <time>2013-12-02T15:30:49.1Z</time>
      </trkpt>
      <trkpt lat="48.54016" lon="-2.96459">
        <ele>38</ele>
        <time>2013-12-02T15:30:51.1Z</time>
      </trkpt>
      <trkpt lat="48.54013" lon="-2.96455">
        <ele>38</ele>
        <time>2013-12-02T15:30:54.1Z</time>
      </trkpt>
      <trkpt lat="48.54011" lon="-2.9645">
        <ele>38</ele>
        <time>2013-12-02T15:30:57.1Z</time>
      </trkpt>
      <trkpt lat="48.5401" lon="-2.96447">
        <ele>38</ele>
        <time>2013-12-02T15:30:59.1Z</time>
      </trkpt>
      <trkpt lat="48.5401" lon="-2.96444">
        <ele>38</ele>
        <time>2013-12-02T15:31:01.1Z</time>
      </trkpt>
      <trkpt lat="48.5401" lon="-2.96441">
        <ele>38</ele>
        <time>2013-12-02T15:31:03.1Z</time>
      </trkpt>
      <trkpt lat="48.54009" lon="-2.96436">
        <ele>38</ele>
        <time>2013-12-02T15:31:06.1Z</time>
      </trkpt>
      <trkpt lat="48.54009" lon="-2.96433">
        <ele>38</ele>
        <time>2013-12-02T15:31:08.1Z</time>
      </trkpt>
      <trkpt lat="48.54009" lon="-2.96428">
        <ele>39</ele>
        <time>2013-12-02T15:31:11.1Z</time>
      </trkpt>
      <trkpt lat="48.5401" lon="-2.96424">
        <ele>38</ele>
        <time>2013-12-02T15:31:14.1Z</time>
      </trkpt>
      <trkpt lat="48.54009" lon="-2.96421">
        <ele>38</ele>
        <time>2013-12-02T15:31:16.1Z</time>
      </trkpt>
      <trkpt lat="48.54008" lon="-2.96418">
        <ele>39</ele>
        <time>2013-12-02T15:31:19.1Z</time>
      </trkpt>
      <trkpt lat="48.54008" lon="-2.96418">
        <ele>39</ele>
        <time>2013-12-02T15:31:21.1Z</time>
      </trkpt>
      <trkpt lat="48.5401" lon="-2.96416">
        <ele>39</ele>
        <time>2013-12-02T15:31:24.1Z</time>
      </trkpt>
      <trkpt lat="48.54013" lon="-2.96416">
        <ele>39</ele>
        <time>2013-12-02T15:31:27.1Z</time>
      </trkpt>
      <trkpt lat="48.54015" lon="-2.96417">
        <ele>39</ele>
        <time>2013-12-02T15:31:29.1Z</time>
      </trkpt>
      <trkpt lat="48.54018" lon="-2.96418">
        <ele>39</ele>
        <time>2013-12-02T15:31:32.1Z</time>
      </trkpt>
      <trkpt lat="48.54021" lon="-2.9642">
        <ele>39</ele>
        <time>2013-12-02T15:31:35.1Z</time>
      </trkpt>
      <trkpt lat="48.54022" lon="-2.96421">
        <ele>39</ele>
        <time>2013-12-02T15:31:37.1Z</time>
      </trkpt>
      <trkpt lat="48.54025" lon="-2.96423">
        <ele>38</ele>
        <time>2013-12-02T15:31:40.1Z</time>
      </trkpt>
      <trkpt lat="48.54027" lon="-2.96424">
        <ele>38</ele>
        <time>2013-12-02T15:31:42.1Z</time>
      </trkpt>
      <trkpt lat="48.54029" lon="-2.96426">
        <ele>38</ele>
        <time>2013-12-02T15:31:45.1Z</time>
      </trkpt>
      <trkpt lat="48.54031" lon="-2.96427">
        <ele>38</ele>
        <time>2013-12-02T15:31:47.1Z</time>
      </trkpt>
      <trkpt lat="48.54034" lon="-2.96429">
        <ele>38</ele>
        <time>2013-12-02T15:31:50.1Z</time>
      </trkpt>
      <trkpt lat="48.54036" lon="-2.9643">
        <ele>38</ele>
        <time>2013-12-02T15:31:52.1Z</time>
      </trkpt>
      <trkpt lat="48.54039" lon="-2.96431">
        <ele>38</ele>
        <time>2013-12-02T15:31:55.1Z</time>
      </trkpt>
      <trkpt lat="48.54042" lon="-2.96432">
        <ele>38</ele>
        <time>2013-12-02T15:31:57.1Z</time>
      </trkpt>
      <trkpt lat="48.54045" lon="-2.96432">
        <ele>38</ele>
        <time>2013-12-02T15:32:00.1Z</time>
      </trkpt>
      <trkpt lat="48.54047" lon="-2.96433">
        <ele>38</ele>
        <time>2013-12-02T15:32:02.1Z</time>
      </trkpt>
      <trkpt lat="48.5405" lon="-2.96435">
        <ele>37</ele>
        <time>2013-12-02T15:32:05.1Z</time>
      </trkpt>
      <trkpt lat="48.54052" lon="-2.96437">
        <ele>37</ele>
        <time>2013-12-02T15:32:08.1Z</time>
      </trkpt>
      <trkpt lat="48.54055" lon="-2.96437">
        <ele>37</ele>
        <time>2013-12-02T15:32:10.1Z</time>
      </trkpt>
      <trkpt lat="48.54058" lon="-2.96437">
        <ele>37</ele>
        <time>2013-12-02T15:32:13.1Z</time>
      </trkpt>
      <trkpt lat="48.54059" lon="-2.96437">
        <ele>37</ele>
        <time>2013-12-02T15:32:15.1Z</time>
      </trkpt>
      <trkpt lat="48.54063" lon="-2.96437">
        <ele>36</ele>
        <time>2013-12-02T15:32:18.1Z</time>
      </trkpt>
      <trkpt lat="48.54066" lon="-2.96437">
        <ele>36</ele>
        <time>2013-12-02T15:32:21.1Z</time>
      </trkpt>
      <trkpt lat="48.54068" lon="-2.96438">
        <ele>36</ele>
        <time>2013-12-02T15:32:23.1Z</time>
      </trkpt>
      <trkpt lat="48.5407" lon="-2.96438">
        <ele>36</ele>
        <time>2013-12-02T15:32:25.1Z</time>
      </trkpt>
      <trkpt lat="48.54074" lon="-2.96438">
        <ele>36</ele>
        <time>2013-12-02T15:32:28.1Z</time>
      </trkpt>
      <trkpt lat="48.54076" lon="-2.96439">
        <ele>36</ele>
        <time>2013-12-02T15:32:30.1Z</time>
      </trkpt>
      <trkpt lat="48.54079" lon="-2.9644">
        <ele>36</ele>
        <time>2013-12-02T15:32:33.1Z</time>
      </trkpt>
      <trkpt lat="48.54083" lon="-2.9644">
        <ele>36</ele>
        <time>2013-12-02T15:32:36.1Z</time>
      </trkpt>
      <trkpt lat="48.54086" lon="-2.96441">
        <ele>35</ele>
        <time>2013-12-02T15:32:39.1Z</time>
      </trkpt>
      <trkpt lat="48.5409" lon="-2.96442">
        <ele>35</ele>
        <time>2013-12-02T15:32:42.1Z</time>
      </trkpt>
      <trkpt lat="48.54094" lon="-2.96442">
        <ele>35</ele>
        <time>2013-12-02T15:32:45.1Z</time>
      </trkpt>
      <trkpt lat="48.54097" lon="-2.96443">
        <ele>34</ele>
        <time>2013-12-02T15:32:47.1Z</time>
      </trkpt>
      <trkpt lat="48.541" lon="-2.96442">
        <ele>34</ele>
        <time>2013-12-02T15:32:50.1Z</time>
      </trkpt>
      <trkpt lat="48.54102" lon="-2.96441">
        <ele>34</ele>
        <time>2013-12-02T15:32:53.1Z</time>
      </trkpt>
      <trkpt lat="48.54105" lon="-2.96441">
        <ele>34</ele>
        <time>2013-12-02T15:32:55.1Z</time>
      </trkpt>
      <trkpt lat="48.54108" lon="-2.96442">
        <ele>33</ele>
        <time>2013-12-02T15:32:58.1Z</time>
      </trkpt>
      <trkpt lat="48.54111" lon="-2.96443">
        <ele>33</ele>
        <time>2013-12-02T15:33:01.1Z</time>
      </trkpt>
      <trkpt lat="48.54115" lon="-2.96443">
        <ele>33</ele>
        <time>2013-12-02T15:33:04.1Z</time>
      </trkpt>
      <trkpt lat="48.54118" lon="-2.96442">
        <ele>33</ele>
        <time>2013-12-02T15:33:06.1Z</time>
      </trkpt>
      <trkpt lat="48.54122" lon="-2.96441">
        <ele>32</ele>
        <time>2013-12-02T15:33:09.1Z</time>
      </trkpt>
      <trkpt lat="48.54126" lon="-2.9644">
        <ele>32</ele>
        <time>2013-12-02T15:33:12.1Z</time>
      </trkpt>
      <trkpt lat="48.54128" lon="-2.96438">
        <ele>31</ele>
        <time>2013-12-02T15:33:14.1Z</time>
      </trkpt>
      <trkpt lat="48.54131" lon="-2.96436">
        <ele>31</ele>
        <time>2013-12-02T15:33:17.1Z</time>
      </trkpt>
      <trkpt lat="48.54135" lon="-2.96434">
        <ele>31</ele>
        <time>2013-12-02T15:33:20.1Z</time>
      </trkpt>
      <trkpt lat="48.54137" lon="-2.96434">
        <ele>32</ele>
        <time>2013-12-02T15:33:22.1Z</time>
      </trkpt>
      <trkpt lat="48.5414" lon="-2.96432">
        <ele>32</ele>
        <time>2013-12-02T15:33:25.1Z</time>
      </trkpt>
      <trkpt lat="48.54142" lon="-2.96432">
        <ele>31</ele>
        <time>2013-12-02T15:33:27.1Z</time>
      </trkpt>
      <trkpt lat="48.54144" lon="-2.96431">
        <ele>31</ele>
        <time>2013-12-02T15:33:29.1Z</time>
      </trkpt>
      <trkpt lat="48.54146" lon="-2.9643">
        <ele>31</ele>
        <time>2013-12-02T15:33:31.1Z</time>
      </trkpt>
      <trkpt lat="48.54148" lon="-2.96429">
        <ele>31</ele>
        <time>2013-12-02T15:33:34.1Z</time>
      </trkpt>
      <trkpt lat="48.54148" lon="-2.96428">
        <ele>31</ele>
        <time>2013-12-02T15:33:36.1Z</time>
      </trkpt>
      <trkpt lat="48.54148" lon="-2.96428">
        <ele>31</ele>
        <time>2013-12-02T15:33:40.1Z</time>
      </trkpt>
      <trkpt lat="48.54149" lon="-2.96428">
        <ele>31</ele>
        <time>2013-12-02T15:33:43.1Z</time>
      </trkpt>
      <trkpt lat="48.54149" lon="-2.96427">
        <ele>32</ele>
        <time>2013-12-02T15:33:45.1Z</time>
      </trkpt>
      <trkpt lat="48.54149" lon="-2.96427">
        <ele>32</ele>
        <time>2013-12-02T15:33:47.1Z</time>
      </trkpt>
      <trkpt lat="48.54149" lon="-2.96427">
        <ele>31</ele>
        <time>2013-12-02T15:33:51.1Z</time>
      </trkpt>
      <trkpt lat="48.5415" lon="-2.96426">
        <ele>31</ele>
        <time>2013-12-02T15:33:54.1Z</time>
      </trkpt>
      <trkpt lat="48.5415" lon="-2.96426">
        <ele>32</ele>
        <time>2013-12-02T15:33:58.1Z</time>
      </trkpt>
      <trkpt lat="48.5415" lon="-2.96426">
        <ele>32</ele>
        <time>2013-12-02T15:34:01.1Z</time>
      </trkpt>
      <trkpt lat="48.5415" lon="-2.96426">
        <ele>31</ele>
        <time>2013-12-02T15:34:03.1Z</time>
      </trkpt>
      <trkpt lat="48.54151" lon="-2.96428">
        <ele>32</ele>
        <time>2013-12-02T15:34:06.1Z</time>
      </trkpt>
      <trkpt lat="48.54151" lon="-2.96427">
        <ele>31</ele>
        <time>2013-12-02T15:34:09.1Z</time>
      </trkpt>
      <trkpt lat="48.54151" lon="-2.96427">
        <ele>32</ele>
        <time>2013-12-02T15:34:12.1Z</time>
      </trkpt>
      <trkpt lat="48.54151" lon="-2.96427">
        <ele>31</ele>
        <time>2013-12-02T15:34:15.1Z</time>
      </trkpt>
      <trkpt lat="48.54152" lon="-2.96426">
        <ele>31</ele>
        <time>2013-12-02T15:34:18.1Z</time>
      </trkpt>
      <trkpt lat="48.54152" lon="-2.96426">
        <ele>31</ele>
        <time>2013-12-02T15:34:20.1Z</time>
      </trkpt>
      <trkpt lat="48.54152" lon="-2.96426">
        <ele>31</ele>
        <time>2013-12-02T15:34:22.1Z</time>
      </trkpt>
      <trkpt lat="48.54154" lon="-2.96423">
        <ele>31</ele>
        <time>2013-12-02T15:34:25.1Z</time>
      </trkpt>
      <trkpt lat="48.54156" lon="-2.96419">
        <ele>31</ele>
        <time>2013-12-02T15:34:28.1Z</time>
      </trkpt>
      <trkpt lat="48.54157" lon="-2.96416">
        <ele>32</ele>
        <time>2013-12-02T15:34:30.1Z</time>
      </trkpt>
      <trkpt lat="48.54157" lon="-2.96413">
        <ele>32</ele>
        <time>2013-12-02T15:34:32.1Z</time>
      </trkpt>
      <trkpt lat="48.54157" lon="-2.96409">
        <ele>33</ele>
        <time>2013-12-02T15:34:35.1Z</time>
      </trkpt>
      <trkpt lat="48.54157" lon="-2.96407">
        <ele>33</ele>
        <time>2013-12-02T15:34:37.1Z</time>
      </trkpt>
      <trkpt lat="48.54156" lon="-2.96403">
        <ele>33</ele>
        <time>2013-12-02T15:34:40.1Z</time>
      </trkpt>
      <trkpt lat="48.54156" lon="-2.964">
        <ele>33</ele>
        <time>2013-12-02T15:34:42.1Z</time>
      </trkpt>
      <trkpt lat="48.54156" lon="-2.96397">
        <ele>33</ele>
        <time>2013-12-02T15:34:44.1Z</time>
      </trkpt>
      <trkpt lat="48.54155" lon="-2.96394">
        <ele>33</ele>
        <time>2013-12-02T15:34:46.1Z</time>
      </trkpt>
      <trkpt lat="48.54155" lon="-2.96391">
        <ele>33</ele>
        <time>2013-12-02T15:34:48.1Z</time>
      </trkpt>
      <trkpt lat="48.54154" lon="-2.96387">
        <ele>33</ele>
        <time>2013-12-02T15:34:51.1Z</time>
      </trkpt>
      <trkpt lat="48.54154" lon="-2.96384">
        <ele>33</ele>
        <time>2013-12-02T15:34:53.1Z</time>
      </trkpt>
      <trkpt lat="48.54154" lon="-2.9638">
        <ele>34</ele>
        <time>2013-12-02T15:34:55.1Z</time>
      </trkpt>
      <trkpt lat="48.54153" lon="-2.96376">
        <ele>34</ele>
        <time>2013-12-02T15:34:58.1Z</time>
      </trkpt>
      <trkpt lat="48.54153" lon="-2.96373">
        <ele>34</ele>
        <time>2013-12-02T15:35:00.1Z</time>
      </trkpt>
      <trkpt lat="48.54152" lon="-2.96368">
        <ele>34</ele>
        <time>2013-12-02T15:35:03.1Z</time>
      </trkpt>
      <trkpt lat="48.54151" lon="-2.96366">
        <ele>34</ele>
        <time>2013-12-02T15:35:05.1Z</time>
      </trkpt>
      <trkpt lat="48.5415" lon="-2.96361">
        <ele>35</ele>
        <time>2013-12-02T15:35:08.1Z</time>
      </trkpt>
      <trkpt lat="48.5415" lon="-2.96359">
        <ele>35</ele>
        <time>2013-12-02T15:35:10.1Z</time>
      </trkpt>
      <trkpt lat="48.54148" lon="-2.96355">
        <ele>35</ele>
        <time>2013-12-02T15:35:13.1Z</time>
      </trkpt>
      <trkpt lat="48.54147" lon="-2.96352">
        <ele>35</ele>
        <time>2013-12-02T15:35:15.1Z</time>
      </trkpt>
      <trkpt lat="48.54146" lon="-2.96349">
        <ele>35</ele>
        <time>2013-12-02T15:35:17.1Z</time>
      </trkpt>
      <trkpt lat="48.54145" lon="-2.96345">
        <ele>35</ele>
        <time>2013-12-02T15:35:20.1Z</time>
      </trkpt>
      <trkpt lat="48.54144" lon="-2.96342">
        <ele>36</ele>
        <time>2013-12-02T15:35:22.1Z</time>
      </trkpt>
      <trkpt lat="48.54142" lon="-2.96337">
        <ele>36</ele>
        <time>2013-12-02T15:35:25.1Z</time>
      </trkpt>
      <trkpt lat="48.54142" lon="-2.96334">
        <ele>36</ele>
        <time>2013-12-02T15:35:27.1Z</time>
      </trkpt>
      <trkpt lat="48.54142" lon="-2.96331">
        <ele>36</ele>
        <time>2013-12-02T15:35:29.1Z</time>
      </trkpt>
      <trkpt lat="48.54141" lon="-2.96328">
        <ele>36</ele>
        <time>2013-12-02T15:35:31.1Z</time>
      </trkpt>
      <trkpt lat="48.5414" lon="-2.96323">
        <ele>36</ele>
        <time>2013-12-02T15:35:33.1Z</time>
      </trkpt>
      <trkpt lat="48.54139" lon="-2.9632">
        <ele>36</ele>
        <time>2013-12-02T15:35:36.1Z</time>
      </trkpt>
      <trkpt lat="48.54138" lon="-2.96316">
        <ele>37</ele>
        <time>2013-12-02T15:35:38.1Z</time>
      </trkpt>
      <trkpt lat="48.54137" lon="-2.96312">
        <ele>36</ele>
        <time>2013-12-02T15:35:41.1Z</time>
      </trkpt>
      <trkpt lat="48.54136" lon="-2.96308">
        <ele>36</ele>
        <time>2013-12-02T15:35:44.1Z</time>
      </trkpt>
      <trkpt lat="48.54134" lon="-2.96304">
        <ele>37</ele>
        <time>2013-12-02T15:35:47.1Z</time>
      </trkpt>
      <trkpt lat="48.54133" lon="-2.96302">
        <ele>37</ele>
        <time>2013-12-02T15:35:49.1Z</time>
      </trkpt>
      <trkpt lat="48.54132" lon="-2.96299">
        <ele>37</ele>
        <time>2013-12-02T15:35:51.1Z</time>
      </trkpt>
      <trkpt lat="48.54131" lon="-2.96295">
        <ele>37</ele>
        <time>2013-12-02T15:35:54.1Z</time>
      </trkpt>
      <trkpt lat="48.5413" lon="-2.96291">
        <ele>37</ele>
        <time>2013-12-02T15:35:57.1Z</time>
      </trkpt>
      <trkpt lat="48.54129" lon="-2.96287">
        <ele>37</ele>
        <time>2013-12-02T15:35:59.1Z</time>
      </trkpt>
      <trkpt lat="48.54128" lon="-2.96284">
        <ele>38</ele>
        <time>2013-12-02T15:36:02.1Z</time>
      </trkpt>
      <trkpt lat="48.54127" lon="-2.96282">
        <ele>38</ele>
        <time>2013-12-02T15:36:04.1Z</time>
      </trkpt>
      <trkpt lat="48.54126" lon="-2.96278">
        <ele>38</ele>
        <time>2013-12-02T15:36:06.1Z</time>
      </trkpt>
      <trkpt lat="48.54124" lon="-2.96274">
        <ele>38</ele>
        <time>2013-12-02T15:36:10.1Z</time>
      </trkpt>
      <trkpt lat="48.54123" lon="-2.9627">
        <ele>38</ele>
        <time>2013-12-02T15:36:13.1Z</time>
      </trkpt>
      <trkpt lat="48.54121" lon="-2.96266">
        <ele>39</ele>
        <time>2013-12-02T15:36:15.1Z</time>
      </trkpt>
      <trkpt lat="48.5412" lon="-2.96263">
        <ele>39</ele>
        <time>2013-12-02T15:36:17.1Z</time>
      </trkpt>
      <trkpt lat="48.54118" lon="-2.96261">
        <ele>39</ele>
        <time>2013-12-02T15:36:20.1Z</time>
      </trkpt>
      <trkpt lat="48.54117" lon="-2.96256">
        <ele>39</ele>
        <time>2013-12-02T15:36:23.1Z</time>
      </trkpt>
      <trkpt lat="48.54116" lon="-2.96253">
        <ele>39</ele>
        <time>2013-12-02T15:36:25.1Z</time>
      </trkpt>
      <trkpt lat="48.54115" lon="-2.96248">
        <ele>39</ele>
        <time>2013-12-02T15:36:27.1Z</time>
      </trkpt>
      <trkpt lat="48.54114" lon="-2.96245">
        <ele>39</ele>
        <time>2013-12-02T15:36:30.1Z</time>
      </trkpt>
      <trkpt lat="48.54113" lon="-2.96241">
        <ele>40</ele>
        <time>2013-12-02T15:36:32.1Z</time>
      </trkpt>
      <trkpt lat="48.54113" lon="-2.96236">
        <ele>40</ele>
        <time>2013-12-02T15:36:35.1Z</time>
      </trkpt>
      <trkpt lat="48.54113" lon="-2.96231">
        <ele>40</ele>
        <time>2013-12-02T15:36:38.1Z</time>
      </trkpt>
      <trkpt lat="48.54112" lon="-2.96226">
        <ele>40</ele>
        <time>2013-12-02T15:36:40.1Z</time>
      </trkpt>
      <trkpt lat="48.54112" lon="-2.96223">
        <ele>40</ele>
        <time>2013-12-02T15:36:42.1Z</time>
      </trkpt>
      <trkpt lat="48.54111" lon="-2.96219">
        <ele>40</ele>
        <time>2013-12-02T15:36:44.1Z</time>
      </trkpt>
      <trkpt lat="48.54111" lon="-2.96217">
        <ele>41</ele>
        <time>2013-12-02T15:36:46.1Z</time>
      </trkpt>
      <trkpt lat="48.54112" lon="-2.96214">
        <ele>41</ele>
        <time>2013-12-02T15:36:48.1Z</time>
      </trkpt>
      <trkpt lat="48.54111" lon="-2.96211">
        <ele>41</ele>
        <time>2013-12-02T15:36:51.1Z</time>
      </trkpt>
      <trkpt lat="48.54111" lon="-2.96207">
        <ele>41</ele>
        <time>2013-12-02T15:36:54.1Z</time>
      </trkpt>
      <trkpt lat="48.54112" lon="-2.96202">
        <ele>41</ele>
        <time>2013-12-02T15:36:57.1Z</time>
      </trkpt>
      <trkpt lat="48.54113" lon="-2.96199">
        <ele>41</ele>
        <time>2013-12-02T15:36:59.1Z</time>
      </trkpt>
      <trkpt lat="48.54113" lon="-2.96196">
        <ele>41</ele>
        <time>2013-12-02T15:37:01.1Z</time>
      </trkpt>
      <trkpt lat="48.54113" lon="-2.96193">
        <ele>41</ele>
        <time>2013-12-02T15:37:03.1Z</time>
      </trkpt>
      <trkpt lat="48.54115" lon="-2.96189">
        <ele>41</ele>
        <time>2013-12-02T15:37:05.1Z</time>
      </trkpt>
      <trkpt lat="48.54116" lon="-2.96186">
        <ele>42</ele>
        <time>2013-12-02T15:37:08.1Z</time>
      </trkpt>
      <trkpt lat="48.54117" lon="-2.96184">
        <ele>42</ele>
        <time>2013-12-02T15:37:10.1Z</time>
      </trkpt>
      <trkpt lat="48.54118" lon="-2.96179">
        <ele>42</ele>
        <time>2013-12-02T15:37:13.1Z</time>
      </trkpt>
      <trkpt lat="48.54119" lon="-2.96174">
        <ele>42</ele>
        <time>2013-12-02T15:37:16.1Z</time>
      </trkpt>
      <trkpt lat="48.54119" lon="-2.96169">
        <ele>42</ele>
        <time>2013-12-02T15:37:18.1Z</time>
      </trkpt>
      <trkpt lat="48.54119" lon="-2.96166">
        <ele>42</ele>
        <time>2013-12-02T15:37:20.1Z</time>
      </trkpt>
      <trkpt lat="48.54119" lon="-2.96162">
        <ele>42</ele>
        <time>2013-12-02T15:37:23.1Z</time>
      </trkpt>
      <trkpt lat="48.54119" lon="-2.96158">
        <ele>41</ele>
        <time>2013-12-02T15:37:25.1Z</time>
      </trkpt>
      <trkpt lat="48.54119" lon="-2.96155">
        <ele>41</ele>
        <time>2013-12-02T15:37:27.1Z</time>
      </trkpt>
      <trkpt lat="48.5412" lon="-2.96152">
        <ele>41</ele>
        <time>2013-12-02T15:37:29.1Z</time>
      </trkpt>
      <trkpt lat="48.54121" lon="-2.96146">
        <ele>41</ele>
        <time>2013-12-02T15:37:32.1Z</time>
      </trkpt>
      <trkpt lat="48.5412" lon="-2.96141">
        <ele>41</ele>
        <time>2013-12-02T15:37:35.1Z</time>
      </trkpt>
      <trkpt lat="48.54119" lon="-2.96135">
        <ele>41</ele>
        <time>2013-12-02T15:37:37.1Z</time>
      </trkpt>
      <trkpt lat="48.54119" lon="-2.96132">
        <ele>41</ele>
        <time>2013-12-02T15:37:40.1Z</time>
      </trkpt>
      <trkpt lat="48.54119" lon="-2.96127">
        <ele>41</ele>
        <time>2013-12-02T15:37:42.1Z</time>
      </trkpt>
      <trkpt lat="48.54119" lon="-2.96123">
        <ele>41</ele>
        <time>2013-12-02T15:37:44.1Z</time>
      </trkpt>
      <trkpt lat="48.54119" lon="-2.9612">
        <ele>41</ele>
        <time>2013-12-02T15:37:47.1Z</time>
      </trkpt>
      <trkpt lat="48.54119" lon="-2.96114">
        <ele>41</ele>
        <time>2013-12-02T15:37:49.1Z</time>
      </trkpt>
      <trkpt lat="48.54119" lon="-2.96111">
        <ele>41</ele>
        <time>2013-12-02T15:37:52.1Z</time>
      </trkpt>
      <trkpt lat="48.5412" lon="-2.96106">
        <ele>41</ele>
        <time>2013-12-02T15:37:54.1Z</time>
      </trkpt>
      <trkpt lat="48.5412" lon="-2.96101">
        <ele>40</ele>
        <time>2013-12-02T15:37:58.1Z</time>
      </trkpt>
      <trkpt lat="48.54121" lon="-2.96096">
        <ele>40</ele>
        <time>2013-12-02T15:38:01.1Z</time>
      </trkpt>
      <trkpt lat="48.54121" lon="-2.96091">
        <ele>40</ele>
        <time>2013-12-02T15:38:03.1Z</time>
      </trkpt>
      <trkpt lat="48.54122" lon="-2.96087">
        <ele>40</ele>
        <time>2013-12-02T15:38:05.1Z</time>
      </trkpt>
      <trkpt lat="48.54122" lon="-2.96083">
        <ele>40</ele>
        <time>2013-12-02T15:38:07.1Z</time>
      </trkpt>
      <trkpt lat="48.54123" lon="-2.9608">
        <ele>40</ele>
        <time>2013-12-02T15:38:09.1Z</time>
      </trkpt>
      <trkpt lat="48.54123" lon="-2.96077">
        <ele>40</ele>
        <time>2013-12-02T15:38:12.1Z</time>
      </trkpt>
      <trkpt lat="48.54124" lon="-2.96072">
        <ele>40</ele>
        <time>2013-12-02T15:38:14.1Z</time>
      </trkpt>
      <trkpt lat="48.54125" lon="-2.96069">
        <ele>40</ele>
        <time>2013-12-02T15:38:17.1Z</time>
      </trkpt>
      <trkpt lat="48.54126" lon="-2.96063">
        <ele>40</ele>
        <time>2013-12-02T15:38:19.1Z</time>
      </trkpt>
      <trkpt lat="48.54126" lon="-2.9606">
        <ele>40</ele>
        <time>2013-12-02T15:38:21.1Z</time>
      </trkpt>
      <trkpt lat="48.54127" lon="-2.96057">
        <ele>40</ele>
        <time>2013-12-02T15:38:23.1Z</time>
      </trkpt>
      <trkpt lat="48.54128" lon="-2.96055">
        <ele>40</ele>
        <time>2013-12-02T15:38:25.1Z</time>
      </trkpt>
      <trkpt lat="48.54128" lon="-2.96052">
        <ele>39</ele>
        <time>2013-12-02T15:38:27.1Z</time>
      </trkpt>
      <trkpt lat="48.54129" lon="-2.96048">
        <ele>39</ele>
        <time>2013-12-02T15:38:29.1Z</time>
      </trkpt>
      <trkpt lat="48.5413" lon="-2.96044">
        <ele>39</ele>
        <time>2013-12-02T15:38:32.1Z</time>
      </trkpt>
      <trkpt lat="48.54131" lon="-2.96041">
        <ele>39</ele>
        <time>2013-12-02T15:38:35.1Z</time>
      </trkpt>
      <trkpt lat="48.54131" lon="-2.96037">
        <ele>39</ele>
        <time>2013-12-02T15:38:37.1Z</time>
      </trkpt>
      <trkpt lat="48.54131" lon="-2.96033">
        <ele>39</ele>
        <time>2013-12-02T15:38:39.1Z</time>
      </trkpt>
      <trkpt lat="48.54132" lon="-2.9603">
        <ele>40</ele>
        <time>2013-12-02T15:38:42.1Z</time>
      </trkpt>
      <trkpt lat="48.54132" lon="-2.96025">
        <ele>40</ele>
        <time>2013-12-02T15:38:44.1Z</time>
      </trkpt>
      <trkpt lat="48.54133" lon="-2.96022">
        <ele>40</ele>
        <time>2013-12-02T15:38:46.1Z</time>
      </trkpt>
      <trkpt lat="48.54134" lon="-2.96019">
        <ele>40</ele>
        <time>2013-12-02T15:38:49.1Z</time>
      </trkpt>
      <trkpt lat="48.54134" lon="-2.96014">
        <ele>40</ele>
        <time>2013-12-02T15:38:52.1Z</time>
      </trkpt>
      <trkpt lat="48.54135" lon="-2.96011">
        <ele>40</ele>
        <time>2013-12-02T15:38:54.1Z</time>
      </trkpt>
      <trkpt lat="48.54135" lon="-2.9601">
        <ele>40</ele>
        <time>2013-12-02T15:38:58.1Z</time>
      </trkpt>
      <trkpt lat="48.54134" lon="-2.96009">
        <ele>40</ele>
        <time>2013-12-02T15:39:00.1Z</time>
      </trkpt>
      <trkpt lat="48.54134" lon="-2.96009">
        <ele>40</ele>
        <time>2013-12-02T15:39:03.1Z</time>
      </trkpt>
      <trkpt lat="48.54134" lon="-2.96007">
        <ele>40</ele>
        <time>2013-12-02T15:39:05.1Z</time>
      </trkpt>
      <trkpt lat="48.54134" lon="-2.96007">
        <ele>40</ele>
        <time>2013-12-02T15:39:08.1Z</time>
      </trkpt>
      <trkpt lat="48.54134" lon="-2.96007">
        <ele>40</ele>
        <time>2013-12-02T15:39:10.1Z</time>
      </trkpt>
      <trkpt lat="48.54134" lon="-2.96006">
        <ele>40</ele>
        <time>2013-12-02T15:39:12.1Z</time>
      </trkpt>
      <trkpt lat="48.54134" lon="-2.96006">
        <ele>40</ele>
        <time>2013-12-02T15:39:15.1Z</time>
      </trkpt>
      <trkpt lat="48.54133" lon="-2.96006">
        <ele>39</ele>
        <time>2013-12-02T15:39:18.1Z</time>
      </trkpt>
      <trkpt lat="48.54133" lon="-2.96006">
        <ele>40</ele>
        <time>2013-12-02T15:39:21.1Z</time>
      </trkpt>
      <trkpt lat="48.54133" lon="-2.96006">
        <ele>40</ele>
        <time>2013-12-02T15:39:23.1Z</time>
      </trkpt>
      <trkpt lat="48.54133" lon="-2.96006">
        <ele>40</ele>
        <time>2013-12-02T15:39:27.1Z</time>
      </trkpt>
      <trkpt lat="48.54134" lon="-2.96005">
        <ele>40</ele>
        <time>2013-12-02T15:39:29.1Z</time>
      </trkpt>
      <trkpt lat="48.54134" lon="-2.96005">
        <ele>40</ele>
        <time>2013-12-02T15:39:32.1Z</time>
      </trkpt>
      <trkpt lat="48.54134" lon="-2.96005">
        <ele>40</ele>
        <time>2013-12-02T15:39:35.1Z</time>
      </trkpt>
      <trkpt lat="48.54134" lon="-2.96004">
        <ele>40</ele>
        <time>2013-12-02T15:39:37.1Z</time>
      </trkpt>
      <trkpt lat="48.54134" lon="-2.96004">
        <ele>40</ele>
        <time>2013-12-02T15:39:39.1Z</time>
      </trkpt>
      <trkpt lat="48.54134" lon="-2.96004">
        <ele>40</ele>
        <time>2013-12-02T15:39:41.1Z</time>
      </trkpt>
      <trkpt lat="48.54134" lon="-2.96002">
        <ele>40</ele>
        <time>2013-12-02T15:39:43.1Z</time>
      </trkpt>
      <trkpt lat="48.54134" lon="-2.95997">
        <ele>40</ele>
        <time>2013-12-02T15:39:47.1Z</time>
      </trkpt>
      <trkpt lat="48.54133" lon="-2.95992">
        <ele>40</ele>
        <time>2013-12-02T15:39:49.1Z</time>
      </trkpt>
      <trkpt lat="48.54133" lon="-2.95988">
        <ele>40</ele>
        <time>2013-12-02T15:39:52.1Z</time>
      </trkpt>
      <trkpt lat="48.54133" lon="-2.95986">
        <ele>40</ele>
        <time>2013-12-02T15:39:54.1Z</time>
      </trkpt>
      <trkpt lat="48.54133" lon="-2.95982">
        <ele>39</ele>
        <time>2013-12-02T15:39:56.1Z</time>
      </trkpt>
      <trkpt lat="48.54134" lon="-2.95979">
        <ele>39</ele>
        <time>2013-12-02T15:39:58.1Z</time>
      </trkpt>
      <trkpt lat="48.54134" lon="-2.95976">
        <ele>39</ele>
        <time>2013-12-02T15:40:00.1Z</time>
      </trkpt>
      <trkpt lat="48.54134" lon="-2.95973">
        <ele>39</ele>
        <time>2013-12-02T15:40:03.1Z</time>
      </trkpt>
      <trkpt lat="48.54135" lon="-2.95969">
        <ele>39</ele>
        <time>2013-12-02T15:40:05.1Z</time>
      </trkpt>
      <trkpt lat="48.54135" lon="-2.95964">
        <ele>39</ele>
        <time>2013-12-02T15:40:09.1Z</time>
      </trkpt>
      <trkpt lat="48.54136" lon="-2.95959">
        <ele>39</ele>
        <time>2013-12-02T15:40:11.1Z</time>
      </trkpt>
      <trkpt lat="48.54136" lon="-2.95955">
        <ele>39</ele>
        <time>2013-12-02T15:40:13.1Z</time>
      </trkpt>
      <trkpt lat="48.54136" lon="-2.95952">
        <ele>39</ele>
        <time>2013-12-02T15:40:16.1Z</time>
      </trkpt>
      <trkpt lat="48.54136" lon="-2.95948">
        <ele>38</ele>
        <time>2013-12-02T15:40:18.1Z</time>
      </trkpt>
      <trkpt lat="48.54136" lon="-2.95942">
        <ele>38</ele>
        <time>2013-12-02T15:40:21.1Z</time>
      </trkpt>
      <trkpt lat="48.54136" lon="-2.95939">
        <ele>38</ele>
        <time>2013-12-02T15:40:24.1Z</time>
      </trkpt>
      <trkpt lat="48.54137" lon="-2.95933">
        <ele>38</ele>
        <time>2013-12-02T15:40:26.1Z</time>
      </trkpt>
      <trkpt lat="48.54137" lon="-2.9593">
        <ele>38</ele>
        <time>2013-12-02T15:40:29.1Z</time>
      </trkpt>
      <trkpt lat="48.54138" lon="-2.95924">
        <ele>38</ele>
        <time>2013-12-02T15:40:31.1Z</time>
      </trkpt>
      <trkpt lat="48.54138" lon="-2.9592">
        <ele>38</ele>
        <time>2013-12-02T15:40:33.1Z</time>
      </trkpt>
      <trkpt lat="48.54139" lon="-2.95916">
        <ele>38</ele>
        <time>2013-12-02T15:40:35.1Z</time>
      </trkpt>
      <trkpt lat="48.54139" lon="-2.95913">
        <ele>38</ele>
        <time>2013-12-02T15:40:38.1Z</time>
      </trkpt>
      <trkpt lat="48.54139" lon="-2.95907">
        <ele>38</ele>
        <time>2013-12-02T15:40:41.1Z</time>
      </trkpt>
      <trkpt lat="48.54139" lon="-2.95903">
        <ele>37</ele>
        <time>2013-12-02T15:40:43.1Z</time>
      </trkpt>
      <trkpt lat="48.54139" lon="-2.95898">
        <ele>37</ele>
        <time>2013-12-02T15:40:46.1Z</time>
      </trkpt>
      <trkpt lat="48.5414" lon="-2.95893">
        <ele>37</ele>
        <time>2013-12-02T15:40:48.1Z</time>
      </trkpt>
      <trkpt lat="48.5414" lon="-2.95889">
        <ele>37</ele>
        <time>2013-12-02T15:40:50.1Z</time>
      </trkpt>
      <trkpt lat="48.5414" lon="-2.95886">
        <ele>38</ele>
        <time>2013-12-02T15:40:52.1Z</time>
      </trkpt>
      <trkpt lat="48.54141" lon="-2.95883">
        <ele>37</ele>
        <time>2013-12-02T15:40:54.1Z</time>
      </trkpt>
      <trkpt lat="48.54142" lon="-2.95879">
        <ele>37</ele>
        <time>2013-12-02T15:40:57.1Z</time>
      </trkpt>
      <trkpt lat="48.54142" lon="-2.95873">
        <ele>37</ele>
        <time>2013-12-02T15:40:59.1Z</time>
      </trkpt>
      <trkpt lat="48.54143" lon="-2.95869">
        <ele>37</ele>
        <time>2013-12-02T15:41:03.1Z</time>
      </trkpt>
      <trkpt lat="48.54143" lon="-2.95863">
        <ele>37</ele>
        <time>2013-12-02T15:41:05.1Z</time>
      </trkpt>
      <trkpt lat="48.54143" lon="-2.95858">
        <ele>37</ele>
        <time>2013-12-02T15:41:09.1Z</time>
      </trkpt>
      <trkpt lat="48.54143" lon="-2.95852">
        <ele>37</ele>
        <time>2013-12-02T15:41:11.1Z</time>
      </trkpt>
      <trkpt lat="48.54143" lon="-2.95849">
        <ele>37</ele>
        <time>2013-12-02T15:41:13.1Z</time>
      </trkpt>
      <trkpt lat="48.54143" lon="-2.95843">
        <ele>37</ele>
        <time>2013-12-02T15:41:17.1Z</time>
      </trkpt>
      <trkpt lat="48.54143" lon="-2.95838">
        <ele>37</ele>
        <time>2013-12-02T15:41:19.1Z</time>
      </trkpt>
      <trkpt lat="48.54144" lon="-2.95834">
        <ele>37</ele>
        <time>2013-12-02T15:41:21.1Z</time>
      </trkpt>
      <trkpt lat="48.54144" lon="-2.95831">
        <ele>37</ele>
        <time>2013-12-02T15:41:24.1Z</time>
      </trkpt>
      <trkpt lat="48.54144" lon="-2.95825">
        <ele>37</ele>
        <time>2013-12-02T15:41:26.1Z</time>
      </trkpt>
      <trkpt lat="48.54145" lon="-2.95819">
        <ele>37</ele>
        <time>2013-12-02T15:41:29.1Z</time>
      </trkpt>
      <trkpt lat="48.54145" lon="-2.95815">
        <ele>37</ele>
        <time>2013-12-02T15:41:31.1Z</time>
      </trkpt>
      <trkpt lat="48.54145" lon="-2.95811">
        <ele>37</ele>
        <time>2013-12-02T15:41:33.1Z</time>
      </trkpt>
      <trkpt lat="48.54146" lon="-2.95807">
        <ele>37</ele>
        <time>2013-12-02T15:41:36.1Z</time>
      </trkpt>
      <trkpt lat="48.54146" lon="-2.95804">
        <ele>37</ele>
        <time>2013-12-02T15:41:38.1Z</time>
      </trkpt>
      <trkpt lat="48.54147" lon="-2.95798">
        <ele>36</ele>
        <time>2013-12-02T15:41:40.1Z</time>
      </trkpt>
      <trkpt lat="48.54147" lon="-2.95793">
        <ele>36</ele>
        <time>2013-12-02T15:41:43.1Z</time>
      </trkpt>
      <trkpt lat="48.54147" lon="-2.95789">
        <ele>37</ele>
        <time>2013-12-02T15:41:46.1Z</time>
      </trkpt>
      <trkpt lat="48.54148" lon="-2.95786">
        <ele>37</ele>
        <time>2013-12-02T15:41:48.1Z</time>
      </trkpt>
      <trkpt lat="48.54148" lon="-2.9578">
        <ele>37</ele>
        <time>2013-12-02T15:41:50.1Z</time>
      </trkpt>
      <trkpt lat="48.54148" lon="-2.95777">
        <ele>36</ele>
        <time>2013-12-02T15:41:53.1Z</time>
      </trkpt>
      <trkpt lat="48.54149" lon="-2.95771">
        <ele>36</ele>
        <time>2013-12-02T15:41:55.1Z</time>
      </trkpt>
      <trkpt lat="48.54148" lon="-2.95765">
        <ele>36</ele>
        <time>2013-12-02T15:41:59.1Z</time>
      </trkpt>
      <trkpt lat="48.54148" lon="-2.95759">
        <ele>36</ele>
        <time>2013-12-02T15:42:01.1Z</time>
      </trkpt>
      <trkpt lat="48.54148" lon="-2.95755">
        <ele>36</ele>
        <time>2013-12-02T15:42:03.1Z</time>
      </trkpt>
      <trkpt lat="48.54148" lon="-2.95751">
        <ele>36</ele>
        <time>2013-12-02T15:42:05.1Z</time>
      </trkpt>
      <trkpt lat="48.54149" lon="-2.95746">
        <ele>36</ele>
        <time>2013-12-02T15:42:08.1Z</time>
      </trkpt>
      <trkpt lat="48.54148" lon="-2.95741">
        <ele>37</ele>
        <time>2013-12-02T15:42:12.1Z</time>
      </trkpt>
      <trkpt lat="48.54148" lon="-2.95737">
        <ele>37</ele>
        <time>2013-12-02T15:42:14.1Z</time>
      </trkpt>
      <trkpt lat="48.54149" lon="-2.95731">
        <ele>36</ele>
        <time>2013-12-02T15:42:17.1Z</time>
      </trkpt>
      <trkpt lat="48.54149" lon="-2.95728">
        <ele>37</ele>
        <time>2013-12-02T15:42:20.1Z</time>
      </trkpt>
      <trkpt lat="48.5415" lon="-2.95723">
        <ele>36</ele>
        <time>2013-12-02T15:42:22.1Z</time>
      </trkpt>
      <trkpt lat="48.54149" lon="-2.95719">
        <ele>36</ele>
        <time>2013-12-02T15:42:25.1Z</time>
      </trkpt>
      <trkpt lat="48.5415" lon="-2.95715">
        <ele>37</ele>
        <time>2013-12-02T15:42:28.1Z</time>
      </trkpt>
      <trkpt lat="48.54151" lon="-2.9571">
        <ele>37</ele>
        <time>2013-12-02T15:42:30.1Z</time>
      </trkpt>
      <trkpt lat="48.54152" lon="-2.95706">
        <ele>36</ele>
        <time>2013-12-02T15:42:33.1Z</time>
      </trkpt>
      <trkpt lat="48.54153" lon="-2.95703">
        <ele>37</ele>
        <time>2013-12-02T15:42:36.1Z</time>
      </trkpt>
      <trkpt lat="48.54153" lon="-2.95698">
        <ele>37</ele>
        <time>2013-12-02T15:42:38.1Z</time>
      </trkpt>
      <trkpt lat="48.54154" lon="-2.95694">
        <ele>37</ele>
        <time>2013-12-02T15:42:41.1Z</time>
      </trkpt>
      <trkpt lat="48.54155" lon="-2.9569">
        <ele>37</ele>
        <time>2013-12-02T15:42:43.1Z</time>
      </trkpt>
      <trkpt lat="48.54156" lon="-2.95687">
        <ele>37</ele>
        <time>2013-12-02T15:42:45.1Z</time>
      </trkpt>
      <trkpt lat="48.54157" lon="-2.95682">
        <ele>37</ele>
        <time>2013-12-02T15:42:48.1Z</time>
      </trkpt>
      <trkpt lat="48.54158" lon="-2.95678">
        <ele>37</ele>
        <time>2013-12-02T15:42:50.1Z</time>
      </trkpt>
      <trkpt lat="48.54158" lon="-2.95675">
        <ele>37</ele>
        <time>2013-12-02T15:42:53.1Z</time>
      </trkpt>
      <trkpt lat="48.5416" lon="-2.9567">
        <ele>37</ele>
        <time>2013-12-02T15:42:56.1Z</time>
      </trkpt>
      <trkpt lat="48.54161" lon="-2.95665">
        <ele>37</ele>
        <time>2013-12-02T15:42:58.1Z</time>
      </trkpt>
      <trkpt lat="48.54162" lon="-2.95662">
        <ele>37</ele>
        <time>2013-12-02T15:43:00.1Z</time>
      </trkpt>
      <trkpt lat="48.54162" lon="-2.95659">
        <ele>37</ele>
        <time>2013-12-02T15:43:02.1Z</time>
      </trkpt>
      <trkpt lat="48.54163" lon="-2.95654">
        <ele>37</ele>
        <time>2013-12-02T15:43:05.1Z</time>
      </trkpt>
      <trkpt lat="48.54165" lon="-2.95649">
        <ele>37</ele>
        <time>2013-12-02T15:43:08.1Z</time>
      </trkpt>
      <trkpt lat="48.54166" lon="-2.95645">
        <ele>37</ele>
        <time>2013-12-02T15:43:11.1Z</time>
      </trkpt>
      <trkpt lat="48.54167" lon="-2.9564">
        <ele>37</ele>
        <time>2013-12-02T15:43:13.1Z</time>
      </trkpt>
      <trkpt lat="48.54168" lon="-2.95637">
        <ele>37</ele>
        <time>2013-12-02T15:43:15.1Z</time>
      </trkpt>
      <trkpt lat="48.54169" lon="-2.95632">
        <ele>37</ele>
        <time>2013-12-02T15:43:18.1Z</time>
      </trkpt>
      <trkpt lat="48.54171" lon="-2.95628">
        <ele>37</ele>
        <time>2013-12-02T15:43:20.1Z</time>
      </trkpt>
      <trkpt lat="48.54172" lon="-2.95624">
        <ele>37</ele>
        <time>2013-12-02T15:43:22.1Z</time>
      </trkpt>
      <trkpt lat="48.54174" lon="-2.95619">
        <ele>37</ele>
        <time>2013-12-02T15:43:25.1Z</time>
      </trkpt>
      <trkpt lat="48.54176" lon="-2.95614">
        <ele>37</ele>
        <time>2013-12-02T15:43:28.1Z</time>
      </trkpt>
      <trkpt lat="48.54177" lon="-2.95611">
        <ele>37</ele>
        <time>2013-12-02T15:43:30.1Z</time>
      </trkpt>
      <trkpt lat="48.54179" lon="-2.95608">
        <ele>37</ele>
        <time>2013-12-02T15:43:33.1Z</time>
      </trkpt>
      <trkpt lat="48.54181" lon="-2.95606">
        <ele>37</ele>
        <time>2013-12-02T15:43:35.1Z</time>
      </trkpt>
      <trkpt lat="48.54182" lon="-2.95603">
        <ele>37</ele>
        <time>2013-12-02T15:43:37.1Z</time>
      </trkpt>
      <trkpt lat="48.54185" lon="-2.956">
        <ele>37</ele>
        <time>2013-12-02T15:43:39.1Z</time>
      </trkpt>
      <trkpt lat="48.54187" lon="-2.95598">
        <ele>37</ele>
        <time>2013-12-02T15:43:41.1Z</time>
      </trkpt>
      <trkpt lat="48.5419" lon="-2.95595">
        <ele>37</ele>
        <time>2013-12-02T15:43:44.1Z</time>
      </trkpt>
      <trkpt lat="48.54192" lon="-2.95593">
        <ele>37</ele>
        <time>2013-12-02T15:43:46.1Z</time>
      </trkpt>
      <trkpt lat="48.54194" lon="-2.95589">
        <ele>37</ele>
        <time>2013-12-02T15:43:49.1Z</time>
      </trkpt>
      <trkpt lat="48.54196" lon="-2.95586">
        <ele>37</ele>
        <time>2013-12-02T15:43:51.1Z</time>
      </trkpt>
      <trkpt lat="48.54197" lon="-2.95583">
        <ele>37</ele>
        <time>2013-12-02T15:43:53.1Z</time>
      </trkpt>
      <trkpt lat="48.54199" lon="-2.95579">
        <ele>37</ele>
        <time>2013-12-02T15:43:57.1Z</time>
      </trkpt>
      <trkpt lat="48.542" lon="-2.95573">
        <ele>37</ele>
        <time>2013-12-02T15:43:59.1Z</time>
      </trkpt>
      <trkpt lat="48.54201" lon="-2.9557">
        <ele>37</ele>
        <time>2013-12-02T15:44:01.1Z</time>
      </trkpt>
      <trkpt lat="48.54203" lon="-2.95565">
        <ele>37</ele>
        <time>2013-12-02T15:44:04.1Z</time>
      </trkpt>
      <trkpt lat="48.54203" lon="-2.95561">
        <ele>38</ele>
        <time>2013-12-02T15:44:07.1Z</time>
      </trkpt>
      <trkpt lat="48.54204" lon="-2.95557">
        <ele>37</ele>
        <time>2013-12-02T15:44:09.1Z</time>
      </trkpt>
      <trkpt lat="48.54205" lon="-2.95552">
        <ele>37</ele>
        <time>2013-12-02T15:44:11.1Z</time>
      </trkpt>
      <trkpt lat="48.54205" lon="-2.95547">
        <ele>37</ele>
        <time>2013-12-02T15:44:15.1Z</time>
      </trkpt>
      <trkpt lat="48.54206" lon="-2.95543">
        <ele>37</ele>
        <time>2013-12-02T15:44:17.1Z</time>
      </trkpt>
      <trkpt lat="48.54207" lon="-2.95538">
        <ele>38</ele>
        <time>2013-12-02T15:44:19.1Z</time>
      </trkpt>
      <trkpt lat="48.54207" lon="-2.95533">
        <ele>38</ele>
        <time>2013-12-02T15:44:23.1Z</time>
      </trkpt>
      <trkpt lat="48.54208" lon="-2.95527">
        <ele>38</ele>
        <time>2013-12-02T15:44:25.1Z</time>
      </trkpt>
      <trkpt lat="48.54208" lon="-2.95522">
        <ele>37</ele>
        <time>2013-12-02T15:44:29.1Z</time>
      </trkpt>
      <trkpt lat="48.54209" lon="-2.95517">
        <ele>38</ele>
        <time>2013-12-02T15:44:31.1Z</time>
      </trkpt>
      <trkpt lat="48.5421" lon="-2.95514">
        <ele>38</ele>
        <time>2013-12-02T15:44:33.1Z</time>
      </trkpt>
      <trkpt lat="48.54211" lon="-2.9551">
        <ele>38</ele>
        <time>2013-12-02T15:44:36.1Z</time>
      </trkpt>
      <trkpt lat="48.54211" lon="-2.95508">
        <ele>38</ele>
        <time>2013-12-02T15:44:38.1Z</time>
      </trkpt>
      <trkpt lat="48.54212" lon="-2.95503">
        <ele>38</ele>
        <time>2013-12-02T15:44:40.1Z</time>
      </trkpt>
      <trkpt lat="48.54213" lon="-2.955">
        <ele>38</ele>
        <time>2013-12-02T15:44:43.1Z</time>
      </trkpt>
      <trkpt lat="48.54214" lon="-2.95495">
        <ele>38</ele>
        <time>2013-12-02T15:44:46.1Z</time>
      </trkpt>
      <trkpt lat="48.54214" lon="-2.95491">
        <ele>38</ele>
        <time>2013-12-02T15:44:48.1Z</time>
      </trkpt>
      <trkpt lat="48.54215" lon="-2.95487">
        <ele>38</ele>
        <time>2013-12-02T15:44:50.1Z</time>
      </trkpt>
      <trkpt lat="48.54216" lon="-2.95482">
        <ele>38</ele>
        <time>2013-12-02T15:44:52.1Z</time>
      </trkpt>
      <trkpt lat="48.54218" lon="-2.95478">
        <ele>39</ele>
        <time>2013-12-02T15:44:55.1Z</time>
      </trkpt>
      <trkpt lat="48.54219" lon="-2.95474">
        <ele>38</ele>
        <time>2013-12-02T15:44:58.1Z</time>
      </trkpt>
      <trkpt lat="48.5422" lon="-2.95468">
        <ele>38</ele>
        <time>2013-12-02T15:45:00.1Z</time>
      </trkpt>
      <trkpt lat="48.54221" lon="-2.95465">
        <ele>38</ele>
        <time>2013-12-02T15:45:02.1Z</time>
      </trkpt>
      <trkpt lat="48.54221" lon="-2.95462">
        <ele>38</ele>
        <time>2013-12-02T15:45:04.1Z</time>
      </trkpt>
      <trkpt lat="48.54222" lon="-2.95459">
        <ele>38</ele>
        <time>2013-12-02T15:45:06.1Z</time>
      </trkpt>
      <trkpt lat="48.54223" lon="-2.95455">
        <ele>39</ele>
        <time>2013-12-02T15:45:08.1Z</time>
      </trkpt>
      <trkpt lat="48.54224" lon="-2.95451">
        <ele>39</ele>
        <time>2013-12-02T15:45:10.1Z</time>
      </trkpt>
      <trkpt lat="48.54225" lon="-2.95448">
        <ele>39</ele>
        <time>2013-12-02T15:45:12.1Z</time>
      </trkpt>
      <trkpt lat="48.54226" lon="-2.95444">
        <ele>39</ele>
        <time>2013-12-02T15:45:15.1Z</time>
      </trkpt>
      <trkpt lat="48.54228" lon="-2.95439">
        <ele>39</ele>
        <time>2013-12-02T15:45:17.1Z</time>
      </trkpt>
      <trkpt lat="48.54229" lon="-2.95433">
        <ele>39</ele>
        <time>2013-12-02T15:45:20.1Z</time>
      </trkpt>
      <trkpt lat="48.5423" lon="-2.9543">
        <ele>39</ele>
        <time>2013-12-02T15:45:22.1Z</time>
      </trkpt>
      <trkpt lat="48.54231" lon="-2.95426">
        <ele>39</ele>
        <time>2013-12-02T15:45:24.1Z</time>
      </trkpt>
      <trkpt lat="48.54232" lon="-2.95423">
        <ele>39</ele>
        <time>2013-12-02T15:45:26.1Z</time>
      </trkpt>
      <trkpt lat="48.54232" lon="-2.95419">
        <ele>39</ele>
        <time>2013-12-02T15:45:28.1Z</time>
      </trkpt>
      <trkpt lat="48.54233" lon="-2.95416">
        <ele>39</ele>
        <time>2013-12-02T15:45:31.1Z</time>
      </trkpt>
      <trkpt lat="48.54234" lon="-2.95411">
        <ele>39</ele>
        <time>2013-12-02T15:45:33.1Z</time>
      </trkpt>
      <trkpt lat="48.54236" lon="-2.95407">
        <ele>39</ele>
        <time>2013-12-02T15:45:37.1Z</time>
      </trkpt>
      <trkpt lat="48.54237" lon="-2.95401">
        <ele>39</ele>
        <time>2013-12-02T15:45:39.1Z</time>
      </trkpt>
      <trkpt lat="48.54239" lon="-2.95395">
        <ele>39</ele>
        <time>2013-12-02T15:45:42.1Z</time>
      </trkpt>
      <trkpt lat="48.5424" lon="-2.9539">
        <ele>39</ele>
        <time>2013-12-02T15:45:45.1Z</time>
      </trkpt>
      <trkpt lat="48.54242" lon="-2.95384">
        <ele>39</ele>
        <time>2013-12-02T15:45:49.1Z</time>
      </trkpt>
      <trkpt lat="48.54242" lon="-2.95381">
        <ele>39</ele>
        <time>2013-12-02T15:45:51.1Z</time>
      </trkpt>
      <trkpt lat="48.54243" lon="-2.95377">
        <ele>40</ele>
        <time>2013-12-02T15:45:53.1Z</time>
      </trkpt>
      <trkpt lat="48.54245" lon="-2.95373">
        <ele>40</ele>
        <time>2013-12-02T15:45:55.1Z</time>
      </trkpt>
      <trkpt lat="48.54247" lon="-2.95367">
        <ele>40</ele>
        <time>2013-12-02T15:45:58.1Z</time>
      </trkpt>
      <trkpt lat="48.54248" lon="-2.95362">
        <ele>40</ele>
        <time>2013-12-02T15:46:02.1Z</time>
      </trkpt>
      <trkpt lat="48.5425" lon="-2.95357">
        <ele>40</ele>
        <time>2013-12-02T15:46:04.1Z</time>
      </trkpt>
      <trkpt lat="48.5425" lon="-2.95354">
        <ele>40</ele>
        <time>2013-12-02T15:46:06.1Z</time>
      </trkpt>
      <trkpt lat="48.54251" lon="-2.95351">
        <ele>40</ele>
        <time>2013-12-02T15:46:08.1Z</time>
      </trkpt>
      <trkpt lat="48.54253" lon="-2.95346">
        <ele>40</ele>
        <time>2013-12-02T15:46:11.1Z</time>
      </trkpt>
      <trkpt lat="48.54254" lon="-2.95344">
        <ele>40</ele>
        <time>2013-12-02T15:46:13.1Z</time>
      </trkpt>
      <trkpt lat="48.54256" lon="-2.95341">
        <ele>40</ele>
        <time>2013-12-02T15:46:15.1Z</time>
      </trkpt>
      <trkpt lat="48.54257" lon="-2.95338">
        <ele>41</ele>
        <time>2013-12-02T15:46:18.1Z</time>
      </trkpt>
      <trkpt lat="48.54258" lon="-2.95335">
        <ele>41</ele>
        <time>2013-12-02T15:46:20.1Z</time>
      </trkpt>
      <trkpt lat="48.54261" lon="-2.9533">
        <ele>41</ele>
        <time>2013-12-02T15:46:22.1Z</time>
      </trkpt>
      <trkpt lat="48.54263" lon="-2.95325">
        <ele>41</ele>
        <time>2013-12-02T15:46:25.1Z</time>
      </trkpt>
      <trkpt lat="48.54264" lon="-2.95323">
        <ele>41</ele>
        <time>2013-12-02T15:46:27.1Z</time>
      </trkpt>
      <trkpt lat="48.54266" lon="-2.95319">
        <ele>41</ele>
        <time>2013-12-02T15:46:30.1Z</time>
      </trkpt>
      <trkpt lat="48.54268" lon="-2.95316">
        <ele>41</ele>
        <time>2013-12-02T15:46:32.1Z</time>
      </trkpt>
      <trkpt lat="48.5427" lon="-2.95311">
        <ele>41</ele>
        <time>2013-12-02T15:46:35.1Z</time>
      </trkpt>
      <trkpt lat="48.54271" lon="-2.95308">
        <ele>41</ele>
        <time>2013-12-02T15:46:37.1Z</time>
      </trkpt>
      <trkpt lat="48.54274" lon="-2.95304">
        <ele>40</ele>
        <time>2013-12-02T15:46:40.1Z</time>
      </trkpt>
      <trkpt lat="48.54275" lon="-2.95301">
        <ele>40</ele>
        <time>2013-12-02T15:46:42.1Z</time>
      </trkpt>
      <trkpt lat="48.54277" lon="-2.95298">
        <ele>40</ele>
        <time>2013-12-02T15:46:45.1Z</time>
      </trkpt>
      <trkpt lat="48.54279" lon="-2.95295">
        <ele>40</ele>
        <time>2013-12-02T15:46:47.1Z</time>
      </trkpt>
      <trkpt lat="48.54281" lon="-2.9529">
        <ele>40</ele>
        <time>2013-12-02T15:46:49.1Z</time>
      </trkpt>
      <trkpt lat="48.54282" lon="-2.95286">
        <ele>40</ele>
        <time>2013-12-02T15:46:51.1Z</time>
      </trkpt>
      <trkpt lat="48.54284" lon="-2.95282">
        <ele>40</ele>
        <time>2013-12-02T15:46:54.1Z</time>
      </trkpt>
      <trkpt lat="48.54285" lon="-2.95279">
        <ele>40</ele>
        <time>2013-12-02T15:46:56.1Z</time>
      </trkpt>
      <trkpt lat="48.54287" lon="-2.95275">
        <ele>40</ele>
        <time>2013-12-02T15:46:58.1Z</time>
      </trkpt>
      <trkpt lat="48.54288" lon="-2.95272">
        <ele>40</ele>
        <time>2013-12-02T15:47:00.1Z</time>
      </trkpt>
      <trkpt lat="48.54289" lon="-2.95269">
        <ele>40</ele>
        <time>2013-12-02T15:47:02.1Z</time>
      </trkpt>
      <trkpt lat="48.54291" lon="-2.95265">
        <ele>40</ele>
        <time>2013-12-02T15:47:06.1Z</time>
      </trkpt>
      <trkpt lat="48.54293" lon="-2.95261">
        <ele>40</ele>
        <time>2013-12-02T15:47:08.1Z</time>
      </trkpt>
      <trkpt lat="48.54294" lon="-2.95257">
        <ele>40</ele>
        <time>2013-12-02T15:47:10.1Z</time>
      </trkpt>
      <trkpt lat="48.54295" lon="-2.95254">
        <ele>40</ele>
        <time>2013-12-02T15:47:12.1Z</time>
      </trkpt>
      <trkpt lat="48.54296" lon="-2.9525">
        <ele>40</ele>
        <time>2013-12-02T15:47:15.1Z</time>
      </trkpt>
      <trkpt lat="48.54298" lon="-2.95246">
        <ele>40</ele>
        <time>2013-12-02T15:47:18.1Z</time>
      </trkpt>
      <trkpt lat="48.543" lon="-2.95241">
        <ele>40</ele>
        <time>2013-12-02T15:47:22.1Z</time>
      </trkpt>
      <trkpt lat="48.54302" lon="-2.95236">
        <ele>40</ele>
        <time>2013-12-02T15:47:24.1Z</time>
      </trkpt>
      <trkpt lat="48.54303" lon="-2.95231">
        <ele>40</ele>
        <time>2013-12-02T15:47:27.1Z</time>
      </trkpt>
      <trkpt lat="48.54306" lon="-2.95225">
        <ele>40</ele>
        <time>2013-12-02T15:47:30.1Z</time>
      </trkpt>
      <trkpt lat="48.54307" lon="-2.9522">
        <ele>40</ele>
        <time>2013-12-02T15:47:33.1Z</time>
      </trkpt>
      <trkpt lat="48.54308" lon="-2.95217">
        <ele>40</ele>
        <time>2013-12-02T15:47:35.1Z</time>
      </trkpt>
      <trkpt lat="48.54309" lon="-2.95214">
        <ele>40</ele>
        <time>2013-12-02T15:47:38.1Z</time>
      </trkpt>
      <trkpt lat="48.54311" lon="-2.95209">
        <ele>40</ele>
        <time>2013-12-02T15:47:40.1Z</time>
      </trkpt>
      <trkpt lat="48.54312" lon="-2.95205">
        <ele>39</ele>
        <time>2013-12-02T15:47:42.1Z</time>
      </trkpt>
      <trkpt lat="48.54313" lon="-2.95201">
        <ele>39</ele>
        <time>2013-12-02T15:47:44.1Z</time>
      </trkpt>
      <trkpt lat="48.54314" lon="-2.95198">
        <ele>39</ele>
        <time>2013-12-02T15:47:46.1Z</time>
      </trkpt>
      <trkpt lat="48.54315" lon="-2.95195">
        <ele>39</ele>
        <time>2013-12-02T15:47:48.1Z</time>
      </trkpt>
      <trkpt lat="48.54316" lon="-2.95192">
        <ele>39</ele>
        <time>2013-12-02T15:47:50.1Z</time>
      </trkpt>
      <trkpt lat="48.54318" lon="-2.95189">
        <ele>40</ele>
        <time>2013-12-02T15:47:52.1Z</time>
      </trkpt>
      <trkpt lat="48.54319" lon="-2.95185">
        <ele>39</ele>
        <time>2013-12-02T15:47:55.1Z</time>
      </trkpt>
      <trkpt lat="48.54319" lon="-2.95181">
        <ele>39</ele>
        <time>2013-12-02T15:47:57.1Z</time>
      </trkpt>
      <trkpt lat="48.54321" lon="-2.95175">
        <ele>39</ele>
        <time>2013-12-02T15:48:00.1Z</time>
      </trkpt>
      <trkpt lat="48.54322" lon="-2.9517">
        <ele>39</ele>
        <time>2013-12-02T15:48:03.1Z</time>
      </trkpt>
      <trkpt lat="48.54323" lon="-2.95167">
        <ele>38</ele>
        <time>2013-12-02T15:48:05.1Z</time>
      </trkpt>
      <trkpt lat="48.54324" lon="-2.95163">
        <ele>39</ele>
        <time>2013-12-02T15:48:07.1Z</time>
      </trkpt>
      <trkpt lat="48.54325" lon="-2.95158">
        <ele>39</ele>
        <time>2013-12-02T15:48:11.1Z</time>
      </trkpt>
      <trkpt lat="48.54326" lon="-2.95153">
        <ele>39</ele>
        <time>2013-12-02T15:48:13.1Z</time>
      </trkpt>
      <trkpt lat="48.54327" lon="-2.95148">
        <ele>39</ele>
        <time>2013-12-02T15:48:16.1Z</time>
      </trkpt>
      <trkpt lat="48.54327" lon="-2.95145">
        <ele>40</ele>
        <time>2013-12-02T15:48:18.1Z</time>
      </trkpt>
      <trkpt lat="48.54328" lon="-2.9514">
        <ele>39</ele>
        <time>2013-12-02T15:48:21.1Z</time>
      </trkpt>
      <trkpt lat="48.54329" lon="-2.95137">
        <ele>39</ele>
        <time>2013-12-02T15:48:24.1Z</time>
      </trkpt>
      <trkpt lat="48.54331" lon="-2.95133">
        <ele>39</ele>
        <time>2013-12-02T15:48:26.1Z</time>
      </trkpt>
      <trkpt lat="48.54333" lon="-2.95132">
        <ele>39</ele>
        <time>2013-12-02T15:48:28.1Z</time>
      </trkpt>
      <trkpt lat="48.54335" lon="-2.95129">
        <ele>39</ele>
        <time>2013-12-02T15:48:30.1Z</time>
      </trkpt>
      <trkpt lat="48.54338" lon="-2.95128">
        <ele>39</ele>
        <time>2013-12-02T15:48:33.1Z</time>
      </trkpt>
      <trkpt lat="48.5434" lon="-2.95127">
        <ele>39</ele>
        <time>2013-12-02T15:48:35.1Z</time>
      </trkpt>
      <trkpt lat="48.54344" lon="-2.95125">
        <ele>39</ele>
        <time>2013-12-02T15:48:38.1Z</time>
      </trkpt>
      <trkpt lat="48.54346" lon="-2.95126">
        <ele>39</ele>
        <time>2013-12-02T15:48:40.1Z</time>
      </trkpt>
      <trkpt lat="48.54348" lon="-2.95125">
        <ele>39</ele>
        <time>2013-12-02T15:48:42.1Z</time>
      </trkpt>
      <trkpt lat="48.54351" lon="-2.95126">
        <ele>39</ele>
        <time>2013-12-02T15:48:45.1Z</time>
      </trkpt>
      <trkpt lat="48.54353" lon="-2.95127">
        <ele>38</ele>
        <time>2013-12-02T15:48:47.1Z</time>
      </trkpt>
      <trkpt lat="48.54355" lon="-2.95128">
        <ele>38</ele>
        <time>2013-12-02T15:48:49.1Z</time>
      </trkpt>
      <trkpt lat="48.54357" lon="-2.95128">
        <ele>38</ele>
        <time>2013-12-02T15:48:52.1Z</time>
      </trkpt>
      <trkpt lat="48.5436" lon="-2.95128">
        <ele>38</ele>
        <time>2013-12-02T15:48:54.1Z</time>
      </trkpt>
      <trkpt lat="48.54361" lon="-2.95129">
        <ele>38</ele>
        <time>2013-12-02T15:48:56.1Z</time>
      </trkpt>
      <trkpt lat="48.54364" lon="-2.9513">
        <ele>38</ele>
        <time>2013-12-02T15:48:59.1Z</time>
      </trkpt>
      <trkpt lat="48.54365" lon="-2.9513">
        <ele>38</ele>
        <time>2013-12-02T15:49:01.1Z</time>
      </trkpt>
      <trkpt lat="48.54367" lon="-2.9513">
        <ele>38</ele>
        <time>2013-12-02T15:49:03.1Z</time>
      </trkpt>
      <trkpt lat="48.54369" lon="-2.9513">
        <ele>38</ele>
        <time>2013-12-02T15:49:06.1Z</time>
      </trkpt>
      <trkpt lat="48.54372" lon="-2.9513">
        <ele>38</ele>
        <time>2013-12-02T15:49:08.1Z</time>
      </trkpt>
      <trkpt lat="48.54374" lon="-2.9513">
        <ele>38</ele>
        <time>2013-12-02T15:49:10.1Z</time>
      </trkpt>
      <trkpt lat="48.54378" lon="-2.95131">
        <ele>39</ele>
        <time>2013-12-02T15:49:13.1Z</time>
      </trkpt>
      <trkpt lat="48.5438" lon="-2.95132">
        <ele>38</ele>
        <time>2013-12-02T15:49:16.1Z</time>
      </trkpt>
      <trkpt lat="48.54384" lon="-2.95133">
        <ele>38</ele>
        <time>2013-12-02T15:49:18.1Z</time>
      </trkpt>
      <trkpt lat="48.54388" lon="-2.95136">
        <ele>38</ele>
        <time>2013-12-02T15:49:21.1Z</time>
      </trkpt>
      <trkpt lat="48.5439" lon="-2.95137">
        <ele>38</ele>
        <time>2013-12-02T15:49:23.1Z</time>
      </trkpt>
      <trkpt lat="48.54393" lon="-2.95138">
        <ele>38</ele>
        <time>2013-12-02T15:49:25.1Z</time>
      </trkpt>
      <trkpt lat="48.54396" lon="-2.95139">
        <ele>38</ele>
        <time>2013-12-02T15:49:28.1Z</time>
      </trkpt>
      <trkpt lat="48.54399" lon="-2.9514">
        <ele>38</ele>
        <time>2013-12-02T15:49:31.1Z</time>
      </trkpt>
      <trkpt lat="48.54404" lon="-2.95139">
        <ele>38</ele>
        <time>2013-12-02T15:49:33.1Z</time>
      </trkpt>
      <trkpt lat="48.54407" lon="-2.95137">
        <ele>38</ele>
        <time>2013-12-02T15:49:36.1Z</time>
      </trkpt>
      <trkpt lat="48.54409" lon="-2.95135">
        <ele>38</ele>
        <time>2013-12-02T15:49:38.1Z</time>
      </trkpt>
      <trkpt lat="48.5441" lon="-2.95133">
        <ele>38</ele>
        <time>2013-12-02T15:49:40.1Z</time>
      </trkpt>
      <trkpt lat="48.54412" lon="-2.95131">
        <ele>39</ele>
        <time>2013-12-02T15:49:43.1Z</time>
      </trkpt>
      <trkpt lat="48.54414" lon="-2.95129">
        <ele>39</ele>
        <time>2013-12-02T15:49:45.1Z</time>
      </trkpt>
      <trkpt lat="48.54415" lon="-2.95126">
        <ele>39</ele>
        <time>2013-12-02T15:49:48.1Z</time>
      </trkpt>
      <trkpt lat="48.54416" lon="-2.95123">
        <ele>38</ele>
        <time>2013-12-02T15:49:50.1Z</time>
      </trkpt>
      <trkpt lat="48.54418" lon="-2.9512">
        <ele>38</ele>
        <time>2013-12-02T15:49:52.1Z</time>
      </trkpt>
      <trkpt lat="48.54419" lon="-2.95117">
        <ele>38</ele>
        <time>2013-12-02T15:49:55.1Z</time>
      </trkpt>
      <trkpt lat="48.5442" lon="-2.95113">
        <ele>38</ele>
        <time>2013-12-02T15:49:57.1Z</time>
      </trkpt>
      <trkpt lat="48.54422" lon="-2.95109">
        <ele>39</ele>
        <time>2013-12-02T15:49:59.1Z</time>
      </trkpt>
      <trkpt lat="48.54423" lon="-2.95106">
        <ele>39</ele>
        <time>2013-12-02T15:50:01.1Z</time>
      </trkpt>
      <trkpt lat="48.54425" lon="-2.95101">
        <ele>39</ele>
        <time>2013-12-02T15:50:04.1Z</time>
      </trkpt>
      <trkpt lat="48.54426" lon="-2.95097">
        <ele>39</ele>
        <time>2013-12-02T15:50:06.1Z</time>
      </trkpt>
      <trkpt lat="48.54428" lon="-2.95093">
        <ele>39</ele>
        <time>2013-12-02T15:50:09.1Z</time>
      </trkpt>
      <trkpt lat="48.5443" lon="-2.95089">
        <ele>39</ele>
        <time>2013-12-02T15:50:11.1Z</time>
      </trkpt>
      <trkpt lat="48.54433" lon="-2.95084">
        <ele>39</ele>
        <time>2013-12-02T15:50:14.1Z</time>
      </trkpt>
      <trkpt lat="48.54434" lon="-2.9508">
        <ele>39</ele>
        <time>2013-12-02T15:50:16.1Z</time>
      </trkpt>
      <trkpt lat="48.54436" lon="-2.95075">
        <ele>39</ele>
        <time>2013-12-02T15:50:19.1Z</time>
      </trkpt>
      <trkpt lat="48.54437" lon="-2.95072">
        <ele>39</ele>
        <time>2013-12-02T15:50:21.1Z</time>
      </trkpt>
      <trkpt lat="48.54439" lon="-2.95067">
        <ele>39</ele>
        <time>2013-12-02T15:50:24.1Z</time>
      </trkpt>
      <trkpt lat="48.5444" lon="-2.95064">
        <ele>39</ele>
        <time>2013-12-02T15:50:26.1Z</time>
      </trkpt>
      <trkpt lat="48.54441" lon="-2.95059">
        <ele>39</ele>
        <time>2013-12-02T15:50:29.1Z</time>
      </trkpt>
      <trkpt lat="48.54442" lon="-2.95056">
        <ele>39</ele>
        <time>2013-12-02T15:50:31.1Z</time>
      </trkpt>
      <trkpt lat="48.54443" lon="-2.95052">
        <ele>39</ele>
        <time>2013-12-02T15:50:33.1Z</time>
      </trkpt>
      <trkpt lat="48.54444" lon="-2.95049">
        <ele>39</ele>
        <time>2013-12-02T15:50:36.1Z</time>
      </trkpt>
      <trkpt lat="48.54446" lon="-2.95045">
        <ele>40</ele>
        <time>2013-12-02T15:50:38.1Z</time>
      </trkpt>
      <trkpt lat="48.54447" lon="-2.9504">
        <ele>40</ele>
        <time>2013-12-02T15:50:40.1Z</time>
      </trkpt>
      <trkpt lat="48.54449" lon="-2.95037">
        <ele>40</ele>
        <time>2013-12-02T15:50:42.1Z</time>
      </trkpt>
      <trkpt lat="48.5445" lon="-2.95034">
        <ele>40</ele>
        <time>2013-12-02T15:50:44.1Z</time>
      </trkpt>
      <trkpt lat="48.54452" lon="-2.95028">
        <ele>40</ele>
        <time>2013-12-02T15:50:47.1Z</time>
      </trkpt>
      <trkpt lat="48.54453" lon="-2.95025">
        <ele>40</ele>
        <time>2013-12-02T15:50:49.1Z</time>
      </trkpt>
      <trkpt lat="48.54454" lon="-2.9502">
        <ele>40</ele>
        <time>2013-12-02T15:50:52.1Z</time>
      </trkpt>
      <trkpt lat="48.54456" lon="-2.95017">
        <ele>41</ele>
        <time>2013-12-02T15:50:54.1Z</time>
      </trkpt>
      <trkpt lat="48.54457" lon="-2.95012">
        <ele>41</ele>
        <time>2013-12-02T15:50:57.1Z</time>
      </trkpt>
      <trkpt lat="48.54459" lon="-2.95009">
        <ele>41</ele>
        <time>2013-12-02T15:50:59.1Z</time>
      </trkpt>
      <trkpt lat="48.5446" lon="-2.95004">
        <ele>41</ele>
        <time>2013-12-02T15:51:02.1Z</time>
      </trkpt>
      <trkpt lat="48.54461" lon="-2.95001">
        <ele>41</ele>
        <time>2013-12-02T15:51:04.1Z</time>
      </trkpt>
      <trkpt lat="48.54462" lon="-2.94998">
        <ele>42</ele>
        <time>2013-12-02T15:51:06.1Z</time>
      </trkpt>
      <trkpt lat="48.54464" lon="-2.94993">
        <ele>42</ele>
        <time>2013-12-02T15:51:09.1Z</time>
      </trkpt>
      <trkpt lat="48.54465" lon="-2.9499">
        <ele>42</ele>
        <time>2013-12-02T15:51:11.1Z</time>
      </trkpt>
      <trkpt lat="48.54466" lon="-2.94987">
        <ele>43</ele>
        <time>2013-12-02T15:51:13.1Z</time>
      </trkpt>
      <trkpt lat="48.54467" lon="-2.94985">
        <ele>43</ele>
        <time>2013-12-02T15:51:15.1Z</time>
      </trkpt>
      <trkpt lat="48.54468" lon="-2.94981">
        <ele>43</ele>
        <time>2013-12-02T15:51:18.1Z</time>
      </trkpt>
      <trkpt lat="48.5447" lon="-2.94976">
        <ele>43</ele>
        <time>2013-12-02T15:51:21.1Z</time>
      </trkpt>
      <trkpt lat="48.5447" lon="-2.94974">
        <ele>43</ele>
        <time>2013-12-02T15:51:23.1Z</time>
      </trkpt>
      <trkpt lat="48.54472" lon="-2.94969">
        <ele>43</ele>
        <time>2013-12-02T15:51:26.1Z</time>
      </trkpt>
      <trkpt lat="48.54474" lon="-2.94964">
        <ele>43</ele>
        <time>2013-12-02T15:51:29.1Z</time>
      </trkpt>
      <trkpt lat="48.54476" lon="-2.94959">
        <ele>43</ele>
        <time>2013-12-02T15:51:32.1Z</time>
      </trkpt>
      <trkpt lat="48.54477" lon="-2.94954">
        <ele>43</ele>
        <time>2013-12-02T15:51:35.1Z</time>
      </trkpt>
      <trkpt lat="48.54479" lon="-2.9495">
        <ele>44</ele>
        <time>2013-12-02T15:51:38.1Z</time>
      </trkpt>
      <trkpt lat="48.54481" lon="-2.94945">
        <ele>44</ele>
        <time>2013-12-02T15:51:41.1Z</time>
      </trkpt>
      <trkpt lat="48.54482" lon="-2.94942">
        <ele>44</ele>
        <time>2013-12-02T15:51:43.1Z</time>
      </trkpt>
      <trkpt lat="48.54483" lon="-2.94938">
        <ele>44</ele>
        <time>2013-12-02T15:51:46.1Z</time>
      </trkpt>
      <trkpt lat="48.54483" lon="-2.94934">
        <ele>44</ele>
        <time>2013-12-02T15:51:48.1Z</time>
      </trkpt>
      <trkpt lat="48.54484" lon="-2.94931">
        <ele>45</ele>
        <time>2013-12-02T15:51:50.1Z</time>
      </trkpt>
      <trkpt lat="48.54486" lon="-2.94928">
        <ele>45</ele>
        <time>2013-12-02T15:51:53.1Z</time>
      </trkpt>
      <trkpt lat="48.54487" lon="-2.94926">
        <ele>45</ele>
        <time>2013-12-02T15:51:55.1Z</time>
      </trkpt>
      <trkpt lat="48.54488" lon="-2.94925">
        <ele>45</ele>
        <time>2013-12-02T15:51:58.1Z</time>
      </trkpt>
      <trkpt lat="48.54489" lon="-2.94925">
        <ele>45</ele>
        <time>2013-12-02T15:52:01.1Z</time>
      </trkpt>
      <trkpt lat="48.54489" lon="-2.94925">
        <ele>45</ele>
        <time>2013-12-02T15:52:03.1Z</time>
      </trkpt>
      <trkpt lat="48.54489" lon="-2.94925">
        <ele>45</ele>
        <time>2013-12-02T15:52:05.1Z</time>
      </trkpt>
      <trkpt lat="48.54489" lon="-2.94926">
        <ele>45</ele>
        <time>2013-12-02T15:52:08.1Z</time>
      </trkpt>
      <trkpt lat="48.5449" lon="-2.94927">
        <ele>45</ele>
        <time>2013-12-02T15:52:10.1Z</time>
      </trkpt>
      <trkpt lat="48.5449" lon="-2.94926">
        <ele>45</ele>
        <time>2013-12-02T15:52:13.1Z</time>
      </trkpt>
      <trkpt lat="48.5449" lon="-2.94926">
        <ele>45</ele>
        <time>2013-12-02T15:52:17.1Z</time>
      </trkpt>
      <trkpt lat="48.5449" lon="-2.94926">
        <ele>45</ele>
        <time>2013-12-02T15:52:20.1Z</time>
      </trkpt>
      <trkpt lat="48.54489" lon="-2.94925">
        <ele>45</ele>
        <time>2013-12-02T15:52:22.1Z</time>
      </trkpt>
      <trkpt lat="48.54489" lon="-2.94926">
        <ele>45</ele>
        <time>2013-12-02T15:52:25.1Z</time>
      </trkpt>
      <trkpt lat="48.5449" lon="-2.94926">
        <ele>45</ele>
        <time>2013-12-02T15:52:27.1Z</time>
      </trkpt>
      <trkpt lat="48.5449" lon="-2.94927">
        <ele>45</ele>
        <time>2013-12-02T15:52:30.1Z</time>
      </trkpt>
      <trkpt lat="48.5449" lon="-2.94927">
        <ele>45</ele>
        <time>2013-12-02T15:52:34.1Z</time>
      </trkpt>
      <trkpt lat="48.54489" lon="-2.94928">
        <ele>45</ele>
        <time>2013-12-02T15:52:37.1Z</time>
      </trkpt>
      <trkpt lat="48.54489" lon="-2.94928">
        <ele>45</ele>
        <time>2013-12-02T15:52:39.1Z</time>
      </trkpt>
      <trkpt lat="48.54489" lon="-2.94929">
        <ele>45</ele>
        <time>2013-12-02T15:52:42.1Z</time>
      </trkpt>
      <trkpt lat="48.54491" lon="-2.94928">
        <ele>46</ele>
        <time>2013-12-02T15:52:44.1Z</time>
      </trkpt>
      <trkpt lat="48.54491" lon="-2.94929">
        <ele>46</ele>
        <time>2013-12-02T15:52:46.1Z</time>
      </trkpt>
      <trkpt lat="48.5449" lon="-2.94929">
        <ele>46</ele>
        <time>2013-12-02T15:52:48.1Z</time>
      </trkpt>
      <trkpt lat="48.5449" lon="-2.94928">
        <ele>46</ele>
        <time>2013-12-02T15:52:51.1Z</time>
      </trkpt>
      <trkpt lat="48.54491" lon="-2.94928">
        <ele>46</ele>
        <time>2013-12-02T15:52:54.1Z</time>
      </trkpt>
      <trkpt lat="48.54491" lon="-2.94928">
        <ele>46</ele>
        <time>2013-12-02T15:52:56.1Z</time>
      </trkpt>
      <trkpt lat="48.54492" lon="-2.94928">
        <ele>46</ele>
        <time>2013-12-02T15:52:59.1Z</time>
      </trkpt>
      <trkpt lat="48.54491" lon="-2.94928">
        <ele>46</ele>
        <time>2013-12-02T15:53:01.1Z</time>
      </trkpt>
      <trkpt lat="48.54492" lon="-2.94928">
        <ele>46</ele>
        <time>2013-12-02T15:53:04.1Z</time>
      </trkpt>
      <trkpt lat="48.54492" lon="-2.94928">
        <ele>46</ele>
        <time>2013-12-02T15:53:07.1Z</time>
      </trkpt>
      <trkpt lat="48.54493" lon="-2.94928">
        <ele>46</ele>
        <time>2013-12-02T15:53:10.1Z</time>
      </trkpt>
      <trkpt lat="48.54493" lon="-2.94928">
        <ele>46</ele>
        <time>2013-12-02T15:53:12.1Z</time>
      </trkpt>
      <trkpt lat="48.54494" lon="-2.94928">
        <ele>46</ele>
        <time>2013-12-02T15:53:14.1Z</time>
      </trkpt>
      <trkpt lat="48.54495" lon="-2.94928">
        <ele>46</ele>
        <time>2013-12-02T15:53:18.1Z</time>
      </trkpt>
      <trkpt lat="48.54496" lon="-2.94927">
        <ele>46</ele>
        <time>2013-12-02T15:53:20.1Z</time>
      </trkpt>
      <trkpt lat="48.54496" lon="-2.94927">
        <ele>46</ele>
        <time>2013-12-02T15:53:23.1Z</time>
      </trkpt>
      <trkpt lat="48.54497" lon="-2.94927">
        <ele>46</ele>
        <time>2013-12-02T15:53:25.1Z</time>
      </trkpt>
      <trkpt lat="48.54501" lon="-2.94924">
        <ele>45</ele>
        <time>2013-12-02T15:53:28.1Z</time>
      </trkpt>
      <trkpt lat="48.54505" lon="-2.94923">
        <ele>46</ele>
        <time>2013-12-02T15:53:30.1Z</time>
      </trkpt>
      <trkpt lat="48.5451" lon="-2.94923">
        <ele>46</ele>
        <time>2013-12-02T15:53:33.1Z</time>
      </trkpt>
      <trkpt lat="48.54515" lon="-2.94922">
        <ele>46</ele>
        <time>2013-12-02T15:53:36.1Z</time>
      </trkpt>
      <trkpt lat="48.54517" lon="-2.94923">
        <ele>46</ele>
        <time>2013-12-02T15:53:38.1Z</time>
      </trkpt>
      <trkpt lat="48.5452" lon="-2.94924">
        <ele>46</ele>
        <time>2013-12-02T15:53:40.1Z</time>
      </trkpt>
      <trkpt lat="48.54522" lon="-2.94926">
        <ele>46</ele>
        <time>2013-12-02T15:53:43.1Z</time>
      </trkpt>
      <trkpt lat="48.54523" lon="-2.94926">
        <ele>45</ele>
        <time>2013-12-02T15:53:45.1Z</time>
      </trkpt>
      <trkpt lat="48.54524" lon="-2.94927">
        <ele>45</ele>
        <time>2013-12-02T15:53:48.1Z</time>
      </trkpt>
      <trkpt lat="48.54525" lon="-2.94926">
        <ele>45</ele>
        <time>2013-12-02T15:53:50.1Z</time>
      </trkpt>
      <trkpt lat="48.54527" lon="-2.94925">
        <ele>46</ele>
        <time>2013-12-02T15:53:52.1Z</time>
      </trkpt>
      <trkpt lat="48.5453" lon="-2.94924">
        <ele>46</ele>
        <time>2013-12-02T15:53:55.1Z</time>
      </trkpt>
      <trkpt lat="48.54535" lon="-2.94922">
        <ele>45</ele>
        <time>2013-12-02T15:53:58.1Z</time>
      </trkpt>
      <trkpt lat="48.54537" lon="-2.94923">
        <ele>45</ele>
        <time>2013-12-02T15:54:00.1Z</time>
      </trkpt>
      <trkpt lat="48.5454" lon="-2.94923">
        <ele>45</ele>
        <time>2013-12-02T15:54:02.1Z</time>
      </trkpt>
      <trkpt lat="48.54544" lon="-2.94924">
        <ele>45</ele>
        <time>2013-12-02T15:54:05.1Z</time>
      </trkpt>
      <trkpt lat="48.54548" lon="-2.94924">
        <ele>45</ele>
        <time>2013-12-02T15:54:08.1Z</time>
      </trkpt>
      <trkpt lat="48.54551" lon="-2.94923">
        <ele>45</ele>
        <time>2013-12-02T15:54:10.1Z</time>
      </trkpt>
      <trkpt lat="48.54554" lon="-2.94924">
        <ele>45</ele>
        <time>2013-12-02T15:54:12.1Z</time>
      </trkpt>
      <trkpt lat="48.54559" lon="-2.94924">
        <ele>44</ele>
        <time>2013-12-02T15:54:15.1Z</time>
      </trkpt>
      <trkpt lat="48.54563" lon="-2.94925">
        <ele>44</ele>
        <time>2013-12-02T15:54:18.1Z</time>
      </trkpt>
      <trkpt lat="48.54565" lon="-2.94926">
        <ele>44</ele>
        <time>2013-12-02T15:54:20.1Z</time>
      </trkpt>
      <trkpt lat="48.54569" lon="-2.94926">
        <ele>44</ele>
        <time>2013-12-02T15:54:22.1Z</time>
      </trkpt>
      <trkpt lat="48.54571" lon="-2.94927">
        <ele>44</ele>
        <time>2013-12-02T15:54:24.1Z</time>
      </trkpt>
      <trkpt lat="48.54575" lon="-2.94928">
        <ele>44</ele>
        <time>2013-12-02T15:54:27.1Z</time>
      </trkpt>
      <trkpt lat="48.54577" lon="-2.9493">
        <ele>43</ele>
        <time>2013-12-02T15:54:29.1Z</time>
      </trkpt>
      <trkpt lat="48.54581" lon="-2.94931">
        <ele>43</ele>
        <time>2013-12-02T15:54:32.1Z</time>
      </trkpt>
      <trkpt lat="48.54583" lon="-2.94931">
        <ele>44</ele>
        <time>2013-12-02T15:54:34.1Z</time>
      </trkpt>
      <trkpt lat="48.54586" lon="-2.94932">
        <ele>44</ele>
        <time>2013-12-02T15:54:37.1Z</time>
      </trkpt>
      <trkpt lat="48.54589" lon="-2.94932">
        <ele>44</ele>
        <time>2013-12-02T15:54:40.1Z</time>
      </trkpt>
      <trkpt lat="48.54593" lon="-2.94933">
        <ele>44</ele>
        <time>2013-12-02T15:54:43.1Z</time>
      </trkpt>
      <trkpt lat="48.54595" lon="-2.94933">
        <ele>44</ele>
        <time>2013-12-02T15:54:45.1Z</time>
      </trkpt>
      <trkpt lat="48.54598" lon="-2.94934">
        <ele>44</ele>
        <time>2013-12-02T15:54:48.1Z</time>
      </trkpt>
      <trkpt lat="48.54601" lon="-2.94934">
        <ele>43</ele>
        <time>2013-12-02T15:54:51.1Z</time>
      </trkpt>
      <trkpt lat="48.54603" lon="-2.94934">
        <ele>43</ele>
        <time>2013-12-02T15:54:53.1Z</time>
      </trkpt>
      <trkpt lat="48.54606" lon="-2.94934">
        <ele>43</ele>
        <time>2013-12-02T15:54:56.1Z</time>
      </trkpt>
      <trkpt lat="48.54609" lon="-2.94934">
        <ele>44</ele>
        <time>2013-12-02T15:54:59.1Z</time>
      </trkpt>
      <trkpt lat="48.54611" lon="-2.94935">
        <ele>44</ele>
        <time>2013-12-02T15:55:01.1Z</time>
      </trkpt>
      <trkpt lat="48.54614" lon="-2.94934">
        <ele>44</ele>
        <time>2013-12-02T15:55:04.1Z</time>
      </trkpt>
      <trkpt lat="48.54617" lon="-2.94935">
        <ele>44</ele>
        <time>2013-12-02T15:55:07.1Z</time>
      </trkpt>
      <trkpt lat="48.5462" lon="-2.94935">
        <ele>44</ele>
        <time>2013-12-02T15:55:10.1Z</time>
      </trkpt>
      <trkpt lat="48.54624" lon="-2.94936">
        <ele>44</ele>
        <time>2013-12-02T15:55:13.1Z</time>
      </trkpt>
      <trkpt lat="48.54627" lon="-2.94936">
        <ele>43</ele>
        <time>2013-12-02T15:55:16.1Z</time>
      </trkpt>
      <trkpt lat="48.54631" lon="-2.94937">
        <ele>43</ele>
        <time>2013-12-02T15:55:19.1Z</time>
      </trkpt>
      <trkpt lat="48.54633" lon="-2.94937">
        <ele>42</ele>
        <time>2013-12-02T15:55:22.1Z</time>
      </trkpt>
      <trkpt lat="48.54635" lon="-2.94937">
        <ele>42</ele>
        <time>2013-12-02T15:55:24.1Z</time>
      </trkpt>
      <trkpt lat="48.54637" lon="-2.94937">
        <ele>42</ele>
        <time>2013-12-02T15:55:26.1Z</time>
      </trkpt>
      <trkpt lat="48.54641" lon="-2.94937">
        <ele>42</ele>
        <time>2013-12-02T15:55:29.1Z</time>
      </trkpt>
      <trkpt lat="48.54642" lon="-2.94938">
        <ele>42</ele>
        <time>2013-12-02T15:55:31.1Z</time>
      </trkpt>
      <trkpt lat="48.54645" lon="-2.94939">
        <ele>42</ele>
        <time>2013-12-02T15:55:34.1Z</time>
      </trkpt>
      <trkpt lat="48.54648" lon="-2.94939">
        <ele>42</ele>
        <time>2013-12-02T15:55:37.1Z</time>
      </trkpt>
      <trkpt lat="48.5465" lon="-2.94939">
        <ele>43</ele>
        <time>2013-12-02T15:55:39.1Z</time>
      </trkpt>
      <trkpt lat="48.54652" lon="-2.94939">
        <ele>43</ele>
        <time>2013-12-02T15:55:41.1Z</time>
      </trkpt>
      <trkpt lat="48.54654" lon="-2.94939">
        <ele>43</ele>
        <time>2013-12-02T15:55:44.1Z</time>
      </trkpt>
      <trkpt lat="48.54657" lon="-2.94938">
        <ele>43</ele>
        <time>2013-12-02T15:55:46.1Z</time>
      </trkpt>
      <trkpt lat="48.54658" lon="-2.94938">
        <ele>43</ele>
        <time>2013-12-02T15:55:48.1Z</time>
      </trkpt>
      <trkpt lat="48.5466" lon="-2.94938">
        <ele>43</ele>
        <time>2013-12-02T15:55:51.1Z</time>
      </trkpt>
      <trkpt lat="48.54663" lon="-2.94937">
        <ele>43</ele>
        <time>2013-12-02T15:55:53.1Z</time>
      </trkpt>
      <trkpt lat="48.54665" lon="-2.94937">
        <ele>43</ele>
        <time>2013-12-02T15:55:55.1Z</time>
      </trkpt>
      <trkpt lat="48.54667" lon="-2.94936">
        <ele>43</ele>
        <time>2013-12-02T15:55:57.1Z</time>
      </trkpt>
      <trkpt lat="48.5467" lon="-2.94936">
        <ele>43</ele>
        <time>2013-12-02T15:56:00.1Z</time>
      </trkpt>
      <trkpt lat="48.54671" lon="-2.94935">
        <ele>43</ele>
        <time>2013-12-02T15:56:02.1Z</time>
      </trkpt>
      <trkpt lat="48.54674" lon="-2.94935">
        <ele>42</ele>
        <time>2013-12-02T15:56:05.1Z</time>
      </trkpt>
      <trkpt lat="48.54676" lon="-2.94935">
        <ele>42</ele>
        <time>2013-12-02T15:56:07.1Z</time>
      </trkpt>
      <trkpt lat="48.54678" lon="-2.94935">
        <ele>42</ele>
        <time>2013-12-02T15:56:09.1Z</time>
      </trkpt>
      <trkpt lat="48.54682" lon="-2.94934">
        <ele>42</ele>
        <time>2013-12-02T15:56:12.1Z</time>
      </trkpt>
      <trkpt lat="48.54686" lon="-2.94933">
        <ele>43</ele>
        <time>2013-12-02T15:56:15.1Z</time>
      </trkpt>
      <trkpt lat="48.54689" lon="-2.94932">
        <ele>43</ele>
        <time>2013-12-02T15:56:17.1Z</time>
      </trkpt>
      <trkpt lat="48.54693" lon="-2.94932">
        <ele>42</ele>
        <time>2013-12-02T15:56:20.1Z</time>
      </trkpt>
      <trkpt lat="48.54695" lon="-2.94932">
        <ele>42</ele>
        <time>2013-12-02T15:56:22.1Z</time>
      </trkpt>
      <trkpt lat="48.547" lon="-2.94933">
        <ele>42</ele>
        <time>2013-12-02T15:56:25.1Z</time>
      </trkpt>
      <trkpt lat="48.54704" lon="-2.94933">
        <ele>42</ele>
        <time>2013-12-02T15:56:28.1Z</time>
      </trkpt>
      <trkpt lat="48.54708" lon="-2.94932">
        <ele>42</ele>
        <time>2013-12-02T15:56:31.1Z</time>
      </trkpt>
      <trkpt lat="48.5471" lon="-2.94932">
        <ele>42</ele>
        <time>2013-12-02T15:56:33.1Z</time>
      </trkpt>
      <trkpt lat="48.54714" lon="-2.94932">
        <ele>42</ele>
        <time>2013-12-02T15:56:36.1Z</time>
      </trkpt>
      <trkpt lat="48.54717" lon="-2.94931">
        <ele>42</ele>
        <time>2013-12-02T15:56:38.1Z</time>
      </trkpt>
      <trkpt lat="48.5472" lon="-2.94931">
        <ele>41</ele>
        <time>2013-12-02T15:56:40.1Z</time>
      </trkpt>
      <trkpt lat="48.54722" lon="-2.94931">
        <ele>41</ele>
        <time>2013-12-02T15:56:42.1Z</time>
      </trkpt>
      <trkpt lat="48.54726" lon="-2.9493">
        <ele>41</ele>
        <time>2013-12-02T15:56:45.1Z</time>
      </trkpt>
      <trkpt lat="48.5473" lon="-2.94929">
        <ele>41</ele>
        <time>2013-12-02T15:56:48.1Z</time>
      </trkpt>
      <trkpt lat="48.54732" lon="-2.94929">
        <ele>41</ele>
        <time>2013-12-02T15:56:50.1Z</time>
      </trkpt>
      <trkpt lat="48.54734" lon="-2.9493">
        <ele>41</ele>
        <time>2013-12-02T15:56:52.1Z</time>
      </trkpt>
      <trkpt lat="48.54737" lon="-2.94933">
        <ele>41</ele>
        <time>2013-12-02T15:56:55.1Z</time>
      </trkpt>
      <trkpt lat="48.54738" lon="-2.94934">
        <ele>41</ele>
        <time>2013-12-02T15:56:57.1Z</time>
      </trkpt>
      <trkpt lat="48.54738" lon="-2.94934">
        <ele>42</ele>
        <time>2013-12-02T15:57:00.1Z</time>
      </trkpt>
      <trkpt lat="48.54741" lon="-2.94932">
        <ele>42</ele>
        <time>2013-12-02T15:57:03.1Z</time>
      </trkpt>
      <trkpt lat="48.54745" lon="-2.94931">
        <ele>41</ele>
        <time>2013-12-02T15:57:06.1Z</time>
      </trkpt>
      <trkpt lat="48.54748" lon="-2.9493">
        <ele>41</ele>
        <time>2013-12-02T15:57:08.1Z</time>
      </trkpt>
      <trkpt lat="48.5475" lon="-2.9493">
        <ele>40</ele>
        <time>2013-12-02T15:57:10.1Z</time>
      </trkpt>
      <trkpt lat="48.54752" lon="-2.94931">
        <ele>41</ele>
        <time>2013-12-02T15:57:12.1Z</time>
      </trkpt>
      <trkpt lat="48.54755" lon="-2.94931">
        <ele>41</ele>
        <time>2013-12-02T15:57:15.1Z</time>
      </trkpt>
      <trkpt lat="48.54759" lon="-2.9493">
        <ele>41</ele>
        <time>2013-12-02T15:57:18.1Z</time>
      </trkpt>
      <trkpt lat="48.5476" lon="-2.9493">
        <ele>40</ele>
        <time>2013-12-02T15:57:20.1Z</time>
      </trkpt>
      <trkpt lat="48.54762" lon="-2.9493">
        <ele>40</ele>
        <time>2013-12-02T15:57:22.1Z</time>
      </trkpt>
      <trkpt lat="48.54764" lon="-2.94929">
        <ele>40</ele>
        <time>2013-12-02T15:57:25.1Z</time>
      </trkpt>
      <trkpt lat="48.54767" lon="-2.94929">
        <ele>40</ele>
        <time>2013-12-02T15:57:28.1Z</time>
      </trkpt>
      <trkpt lat="48.54769" lon="-2.94929">
        <ele>40</ele>
        <time>2013-12-02T15:57:30.1Z</time>
      </trkpt>
      <trkpt lat="48.54773" lon="-2.94928">
        <ele>40</ele>
        <time>2013-12-02T15:57:33.1Z</time>
      </trkpt>
      <trkpt lat="48.54777" lon="-2.94927">
        <ele>40</ele>
        <time>2013-12-02T15:57:36.1Z</time>
      </trkpt>
      <trkpt lat="48.54778" lon="-2.94927">
        <ele>40</ele>
        <time>2013-12-02T15:57:38.1Z</time>
      </trkpt>
      <trkpt lat="48.5478" lon="-2.94927">
        <ele>40</ele>
        <time>2013-12-02T15:57:40.1Z</time>
      </trkpt>
      <trkpt lat="48.54785" lon="-2.94926">
        <ele>40</ele>
        <time>2013-12-02T15:57:43.1Z</time>
      </trkpt>
      <trkpt lat="48.54787" lon="-2.94926">
        <ele>40</ele>
        <time>2013-12-02T15:57:45.1Z</time>
      </trkpt>
      <trkpt lat="48.54789" lon="-2.94925">
        <ele>40</ele>
        <time>2013-12-02T15:57:47.1Z</time>
      </trkpt>
      <trkpt lat="48.54793" lon="-2.94924">
        <ele>39</ele>
        <time>2013-12-02T15:57:50.1Z</time>
      </trkpt>
      <trkpt lat="48.54795" lon="-2.94924">
        <ele>39</ele>
        <time>2013-12-02T15:57:52.1Z</time>
      </trkpt>
      <trkpt lat="48.548" lon="-2.94924">
        <ele>39</ele>
        <time>2013-12-02T15:57:55.1Z</time>
      </trkpt>
      <trkpt lat="48.54802" lon="-2.94923">
        <ele>39</ele>
        <time>2013-12-02T15:57:57.1Z</time>
      </trkpt>
      <trkpt lat="48.54805" lon="-2.94921">
        <ele>39</ele>
        <time>2013-12-02T15:58:00.1Z</time>
      </trkpt>
      <trkpt lat="48.54808" lon="-2.9492">
        <ele>39</ele>
        <time>2013-12-02T15:58:03.1Z</time>
      </trkpt>
      <trkpt lat="48.5481" lon="-2.9492">
        <ele>39</ele>
        <time>2013-12-02T15:58:05.1Z</time>
      </trkpt>
      <trkpt lat="48.54814" lon="-2.9492">
        <ele>39</ele>
        <time>2013-12-02T15:58:08.1Z</time>
      </trkpt>
      <trkpt lat="48.54816" lon="-2.9492">
        <ele>39</ele>
        <time>2013-12-02T15:58:10.1Z</time>
      </trkpt>
      <trkpt lat="48.54818" lon="-2.94921">
        <ele>39</ele>
        <time>2013-12-02T15:58:12.1Z</time>
      </trkpt>
      <trkpt lat="48.5482" lon="-2.94921">
        <ele>39</ele>
        <time>2013-12-02T15:58:15.1Z</time>
      </trkpt>
      <trkpt lat="48.54822" lon="-2.94921">
        <ele>38</ele>
        <time>2013-12-02T15:58:17.1Z</time>
      </trkpt>
      <trkpt lat="48.54825" lon="-2.94921">
        <ele>38</ele>
        <time>2013-12-02T15:58:20.1Z</time>
      </trkpt>
      <trkpt lat="48.54829" lon="-2.94921">
        <ele>38</ele>
        <time>2013-12-02T15:58:23.1Z</time>
      </trkpt>
      <trkpt lat="48.54833" lon="-2.94921">
        <ele>38</ele>
        <time>2013-12-02T15:58:26.1Z</time>
      </trkpt>
      <trkpt lat="48.54835" lon="-2.94921">
        <ele>38</ele>
        <time>2013-12-02T15:58:28.1Z</time>
      </trkpt>
      <trkpt lat="48.54838" lon="-2.94921">
        <ele>38</ele>
        <time>2013-12-02T15:58:31.1Z</time>
      </trkpt>
      <trkpt lat="48.5484" lon="-2.94921">
        <ele>38</ele>
        <time>2013-12-02T15:58:33.1Z</time>
      </trkpt>
      <trkpt lat="48.54844" lon="-2.94921">
        <ele>38</ele>
        <time>2013-12-02T15:58:36.1Z</time>
      </trkpt>
      <trkpt lat="48.54847" lon="-2.94921">
        <ele>38</ele>
        <time>2013-12-02T15:58:39.1Z</time>
      </trkpt>
      <trkpt lat="48.5485" lon="-2.94921">
        <ele>38</ele>
        <time>2013-12-02T15:58:41.1Z</time>
      </trkpt>
      <trkpt lat="48.54853" lon="-2.9492">
        <ele>38</ele>
        <time>2013-12-02T15:58:43.1Z</time>
      </trkpt>
      <trkpt lat="48.54856" lon="-2.94918">
        <ele>38</ele>
        <time>2013-12-02T15:58:46.1Z</time>
      </trkpt>
      <trkpt lat="48.54857" lon="-2.94917">
        <ele>38</ele>
        <time>2013-12-02T15:58:48.1Z</time>
      </trkpt>
      <trkpt lat="48.54858" lon="-2.94917">
        <ele>39</ele>
        <time>2013-12-02T15:58:50.1Z</time>
      </trkpt>
      <trkpt lat="48.54861" lon="-2.94916">
        <ele>39</ele>
        <time>2013-12-02T15:58:53.1Z</time>
      </trkpt>
      <trkpt lat="48.54862" lon="-2.94917">
        <ele>39</ele>
        <time>2013-12-02T15:58:55.1Z</time>
      </trkpt>
      <trkpt lat="48.54864" lon="-2.94917">
        <ele>39</ele>
        <time>2013-12-02T15:58:57.1Z</time>
      </trkpt>
      <trkpt lat="48.54867" lon="-2.94917">
        <ele>39</ele>
        <time>2013-12-02T15:59:00.1Z</time>
      </trkpt>
      <trkpt lat="48.54868" lon="-2.94916">
        <ele>39</ele>
        <time>2013-12-02T15:59:02.1Z</time>
      </trkpt>
      <trkpt lat="48.5487" lon="-2.94916">
        <ele>39</ele>
        <time>2013-12-02T15:59:04.1Z</time>
      </trkpt>
      <trkpt lat="48.54872" lon="-2.94915">
        <ele>39</ele>
        <time>2013-12-02T15:59:06.1Z</time>
      </trkpt>
      <trkpt lat="48.54876" lon="-2.94913">
        <ele>38</ele>
        <time>2013-12-02T15:59:09.1Z</time>
      </trkpt>
      <trkpt lat="48.5488" lon="-2.94912">
        <ele>38</ele>
        <time>2013-12-02T15:59:12.1Z</time>
      </trkpt>
      <trkpt lat="48.54884" lon="-2.94912">
        <ele>38</ele>
        <time>2013-12-02T15:59:15.1Z</time>
      </trkpt>
      <trkpt lat="48.54887" lon="-2.94912">
        <ele>38</ele>
        <time>2013-12-02T15:59:17.1Z</time>
      </trkpt>
      <trkpt lat="48.54891" lon="-2.94912">
        <ele>38</ele>
        <time>2013-12-02T15:59:20.1Z</time>
      </trkpt>
      <trkpt lat="48.54894" lon="-2.94912">
        <ele>38</ele>
        <time>2013-12-02T15:59:22.1Z</time>
      </trkpt>
      <trkpt lat="48.54896" lon="-2.94912">
        <ele>38</ele>
        <time>2013-12-02T15:59:24.1Z</time>
      </trkpt>
      <trkpt lat="48.54899" lon="-2.94912">
        <ele>38</ele>
        <time>2013-12-02T15:59:27.1Z</time>
      </trkpt>
      <trkpt lat="48.54902" lon="-2.94912">
        <ele>38</ele>
        <time>2013-12-02T15:59:29.1Z</time>
      </trkpt>
      <trkpt lat="48.54905" lon="-2.94911">
        <ele>38</ele>
        <time>2013-12-02T15:59:32.1Z</time>
      </trkpt>
      <trkpt lat="48.54908" lon="-2.94911">
        <ele>38</ele>
        <time>2013-12-02T15:59:34.1Z</time>
      </trkpt>
      <trkpt lat="48.54911" lon="-2.9491">
        <ele>38</ele>
        <time>2013-12-02T15:59:37.1Z</time>
      </trkpt>
      <trkpt lat="48.54913" lon="-2.9491">
        <ele>38</ele>
        <time>2013-12-02T15:59:39.1Z</time>
      </trkpt>
      <trkpt lat="48.54917" lon="-2.94909">
        <ele>38</ele>
        <time>2013-12-02T15:59:42.1Z</time>
      </trkpt>
      <trkpt lat="48.54919" lon="-2.94908">
        <ele>38</ele>
        <time>2013-12-02T15:59:44.1Z</time>
      </trkpt>
      <trkpt lat="48.54923" lon="-2.94907">
        <ele>38</ele>
        <time>2013-12-02T15:59:47.1Z</time>
      </trkpt>
      <trkpt lat="48.54926" lon="-2.94906">
        <ele>38</ele>
        <time>2013-12-02T15:59:50.1Z</time>
      </trkpt>
      <trkpt lat="48.54928" lon="-2.94906">
        <ele>38</ele>
        <time>2013-12-02T15:59:52.1Z</time>
      </trkpt>
      <trkpt lat="48.54932" lon="-2.94906">
        <ele>38</ele>
        <time>2013-12-02T15:59:55.1Z</time>
      </trkpt>
      <trkpt lat="48.54934" lon="-2.94905">
        <ele>38</ele>
        <time>2013-12-02T15:59:57.1Z</time>
      </trkpt>
      <trkpt lat="48.54938" lon="-2.94903">
        <ele>38</ele>
        <time>2013-12-02T16:00:00.1Z</time>
      </trkpt>
      <trkpt lat="48.5494" lon="-2.94903">
        <ele>37</ele>
        <time>2013-12-02T16:00:02.1Z</time>
      </trkpt>
      <trkpt lat="48.54942" lon="-2.94902">
        <ele>37</ele>
        <time>2013-12-02T16:00:04.1Z</time>
      </trkpt>
      <trkpt lat="48.54946" lon="-2.94902">
        <ele>37</ele>
        <time>2013-12-02T16:00:07.1Z</time>
      </trkpt>
      <trkpt lat="48.54948" lon="-2.94902">
        <ele>37</ele>
        <time>2013-12-02T16:00:09.1Z</time>
      </trkpt>
      <trkpt lat="48.54952" lon="-2.94902">
        <ele>37</ele>
        <time>2013-12-02T16:00:12.1Z</time>
      </trkpt>
      <trkpt lat="48.54955" lon="-2.94902">
        <ele>37</ele>
        <time>2013-12-02T16:00:14.1Z</time>
      </trkpt>
      <trkpt lat="48.54957" lon="-2.949">
        <ele>37</ele>
        <time>2013-12-02T16:00:16.1Z</time>
      </trkpt>
      <trkpt lat="48.5496" lon="-2.949">
        <ele>37</ele>
        <time>2013-12-02T16:00:18.1Z</time>
      </trkpt>
      <trkpt lat="48.54964" lon="-2.94899">
        <ele>37</ele>
        <time>2013-12-02T16:00:21.1Z</time>
      </trkpt>
      <trkpt lat="48.54966" lon="-2.94899">
        <ele>36</ele>
        <time>2013-12-02T16:00:23.1Z</time>
      </trkpt>
      <trkpt lat="48.54971" lon="-2.94897">
        <ele>36</ele>
        <time>2013-12-02T16:00:26.1Z</time>
      </trkpt>
      <trkpt lat="48.54973" lon="-2.94896">
        <ele>36</ele>
        <time>2013-12-02T16:00:28.1Z</time>
      </trkpt>
      <trkpt lat="48.54975" lon="-2.94896">
        <ele>36</ele>
        <time>2013-12-02T16:00:30.1Z</time>
      </trkpt>
      <trkpt lat="48.54978" lon="-2.94896">
        <ele>36</ele>
        <time>2013-12-02T16:00:32.1Z</time>
      </trkpt>
      <trkpt lat="48.54981" lon="-2.94895">
        <ele>36</ele>
        <time>2013-12-02T16:00:35.1Z</time>
      </trkpt>
      <trkpt lat="48.54985" lon="-2.94893">
        <ele>36</ele>
        <time>2013-12-02T16:00:38.1Z</time>
      </trkpt>
      <trkpt lat="48.54987" lon="-2.94893">
        <ele>36</ele>
        <time>2013-12-02T16:00:40.1Z</time>
      </trkpt>
      <trkpt lat="48.54991" lon="-2.94892">
        <ele>36</ele>
        <time>2013-12-02T16:00:43.1Z</time>
      </trkpt>
      <trkpt lat="48.54995" lon="-2.94891">
        <ele>36</ele>
        <time>2013-12-02T16:00:46.1Z</time>
      </trkpt>
      <trkpt lat="48.54997" lon="-2.9489">
        <ele>36</ele>
        <time>2013-12-02T16:00:48.1Z</time>
      </trkpt>
      <trkpt lat="48.55001" lon="-2.94891">
        <ele>36</ele>
        <time>2013-12-02T16:00:51.1Z</time>
      </trkpt>
      <trkpt lat="48.55003" lon="-2.94891">
        <ele>36</ele>
        <time>2013-12-02T16:00:53.1Z</time>
      </trkpt>
      <trkpt lat="48.55006" lon="-2.94891">
        <ele>36</ele>
        <time>2013-12-02T16:00:55.1Z</time>
      </trkpt>
      <trkpt lat="48.5501" lon="-2.94892">
        <ele>36</ele>
        <time>2013-12-02T16:00:58.1Z</time>
      </trkpt>
      <trkpt lat="48.55013" lon="-2.94893">
        <ele>36</ele>
        <time>2013-12-02T16:01:01.1Z</time>
      </trkpt>
      <trkpt lat="48.55016" lon="-2.94893">
        <ele>35</ele>
        <time>2013-12-02T16:01:03.1Z</time>
      </trkpt>
      <trkpt lat="48.55019" lon="-2.94894">
        <ele>35</ele>
        <time>2013-12-02T16:01:05.1Z</time>
      </trkpt>
      <trkpt lat="48.55022" lon="-2.94894">
        <ele>35</ele>
        <time>2013-12-02T16:01:08.1Z</time>
      </trkpt>
      <trkpt lat="48.55026" lon="-2.94895">
        <ele>35</ele>
        <time>2013-12-02T16:01:11.1Z</time>
      </trkpt>
      <trkpt lat="48.55028" lon="-2.94895">
        <ele>35</ele>
        <time>2013-12-02T16:01:13.1Z</time>
      </trkpt>
      <trkpt lat="48.5503" lon="-2.94896">
        <ele>36</ele>
        <time>2013-12-02T16:01:15.1Z</time>
      </trkpt>
      <trkpt lat="48.55033" lon="-2.94897">
        <ele>35</ele>
        <time>2013-12-02T16:01:17.1Z</time>
      </trkpt>
      <trkpt lat="48.55035" lon="-2.94897">
        <ele>35</ele>
        <time>2013-12-02T16:01:19.1Z</time>
      </trkpt>
      <trkpt lat="48.55038" lon="-2.94898">
        <ele>35</ele>
        <time>2013-12-02T16:01:21.1Z</time>
      </trkpt>
      <trkpt lat="48.55041" lon="-2.94901">
        <ele>35</ele>
        <time>2013-12-02T16:01:24.1Z</time>
      </trkpt>
      <trkpt lat="48.55045" lon="-2.94902">
        <ele>35</ele>
        <time>2013-12-02T16:01:27.1Z</time>
      </trkpt>
      <trkpt lat="48.55048" lon="-2.94904">
        <ele>35</ele>
        <time>2013-12-02T16:01:30.1Z</time>
      </trkpt>
      <trkpt lat="48.55051" lon="-2.94905">
        <ele>35</ele>
        <time>2013-12-02T16:01:32.1Z</time>
      </trkpt>
      <trkpt lat="48.55054" lon="-2.94906">
        <ele>35</ele>
        <time>2013-12-02T16:01:35.1Z</time>
      </trkpt>
      <trkpt lat="48.55057" lon="-2.94907">
        <ele>35</ele>
        <time>2013-12-02T16:01:37.1Z</time>
      </trkpt>
      <trkpt lat="48.55059" lon="-2.94908">
        <ele>35</ele>
        <time>2013-12-02T16:01:39.1Z</time>
      </trkpt>
      <trkpt lat="48.55063" lon="-2.9491">
        <ele>35</ele>
        <time>2013-12-02T16:01:42.1Z</time>
      </trkpt>
      <trkpt lat="48.55065" lon="-2.94911">
        <ele>35</ele>
        <time>2013-12-02T16:01:44.1Z</time>
      </trkpt>
      <trkpt lat="48.55067" lon="-2.94912">
        <ele>35</ele>
        <time>2013-12-02T16:01:46.1Z</time>
      </trkpt>
      <trkpt lat="48.55071" lon="-2.94914">
        <ele>35</ele>
        <time>2013-12-02T16:01:49.1Z</time>
      </trkpt>
      <trkpt lat="48.55075" lon="-2.94915">
        <ele>35</ele>
        <time>2013-12-02T16:01:52.1Z</time>
      </trkpt>
      <trkpt lat="48.55078" lon="-2.94916">
        <ele>34</ele>
        <time>2013-12-02T16:01:55.1Z</time>
      </trkpt>
      <trkpt lat="48.55081" lon="-2.94917">
        <ele>34</ele>
        <time>2013-12-02T16:01:57.1Z</time>
      </trkpt>
      <trkpt lat="48.55085" lon="-2.94918">
        <ele>34</ele>
        <time>2013-12-02T16:02:00.1Z</time>
      </trkpt>
      <trkpt lat="48.55087" lon="-2.94919">
        <ele>34</ele>
        <time>2013-12-02T16:02:02.1Z</time>
      </trkpt>
      <trkpt lat="48.5509" lon="-2.9492">
        <ele>34</ele>
        <time>2013-12-02T16:02:04.1Z</time>
      </trkpt>
      <trkpt lat="48.55092" lon="-2.94919">
        <ele>34</ele>
        <time>2013-12-02T16:02:06.1Z</time>
      </trkpt>
      <trkpt lat="48.55094" lon="-2.9492">
        <ele>34</ele>
        <time>2013-12-02T16:02:08.1Z</time>
      </trkpt>
      <trkpt lat="48.55097" lon="-2.94921">
        <ele>34</ele>
        <time>2013-12-02T16:02:11.1Z</time>
      </trkpt>
      <trkpt lat="48.55101" lon="-2.94922">
        <ele>34</ele>
        <time>2013-12-02T16:02:14.1Z</time>
      </trkpt>
      <trkpt lat="48.55104" lon="-2.94924">
        <ele>34</ele>
        <time>2013-12-02T16:02:17.1Z</time>
      </trkpt>
      <trkpt lat="48.55107" lon="-2.94924">
        <ele>34</ele>
        <time>2013-12-02T16:02:19.1Z</time>
      </trkpt>
      <trkpt lat="48.55111" lon="-2.94926">
        <ele>34</ele>
        <time>2013-12-02T16:02:22.1Z</time>
      </trkpt>
      <trkpt lat="48.55114" lon="-2.94926">
        <ele>34</ele>
        <time>2013-12-02T16:02:25.1Z</time>
      </trkpt>
      <trkpt lat="48.55119" lon="-2.94928">
        <ele>34</ele>
        <time>2013-12-02T16:02:28.1Z</time>
      </trkpt>
      <trkpt lat="48.55121" lon="-2.94928">
        <ele>34</ele>
        <time>2013-12-02T16:02:30.1Z</time>
      </trkpt>
      <trkpt lat="48.55123" lon="-2.94929">
        <ele>34</ele>
        <time>2013-12-02T16:02:32.1Z</time>
      </trkpt>
      <trkpt lat="48.55127" lon="-2.9493">
        <ele>33</ele>
        <time>2013-12-02T16:02:35.1Z</time>
      </trkpt>
      <trkpt lat="48.5513" lon="-2.9493">
        <ele>33</ele>
        <time>2013-12-02T16:02:37.1Z</time>
      </trkpt>
      <trkpt lat="48.55132" lon="-2.94931">
        <ele>33</ele>
        <time>2013-12-02T16:02:39.1Z</time>
      </trkpt>
      <trkpt lat="48.55136" lon="-2.94933">
        <ele>32</ele>
        <time>2013-12-02T16:02:42.1Z</time>
      </trkpt>
      <trkpt lat="48.55139" lon="-2.94934">
        <ele>32</ele>
        <time>2013-12-02T16:02:45.1Z</time>
      </trkpt>
      <trkpt lat="48.55141" lon="-2.94934">
        <ele>32</ele>
        <time>2013-12-02T16:02:47.1Z</time>
      </trkpt>
      <trkpt lat="48.55144" lon="-2.94935">
        <ele>32</ele>
        <time>2013-12-02T16:02:49.1Z</time>
      </trkpt>
      <trkpt lat="48.55146" lon="-2.94936">
        <ele>32</ele>
        <time>2013-12-02T16:02:51.1Z</time>
      </trkpt>
      <trkpt lat="48.55148" lon="-2.94936">
        <ele>32</ele>
        <time>2013-12-02T16:02:53.1Z</time>
      </trkpt>
      <trkpt lat="48.55152" lon="-2.94937">
        <ele>32</ele>
        <time>2013-12-02T16:02:56.1Z</time>
      </trkpt>
      <trkpt lat="48.55155" lon="-2.94937">
        <ele>32</ele>
        <time>2013-12-02T16:02:59.1Z</time>
      </trkpt>
      <trkpt lat="48.55158" lon="-2.94936">
        <ele>32</ele>
        <time>2013-12-02T16:03:02.1Z</time>
      </trkpt>
      <trkpt lat="48.5516" lon="-2.94936">
        <ele>32</ele>
        <time>2013-12-02T16:03:04.1Z</time>
      </trkpt>
      <trkpt lat="48.55162" lon="-2.94937">
        <ele>32</ele>
        <time>2013-12-02T16:03:06.1Z</time>
      </trkpt>
      <trkpt lat="48.55166" lon="-2.94935">
        <ele>32</ele>
        <time>2013-12-02T16:03:09.1Z</time>
      </trkpt>
      <trkpt lat="48.5517" lon="-2.94933">
        <ele>32</ele>
        <time>2013-12-02T16:03:12.1Z</time>
      </trkpt>
      <trkpt lat="48.55172" lon="-2.94931">
        <ele>32</ele>
        <time>2013-12-02T16:03:14.1Z</time>
      </trkpt>
      <trkpt lat="48.55174" lon="-2.94928">
        <ele>31</ele>
        <time>2013-12-02T16:03:16.1Z</time>
      </trkpt>
      <trkpt lat="48.55177" lon="-2.94924">
        <ele>31</ele>
        <time>2013-12-02T16:03:19.1Z</time>
      </trkpt>
      <trkpt lat="48.55179" lon="-2.94922">
        <ele>31</ele>
        <time>2013-12-02T16:03:21.1Z</time>
      </trkpt>
      <trkpt lat="48.55182" lon="-2.94918">
        <ele>31</ele>
        <time>2013-12-02T16:03:24.1Z</time>
      </trkpt>
      <trkpt lat="48.55183" lon="-2.94915">
        <ele>31</ele>
        <time>2013-12-02T16:03:26.1Z</time>
      </trkpt>
      <trkpt lat="48.55185" lon="-2.94912">
        <ele>31</ele>
        <time>2013-12-02T16:03:29.1Z</time>
      </trkpt>
      <trkpt lat="48.55188" lon="-2.94908">
        <ele>31</ele>
        <time>2013-12-02T16:03:32.1Z</time>
      </trkpt>
      <trkpt lat="48.55191" lon="-2.94905">
        <ele>31</ele>
        <time>2013-12-02T16:03:35.1Z</time>
      </trkpt>
      <trkpt lat="48.55194" lon="-2.94902">
        <ele>31</ele>
        <time>2013-12-02T16:03:38.1Z</time>
      </trkpt>
      <trkpt lat="48.55197" lon="-2.94899">
        <ele>31</ele>
        <time>2013-12-02T16:03:41.1Z</time>
      </trkpt>
      <trkpt lat="48.55199" lon="-2.94897">
        <ele>31</ele>
        <time>2013-12-02T16:03:43.1Z</time>
      </trkpt>
      <trkpt lat="48.55201" lon="-2.94895">
        <ele>31</ele>
        <time>2013-12-02T16:03:45.1Z</time>
      </trkpt>
      <trkpt lat="48.55204" lon="-2.9489">
        <ele>31</ele>
        <time>2013-12-02T16:03:48.1Z</time>
      </trkpt>
      <trkpt lat="48.55206" lon="-2.94887">
        <ele>31</ele>
        <time>2013-12-02T16:03:50.1Z</time>
      </trkpt>
      <trkpt lat="48.55207" lon="-2.94883">
        <ele>30</ele>
        <time>2013-12-02T16:03:53.1Z</time>
      </trkpt>
      <trkpt lat="48.5521" lon="-2.94879">
        <ele>30</ele>
        <time>2013-12-02T16:03:56.1Z</time>
      </trkpt>
      <trkpt lat="48.55212" lon="-2.94876">
        <ele>30</ele>
        <time>2013-12-02T16:03:58.1Z</time>
      </trkpt>
      <trkpt lat="48.55214" lon="-2.94872">
        <ele>30</ele>
        <time>2013-12-02T16:04:01.1Z</time>
      </trkpt>
      <trkpt lat="48.55216" lon="-2.94867">
        <ele>30</ele>
        <time>2013-12-02T16:04:04.1Z</time>
      </trkpt>
      <trkpt lat="48.55218" lon="-2.94863">
        <ele>30</ele>
        <time>2013-12-02T16:04:06.1Z</time>
      </trkpt>
      <trkpt lat="48.55219" lon="-2.9486">
        <ele>30</ele>
        <time>2013-12-02T16:04:08.1Z</time>
      </trkpt>
      <trkpt lat="48.5522" lon="-2.94857">
        <ele>30</ele>
        <time>2013-12-02T16:04:10.1Z</time>
      </trkpt>
      <trkpt lat="48.55221" lon="-2.94851">
        <ele>30</ele>
        <time>2013-12-02T16:04:13.1Z</time>
      </trkpt>
      <trkpt lat="48.55222" lon="-2.94847">
        <ele>30</ele>
        <time>2013-12-02T16:04:15.1Z</time>
      </trkpt>
      <trkpt lat="48.55223" lon="-2.94842">
        <ele>30</ele>
        <time>2013-12-02T16:04:18.1Z</time>
      </trkpt>
      <trkpt lat="48.55223" lon="-2.94836">
        <ele>30</ele>
        <time>2013-12-02T16:04:21.1Z</time>
      </trkpt>
      <trkpt lat="48.55225" lon="-2.94831">
        <ele>30</ele>
        <time>2013-12-02T16:04:24.1Z</time>
      </trkpt>
      <trkpt lat="48.55225" lon="-2.94825">
        <ele>30</ele>
        <time>2013-12-02T16:04:27.1Z</time>
      </trkpt>
      <trkpt lat="48.55226" lon="-2.94819">
        <ele>30</ele>
        <time>2013-12-02T16:04:30.1Z</time>
      </trkpt>
      <trkpt lat="48.55227" lon="-2.94813">
        <ele>29</ele>
        <time>2013-12-02T16:04:33.1Z</time>
      </trkpt>
      <trkpt lat="48.55228" lon="-2.94807">
        <ele>29</ele>
        <time>2013-12-02T16:04:36.1Z</time>
      </trkpt>
      <trkpt lat="48.55228" lon="-2.94804">
        <ele>29</ele>
        <time>2013-12-02T16:04:38.1Z</time>
      </trkpt>
      <trkpt lat="48.55228" lon="-2.94799">
        <ele>29</ele>
        <time>2013-12-02T16:04:41.1Z</time>
      </trkpt>
      <trkpt lat="48.5523" lon="-2.94797">
        <ele>29</ele>
        <time>2013-12-02T16:04:43.1Z</time>
      </trkpt>
      <trkpt lat="48.5523" lon="-2.94793">
        <ele>29</ele>
        <time>2013-12-02T16:04:46.1Z</time>
      </trkpt>
      <trkpt lat="48.55231" lon="-2.94788">
        <ele>29</ele>
        <time>2013-12-02T16:04:49.1Z</time>
      </trkpt>
      <trkpt lat="48.55232" lon="-2.94785">
        <ele>29</ele>
        <time>2013-12-02T16:04:51.1Z</time>
      </trkpt>
      <trkpt lat="48.55233" lon="-2.94779">
        <ele>29</ele>
        <time>2013-12-02T16:04:54.1Z</time>
      </trkpt>
      <trkpt lat="48.55233" lon="-2.94775">
        <ele>29</ele>
        <time>2013-12-02T16:04:56.1Z</time>
      </trkpt>
      <trkpt lat="48.55233" lon="-2.9477">
        <ele>29</ele>
        <time>2013-12-02T16:04:59.1Z</time>
      </trkpt>
      <trkpt lat="48.55234" lon="-2.94764">
        <ele>29</ele>
        <time>2013-12-02T16:05:02.1Z</time>
      </trkpt>
      <trkpt lat="48.55235" lon="-2.94758">
        <ele>29</ele>
        <time>2013-12-02T16:05:05.1Z</time>
      </trkpt>
      <trkpt lat="48.55235" lon="-2.94753">
        <ele>28</ele>
        <time>2013-12-02T16:05:08.1Z</time>
      </trkpt>
      <trkpt lat="48.55235" lon="-2.94749">
        <ele>28</ele>
        <time>2013-12-02T16:05:10.1Z</time>
      </trkpt>
      <trkpt lat="48.55236" lon="-2.94746">
        <ele>28</ele>
        <time>2013-12-02T16:05:12.1Z</time>
      </trkpt>
      <trkpt lat="48.55236" lon="-2.94743">
        <ele>28</ele>
        <time>2013-12-02T16:05:14.1Z</time>
      </trkpt>
      <trkpt lat="48.55236" lon="-2.94741">
        <ele>27</ele>
        <time>2013-12-02T16:05:17.1Z</time>
      </trkpt>
      <trkpt lat="48.55236" lon="-2.94739">
        <ele>28</ele>
        <time>2013-12-02T16:05:20.1Z</time>
      </trkpt>
      <trkpt lat="48.55237" lon="-2.94737">
        <ele>28</ele>
        <time>2013-12-02T16:05:22.1Z</time>
      </trkpt>
      <trkpt lat="48.55238" lon="-2.94732">
        <ele>28</ele>
        <time>2013-12-02T16:05:25.1Z</time>
      </trkpt>
      <trkpt lat="48.55238" lon="-2.94729">
        <ele>28</ele>
        <time>2013-12-02T16:05:27.1Z</time>
      </trkpt>
      <trkpt lat="48.55239" lon="-2.94724">
        <ele>28</ele>
        <time>2013-12-02T16:05:30.1Z</time>
      </trkpt>
      <trkpt lat="48.55239" lon="-2.94719">
        <ele>28</ele>
        <time>2013-12-02T16:05:33.1Z</time>
      </trkpt>
      <trkpt lat="48.5524" lon="-2.94716">
        <ele>28</ele>
        <time>2013-12-02T16:05:35.1Z</time>
      </trkpt>
      <trkpt lat="48.55242" lon="-2.94712">
        <ele>28</ele>
        <time>2013-12-02T16:05:38.1Z</time>
      </trkpt>
      <trkpt lat="48.55243" lon="-2.94709">
        <ele>27</ele>
        <time>2013-12-02T16:05:40.1Z</time>
      </trkpt>
      <trkpt lat="48.55244" lon="-2.94705">
        <ele>27</ele>
        <time>2013-12-02T16:05:43.1Z</time>
      </trkpt>
      <trkpt lat="48.55245" lon="-2.94702">
        <ele>27</ele>
        <time>2013-12-02T16:05:45.1Z</time>
      </trkpt>
      <trkpt lat="48.55246" lon="-2.94698">
        <ele>27</ele>
        <time>2013-12-02T16:05:48.1Z</time>
      </trkpt>
      <trkpt lat="48.55249" lon="-2.94694">
        <ele>27</ele>
        <time>2013-12-02T16:05:51.1Z</time>
      </trkpt>
      <trkpt lat="48.5525" lon="-2.94692">
        <ele>27</ele>
        <time>2013-12-02T16:05:53.1Z</time>
      </trkpt>
      <trkpt lat="48.55252" lon="-2.94689">
        <ele>27</ele>
        <time>2013-12-02T16:05:56.1Z</time>
      </trkpt>
      <trkpt lat="48.55254" lon="-2.94686">
        <ele>27</ele>
        <time>2013-12-02T16:05:58.1Z</time>
      </trkpt>
      <trkpt lat="48.55254" lon="-2.94681">
        <ele>27</ele>
        <time>2013-12-02T16:06:01.1Z</time>
      </trkpt>
      <trkpt lat="48.55254" lon="-2.94677">
        <ele>27</ele>
        <time>2013-12-02T16:06:03.1Z</time>
      </trkpt>
      <trkpt lat="48.55253" lon="-2.94672">
        <ele>27</ele>
        <time>2013-12-02T16:06:06.1Z</time>
      </trkpt>
      <trkpt lat="48.55252" lon="-2.94669">
        <ele>27</ele>
        <time>2013-12-02T16:06:08.1Z</time>
      </trkpt>
      <trkpt lat="48.55252" lon="-2.94667">
        <ele>27</ele>
        <time>2013-12-02T16:06:10.1Z</time>
      </trkpt>
      <trkpt lat="48.55251" lon="-2.94663">
        <ele>27</ele>
        <time>2013-12-02T16:06:13.1Z</time>
      </trkpt>
      <trkpt lat="48.5525" lon="-2.94662">
        <ele>27</ele>
        <time>2013-12-02T16:06:15.1Z</time>
      </trkpt>
      <trkpt lat="48.55249" lon="-2.94661">
        <ele>27</ele>
        <time>2013-12-02T16:06:17.1Z</time>
      </trkpt>
      <trkpt lat="48.55248" lon="-2.94659">
        <ele>27</ele>
        <time>2013-12-02T16:06:20.1Z</time>
      </trkpt>
      <trkpt lat="48.55246" lon="-2.94655">
        <ele>27</ele>
        <time>2013-12-02T16:06:23.1Z</time>
      </trkpt>
      <trkpt lat="48.55246" lon="-2.94654">
        <ele>27</ele>
        <time>2013-12-02T16:06:25.1Z</time>
      </trkpt>
      <trkpt lat="48.55245" lon="-2.94654">
        <ele>27</ele>
        <time>2013-12-02T16:06:27.1Z</time>
      </trkpt>
      <trkpt lat="48.55245" lon="-2.94654">
        <ele>27</ele>
        <time>2013-12-02T16:06:30.1Z</time>
      </trkpt>
      <trkpt lat="48.55245" lon="-2.94654">
        <ele>27</ele>
        <time>2013-12-02T16:06:32.1Z</time>
      </trkpt>
      <trkpt lat="48.55246" lon="-2.94654">
        <ele>27</ele>
        <time>2013-12-02T16:06:35.1Z</time>
      </trkpt>
      <trkpt lat="48.55246" lon="-2.94654">
        <ele>27</ele>
        <time>2013-12-02T16:06:38.1Z</time>
      </trkpt>
      <trkpt lat="48.55246" lon="-2.94653">
        <ele>27</ele>
        <time>2013-12-02T16:06:41.1Z</time>
      </trkpt>
      <trkpt lat="48.55245" lon="-2.94651">
        <ele>27</ele>
        <time>2013-12-02T16:06:44.1Z</time>
      </trkpt>
      <trkpt lat="48.55245" lon="-2.94648">
        <ele>27</ele>
        <time>2013-12-02T16:06:47.1Z</time>
      </trkpt>
      <trkpt lat="48.55245" lon="-2.94647">
        <ele>27</ele>
        <time>2013-12-02T16:06:49.1Z</time>
      </trkpt>
      <trkpt lat="48.55245" lon="-2.94646">
        <ele>27</ele>
        <time>2013-12-02T16:06:51.1Z</time>
      </trkpt>
      <trkpt lat="48.55245" lon="-2.94645">
        <ele>27</ele>
        <time>2013-12-02T16:06:53.1Z</time>
      </trkpt>
      <trkpt lat="48.55246" lon="-2.94646">
        <ele>27</ele>
        <time>2013-12-02T16:06:56.1Z</time>
      </trkpt>
      <trkpt lat="48.55245" lon="-2.94644">
        <ele>27</ele>
        <time>2013-12-02T16:06:59.1Z</time>
      </trkpt>
      <trkpt lat="48.55245" lon="-2.94643">
        <ele>27</ele>
        <time>2013-12-02T16:07:01.1Z</time>
      </trkpt>
      <trkpt lat="48.55245" lon="-2.94643">
        <ele>27</ele>
        <time>2013-12-02T16:07:03.1Z</time>
      </trkpt>
      <trkpt lat="48.55245" lon="-2.9464">
        <ele>27</ele>
        <time>2013-12-02T16:07:06.1Z</time>
      </trkpt>
      <trkpt lat="48.55245" lon="-2.94638">
        <ele>26</ele>
        <time>2013-12-02T16:07:08.1Z</time>
      </trkpt>
      <trkpt lat="48.55245" lon="-2.94636">
        <ele>26</ele>
        <time>2013-12-02T16:07:10.1Z</time>
      </trkpt>
      <trkpt lat="48.55244" lon="-2.94632">
        <ele>26</ele>
        <time>2013-12-02T16:07:13.1Z</time>
      </trkpt>
      <trkpt lat="48.55242" lon="-2.94627">
        <ele>26</ele>
        <time>2013-12-02T16:07:16.1Z</time>
      </trkpt>
      <trkpt lat="48.55241" lon="-2.94622">
        <ele>26</ele>
        <time>2013-12-02T16:07:19.1Z</time>
      </trkpt>
      <trkpt lat="48.5524" lon="-2.94619">
        <ele>26</ele>
        <time>2013-12-02T16:07:22.1Z</time>
      </trkpt>
      <trkpt lat="48.5524" lon="-2.94615">
        <ele>26</ele>
        <time>2013-12-02T16:07:24.1Z</time>
      </trkpt>
      <trkpt lat="48.5524" lon="-2.9461">
        <ele>26</ele>
        <time>2013-12-02T16:07:27.1Z</time>
      </trkpt>
      <trkpt lat="48.55239" lon="-2.94607">
        <ele>26</ele>
        <time>2013-12-02T16:07:29.1Z</time>
      </trkpt>
      <trkpt lat="48.55239" lon="-2.94602">
        <ele>26</ele>
        <time>2013-12-02T16:07:32.1Z</time>
      </trkpt>
      <trkpt lat="48.55239" lon="-2.94599">
        <ele>26</ele>
        <time>2013-12-02T16:07:34.1Z</time>
      </trkpt>
      <trkpt lat="48.55239" lon="-2.94596">
        <ele>25</ele>
        <time>2013-12-02T16:07:36.1Z</time>
      </trkpt>
      <trkpt lat="48.55238" lon="-2.94591">
        <ele>25</ele>
        <time>2013-12-02T16:07:39.1Z</time>
      </trkpt>
      <trkpt lat="48.55238" lon="-2.94587">
        <ele>25</ele>
        <time>2013-12-02T16:07:42.1Z</time>
      </trkpt>
      <trkpt lat="48.55238" lon="-2.94582">
        <ele>25</ele>
        <time>2013-12-02T16:07:45.1Z</time>
      </trkpt>
      <trkpt lat="48.55239" lon="-2.9458">
        <ele>25</ele>
        <time>2013-12-02T16:07:47.1Z</time>
      </trkpt>
      <trkpt lat="48.55239" lon="-2.94575">
        <ele>25</ele>
        <time>2013-12-02T16:07:50.1Z</time>
      </trkpt>
      <trkpt lat="48.55241" lon="-2.94573">
        <ele>25</ele>
        <time>2013-12-02T16:07:52.1Z</time>
      </trkpt>
      <trkpt lat="48.55242" lon="-2.9457">
        <ele>25</ele>
        <time>2013-12-02T16:07:54.1Z</time>
      </trkpt>
      <trkpt lat="48.55244" lon="-2.94568">
        <ele>25</ele>
        <time>2013-12-02T16:07:56.1Z</time>
      </trkpt>
      <trkpt lat="48.55246" lon="-2.94566">
        <ele>25</ele>
        <time>2013-12-02T16:07:59.1Z</time>
      </trkpt>
      <trkpt lat="48.55248" lon="-2.94566">
        <ele>25</ele>
        <time>2013-12-02T16:08:01.1Z</time>
      </trkpt>
      <trkpt lat="48.55251" lon="-2.94565">
        <ele>25</ele>
        <time>2013-12-02T16:08:03.1Z</time>
      </trkpt>
      <trkpt lat="48.55254" lon="-2.94562">
        <ele>24</ele>
        <time>2013-12-02T16:08:06.1Z</time>
      </trkpt>
      <trkpt lat="48.55256" lon="-2.94561">
        <ele>24</ele>
        <time>2013-12-02T16:08:08.1Z</time>
      </trkpt>
      <trkpt lat="48.55259" lon="-2.94559">
        <ele>24</ele>
        <time>2013-12-02T16:08:11.1Z</time>
      </trkpt>
      <trkpt lat="48.55262" lon="-2.94558">
        <ele>24</ele>
        <time>2013-12-02T16:08:14.1Z</time>
      </trkpt>
      <trkpt lat="48.55264" lon="-2.94557">
        <ele>24</ele>
        <time>2013-12-02T16:08:16.1Z</time>
      </trkpt>
      <trkpt lat="48.55267" lon="-2.94555">
        <ele>24</ele>
        <time>2013-12-02T16:08:19.1Z</time>
      </trkpt>
      <trkpt lat="48.5527" lon="-2.94553">
        <ele>24</ele>
        <time>2013-12-02T16:08:22.1Z</time>
      </trkpt>
      <trkpt lat="48.55272" lon="-2.94551">
        <ele>24</ele>
        <time>2013-12-02T16:08:24.1Z</time>
      </trkpt>
      <trkpt lat="48.55274" lon="-2.94549">
        <ele>24</ele>
        <time>2013-12-02T16:08:26.1Z</time>
      </trkpt>
      <trkpt lat="48.55276" lon="-2.94546">
        <ele>24</ele>
        <time>2013-12-02T16:08:28.1Z</time>
      </trkpt>
      <trkpt lat="48.55279" lon="-2.94542">
        <ele>24</ele>
        <time>2013-12-02T16:08:31.1Z</time>
      </trkpt>
      <trkpt lat="48.55281" lon="-2.94537">
        <ele>24</ele>
        <time>2013-12-02T16:08:34.1Z</time>
      </trkpt>
      <trkpt lat="48.55283" lon="-2.94533">
        <ele>24</ele>
        <time>2013-12-02T16:08:37.1Z</time>
      </trkpt>
      <trkpt lat="48.55285" lon="-2.94531">
        <ele>24</ele>
        <time>2013-12-02T16:08:40.1Z</time>
      </trkpt>
      <trkpt lat="48.55286" lon="-2.94531">
        <ele>24</ele>
        <time>2013-12-02T16:08:43.1Z</time>
      </trkpt>
      <trkpt lat="48.55286" lon="-2.9453">
        <ele>24</ele>
        <time>2013-12-02T16:08:45.1Z</time>
      </trkpt>
      <trkpt lat="48.55288" lon="-2.94525">
        <ele>24</ele>
        <time>2013-12-02T16:08:48.1Z</time>
      </trkpt>
      <trkpt lat="48.55289" lon="-2.94521">
        <ele>24</ele>
        <time>2013-12-02T16:08:51.1Z</time>
      </trkpt>
      <trkpt lat="48.55292" lon="-2.94516">
        <ele>24</ele>
        <time>2013-12-02T16:08:54.1Z</time>
      </trkpt>
      <trkpt lat="48.55294" lon="-2.94514">
        <ele>23</ele>
        <time>2013-12-02T16:08:56.1Z</time>
      </trkpt>
      <trkpt lat="48.55297" lon="-2.9451">
        <ele>23</ele>
        <time>2013-12-02T16:08:59.1Z</time>
      </trkpt>
      <trkpt lat="48.553" lon="-2.94506">
        <ele>23</ele>
        <time>2013-12-02T16:09:02.1Z</time>
      </trkpt>
      <trkpt lat="48.55302" lon="-2.94504">
        <ele>23</ele>
        <time>2013-12-02T16:09:04.1Z</time>
      </trkpt>
      <trkpt lat="48.55305" lon="-2.945">
        <ele>23</ele>
        <time>2013-12-02T16:09:07.1Z</time>
      </trkpt>
      <trkpt lat="48.55307" lon="-2.94498">
        <ele>23</ele>
        <time>2013-12-02T16:09:09.1Z</time>
      </trkpt>
      <trkpt lat="48.5531" lon="-2.94495">
        <ele>23</ele>
        <time>2013-12-02T16:09:12.1Z</time>
      </trkpt>
      <trkpt lat="48.55312" lon="-2.94493">
        <ele>23</ele>
        <time>2013-12-02T16:09:14.1Z</time>
      </trkpt>
      <trkpt lat="48.55314" lon="-2.94492">
        <ele>23</ele>
        <time>2013-12-02T16:09:16.1Z</time>
      </trkpt>
      <trkpt lat="48.55317" lon="-2.94489">
        <ele>23</ele>
        <time>2013-12-02T16:09:19.1Z</time>
      </trkpt>
      <trkpt lat="48.5532" lon="-2.94487">
        <ele>23</ele>
        <time>2013-12-02T16:09:21.1Z</time>
      </trkpt>
      <trkpt lat="48.55322" lon="-2.94486">
        <ele>23</ele>
        <time>2013-12-02T16:09:23.1Z</time>
      </trkpt>
      <trkpt lat="48.55323" lon="-2.94484">
        <ele>23</ele>
        <time>2013-12-02T16:09:25.1Z</time>
      </trkpt>
      <trkpt lat="48.55326" lon="-2.94482">
        <ele>23</ele>
        <time>2013-12-02T16:09:28.1Z</time>
      </trkpt>
      <trkpt lat="48.55328" lon="-2.9448">
        <ele>23</ele>
        <time>2013-12-02T16:09:30.1Z</time>
      </trkpt>
      <trkpt lat="48.55331" lon="-2.94478">
        <ele>23</ele>
        <time>2013-12-02T16:09:32.1Z</time>
      </trkpt>
      <trkpt lat="48.55333" lon="-2.94476">
        <ele>22</ele>
        <time>2013-12-02T16:09:35.1Z</time>
      </trkpt>
      <trkpt lat="48.55334" lon="-2.94476">
        <ele>22</ele>
        <time>2013-12-02T16:09:37.1Z</time>
      </trkpt>
      <trkpt lat="48.55338" lon="-2.94473">
        <ele>22</ele>
        <time>2013-12-02T16:09:40.1Z</time>
      </trkpt>
      <trkpt lat="48.55341" lon="-2.94471">
        <ele>22</ele>
        <time>2013-12-02T16:09:43.1Z</time>
      </trkpt>
      <trkpt lat="48.55344" lon="-2.94469">
        <ele>22</ele>
        <time>2013-12-02T16:09:46.1Z</time>
      </trkpt>
      <trkpt lat="48.55347" lon="-2.94468">
        <ele>22</ele>
        <time>2013-12-02T16:09:48.1Z</time>
      </trkpt>
      <trkpt lat="48.55349" lon="-2.94468">
        <ele>22</ele>
        <time>2013-12-02T16:09:50.1Z</time>
      </trkpt>
      <trkpt lat="48.55352" lon="-2.94467">
        <ele>22</ele>
        <time>2013-12-02T16:09:53.1Z</time>
      </trkpt>
      <trkpt lat="48.55354" lon="-2.94467">
        <ele>21</ele>
        <time>2013-12-02T16:09:55.1Z</time>
      </trkpt>
      <trkpt lat="48.55355" lon="-2.94467">
        <ele>21</ele>
        <time>2013-12-02T16:09:57.1Z</time>
      </trkpt>
      <trkpt lat="48.55358" lon="-2.94467">
        <ele>21</ele>
        <time>2013-12-02T16:10:00.1Z</time>
      </trkpt>
      <trkpt lat="48.55361" lon="-2.94466">
        <ele>22</ele>
        <time>2013-12-02T16:10:03.1Z</time>
      </trkpt>
      <trkpt lat="48.55364" lon="-2.94466">
        <ele>22</ele>
        <time>2013-12-02T16:10:06.1Z</time>
      </trkpt>
      <trkpt lat="48.55367" lon="-2.94467">
        <ele>21</ele>
        <time>2013-12-02T16:10:09.1Z</time>
      </trkpt>
      <trkpt lat="48.55371" lon="-2.94467">
        <ele>21</ele>
        <time>2013-12-02T16:10:12.1Z</time>
      </trkpt>
      <trkpt lat="48.55373" lon="-2.94467">
        <ele>21</ele>
        <time>2013-12-02T16:10:14.1Z</time>
      </trkpt>
      <trkpt lat="48.55377" lon="-2.94466">
        <ele>21</ele>
        <time>2013-12-02T16:10:17.1Z</time>
      </trkpt>
      <trkpt lat="48.5538" lon="-2.94466">
        <ele>20</ele>
        <time>2013-12-02T16:10:19.1Z</time>
      </trkpt>
      <trkpt lat="48.55384" lon="-2.94466">
        <ele>21</ele>
        <time>2013-12-02T16:10:22.1Z</time>
      </trkpt>
      <trkpt lat="48.55386" lon="-2.94465">
        <ele>21</ele>
        <time>2013-12-02T16:10:24.1Z</time>
      </trkpt>
      <trkpt lat="48.5539" lon="-2.94466">
        <ele>21</ele>
        <time>2013-12-02T16:10:27.1Z</time>
      </trkpt>
      <trkpt lat="48.55392" lon="-2.94467">
        <ele>21</ele>
        <time>2013-12-02T16:10:29.1Z</time>
      </trkpt>
      <trkpt lat="48.55394" lon="-2.94468">
        <ele>21</ele>
        <time>2013-12-02T16:10:31.1Z</time>
      </trkpt>
      <trkpt lat="48.55397" lon="-2.94471">
        <ele>21</ele>
        <time>2013-12-02T16:10:34.1Z</time>
      </trkpt>
      <trkpt lat="48.55399" lon="-2.94473">
        <ele>21</ele>
        <time>2013-12-02T16:10:37.1Z</time>
      </trkpt>
      <trkpt lat="48.55402" lon="-2.94473">
        <ele>21</ele>
        <time>2013-12-02T16:10:39.1Z</time>
      </trkpt>
      <trkpt lat="48.55405" lon="-2.94475">
        <ele>21</ele>
        <time>2013-12-02T16:10:42.1Z</time>
      </trkpt>
      <trkpt lat="48.55407" lon="-2.94476">
        <ele>21</ele>
        <time>2013-12-02T16:10:44.1Z</time>
      </trkpt>
      <trkpt lat="48.55411" lon="-2.94476">
        <ele>21</ele>
        <time>2013-12-02T16:10:47.1Z</time>
      </trkpt>
      <trkpt lat="48.55412" lon="-2.94477">
        <ele>21</ele>
        <time>2013-12-02T16:10:49.1Z</time>
      </trkpt>
      <trkpt lat="48.55415" lon="-2.94479">
        <ele>21</ele>
        <time>2013-12-02T16:10:52.1Z</time>
      </trkpt>
      <trkpt lat="48.55418" lon="-2.94481">
        <ele>21</ele>
        <time>2013-12-02T16:10:55.1Z</time>
      </trkpt>
      <trkpt lat="48.5542" lon="-2.94483">
        <ele>21</ele>
        <time>2013-12-02T16:10:57.1Z</time>
      </trkpt>
      <trkpt lat="48.55423" lon="-2.94486">
        <ele>21</ele>
        <time>2013-12-02T16:11:00.1Z</time>
      </trkpt>
      <trkpt lat="48.55425" lon="-2.94489">
        <ele>21</ele>
        <time>2013-12-02T16:11:03.1Z</time>
      </trkpt>
      <trkpt lat="48.55428" lon="-2.94491">
        <ele>21</ele>
        <time>2013-12-02T16:11:05.1Z</time>
      </trkpt>
      <trkpt lat="48.55431" lon="-2.9449">
        <ele>21</ele>
        <time>2013-12-02T16:11:08.1Z</time>
      </trkpt>
      <trkpt lat="48.55434" lon="-2.94489">
        <ele>21</ele>
        <time>2013-12-02T16:11:11.1Z</time>
      </trkpt>
      <trkpt lat="48.55436" lon="-2.94489">
        <ele>21</ele>
        <time>2013-12-02T16:11:14.1Z</time>
      </trkpt>
      <trkpt lat="48.55439" lon="-2.94489">
        <ele>21</ele>
        <time>2013-12-02T16:11:16.1Z</time>
      </trkpt>
      <trkpt lat="48.55441" lon="-2.94489">
        <ele>21</ele>
        <time>2013-12-02T16:11:18.1Z</time>
      </trkpt>
      <trkpt lat="48.55444" lon="-2.94491">
        <ele>21</ele>
        <time>2013-12-02T16:11:20.1Z</time>
      </trkpt>
      <trkpt lat="48.55447" lon="-2.94493">
        <ele>20</ele>
        <time>2013-12-02T16:11:23.1Z</time>
      </trkpt>
      <trkpt lat="48.55449" lon="-2.94494">
        <ele>20</ele>
        <time>2013-12-02T16:11:25.1Z</time>
      </trkpt>
      <trkpt lat="48.55452" lon="-2.94497">
        <ele>20</ele>
        <time>2013-12-02T16:11:28.1Z</time>
      </trkpt>
      <trkpt lat="48.55454" lon="-2.94499">
        <ele>21</ele>
        <time>2013-12-02T16:11:30.1Z</time>
      </trkpt>
      <trkpt lat="48.55457" lon="-2.94503">
        <ele>20</ele>
        <time>2013-12-02T16:11:33.1Z</time>
      </trkpt>
      <trkpt lat="48.55459" lon="-2.94507">
        <ele>21</ele>
        <time>2013-12-02T16:11:36.1Z</time>
      </trkpt>
      <trkpt lat="48.55461" lon="-2.9451">
        <ele>21</ele>
        <time>2013-12-02T16:11:38.1Z</time>
      </trkpt>
      <trkpt lat="48.55463" lon="-2.94512">
        <ele>21</ele>
        <time>2013-12-02T16:11:40.1Z</time>
      </trkpt>
      <trkpt lat="48.55465" lon="-2.94513">
        <ele>21</ele>
        <time>2013-12-02T16:11:42.1Z</time>
      </trkpt>
      <trkpt lat="48.55468" lon="-2.94514">
        <ele>21</ele>
        <time>2013-12-02T16:11:45.1Z</time>
      </trkpt>
      <trkpt lat="48.5547" lon="-2.94517">
        <ele>20</ele>
        <time>2013-12-02T16:11:48.1Z</time>
      </trkpt>
      <trkpt lat="48.55471" lon="-2.9452">
        <ele>21</ele>
        <time>2013-12-02T16:11:50.1Z</time>
      </trkpt>
      <trkpt lat="48.55473" lon="-2.94524">
        <ele>21</ele>
        <time>2013-12-02T16:11:53.1Z</time>
      </trkpt>
      <trkpt lat="48.55474" lon="-2.94527">
        <ele>20</ele>
        <time>2013-12-02T16:11:55.1Z</time>
      </trkpt>
      <trkpt lat="48.55477" lon="-2.94531">
        <ele>20</ele>
        <time>2013-12-02T16:11:58.1Z</time>
      </trkpt>
      <trkpt lat="48.55479" lon="-2.94534">
        <ele>20</ele>
        <time>2013-12-02T16:12:01.1Z</time>
      </trkpt>
      <trkpt lat="48.5548" lon="-2.94537">
        <ele>21</ele>
        <time>2013-12-02T16:12:03.1Z</time>
      </trkpt>
      <trkpt lat="48.55482" lon="-2.9454">
        <ele>21</ele>
        <time>2013-12-02T16:12:06.1Z</time>
      </trkpt>
      <trkpt lat="48.55485" lon="-2.94542">
        <ele>21</ele>
        <time>2013-12-02T16:12:09.1Z</time>
      </trkpt>
      <trkpt lat="48.55486" lon="-2.9454">
        <ele>21</ele>
        <time>2013-12-02T16:12:11.1Z</time>
      </trkpt>
      <trkpt lat="48.55487" lon="-2.94536">
        <ele>21</ele>
        <time>2013-12-02T16:12:14.1Z</time>
      </trkpt>
      <trkpt lat="48.55488" lon="-2.94531">
        <ele>21</ele>
        <time>2013-12-02T16:12:17.1Z</time>
      </trkpt>
      <trkpt lat="48.5549" lon="-2.94532">
        <ele>21</ele>
        <time>2013-12-02T16:12:20.1Z</time>
      </trkpt>
      <trkpt lat="48.55491" lon="-2.94532">
        <ele>21</ele>
        <time>2013-12-02T16:12:23.1Z</time>
      </trkpt>
      <trkpt lat="48.55491" lon="-2.94532">
        <ele>21</ele>
        <time>2013-12-02T16:12:26.1Z</time>
      </trkpt>
      <trkpt lat="48.55492" lon="-2.94531">
        <ele>21</ele>
        <time>2013-12-02T16:12:29.1Z</time>
      </trkpt>
      <trkpt lat="48.55493" lon="-2.9453">
        <ele>21</ele>
        <time>2013-12-02T16:12:32.1Z</time>
      </trkpt>
      <trkpt lat="48.55493" lon="-2.9453">
        <ele>21</ele>
        <time>2013-12-02T16:12:34.1Z</time>
      </trkpt>
      <trkpt lat="48.55494" lon="-2.9453">
        <ele>21</ele>
        <time>2013-12-02T16:12:37.1Z</time>
      </trkpt>
      <trkpt lat="48.55494" lon="-2.9453">
        <ele>21</ele>
        <time>2013-12-02T16:12:39.1Z</time>
      </trkpt>
      <trkpt lat="48.55494" lon="-2.9453">
        <ele>21</ele>
        <time>2013-12-02T16:12:41.1Z</time>
      </trkpt>
      <trkpt lat="48.55495" lon="-2.9453">
        <ele>21</ele>
        <time>2013-12-02T16:12:44.1Z</time>
      </trkpt>
      <trkpt lat="48.55496" lon="-2.94528">
        <ele>21</ele>
        <time>2013-12-02T16:12:46.1Z</time>
      </trkpt>
      <trkpt lat="48.55497" lon="-2.94526">
        <ele>21</ele>
        <time>2013-12-02T16:12:49.1Z</time>
      </trkpt>
      <trkpt lat="48.55498" lon="-2.94526">
        <ele>21</ele>
        <time>2013-12-02T16:12:51.1Z</time>
      </trkpt>
      <trkpt lat="48.55499" lon="-2.94525">
        <ele>21</ele>
        <time>2013-12-02T16:12:53.1Z</time>
      </trkpt>
      <trkpt lat="48.55501" lon="-2.94525">
        <ele>21</ele>
        <time>2013-12-02T16:12:55.1Z</time>
      </trkpt>
      <trkpt lat="48.55504" lon="-2.94526">
        <ele>21</ele>
        <time>2013-12-02T16:12:57.1Z</time>
      </trkpt>
      <trkpt lat="48.55507" lon="-2.9453">
        <ele>21</ele>
        <time>2013-12-02T16:13:00.1Z</time>
      </trkpt>
      <trkpt lat="48.55509" lon="-2.94532">
        <ele>21</ele>
        <time>2013-12-02T16:13:02.1Z</time>
      </trkpt>
      <trkpt lat="48.55512" lon="-2.94535">
        <ele>21</ele>
        <time>2013-12-02T16:13:05.1Z</time>
      </trkpt>
      <trkpt lat="48.55516" lon="-2.94535">
        <ele>20</ele>
        <time>2013-12-02T16:13:08.1Z</time>
      </trkpt>
      <trkpt lat="48.5552" lon="-2.94534">
        <ele>20</ele>
        <time>2013-12-02T16:13:11.1Z</time>
      </trkpt>
      <trkpt lat="48.55523" lon="-2.94533">
        <ele>20</ele>
        <time>2013-12-02T16:13:14.1Z</time>
      </trkpt>
      <trkpt lat="48.55526" lon="-2.94534">
        <ele>20</ele>
        <time>2013-12-02T16:13:17.1Z</time>
      </trkpt>
      <trkpt lat="48.55528" lon="-2.94535">
        <ele>20</ele>
        <time>2013-12-02T16:13:19.1Z</time>
      </trkpt>
      <trkpt lat="48.5553" lon="-2.94536">
        <ele>21</ele>
        <time>2013-12-02T16:13:21.1Z</time>
      </trkpt>
      <trkpt lat="48.55534" lon="-2.94536">
        <ele>20</ele>
        <time>2013-12-02T16:13:24.1Z</time>
      </trkpt>
      <trkpt lat="48.55536" lon="-2.94535">
        <ele>20</ele>
        <time>2013-12-02T16:13:26.1Z</time>
      </trkpt>
      <trkpt lat="48.55538" lon="-2.94535">
        <ele>20</ele>
        <time>2013-12-02T16:13:29.1Z</time>
      </trkpt>
      <trkpt lat="48.5554" lon="-2.94537">
        <ele>20</ele>
        <time>2013-12-02T16:13:32.1Z</time>
      </trkpt>
      <trkpt lat="48.55542" lon="-2.94539">
        <ele>20</ele>
        <time>2013-12-02T16:13:35.1Z</time>
      </trkpt>
      <trkpt lat="48.55544" lon="-2.94541">
        <ele>20</ele>
        <time>2013-12-02T16:13:37.1Z</time>
      </trkpt>
      <trkpt lat="48.55546" lon="-2.94541">
        <ele>20</ele>
        <time>2013-12-02T16:13:39.1Z</time>
      </trkpt>
      <trkpt lat="48.55548" lon="-2.94542">
        <ele>20</ele>
        <time>2013-12-02T16:13:42.1Z</time>
      </trkpt>
      <trkpt lat="48.55552" lon="-2.94545">
        <ele>20</ele>
        <time>2013-12-02T16:13:45.1Z</time>
      </trkpt>
      <trkpt lat="48.55554" lon="-2.94545">
        <ele>20</ele>
        <time>2013-12-02T16:13:47.1Z</time>
      </trkpt>
      <trkpt lat="48.55557" lon="-2.94547">
        <ele>20</ele>
        <time>2013-12-02T16:13:50.1Z</time>
      </trkpt>
      <trkpt lat="48.5556" lon="-2.94549">
        <ele>20</ele>
        <time>2013-12-02T16:13:53.1Z</time>
      </trkpt>
      <trkpt lat="48.55564" lon="-2.9455">
        <ele>20</ele>
        <time>2013-12-02T16:13:56.1Z</time>
      </trkpt>
      <trkpt lat="48.55566" lon="-2.94551">
        <ele>20</ele>
        <time>2013-12-02T16:13:58.1Z</time>
      </trkpt>
      <trkpt lat="48.55568" lon="-2.94552">
        <ele>20</ele>
        <time>2013-12-02T16:14:00.1Z</time>
      </trkpt>
      <trkpt lat="48.5557" lon="-2.94554">
        <ele>19</ele>
        <time>2013-12-02T16:14:02.1Z</time>
      </trkpt>
      <trkpt lat="48.55572" lon="-2.94558">
        <ele>19</ele>
        <time>2013-12-02T16:14:05.1Z</time>
      </trkpt>
      <trkpt lat="48.55574" lon="-2.94561">
        <ele>19</ele>
        <time>2013-12-02T16:14:07.1Z</time>
      </trkpt>
      <trkpt lat="48.55575" lon="-2.94563">
        <ele>19</ele>
        <time>2013-12-02T16:14:09.1Z</time>
      </trkpt>
      <trkpt lat="48.55577" lon="-2.94567">
        <ele>19</ele>
        <time>2013-12-02T16:14:12.1Z</time>
      </trkpt>
      <trkpt lat="48.55578" lon="-2.9457">
        <ele>19</ele>
        <time>2013-12-02T16:14:14.1Z</time>
      </trkpt>
      <trkpt lat="48.55581" lon="-2.94574">
        <ele>19</ele>
        <time>2013-12-02T16:14:17.1Z</time>
      </trkpt>
      <trkpt lat="48.55582" lon="-2.94579">
        <ele>19</ele>
        <time>2013-12-02T16:14:20.1Z</time>
      </trkpt>
      <trkpt lat="48.55583" lon="-2.94582">
        <ele>19</ele>
        <time>2013-12-02T16:14:22.1Z</time>
      </trkpt>
      <trkpt lat="48.55585" lon="-2.94586">
        <ele>19</ele>
        <time>2013-12-02T16:14:25.1Z</time>
      </trkpt>
      <trkpt lat="48.55588" lon="-2.9459">
        <ele>19</ele>
        <time>2013-12-02T16:14:28.1Z</time>
      </trkpt>
      <trkpt lat="48.55589" lon="-2.94592">
        <ele>19</ele>
        <time>2013-12-02T16:14:30.1Z</time>
      </trkpt>
      <trkpt lat="48.55591" lon="-2.94593">
        <ele>18</ele>
        <time>2013-12-02T16:14:32.1Z</time>
      </trkpt>
      <trkpt lat="48.55593" lon="-2.94595">
        <ele>18</ele>
        <time>2013-12-02T16:14:35.1Z</time>
      </trkpt>
      <trkpt lat="48.55595" lon="-2.94598">
        <ele>18</ele>
        <time>2013-12-02T16:14:38.1Z</time>
      </trkpt>
      <trkpt lat="48.55597" lon="-2.946">
        <ele>18</ele>
        <time>2013-12-02T16:14:40.1Z</time>
      </trkpt>
      <trkpt lat="48.556" lon="-2.94601">
        <ele>18</ele>
        <time>2013-12-02T16:14:43.1Z</time>
      </trkpt>
      <trkpt lat="48.55602" lon="-2.94602">
        <ele>18</ele>
        <time>2013-12-02T16:14:45.1Z</time>
      </trkpt>
      <trkpt lat="48.55604" lon="-2.94604">
        <ele>18</ele>
        <time>2013-12-02T16:14:48.1Z</time>
      </trkpt>
      <trkpt lat="48.55606" lon="-2.94606">
        <ele>18</ele>
        <time>2013-12-02T16:14:50.1Z</time>
      </trkpt>
      <trkpt lat="48.55608" lon="-2.94607">
        <ele>18</ele>
        <time>2013-12-02T16:14:52.1Z</time>
      </trkpt>
      <trkpt lat="48.55609" lon="-2.94609">
        <ele>18</ele>
        <time>2013-12-02T16:14:55.1Z</time>
      </trkpt>
      <trkpt lat="48.5561" lon="-2.94609">
        <ele>18</ele>
        <time>2013-12-02T16:14:57.1Z</time>
      </trkpt>
      <trkpt lat="48.55612" lon="-2.94612">
        <ele>18</ele>
        <time>2013-12-02T16:15:00.1Z</time>
      </trkpt>
      <trkpt lat="48.55614" lon="-2.94613">
        <ele>18</ele>
        <time>2013-12-02T16:15:02.1Z</time>
      </trkpt>
      <trkpt lat="48.55616" lon="-2.94615">
        <ele>18</ele>
        <time>2013-12-02T16:15:04.1Z</time>
      </trkpt>
    </trkseg>
  </trk>
</gpx>